<?xml version="1.0" encoding="UTF-8"?>
<gpx version="1.1" creator="https://www.youtrack.es" xsi:schemaLocation="http://www.topografix.com/GPX/1/1 http://www.topografix.com/GPX/1/1/gpx.xsd http://www.garmin.com/xmlschemas/GpxExtensions/v3 http://www.garmin.com/xmlschemas/GpxExtensionsv3.xsd http://www.garmin.com/xmlschemas/TrackPointExtension/v1 http://www.garmin.com/xmlschemas/TrackPointExtensionv1.xsd" xmlns:gpxtpx="http://www.garmin.com/xmlschemas/TrackPointExtension/v1" xmlns:gpxx="http://www.garmin.com/xmlschemas/GpxExtensions/v3" xmlns:xsi="http://www.w3.org/2001/XMLSchema-instance">
  <metadata>
    <link href="https://www.youtrack.es">
      <text>YouTrack.es</text>
    </link>
    <time>2026-05-08T23:43:09Z</time>
  </metadata>
  <trk>
    <src>https://www.youtrack.es</src>
    <link href="https://www.youtrack.es/ruta/6852-madpixbtt-2019">
      <text>YouTrack.es</text>
    </link>
    <trkseg>
      <trkpt lat="38.5347410" lon="-28.5273480">
        <ele>9.4</ele>
        <time>2019-07-07T08:02:46Z</time>
      </trkpt>
      <trkpt lat="38.5347510" lon="-28.5274720">
        <ele>9.1</ele>
        <time>2019-07-07T08:02:47Z</time>
      </trkpt>
      <trkpt lat="38.5347480" lon="-28.5275360">
        <ele>8.9</ele>
        <time>2019-07-07T08:02:49Z</time>
      </trkpt>
      <trkpt lat="38.5347400" lon="-28.5276820">
        <ele>8.6</ele>
        <time>2019-07-07T08:02:51Z</time>
      </trkpt>
      <trkpt lat="38.5347300" lon="-28.5279260">
        <ele>8.3</ele>
        <time>2019-07-07T08:02:54Z</time>
      </trkpt>
      <trkpt lat="38.5347170" lon="-28.5280900">
        <ele>7.8</ele>
        <time>2019-07-07T08:02:56Z</time>
      </trkpt>
      <trkpt lat="38.5346710" lon="-28.5284170">
        <ele>6.9</ele>
        <time>2019-07-07T08:02:59Z</time>
      </trkpt>
      <trkpt lat="38.5346540" lon="-28.5285030">
        <ele>6.7</ele>
        <time>2019-07-07T08:03:01Z</time>
      </trkpt>
      <trkpt lat="38.5346400" lon="-28.5285920">
        <ele>6.4</ele>
        <time>2019-07-07T08:03:02Z</time>
      </trkpt>
      <trkpt lat="38.5346420" lon="-28.5287750">
        <ele>5.5</ele>
        <time>2019-07-07T08:03:04Z</time>
      </trkpt>
      <trkpt lat="38.5346630" lon="-28.5288640">
        <ele>4.8</ele>
        <time>2019-07-07T08:03:05Z</time>
      </trkpt>
      <trkpt lat="38.5347900" lon="-28.5291020">
        <ele>2.1</ele>
        <time>2019-07-07T08:03:08Z</time>
      </trkpt>
      <trkpt lat="38.5351000" lon="-28.5291810">
        <ele>2.0</ele>
        <time>2019-07-07T08:03:11Z</time>
      </trkpt>
      <trkpt lat="38.5351390" lon="-28.5291670">
        <ele>2.2</ele>
        <time>2019-07-07T08:03:12Z</time>
      </trkpt>
      <trkpt lat="38.5351780" lon="-28.5291520">
        <ele>2.5</ele>
        <time>2019-07-07T08:03:13Z</time>
      </trkpt>
      <trkpt lat="38.5355370" lon="-28.5290020">
        <ele>3.3</ele>
        <time>2019-07-07T08:03:17Z</time>
      </trkpt>
      <trkpt lat="38.5358170" lon="-28.5289020">
        <ele>3.4</ele>
        <time>2019-07-07T08:03:22Z</time>
      </trkpt>
      <trkpt lat="38.5359570" lon="-28.5288420">
        <ele>3.5</ele>
        <time>2019-07-07T08:03:24Z</time>
      </trkpt>
      <trkpt lat="38.5360270" lon="-28.5288070">
        <ele>3.6</ele>
        <time>2019-07-07T08:03:25Z</time>
      </trkpt>
      <trkpt lat="38.5362250" lon="-28.5286290">
        <ele>3.7</ele>
        <time>2019-07-07T08:03:28Z</time>
      </trkpt>
      <trkpt lat="38.5363290" lon="-28.5284610">
        <ele>3.8</ele>
        <time>2019-07-07T08:03:29Z</time>
      </trkpt>
      <trkpt lat="38.5364090" lon="-28.5282750">
        <ele>4.1</ele>
        <time>2019-07-07T08:03:32Z</time>
      </trkpt>
      <trkpt lat="38.5366160" lon="-28.5278230">
        <ele>4.2</ele>
        <time>2019-07-07T08:03:37Z</time>
      </trkpt>
      <trkpt lat="38.5366740" lon="-28.5277490">
        <ele>4.1</ele>
        <time>2019-07-07T08:03:38Z</time>
      </trkpt>
      <trkpt lat="38.5369680" lon="-28.5275700">
        <ele>4.0</ele>
        <time>2019-07-07T08:03:41Z</time>
      </trkpt>
      <trkpt lat="38.5370440" lon="-28.5275310">
        <ele>3.9</ele>
        <time>2019-07-07T08:03:43Z</time>
      </trkpt>
      <trkpt lat="38.5371150" lon="-28.5274850">
        <ele>3.9</ele>
        <time>2019-07-07T08:03:44Z</time>
      </trkpt>
      <trkpt lat="38.5372350" lon="-28.5273600">
        <ele>4.4</ele>
        <time>2019-07-07T08:03:46Z</time>
      </trkpt>
      <trkpt lat="38.5373260" lon="-28.5272000">
        <ele>4.9</ele>
        <time>2019-07-07T08:03:48Z</time>
      </trkpt>
      <trkpt lat="38.5373600" lon="-28.5271120">
        <ele>5.0</ele>
        <time>2019-07-07T08:03:49Z</time>
      </trkpt>
      <trkpt lat="38.5374130" lon="-28.5269310">
        <ele>4.5</ele>
        <time>2019-07-07T08:03:51Z</time>
      </trkpt>
      <trkpt lat="38.5374860" lon="-28.5266670">
        <ele>3.3</ele>
        <time>2019-07-07T08:03:54Z</time>
      </trkpt>
      <trkpt lat="38.5375540" lon="-28.5263980">
        <ele>3.5</ele>
        <time>2019-07-07T08:03:57Z</time>
      </trkpt>
      <trkpt lat="38.5377280" lon="-28.5257350">
        <ele>4.6</ele>
        <time>2019-07-07T08:04:04Z</time>
      </trkpt>
      <trkpt lat="38.5377770" lon="-28.5255530">
        <ele>5.0</ele>
        <time>2019-07-07T08:04:05Z</time>
      </trkpt>
      <trkpt lat="38.5379230" lon="-28.5250280">
        <ele>5.4</ele>
        <time>2019-07-07T08:04:11Z</time>
      </trkpt>
      <trkpt lat="38.5379690" lon="-28.5248550">
        <ele>5.9</ele>
        <time>2019-07-07T08:04:14Z</time>
      </trkpt>
      <trkpt lat="38.5379920" lon="-28.5247690">
        <ele>6.2</ele>
        <time>2019-07-07T08:04:15Z</time>
      </trkpt>
      <trkpt lat="38.5380800" lon="-28.5244370">
        <ele>6.8</ele>
        <time>2019-07-07T08:04:19Z</time>
      </trkpt>
      <trkpt lat="38.5381530" lon="-28.5241900">
        <ele>7.5</ele>
        <time>2019-07-07T08:04:22Z</time>
      </trkpt>
      <trkpt lat="38.5382780" lon="-28.5237120">
        <ele>8.7</ele>
        <time>2019-07-07T08:04:28Z</time>
      </trkpt>
      <trkpt lat="38.5383210" lon="-28.5235630">
        <ele>9.0</ele>
        <time>2019-07-07T08:04:30Z</time>
      </trkpt>
      <trkpt lat="38.5384960" lon="-28.5229890">
        <ele>8.2</ele>
        <time>2019-07-07T08:04:38Z</time>
      </trkpt>
      <trkpt lat="38.5386830" lon="-28.5223300">
        <ele>7.1</ele>
        <time>2019-07-07T08:04:46Z</time>
      </trkpt>
      <trkpt lat="38.5387330" lon="-28.5221480">
        <ele>7.2</ele>
        <time>2019-07-07T08:04:47Z</time>
      </trkpt>
      <trkpt lat="38.5388070" lon="-28.5218760">
        <ele>7.0</ele>
        <time>2019-07-07T08:04:51Z</time>
      </trkpt>
      <trkpt lat="38.5388710" lon="-28.5215970">
        <ele>6.6</ele>
        <time>2019-07-07T08:04:53Z</time>
      </trkpt>
      <trkpt lat="38.5389020" lon="-28.5215070">
        <ele>6.3</ele>
        <time>2019-07-07T08:04:55Z</time>
      </trkpt>
      <trkpt lat="38.5389360" lon="-28.5214170">
        <ele>6.0</ele>
        <time>2019-07-07T08:04:56Z</time>
      </trkpt>
      <trkpt lat="38.5392190" lon="-28.5208020">
        <ele>4.9</ele>
        <time>2019-07-07T08:05:03Z</time>
      </trkpt>
      <trkpt lat="38.5393860" lon="-28.5205580">
        <ele>4.9</ele>
        <time>2019-07-07T08:05:05Z</time>
      </trkpt>
      <trkpt lat="38.5395110" lon="-28.5204080">
        <ele>4.8</ele>
        <time>2019-07-07T08:05:08Z</time>
      </trkpt>
      <trkpt lat="38.5395780" lon="-28.5203350">
        <ele>4.7</ele>
        <time>2019-07-07T08:05:09Z</time>
      </trkpt>
      <trkpt lat="38.5397970" lon="-28.5201360">
        <ele>4.5</ele>
        <time>2019-07-07T08:05:11Z</time>
      </trkpt>
      <trkpt lat="38.5398750" lon="-28.5200810">
        <ele>4.5</ele>
        <time>2019-07-07T08:05:13Z</time>
      </trkpt>
      <trkpt lat="38.5402850" lon="-28.5198650">
        <ele>4.1</ele>
        <time>2019-07-07T08:05:17Z</time>
      </trkpt>
      <trkpt lat="38.5402850" lon="-28.5198650">
        <ele>4.1</ele>
        <time>2019-07-07T08:05:18Z</time>
      </trkpt>
      <trkpt lat="38.5406280" lon="-28.5197600">
        <ele>5.0</ele>
        <time>2019-07-07T08:05:22Z</time>
      </trkpt>
      <trkpt lat="38.5407950" lon="-28.5197360">
        <ele>5.2</ele>
        <time>2019-07-07T08:05:23Z</time>
      </trkpt>
      <trkpt lat="38.5413680" lon="-28.5197130">
        <ele>6.2</ele>
        <time>2019-07-07T08:05:31Z</time>
      </trkpt>
      <trkpt lat="38.5414480" lon="-28.5197140">
        <ele>6.2</ele>
        <time>2019-07-07T08:05:32Z</time>
      </trkpt>
      <trkpt lat="38.5420280" lon="-28.5197080">
        <ele>5.9</ele>
        <time>2019-07-07T08:05:39Z</time>
      </trkpt>
      <trkpt lat="38.5422830" lon="-28.5197100">
        <ele>5.6</ele>
        <time>2019-07-07T08:05:41Z</time>
      </trkpt>
      <trkpt lat="38.5428770" lon="-28.5196950">
        <ele>5.3</ele>
        <time>2019-07-07T08:05:49Z</time>
      </trkpt>
      <trkpt lat="38.5430420" lon="-28.5196720">
        <ele>5.3</ele>
        <time>2019-07-07T08:05:50Z</time>
      </trkpt>
      <trkpt lat="38.5430810" lon="-28.5196580">
        <ele>5.3</ele>
        <time>2019-07-07T08:05:51Z</time>
      </trkpt>
      <trkpt lat="38.5431200" lon="-28.5196440">
        <ele>5.3</ele>
        <time>2019-07-07T08:05:52Z</time>
      </trkpt>
      <trkpt lat="38.5434330" lon="-28.5195340">
        <ele>5.0</ele>
        <time>2019-07-07T08:05:56Z</time>
      </trkpt>
      <trkpt lat="38.5437960" lon="-28.5192950">
        <ele>4.6</ele>
        <time>2019-07-07T08:06:01Z</time>
      </trkpt>
      <trkpt lat="38.5441150" lon="-28.5189680">
        <ele>5.1</ele>
        <time>2019-07-07T08:06:06Z</time>
      </trkpt>
      <trkpt lat="38.5442800" lon="-28.5187480">
        <ele>5.3</ele>
        <time>2019-07-07T08:06:09Z</time>
      </trkpt>
      <trkpt lat="38.5444840" lon="-28.5184440">
        <ele>4.1</ele>
        <time>2019-07-07T08:06:13Z</time>
      </trkpt>
      <trkpt lat="38.5445330" lon="-28.5183650">
        <ele>3.8</ele>
        <time>2019-07-07T08:06:14Z</time>
      </trkpt>
      <trkpt lat="38.5448780" lon="-28.5178120">
        <ele>2.9</ele>
        <time>2019-07-07T08:06:20Z</time>
      </trkpt>
      <trkpt lat="38.5451590" lon="-28.5173470">
        <ele>3.6</ele>
        <time>2019-07-07T08:06:27Z</time>
      </trkpt>
      <trkpt lat="38.5453000" lon="-28.5171120">
        <ele>3.9</ele>
        <time>2019-07-07T08:06:29Z</time>
      </trkpt>
      <trkpt lat="38.5455710" lon="-28.5166580">
        <ele>4.8</ele>
        <time>2019-07-07T08:06:35Z</time>
      </trkpt>
      <trkpt lat="38.5457520" lon="-28.5163640">
        <ele>5.7</ele>
        <time>2019-07-07T08:06:40Z</time>
      </trkpt>
      <trkpt lat="38.5460720" lon="-28.5158410">
        <ele>7.1</ele>
        <time>2019-07-07T08:06:46Z</time>
      </trkpt>
      <trkpt lat="38.5461630" lon="-28.5156990">
        <ele>7.2</ele>
        <time>2019-07-07T08:06:49Z</time>
      </trkpt>
      <trkpt lat="38.5465220" lon="-28.5151070">
        <ele>7.0</ele>
        <time>2019-07-07T08:06:56Z</time>
      </trkpt>
      <trkpt lat="38.5469460" lon="-28.5144160">
        <ele>7.0</ele>
        <time>2019-07-07T08:07:05Z</time>
      </trkpt>
      <trkpt lat="38.5473270" lon="-28.5138160">
        <ele>6.9</ele>
        <time>2019-07-07T08:07:14Z</time>
      </trkpt>
      <trkpt lat="38.5473730" lon="-28.5137430">
        <ele>6.9</ele>
        <time>2019-07-07T08:07:15Z</time>
      </trkpt>
      <trkpt lat="38.5477360" lon="-28.5131350">
        <ele>7.0</ele>
        <time>2019-07-07T08:07:22Z</time>
      </trkpt>
      <trkpt lat="38.5479240" lon="-28.5128340">
        <ele>6.8</ele>
        <time>2019-07-07T08:07:26Z</time>
      </trkpt>
      <trkpt lat="38.5482630" lon="-28.5121930">
        <ele>7.8</ele>
        <time>2019-07-07T08:07:34Z</time>
      </trkpt>
      <trkpt lat="38.5482960" lon="-28.5121090">
        <ele>8.0</ele>
        <time>2019-07-07T08:07:35Z</time>
      </trkpt>
      <trkpt lat="38.5483700" lon="-28.5118410">
        <ele>8.4</ele>
        <time>2019-07-07T08:07:38Z</time>
      </trkpt>
      <trkpt lat="38.5484010" lon="-28.5116520">
        <ele>8.7</ele>
        <time>2019-07-07T08:07:40Z</time>
      </trkpt>
      <trkpt lat="38.5484400" lon="-28.5110760">
        <ele>9.7</ele>
        <time>2019-07-07T08:07:46Z</time>
      </trkpt>
      <trkpt lat="38.5484400" lon="-28.5109780">
        <ele>9.9</ele>
        <time>2019-07-07T08:07:47Z</time>
      </trkpt>
      <trkpt lat="38.5484590" lon="-28.5100970">
        <ele>11.4</ele>
        <time>2019-07-07T08:07:56Z</time>
      </trkpt>
      <trkpt lat="38.5484590" lon="-28.5100970">
        <ele>11.4</ele>
        <time>2019-07-07T08:07:57Z</time>
      </trkpt>
      <trkpt lat="38.5485390" lon="-28.5095400">
        <ele>9.9</ele>
        <time>2019-07-07T08:08:02Z</time>
      </trkpt>
      <trkpt lat="38.5485630" lon="-28.5094740">
        <ele>9.6</ele>
        <time>2019-07-07T08:08:03Z</time>
      </trkpt>
      <trkpt lat="38.5485870" lon="-28.5094070">
        <ele>9.4</ele>
        <time>2019-07-07T08:08:04Z</time>
      </trkpt>
      <trkpt lat="38.5486340" lon="-28.5092730">
        <ele>9.0</ele>
        <time>2019-07-07T08:08:05Z</time>
      </trkpt>
      <trkpt lat="38.5487500" lon="-28.5090200">
        <ele>8.2</ele>
        <time>2019-07-07T08:08:08Z</time>
      </trkpt>
      <trkpt lat="38.5488270" lon="-28.5088510">
        <ele>7.8</ele>
        <time>2019-07-07T08:08:10Z</time>
      </trkpt>
      <trkpt lat="38.5491420" lon="-28.5082680">
        <ele>6.1</ele>
        <time>2019-07-07T08:08:17Z</time>
      </trkpt>
      <trkpt lat="38.5494610" lon="-28.5076960">
        <ele>4.4</ele>
        <time>2019-07-07T08:08:24Z</time>
      </trkpt>
      <trkpt lat="38.5495520" lon="-28.5075300">
        <ele>4.7</ele>
        <time>2019-07-07T08:08:27Z</time>
      </trkpt>
      <trkpt lat="38.5498690" lon="-28.5069590">
        <ele>7.4</ele>
        <time>2019-07-07T08:08:34Z</time>
      </trkpt>
      <trkpt lat="38.5500910" lon="-28.5065530">
        <ele>8.8</ele>
        <time>2019-07-07T08:08:39Z</time>
      </trkpt>
      <trkpt lat="38.5504350" lon="-28.5059370">
        <ele>9.4</ele>
        <time>2019-07-07T08:08:46Z</time>
      </trkpt>
      <trkpt lat="38.5505120" lon="-28.5057790">
        <ele>9.3</ele>
        <time>2019-07-07T08:08:49Z</time>
      </trkpt>
      <trkpt lat="38.5507700" lon="-28.5051290">
        <ele>8.2</ele>
        <time>2019-07-07T08:08:56Z</time>
      </trkpt>
      <trkpt lat="38.5507700" lon="-28.5051290">
        <ele>8.2</ele>
        <time>2019-07-07T08:08:57Z</time>
      </trkpt>
      <trkpt lat="38.5509720" lon="-28.5044460">
        <ele>7.8</ele>
        <time>2019-07-07T08:09:04Z</time>
      </trkpt>
      <trkpt lat="38.5511620" lon="-28.5037510">
        <ele>6.6</ele>
        <time>2019-07-07T08:09:12Z</time>
      </trkpt>
      <trkpt lat="38.5513070" lon="-28.5032320">
        <ele>6.1</ele>
        <time>2019-07-07T08:09:18Z</time>
      </trkpt>
      <trkpt lat="38.5515010" lon="-28.5025460">
        <ele>7.0</ele>
        <time>2019-07-07T08:09:26Z</time>
      </trkpt>
      <trkpt lat="38.5515910" lon="-28.5021970">
        <ele>6.4</ele>
        <time>2019-07-07T08:09:30Z</time>
      </trkpt>
      <trkpt lat="38.5517900" lon="-28.5015000">
        <ele>7.9</ele>
        <time>2019-07-07T08:09:38Z</time>
      </trkpt>
      <trkpt lat="38.5518140" lon="-28.5014120">
        <ele>8.0</ele>
        <time>2019-07-07T08:09:40Z</time>
      </trkpt>
      <trkpt lat="38.5520190" lon="-28.5007210">
        <ele>9.3</ele>
        <time>2019-07-07T08:09:47Z</time>
      </trkpt>
      <trkpt lat="38.5520870" lon="-28.5004630">
        <ele>9.8</ele>
        <time>2019-07-07T08:09:50Z</time>
      </trkpt>
      <trkpt lat="38.5522330" lon="-28.4999610">
        <ele>9.2</ele>
        <time>2019-07-07T08:09:56Z</time>
      </trkpt>
      <trkpt lat="38.5523060" lon="-28.4997070">
        <ele>9.2</ele>
        <time>2019-07-07T08:09:59Z</time>
      </trkpt>
      <trkpt lat="38.5525690" lon="-28.4989690">
        <ele>7.6</ele>
        <time>2019-07-07T08:10:08Z</time>
      </trkpt>
      <trkpt lat="38.5528120" lon="-28.4985030">
        <ele>6.4</ele>
        <time>2019-07-07T08:10:15Z</time>
      </trkpt>
      <trkpt lat="38.5529030" lon="-28.4983570">
        <ele>6.3</ele>
        <time>2019-07-07T08:10:16Z</time>
      </trkpt>
      <trkpt lat="38.5530770" lon="-28.4980690">
        <ele>6.1</ele>
        <time>2019-07-07T08:10:21Z</time>
      </trkpt>
      <trkpt lat="38.5532520" lon="-28.4977810">
        <ele>5.4</ele>
        <time>2019-07-07T08:10:25Z</time>
      </trkpt>
      <trkpt lat="38.5534300" lon="-28.4974850">
        <ele>4.6</ele>
        <time>2019-07-07T08:10:28Z</time>
      </trkpt>
      <trkpt lat="38.5535220" lon="-28.4973360">
        <ele>4.4</ele>
        <time>2019-07-07T08:10:30Z</time>
      </trkpt>
      <trkpt lat="38.5538890" lon="-28.4967310">
        <ele>4.0</ele>
        <time>2019-07-07T08:10:38Z</time>
      </trkpt>
      <trkpt lat="38.5540270" lon="-28.4965020">
        <ele>3.5</ele>
        <time>2019-07-07T08:10:41Z</time>
      </trkpt>
      <trkpt lat="38.5542330" lon="-28.4961360">
        <ele>3.5</ele>
        <time>2019-07-07T08:10:46Z</time>
      </trkpt>
      <trkpt lat="38.5542400" lon="-28.4960700">
        <ele>3.4</ele>
        <time>2019-07-07T08:10:47Z</time>
      </trkpt>
      <trkpt lat="38.5542240" lon="-28.4960090">
        <ele>3.5</ele>
        <time>2019-07-07T08:10:49Z</time>
      </trkpt>
      <trkpt lat="38.5541360" lon="-28.4958980">
        <ele>3.9</ele>
        <time>2019-07-07T08:10:50Z</time>
      </trkpt>
      <trkpt lat="38.5541360" lon="-28.4958980">
        <ele>3.9</ele>
        <time>2019-07-07T08:10:51Z</time>
      </trkpt>
      <trkpt lat="38.5538160" lon="-28.4955600">
        <ele>7.0</ele>
        <time>2019-07-07T08:10:57Z</time>
      </trkpt>
      <trkpt lat="38.5537170" lon="-28.4954330">
        <ele>7.5</ele>
        <time>2019-07-07T08:10:58Z</time>
      </trkpt>
      <trkpt lat="38.5536260" lon="-28.4953090">
        <ele>7.9</ele>
        <time>2019-07-07T08:11:01Z</time>
      </trkpt>
      <trkpt lat="38.5535360" lon="-28.4951970">
        <ele>8.1</ele>
        <time>2019-07-07T08:11:02Z</time>
      </trkpt>
      <trkpt lat="38.5534300" lon="-28.4951120">
        <ele>7.8</ele>
        <time>2019-07-07T08:11:04Z</time>
      </trkpt>
      <trkpt lat="38.5533750" lon="-28.4950810">
        <ele>7.6</ele>
        <time>2019-07-07T08:11:05Z</time>
      </trkpt>
      <trkpt lat="38.5532140" lon="-28.4950020">
        <ele>7.4</ele>
        <time>2019-07-07T08:11:08Z</time>
      </trkpt>
      <trkpt lat="38.5530770" lon="-28.4949200">
        <ele>8.7</ele>
        <time>2019-07-07T08:11:11Z</time>
      </trkpt>
      <trkpt lat="38.5529730" lon="-28.4949150">
        <ele>9.9</ele>
        <time>2019-07-07T08:11:14Z</time>
      </trkpt>
      <trkpt lat="38.5529510" lon="-28.4949520">
        <ele>9.9</ele>
        <time>2019-07-07T08:11:15Z</time>
      </trkpt>
      <trkpt lat="38.5529280" lon="-28.4949880">
        <ele>9.9</ele>
        <time>2019-07-07T08:11:16Z</time>
      </trkpt>
      <trkpt lat="38.5528940" lon="-28.4950960">
        <ele>9.8</ele>
        <time>2019-07-07T08:11:18Z</time>
      </trkpt>
      <trkpt lat="38.5527660" lon="-28.4954660">
        <ele>9.6</ele>
        <time>2019-07-07T08:11:25Z</time>
      </trkpt>
      <trkpt lat="38.5527130" lon="-28.4955970">
        <ele>9.6</ele>
        <time>2019-07-07T08:11:26Z</time>
      </trkpt>
      <trkpt lat="38.5525470" lon="-28.4959950">
        <ele>10.0</ele>
        <time>2019-07-07T08:11:33Z</time>
      </trkpt>
      <trkpt lat="38.5524740" lon="-28.4961140">
        <ele>10.1</ele>
        <time>2019-07-07T08:11:34Z</time>
      </trkpt>
      <trkpt lat="38.5524310" lon="-28.4961710">
        <ele>10.2</ele>
        <time>2019-07-07T08:11:35Z</time>
      </trkpt>
      <trkpt lat="38.5523960" lon="-28.4962280">
        <ele>10.2</ele>
        <time>2019-07-07T08:11:36Z</time>
      </trkpt>
      <trkpt lat="38.5523890" lon="-28.4962890">
        <ele>10.2</ele>
        <time>2019-07-07T08:11:37Z</time>
      </trkpt>
      <trkpt lat="38.5523810" lon="-28.4963490">
        <ele>10.2</ele>
        <time>2019-07-07T08:11:38Z</time>
      </trkpt>
      <trkpt lat="38.5524270" lon="-28.4964500">
        <ele>10.1</ele>
        <time>2019-07-07T08:11:40Z</time>
      </trkpt>
      <trkpt lat="38.5524960" lon="-28.4965890">
        <ele>10.2</ele>
        <time>2019-07-07T08:11:43Z</time>
      </trkpt>
      <trkpt lat="38.5525940" lon="-28.4968060">
        <ele>11.0</ele>
        <time>2019-07-07T08:11:48Z</time>
      </trkpt>
      <trkpt lat="38.5525940" lon="-28.4968060">
        <ele>11.0</ele>
        <time>2019-07-07T08:11:49Z</time>
      </trkpt>
      <trkpt lat="38.5527480" lon="-28.4969720">
        <ele>12.2</ele>
        <time>2019-07-07T08:11:53Z</time>
      </trkpt>
      <trkpt lat="38.5527740" lon="-28.4970120">
        <ele>12.5</ele>
        <time>2019-07-07T08:11:54Z</time>
      </trkpt>
      <trkpt lat="38.5528140" lon="-28.4971060">
        <ele>13.2</ele>
        <time>2019-07-07T08:11:57Z</time>
      </trkpt>
      <trkpt lat="38.5528340" lon="-28.4972090">
        <ele>14.0</ele>
        <time>2019-07-07T08:11:58Z</time>
      </trkpt>
      <trkpt lat="38.5528300" lon="-28.4972620">
        <ele>14.4</ele>
        <time>2019-07-07T08:11:59Z</time>
      </trkpt>
      <trkpt lat="38.5527770" lon="-28.4974070">
        <ele>15.5</ele>
        <time>2019-07-07T08:12:03Z</time>
      </trkpt>
      <trkpt lat="38.5527410" lon="-28.4974860">
        <ele>16.0</ele>
        <time>2019-07-07T08:12:04Z</time>
      </trkpt>
      <trkpt lat="38.5527250" lon="-28.4975220">
        <ele>16.2</ele>
        <time>2019-07-07T08:12:05Z</time>
      </trkpt>
      <trkpt lat="38.5526790" lon="-28.4976090">
        <ele>16.8</ele>
        <time>2019-07-07T08:12:09Z</time>
      </trkpt>
      <trkpt lat="38.5526450" lon="-28.4976590">
        <ele>17.3</ele>
        <time>2019-07-07T08:12:10Z</time>
      </trkpt>
      <trkpt lat="38.5526250" lon="-28.4976770">
        <ele>17.5</ele>
        <time>2019-07-07T08:12:11Z</time>
      </trkpt>
      <trkpt lat="38.5526030" lon="-28.4976890">
        <ele>17.7</ele>
        <time>2019-07-07T08:12:12Z</time>
      </trkpt>
      <trkpt lat="38.5526030" lon="-28.4976890">
        <ele>17.7</ele>
        <time>2019-07-07T08:12:13Z</time>
      </trkpt>
      <trkpt lat="38.5525560" lon="-28.4976970">
        <ele>18.1</ele>
        <time>2019-07-07T08:12:15Z</time>
      </trkpt>
      <trkpt lat="38.5524840" lon="-28.4977130">
        <ele>18.8</ele>
        <time>2019-07-07T08:12:17Z</time>
      </trkpt>
      <trkpt lat="38.5524070" lon="-28.4977490">
        <ele>19.4</ele>
        <time>2019-07-07T08:12:20Z</time>
      </trkpt>
      <trkpt lat="38.5524070" lon="-28.4977490">
        <ele>19.4</ele>
        <time>2019-07-07T08:12:21Z</time>
      </trkpt>
      <trkpt lat="38.5522850" lon="-28.4978290">
        <ele>20.2</ele>
        <time>2019-07-07T08:12:25Z</time>
      </trkpt>
      <trkpt lat="38.5522100" lon="-28.4978840">
        <ele>20.6</ele>
        <time>2019-07-07T08:12:28Z</time>
      </trkpt>
      <trkpt lat="38.5521880" lon="-28.4979030">
        <ele>20.7</ele>
        <time>2019-07-07T08:12:29Z</time>
      </trkpt>
      <trkpt lat="38.5521210" lon="-28.4979540">
        <ele>20.9</ele>
        <time>2019-07-07T08:12:32Z</time>
      </trkpt>
      <trkpt lat="38.5520390" lon="-28.4980170">
        <ele>21.0</ele>
        <time>2019-07-07T08:12:37Z</time>
      </trkpt>
      <trkpt lat="38.5518730" lon="-28.4981250">
        <ele>20.9</ele>
        <time>2019-07-07T08:12:45Z</time>
      </trkpt>
      <trkpt lat="38.5518250" lon="-28.4981570">
        <ele>20.9</ele>
        <time>2019-07-07T08:12:46Z</time>
      </trkpt>
      <trkpt lat="38.5517350" lon="-28.4982300">
        <ele>20.8</ele>
        <time>2019-07-07T08:12:50Z</time>
      </trkpt>
      <trkpt lat="38.5516420" lon="-28.4983080">
        <ele>20.7</ele>
        <time>2019-07-07T08:12:55Z</time>
      </trkpt>
      <trkpt lat="38.5514920" lon="-28.4984320">
        <ele>20.6</ele>
        <time>2019-07-07T08:13:00Z</time>
      </trkpt>
      <trkpt lat="38.5514320" lon="-28.4984690">
        <ele>20.6</ele>
        <time>2019-07-07T08:13:03Z</time>
      </trkpt>
      <trkpt lat="38.5513350" lon="-28.4985330">
        <ele>20.5</ele>
        <time>2019-07-07T08:13:05Z</time>
      </trkpt>
      <trkpt lat="38.5511340" lon="-28.4986830">
        <ele>20.3</ele>
        <time>2019-07-07T08:13:11Z</time>
      </trkpt>
      <trkpt lat="38.5509590" lon="-28.4989190">
        <ele>19.7</ele>
        <time>2019-07-07T08:13:17Z</time>
      </trkpt>
      <trkpt lat="38.5508310" lon="-28.4990510">
        <ele>19.8</ele>
        <time>2019-07-07T08:13:20Z</time>
      </trkpt>
      <trkpt lat="38.5507930" lon="-28.4990680">
        <ele>19.8</ele>
        <time>2019-07-07T08:13:21Z</time>
      </trkpt>
      <trkpt lat="38.5507550" lon="-28.4990840">
        <ele>19.9</ele>
        <time>2019-07-07T08:13:22Z</time>
      </trkpt>
      <trkpt lat="38.5506780" lon="-28.4991160">
        <ele>20.2</ele>
        <time>2019-07-07T08:13:23Z</time>
      </trkpt>
      <trkpt lat="38.5503600" lon="-28.4991930">
        <ele>20.8</ele>
        <time>2019-07-07T08:13:29Z</time>
      </trkpt>
      <trkpt lat="38.5503100" lon="-28.4992070">
        <ele>20.8</ele>
        <time>2019-07-07T08:13:30Z</time>
      </trkpt>
      <trkpt lat="38.5501120" lon="-28.4992760">
        <ele>20.9</ele>
        <time>2019-07-07T08:13:34Z</time>
      </trkpt>
      <trkpt lat="38.5500110" lon="-28.4993240">
        <ele>21.0</ele>
        <time>2019-07-07T08:13:37Z</time>
      </trkpt>
      <trkpt lat="38.5497170" lon="-28.4994700">
        <ele>22.3</ele>
        <time>2019-07-07T08:13:43Z</time>
      </trkpt>
      <trkpt lat="38.5496400" lon="-28.4995230">
        <ele>22.9</ele>
        <time>2019-07-07T08:13:44Z</time>
      </trkpt>
      <trkpt lat="38.5495510" lon="-28.4996210">
        <ele>23.3</ele>
        <time>2019-07-07T08:13:47Z</time>
      </trkpt>
      <trkpt lat="38.5494690" lon="-28.4997020">
        <ele>24.0</ele>
        <time>2019-07-07T08:13:50Z</time>
      </trkpt>
      <trkpt lat="38.5493650" lon="-28.4997390">
        <ele>24.7</ele>
        <time>2019-07-07T08:13:53Z</time>
      </trkpt>
      <trkpt lat="38.5493280" lon="-28.4997410">
        <ele>24.9</ele>
        <time>2019-07-07T08:13:55Z</time>
      </trkpt>
      <trkpt lat="38.5492530" lon="-28.4997420">
        <ele>25.4</ele>
        <time>2019-07-07T08:13:56Z</time>
      </trkpt>
      <trkpt lat="38.5491460" lon="-28.4997740">
        <ele>26.5</ele>
        <time>2019-07-07T08:13:59Z</time>
      </trkpt>
      <trkpt lat="38.5491120" lon="-28.4997940">
        <ele>26.7</ele>
        <time>2019-07-07T08:14:01Z</time>
      </trkpt>
      <trkpt lat="38.5489560" lon="-28.4999470">
        <ele>28.0</ele>
        <time>2019-07-07T08:14:05Z</time>
      </trkpt>
      <trkpt lat="38.5488780" lon="-28.5000410">
        <ele>28.4</ele>
        <time>2019-07-07T08:14:08Z</time>
      </trkpt>
      <trkpt lat="38.5488060" lon="-28.5001590">
        <ele>28.6</ele>
        <time>2019-07-07T08:14:11Z</time>
      </trkpt>
      <trkpt lat="38.5487870" lon="-28.5002080">
        <ele>28.7</ele>
        <time>2019-07-07T08:14:13Z</time>
      </trkpt>
      <trkpt lat="38.5487540" lon="-28.5003090">
        <ele>28.6</ele>
        <time>2019-07-07T08:14:14Z</time>
      </trkpt>
      <trkpt lat="38.5487290" lon="-28.5004230">
        <ele>28.3</ele>
        <time>2019-07-07T08:14:16Z</time>
      </trkpt>
      <trkpt lat="38.5486890" lon="-28.5006120">
        <ele>28.1</ele>
        <time>2019-07-07T08:14:19Z</time>
      </trkpt>
      <trkpt lat="38.5485680" lon="-28.5010960">
        <ele>25.4</ele>
        <time>2019-07-07T08:14:27Z</time>
      </trkpt>
      <trkpt lat="38.5484920" lon="-28.5013140">
        <ele>24.1</ele>
        <time>2019-07-07T08:14:29Z</time>
      </trkpt>
      <trkpt lat="38.5483580" lon="-28.5015460">
        <ele>22.9</ele>
        <time>2019-07-07T08:14:32Z</time>
      </trkpt>
      <trkpt lat="38.5482360" lon="-28.5016930">
        <ele>22.5</ele>
        <time>2019-07-07T08:14:34Z</time>
      </trkpt>
      <trkpt lat="38.5481740" lon="-28.5017590">
        <ele>22.3</ele>
        <time>2019-07-07T08:14:35Z</time>
      </trkpt>
      <trkpt lat="38.5480610" lon="-28.5018940">
        <ele>22.1</ele>
        <time>2019-07-07T08:14:37Z</time>
      </trkpt>
      <trkpt lat="38.5479110" lon="-28.5021050">
        <ele>21.9</ele>
        <time>2019-07-07T08:14:40Z</time>
      </trkpt>
      <trkpt lat="38.5477310" lon="-28.5024020">
        <ele>21.8</ele>
        <time>2019-07-07T08:14:44Z</time>
      </trkpt>
      <trkpt lat="38.5473860" lon="-28.5029480">
        <ele>23.2</ele>
        <time>2019-07-07T08:14:52Z</time>
      </trkpt>
      <trkpt lat="38.5473410" lon="-28.5030100">
        <ele>23.4</ele>
        <time>2019-07-07T08:14:53Z</time>
      </trkpt>
      <trkpt lat="38.5471350" lon="-28.5033380">
        <ele>23.4</ele>
        <time>2019-07-07T08:14:58Z</time>
      </trkpt>
      <trkpt lat="38.5470790" lon="-28.5034910">
        <ele>23.0</ele>
        <time>2019-07-07T08:15:00Z</time>
      </trkpt>
      <trkpt lat="38.5468860" lon="-28.5040300">
        <ele>21.5</ele>
        <time>2019-07-07T08:15:07Z</time>
      </trkpt>
      <trkpt lat="38.5468530" lon="-28.5041050">
        <ele>21.3</ele>
        <time>2019-07-07T08:15:08Z</time>
      </trkpt>
      <trkpt lat="38.5468530" lon="-28.5041050">
        <ele>21.3</ele>
        <time>2019-07-07T08:15:09Z</time>
      </trkpt>
      <trkpt lat="38.5466920" lon="-28.5045970">
        <ele>21.7</ele>
        <time>2019-07-07T08:15:14Z</time>
      </trkpt>
      <trkpt lat="38.5466920" lon="-28.5046540">
        <ele>21.7</ele>
        <time>2019-07-07T08:15:15Z</time>
      </trkpt>
      <trkpt lat="38.5466920" lon="-28.5047110">
        <ele>21.6</ele>
        <time>2019-07-07T08:15:16Z</time>
      </trkpt>
      <trkpt lat="38.5466930" lon="-28.5051660">
        <ele>20.2</ele>
        <time>2019-07-07T08:15:20Z</time>
      </trkpt>
      <trkpt lat="38.5466770" lon="-28.5052310">
        <ele>19.9</ele>
        <time>2019-07-07T08:15:21Z</time>
      </trkpt>
      <trkpt lat="38.5466610" lon="-28.5052960">
        <ele>19.7</ele>
        <time>2019-07-07T08:15:22Z</time>
      </trkpt>
      <trkpt lat="38.5465960" lon="-28.5055550">
        <ele>19.4</ele>
        <time>2019-07-07T08:15:24Z</time>
      </trkpt>
      <trkpt lat="38.5464930" lon="-28.5057080">
        <ele>19.3</ele>
        <time>2019-07-07T08:15:26Z</time>
      </trkpt>
      <trkpt lat="38.5463740" lon="-28.5058340">
        <ele>19.3</ele>
        <time>2019-07-07T08:15:28Z</time>
      </trkpt>
      <trkpt lat="38.5458920" lon="-28.5062590">
        <ele>19.4</ele>
        <time>2019-07-07T08:15:36Z</time>
      </trkpt>
      <trkpt lat="38.5457730" lon="-28.5063480">
        <ele>19.5</ele>
        <time>2019-07-07T08:15:38Z</time>
      </trkpt>
      <trkpt lat="38.5456520" lon="-28.5064310">
        <ele>19.6</ele>
        <time>2019-07-07T08:15:40Z</time>
      </trkpt>
      <trkpt lat="38.5455410" lon="-28.5065210">
        <ele>19.7</ele>
        <time>2019-07-07T08:15:42Z</time>
      </trkpt>
      <trkpt lat="38.5454830" lon="-28.5065560">
        <ele>19.7</ele>
        <time>2019-07-07T08:15:43Z</time>
      </trkpt>
      <trkpt lat="38.5452850" lon="-28.5066150">
        <ele>19.9</ele>
        <time>2019-07-07T08:15:46Z</time>
      </trkpt>
      <trkpt lat="38.5451460" lon="-28.5066470">
        <ele>19.9</ele>
        <time>2019-07-07T08:15:49Z</time>
      </trkpt>
      <trkpt lat="38.5448080" lon="-28.5067490">
        <ele>20.5</ele>
        <time>2019-07-07T08:15:53Z</time>
      </trkpt>
      <trkpt lat="38.5446300" lon="-28.5068330">
        <ele>21.8</ele>
        <time>2019-07-07T08:15:56Z</time>
      </trkpt>
      <trkpt lat="38.5444800" lon="-28.5069320">
        <ele>22.9</ele>
        <time>2019-07-07T08:15:59Z</time>
      </trkpt>
      <trkpt lat="38.5443980" lon="-28.5070010">
        <ele>23.3</ele>
        <time>2019-07-07T08:16:01Z</time>
      </trkpt>
      <trkpt lat="38.5442820" lon="-28.5070780">
        <ele>23.8</ele>
        <time>2019-07-07T08:16:04Z</time>
      </trkpt>
      <trkpt lat="38.5442420" lon="-28.5070960">
        <ele>23.9</ele>
        <time>2019-07-07T08:16:05Z</time>
      </trkpt>
      <trkpt lat="38.5442020" lon="-28.5071130">
        <ele>24.0</ele>
        <time>2019-07-07T08:16:06Z</time>
      </trkpt>
      <trkpt lat="38.5441280" lon="-28.5071440">
        <ele>24.0</ele>
        <time>2019-07-07T08:16:09Z</time>
      </trkpt>
      <trkpt lat="38.5440540" lon="-28.5071730">
        <ele>24.1</ele>
        <time>2019-07-07T08:16:10Z</time>
      </trkpt>
      <trkpt lat="38.5439800" lon="-28.5071980">
        <ele>24.4</ele>
        <time>2019-07-07T08:16:13Z</time>
      </trkpt>
      <trkpt lat="38.5439040" lon="-28.5072250">
        <ele>24.8</ele>
        <time>2019-07-07T08:16:14Z</time>
      </trkpt>
      <trkpt lat="38.5439040" lon="-28.5072250">
        <ele>24.8</ele>
        <time>2019-07-07T08:16:15Z</time>
      </trkpt>
      <trkpt lat="38.5435700" lon="-28.5072980">
        <ele>26.1</ele>
        <time>2019-07-07T08:16:22Z</time>
      </trkpt>
      <trkpt lat="38.5433040" lon="-28.5073770">
        <ele>26.9</ele>
        <time>2019-07-07T08:16:28Z</time>
      </trkpt>
      <trkpt lat="38.5431250" lon="-28.5074520">
        <ele>27.0</ele>
        <time>2019-07-07T08:16:32Z</time>
      </trkpt>
      <trkpt lat="38.5427310" lon="-28.5076350">
        <ele>28.0</ele>
        <time>2019-07-07T08:16:41Z</time>
      </trkpt>
      <trkpt lat="38.5426910" lon="-28.5076720">
        <ele>28.1</ele>
        <time>2019-07-07T08:16:42Z</time>
      </trkpt>
      <trkpt lat="38.5426230" lon="-28.5077610">
        <ele>28.3</ele>
        <time>2019-07-07T08:16:44Z</time>
      </trkpt>
      <trkpt lat="38.5425360" lon="-28.5079210">
        <ele>28.8</ele>
        <time>2019-07-07T08:16:47Z</time>
      </trkpt>
      <trkpt lat="38.5424470" lon="-28.5082250">
        <ele>29.5</ele>
        <time>2019-07-07T08:16:52Z</time>
      </trkpt>
      <trkpt lat="38.5424100" lon="-28.5084920">
        <ele>29.4</ele>
        <time>2019-07-07T08:16:57Z</time>
      </trkpt>
      <trkpt lat="38.5423520" lon="-28.5088360">
        <ele>29.0</ele>
        <time>2019-07-07T08:17:01Z</time>
      </trkpt>
      <trkpt lat="38.5422500" lon="-28.5093030">
        <ele>29.1</ele>
        <time>2019-07-07T08:17:09Z</time>
      </trkpt>
      <trkpt lat="38.5421890" lon="-28.5094950">
        <ele>29.5</ele>
        <time>2019-07-07T08:17:11Z</time>
      </trkpt>
      <trkpt lat="38.5421350" lon="-28.5096140">
        <ele>29.7</ele>
        <time>2019-07-07T08:17:13Z</time>
      </trkpt>
      <trkpt lat="38.5419740" lon="-28.5099110">
        <ele>29.8</ele>
        <time>2019-07-07T08:17:19Z</time>
      </trkpt>
      <trkpt lat="38.5417060" lon="-28.5103600">
        <ele>30.3</ele>
        <time>2019-07-07T08:17:26Z</time>
      </trkpt>
      <trkpt lat="38.5414090" lon="-28.5106550">
        <ele>29.7</ele>
        <time>2019-07-07T08:17:32Z</time>
      </trkpt>
      <trkpt lat="38.5411150" lon="-28.5110170">
        <ele>29.4</ele>
        <time>2019-07-07T08:17:38Z</time>
      </trkpt>
      <trkpt lat="38.5410500" lon="-28.5111520">
        <ele>29.5</ele>
        <time>2019-07-07T08:17:40Z</time>
      </trkpt>
      <trkpt lat="38.5409370" lon="-28.5114240">
        <ele>30.0</ele>
        <time>2019-07-07T08:17:45Z</time>
      </trkpt>
      <trkpt lat="38.5407730" lon="-28.5118220">
        <ele>32.0</ele>
        <time>2019-07-07T08:17:50Z</time>
      </trkpt>
      <trkpt lat="38.5407030" lon="-28.5119500">
        <ele>32.8</ele>
        <time>2019-07-07T08:17:52Z</time>
      </trkpt>
      <trkpt lat="38.5404350" lon="-28.5122550">
        <ele>34.7</ele>
        <time>2019-07-07T08:17:58Z</time>
      </trkpt>
      <trkpt lat="38.5402430" lon="-28.5123510">
        <ele>35.5</ele>
        <time>2019-07-07T08:18:02Z</time>
      </trkpt>
      <trkpt lat="38.5401970" lon="-28.5123600">
        <ele>35.7</ele>
        <time>2019-07-07T08:18:03Z</time>
      </trkpt>
      <trkpt lat="38.5401500" lon="-28.5123680">
        <ele>35.9</ele>
        <time>2019-07-07T08:18:04Z</time>
      </trkpt>
      <trkpt lat="38.5400610" lon="-28.5123630">
        <ele>36.4</ele>
        <time>2019-07-07T08:18:07Z</time>
      </trkpt>
      <trkpt lat="38.5399000" lon="-28.5123350">
        <ele>37.2</ele>
        <time>2019-07-07T08:18:10Z</time>
      </trkpt>
      <trkpt lat="38.5397280" lon="-28.5123150">
        <ele>37.8</ele>
        <time>2019-07-07T08:18:14Z</time>
      </trkpt>
      <trkpt lat="38.5396510" lon="-28.5123180">
        <ele>38.3</ele>
        <time>2019-07-07T08:18:16Z</time>
      </trkpt>
      <trkpt lat="38.5395790" lon="-28.5123260">
        <ele>38.8</ele>
        <time>2019-07-07T08:18:18Z</time>
      </trkpt>
      <trkpt lat="38.5394450" lon="-28.5123500">
        <ele>39.7</ele>
        <time>2019-07-07T08:18:22Z</time>
      </trkpt>
      <trkpt lat="38.5392330" lon="-28.5123790">
        <ele>40.6</ele>
        <time>2019-07-07T08:18:28Z</time>
      </trkpt>
      <trkpt lat="38.5390980" lon="-28.5123140">
        <ele>41.1</ele>
        <time>2019-07-07T08:18:32Z</time>
      </trkpt>
      <trkpt lat="38.5389960" lon="-28.5120680">
        <ele>41.8</ele>
        <time>2019-07-07T08:18:38Z</time>
      </trkpt>
      <trkpt lat="38.5388840" lon="-28.5118300">
        <ele>42.4</ele>
        <time>2019-07-07T08:18:44Z</time>
      </trkpt>
      <trkpt lat="38.5388650" lon="-28.5117990">
        <ele>42.5</ele>
        <time>2019-07-07T08:18:45Z</time>
      </trkpt>
      <trkpt lat="38.5387620" lon="-28.5116430">
        <ele>43.1</ele>
        <time>2019-07-07T08:18:50Z</time>
      </trkpt>
      <trkpt lat="38.5386800" lon="-28.5115190">
        <ele>43.6</ele>
        <time>2019-07-07T08:18:54Z</time>
      </trkpt>
      <trkpt lat="38.5385590" lon="-28.5113100">
        <ele>44.7</ele>
        <time>2019-07-07T08:19:00Z</time>
      </trkpt>
      <trkpt lat="38.5384990" lon="-28.5112200">
        <ele>45.2</ele>
        <time>2019-07-07T08:19:03Z</time>
      </trkpt>
      <trkpt lat="38.5384770" lon="-28.5111890">
        <ele>45.4</ele>
        <time>2019-07-07T08:19:04Z</time>
      </trkpt>
      <trkpt lat="38.5383980" lon="-28.5110620">
        <ele>46.0</ele>
        <time>2019-07-07T08:19:09Z</time>
      </trkpt>
      <trkpt lat="38.5383590" lon="-28.5110040">
        <ele>46.3</ele>
        <time>2019-07-07T08:19:10Z</time>
      </trkpt>
      <trkpt lat="38.5382640" lon="-28.5109000">
        <ele>47.1</ele>
        <time>2019-07-07T08:19:15Z</time>
      </trkpt>
      <trkpt lat="38.5381340" lon="-28.5107720">
        <ele>48.1</ele>
        <time>2019-07-07T08:19:19Z</time>
      </trkpt>
      <trkpt lat="38.5379500" lon="-28.5106140">
        <ele>49.1</ele>
        <time>2019-07-07T08:19:25Z</time>
      </trkpt>
      <trkpt lat="38.5379200" lon="-28.5105940">
        <ele>49.2</ele>
        <time>2019-07-07T08:19:26Z</time>
      </trkpt>
      <trkpt lat="38.5377290" lon="-28.5104890">
        <ele>50.1</ele>
        <time>2019-07-07T08:19:33Z</time>
      </trkpt>
      <trkpt lat="38.5376590" lon="-28.5104760">
        <ele>50.5</ele>
        <time>2019-07-07T08:19:34Z</time>
      </trkpt>
      <trkpt lat="38.5375330" lon="-28.5103940">
        <ele>51.1</ele>
        <time>2019-07-07T08:19:38Z</time>
      </trkpt>
      <trkpt lat="38.5373970" lon="-28.5101790">
        <ele>51.9</ele>
        <time>2019-07-07T08:19:44Z</time>
      </trkpt>
      <trkpt lat="38.5372430" lon="-28.5099710">
        <ele>52.6</ele>
        <time>2019-07-07T08:19:49Z</time>
      </trkpt>
      <trkpt lat="38.5371520" lon="-28.5098400">
        <ele>52.9</ele>
        <time>2019-07-07T08:19:52Z</time>
      </trkpt>
      <trkpt lat="38.5370780" lon="-28.5097230">
        <ele>53.1</ele>
        <time>2019-07-07T08:19:55Z</time>
      </trkpt>
      <trkpt lat="38.5370490" lon="-28.5096860">
        <ele>53.2</ele>
        <time>2019-07-07T08:19:56Z</time>
      </trkpt>
      <trkpt lat="38.5368970" lon="-28.5094580">
        <ele>53.7</ele>
        <time>2019-07-07T08:20:02Z</time>
      </trkpt>
      <trkpt lat="38.5368970" lon="-28.5094580">
        <ele>53.7</ele>
        <time>2019-07-07T08:20:03Z</time>
      </trkpt>
      <trkpt lat="38.5368120" lon="-28.5092800">
        <ele>53.9</ele>
        <time>2019-07-07T08:20:07Z</time>
      </trkpt>
      <trkpt lat="38.5367750" lon="-28.5091780">
        <ele>54.1</ele>
        <time>2019-07-07T08:20:08Z</time>
      </trkpt>
      <trkpt lat="38.5367460" lon="-28.5090680">
        <ele>54.2</ele>
        <time>2019-07-07T08:20:10Z</time>
      </trkpt>
      <trkpt lat="38.5367360" lon="-28.5090100">
        <ele>54.2</ele>
        <time>2019-07-07T08:20:11Z</time>
      </trkpt>
      <trkpt lat="38.5366940" lon="-28.5087160">
        <ele>54.2</ele>
        <time>2019-07-07T08:20:16Z</time>
      </trkpt>
      <trkpt lat="38.5366610" lon="-28.5085820">
        <ele>54.2</ele>
        <time>2019-07-07T08:20:18Z</time>
      </trkpt>
      <trkpt lat="38.5366150" lon="-28.5084570">
        <ele>54.1</ele>
        <time>2019-07-07T08:20:20Z</time>
      </trkpt>
      <trkpt lat="38.5365510" lon="-28.5083460">
        <ele>54.0</ele>
        <time>2019-07-07T08:20:22Z</time>
      </trkpt>
      <trkpt lat="38.5365140" lon="-28.5082910">
        <ele>54.0</ele>
        <time>2019-07-07T08:20:23Z</time>
      </trkpt>
      <trkpt lat="38.5363700" lon="-28.5080700">
        <ele>54.1</ele>
        <time>2019-07-07T08:20:27Z</time>
      </trkpt>
      <trkpt lat="38.5362890" lon="-28.5079160">
        <ele>54.5</ele>
        <time>2019-07-07T08:20:30Z</time>
      </trkpt>
      <trkpt lat="38.5360540" lon="-28.5075750">
        <ele>56.0</ele>
        <time>2019-07-07T08:20:38Z</time>
      </trkpt>
      <trkpt lat="38.5359970" lon="-28.5074840">
        <ele>56.4</ele>
        <time>2019-07-07T08:20:40Z</time>
      </trkpt>
      <trkpt lat="38.5359230" lon="-28.5073200">
        <ele>57.2</ele>
        <time>2019-07-07T08:20:44Z</time>
      </trkpt>
      <trkpt lat="38.5359000" lon="-28.5072590">
        <ele>57.6</ele>
        <time>2019-07-07T08:20:46Z</time>
      </trkpt>
      <trkpt lat="38.5358750" lon="-28.5071740">
        <ele>58.3</ele>
        <time>2019-07-07T08:20:49Z</time>
      </trkpt>
      <trkpt lat="38.5358610" lon="-28.5071170">
        <ele>58.7</ele>
        <time>2019-07-07T08:20:51Z</time>
      </trkpt>
      <trkpt lat="38.5358560" lon="-28.5070840">
        <ele>59.0</ele>
        <time>2019-07-07T08:20:52Z</time>
      </trkpt>
      <trkpt lat="38.5358090" lon="-28.5069570">
        <ele>59.9</ele>
        <time>2019-07-07T08:20:56Z</time>
      </trkpt>
      <trkpt lat="38.5356980" lon="-28.5067470">
        <ele>61.3</ele>
        <time>2019-07-07T08:21:02Z</time>
      </trkpt>
      <trkpt lat="38.5356750" lon="-28.5067100">
        <ele>61.6</ele>
        <time>2019-07-07T08:21:03Z</time>
      </trkpt>
      <trkpt lat="38.5355110" lon="-28.5064040">
        <ele>62.8</ele>
        <time>2019-07-07T08:21:11Z</time>
      </trkpt>
      <trkpt lat="38.5354970" lon="-28.5063620">
        <ele>62.9</ele>
        <time>2019-07-07T08:21:13Z</time>
      </trkpt>
      <trkpt lat="38.5354450" lon="-28.5062600">
        <ele>63.1</ele>
        <time>2019-07-07T08:21:16Z</time>
      </trkpt>
      <trkpt lat="38.5354330" lon="-28.5062410">
        <ele>63.1</ele>
        <time>2019-07-07T08:21:17Z</time>
      </trkpt>
      <trkpt lat="38.5353630" lon="-28.5061080">
        <ele>63.3</ele>
        <time>2019-07-07T08:21:21Z</time>
      </trkpt>
      <trkpt lat="38.5353380" lon="-28.5060680">
        <ele>63.4</ele>
        <time>2019-07-07T08:21:22Z</time>
      </trkpt>
      <trkpt lat="38.5351610" lon="-28.5057970">
        <ele>63.7</ele>
        <time>2019-07-07T08:21:29Z</time>
      </trkpt>
      <trkpt lat="38.5351110" lon="-28.5057280">
        <ele>63.8</ele>
        <time>2019-07-07T08:21:31Z</time>
      </trkpt>
      <trkpt lat="38.5349750" lon="-28.5055510">
        <ele>63.9</ele>
        <time>2019-07-07T08:21:37Z</time>
      </trkpt>
      <trkpt lat="38.5348530" lon="-28.5053980">
        <ele>64.1</ele>
        <time>2019-07-07T08:21:40Z</time>
      </trkpt>
      <trkpt lat="38.5346350" lon="-28.5050900">
        <ele>63.7</ele>
        <time>2019-07-07T08:21:48Z</time>
      </trkpt>
      <trkpt lat="38.5345820" lon="-28.5050120">
        <ele>63.6</ele>
        <time>2019-07-07T08:21:50Z</time>
      </trkpt>
      <trkpt lat="38.5344480" lon="-28.5048340">
        <ele>63.5</ele>
        <time>2019-07-07T08:21:55Z</time>
      </trkpt>
      <trkpt lat="38.5343970" lon="-28.5047690">
        <ele>63.6</ele>
        <time>2019-07-07T08:21:57Z</time>
      </trkpt>
      <trkpt lat="38.5343480" lon="-28.5047000">
        <ele>63.8</ele>
        <time>2019-07-07T08:21:59Z</time>
      </trkpt>
      <trkpt lat="38.5342100" lon="-28.5044470">
        <ele>65.1</ele>
        <time>2019-07-07T08:22:06Z</time>
      </trkpt>
      <trkpt lat="38.5342000" lon="-28.5043800">
        <ele>65.4</ele>
        <time>2019-07-07T08:22:08Z</time>
      </trkpt>
      <trkpt lat="38.5341710" lon="-28.5042690">
        <ele>66.7</ele>
        <time>2019-07-07T08:22:11Z</time>
      </trkpt>
      <trkpt lat="38.5341140" lon="-28.5042340">
        <ele>67.2</ele>
        <time>2019-07-07T08:22:13Z</time>
      </trkpt>
      <trkpt lat="38.5340840" lon="-28.5042200">
        <ele>67.4</ele>
        <time>2019-07-07T08:22:14Z</time>
      </trkpt>
      <trkpt lat="38.5340030" lon="-28.5041620">
        <ele>68.1</ele>
        <time>2019-07-07T08:22:17Z</time>
      </trkpt>
      <trkpt lat="38.5339810" lon="-28.5041370">
        <ele>68.4</ele>
        <time>2019-07-07T08:22:18Z</time>
      </trkpt>
      <trkpt lat="38.5338490" lon="-28.5039680">
        <ele>69.4</ele>
        <time>2019-07-07T08:22:25Z</time>
      </trkpt>
      <trkpt lat="38.5338080" lon="-28.5038980">
        <ele>69.7</ele>
        <time>2019-07-07T08:22:26Z</time>
      </trkpt>
      <trkpt lat="38.5337310" lon="-28.5037500">
        <ele>69.9</ele>
        <time>2019-07-07T08:22:31Z</time>
      </trkpt>
      <trkpt lat="38.5336660" lon="-28.5035900">
        <ele>70.2</ele>
        <time>2019-07-07T08:22:34Z</time>
      </trkpt>
      <trkpt lat="38.5335120" lon="-28.5032300">
        <ele>71.3</ele>
        <time>2019-07-07T08:22:42Z</time>
      </trkpt>
      <trkpt lat="38.5334610" lon="-28.5030940">
        <ele>71.9</ele>
        <time>2019-07-07T08:22:45Z</time>
      </trkpt>
      <trkpt lat="38.5333660" lon="-28.5028790">
        <ele>72.7</ele>
        <time>2019-07-07T08:22:51Z</time>
      </trkpt>
      <trkpt lat="38.5333210" lon="-28.5027940">
        <ele>72.9</ele>
        <time>2019-07-07T08:22:52Z</time>
      </trkpt>
      <trkpt lat="38.5332320" lon="-28.5026430">
        <ele>72.7</ele>
        <time>2019-07-07T08:22:57Z</time>
      </trkpt>
      <trkpt lat="38.5331440" lon="-28.5025260">
        <ele>72.2</ele>
        <time>2019-07-07T08:22:59Z</time>
      </trkpt>
      <trkpt lat="38.5330340" lon="-28.5023700">
        <ele>71.4</ele>
        <time>2019-07-07T08:23:02Z</time>
      </trkpt>
      <trkpt lat="38.5328500" lon="-28.5021340">
        <ele>71.0</ele>
        <time>2019-07-07T08:23:06Z</time>
      </trkpt>
      <trkpt lat="38.5327380" lon="-28.5019810">
        <ele>71.0</ele>
        <time>2019-07-07T08:23:09Z</time>
      </trkpt>
      <trkpt lat="38.5325030" lon="-28.5016430">
        <ele>71.8</ele>
        <time>2019-07-07T08:23:17Z</time>
      </trkpt>
      <trkpt lat="38.5323670" lon="-28.5014150">
        <ele>72.9</ele>
        <time>2019-07-07T08:23:23Z</time>
      </trkpt>
      <trkpt lat="38.5323450" lon="-28.5013770">
        <ele>73.0</ele>
        <time>2019-07-07T08:23:24Z</time>
      </trkpt>
      <trkpt lat="38.5323250" lon="-28.5013400">
        <ele>73.2</ele>
        <time>2019-07-07T08:23:25Z</time>
      </trkpt>
      <trkpt lat="38.5322360" lon="-28.5011830">
        <ele>74.0</ele>
        <time>2019-07-07T08:23:30Z</time>
      </trkpt>
      <trkpt lat="38.5322170" lon="-28.5011510">
        <ele>74.2</ele>
        <time>2019-07-07T08:23:31Z</time>
      </trkpt>
      <trkpt lat="38.5320780" lon="-28.5009210">
        <ele>76.0</ele>
        <time>2019-07-07T08:23:38Z</time>
      </trkpt>
      <trkpt lat="38.5320220" lon="-28.5008190">
        <ele>77.1</ele>
        <time>2019-07-07T08:23:41Z</time>
      </trkpt>
      <trkpt lat="38.5319750" lon="-28.5007230">
        <ele>78.1</ele>
        <time>2019-07-07T08:23:44Z</time>
      </trkpt>
      <trkpt lat="38.5319550" lon="-28.5006750">
        <ele>78.6</ele>
        <time>2019-07-07T08:23:46Z</time>
      </trkpt>
      <trkpt lat="38.5319460" lon="-28.5006510">
        <ele>78.8</ele>
        <time>2019-07-07T08:23:47Z</time>
      </trkpt>
      <trkpt lat="38.5319090" lon="-28.5005750">
        <ele>79.4</ele>
        <time>2019-07-07T08:23:50Z</time>
      </trkpt>
      <trkpt lat="38.5318670" lon="-28.5005010">
        <ele>80.1</ele>
        <time>2019-07-07T08:23:53Z</time>
      </trkpt>
      <trkpt lat="38.5318560" lon="-28.5004740">
        <ele>80.3</ele>
        <time>2019-07-07T08:23:54Z</time>
      </trkpt>
      <trkpt lat="38.5317900" lon="-28.5003550">
        <ele>81.9</ele>
        <time>2019-07-07T08:23:59Z</time>
      </trkpt>
      <trkpt lat="38.5317750" lon="-28.5003300">
        <ele>82.4</ele>
        <time>2019-07-07T08:24:00Z</time>
      </trkpt>
      <trkpt lat="38.5317470" lon="-28.5002510">
        <ele>83.6</ele>
        <time>2019-07-07T08:24:03Z</time>
      </trkpt>
      <trkpt lat="38.5317350" lon="-28.5001690">
        <ele>84.9</ele>
        <time>2019-07-07T08:24:06Z</time>
      </trkpt>
      <trkpt lat="38.5317350" lon="-28.5000890">
        <ele>86.0</ele>
        <time>2019-07-07T08:24:09Z</time>
      </trkpt>
      <trkpt lat="38.5317190" lon="-28.5000160">
        <ele>87.3</ele>
        <time>2019-07-07T08:24:12Z</time>
      </trkpt>
      <trkpt lat="38.5317190" lon="-28.5000160">
        <ele>87.3</ele>
        <time>2019-07-07T08:24:13Z</time>
      </trkpt>
      <trkpt lat="38.5317030" lon="-28.4999700">
        <ele>88.1</ele>
        <time>2019-07-07T08:24:15Z</time>
      </trkpt>
      <trkpt lat="38.5316740" lon="-28.4998860">
        <ele>89.3</ele>
        <time>2019-07-07T08:24:19Z</time>
      </trkpt>
      <trkpt lat="38.5316420" lon="-28.4998240">
        <ele>90.3</ele>
        <time>2019-07-07T08:24:21Z</time>
      </trkpt>
      <trkpt lat="38.5316250" lon="-28.4997860">
        <ele>90.8</ele>
        <time>2019-07-07T08:24:23Z</time>
      </trkpt>
      <trkpt lat="38.5315890" lon="-28.4996990">
        <ele>91.9</ele>
        <time>2019-07-07T08:24:27Z</time>
      </trkpt>
      <trkpt lat="38.5315120" lon="-28.4995600">
        <ele>93.5</ele>
        <time>2019-07-07T08:24:33Z</time>
      </trkpt>
      <trkpt lat="38.5314980" lon="-28.4995420">
        <ele>93.7</ele>
        <time>2019-07-07T08:24:34Z</time>
      </trkpt>
      <trkpt lat="38.5313490" lon="-28.4994060">
        <ele>95.2</ele>
        <time>2019-07-07T08:24:43Z</time>
      </trkpt>
      <trkpt lat="38.5312290" lon="-28.4992620">
        <ele>96.0</ele>
        <time>2019-07-07T08:24:51Z</time>
      </trkpt>
      <trkpt lat="38.5311700" lon="-28.4991740">
        <ele>96.4</ele>
        <time>2019-07-07T08:24:55Z</time>
      </trkpt>
      <trkpt lat="38.5311060" lon="-28.4991000">
        <ele>96.7</ele>
        <time>2019-07-07T08:24:59Z</time>
      </trkpt>
      <trkpt lat="38.5309800" lon="-28.4990040">
        <ele>97.1</ele>
        <time>2019-07-07T08:25:05Z</time>
      </trkpt>
      <trkpt lat="38.5309300" lon="-28.4989670">
        <ele>97.3</ele>
        <time>2019-07-07T08:25:07Z</time>
      </trkpt>
      <trkpt lat="38.5308090" lon="-28.4988500">
        <ele>98.4</ele>
        <time>2019-07-07T08:25:12Z</time>
      </trkpt>
      <trkpt lat="38.5307470" lon="-28.4987750">
        <ele>99.2</ele>
        <time>2019-07-07T08:25:15Z</time>
      </trkpt>
      <trkpt lat="38.5306790" lon="-28.4986700">
        <ele>100.3</ele>
        <time>2019-07-07T08:25:19Z</time>
      </trkpt>
      <trkpt lat="38.5306060" lon="-28.4985570">
        <ele>102.0</ele>
        <time>2019-07-07T08:25:23Z</time>
      </trkpt>
      <trkpt lat="38.5305590" lon="-28.4984900">
        <ele>103.1</ele>
        <time>2019-07-07T08:25:26Z</time>
      </trkpt>
      <trkpt lat="38.5305040" lon="-28.4984040">
        <ele>104.5</ele>
        <time>2019-07-07T08:25:30Z</time>
      </trkpt>
      <trkpt lat="38.5304910" lon="-28.4983840">
        <ele>104.9</ele>
        <time>2019-07-07T08:25:31Z</time>
      </trkpt>
      <trkpt lat="38.5304680" lon="-28.4983430">
        <ele>105.4</ele>
        <time>2019-07-07T08:25:33Z</time>
      </trkpt>
      <trkpt lat="38.5304330" lon="-28.4982840">
        <ele>106.3</ele>
        <time>2019-07-07T08:25:36Z</time>
      </trkpt>
      <trkpt lat="38.5303710" lon="-28.4981880">
        <ele>107.7</ele>
        <time>2019-07-07T08:25:41Z</time>
      </trkpt>
      <trkpt lat="38.5303410" lon="-28.4981320">
        <ele>108.6</ele>
        <time>2019-07-07T08:25:44Z</time>
      </trkpt>
      <trkpt lat="38.5303140" lon="-28.4980740">
        <ele>109.5</ele>
        <time>2019-07-07T08:25:47Z</time>
      </trkpt>
      <trkpt lat="38.5303060" lon="-28.4980570">
        <ele>109.8</ele>
        <time>2019-07-07T08:25:48Z</time>
      </trkpt>
      <trkpt lat="38.5302810" lon="-28.4980110">
        <ele>110.7</ele>
        <time>2019-07-07T08:25:51Z</time>
      </trkpt>
      <trkpt lat="38.5302570" lon="-28.4979650">
        <ele>111.6</ele>
        <time>2019-07-07T08:25:54Z</time>
      </trkpt>
      <trkpt lat="38.5302400" lon="-28.4979330">
        <ele>112.3</ele>
        <time>2019-07-07T08:25:56Z</time>
      </trkpt>
      <trkpt lat="38.5302330" lon="-28.4979150">
        <ele>112.6</ele>
        <time>2019-07-07T08:25:57Z</time>
      </trkpt>
      <trkpt lat="38.5301960" lon="-28.4978220">
        <ele>114.2</ele>
        <time>2019-07-07T08:26:02Z</time>
      </trkpt>
      <trkpt lat="38.5301880" lon="-28.4978050">
        <ele>114.5</ele>
        <time>2019-07-07T08:26:03Z</time>
      </trkpt>
      <trkpt lat="38.5301580" lon="-28.4977530">
        <ele>115.4</ele>
        <time>2019-07-07T08:26:06Z</time>
      </trkpt>
      <trkpt lat="38.5301240" lon="-28.4977050">
        <ele>116.1</ele>
        <time>2019-07-07T08:26:09Z</time>
      </trkpt>
      <trkpt lat="38.5301120" lon="-28.4976850">
        <ele>116.3</ele>
        <time>2019-07-07T08:26:10Z</time>
      </trkpt>
      <trkpt lat="38.5300660" lon="-28.4976010">
        <ele>117.1</ele>
        <time>2019-07-07T08:26:14Z</time>
      </trkpt>
      <trkpt lat="38.5300110" lon="-28.4975220">
        <ele>118.1</ele>
        <time>2019-07-07T08:26:18Z</time>
      </trkpt>
      <trkpt lat="38.5299810" lon="-28.4974830">
        <ele>118.5</ele>
        <time>2019-07-07T08:26:20Z</time>
      </trkpt>
      <trkpt lat="38.5298850" lon="-28.4973310">
        <ele>120.4</ele>
        <time>2019-07-07T08:26:27Z</time>
      </trkpt>
      <trkpt lat="38.5298720" lon="-28.4973090">
        <ele>120.6</ele>
        <time>2019-07-07T08:26:28Z</time>
      </trkpt>
      <trkpt lat="38.5298410" lon="-28.4972460">
        <ele>121.3</ele>
        <time>2019-07-07T08:26:31Z</time>
      </trkpt>
      <trkpt lat="38.5297820" lon="-28.4971170">
        <ele>122.4</ele>
        <time>2019-07-07T08:26:37Z</time>
      </trkpt>
      <trkpt lat="38.5296290" lon="-28.4969230">
        <ele>123.4</ele>
        <time>2019-07-07T08:26:45Z</time>
      </trkpt>
      <trkpt lat="38.5295480" lon="-28.4968000">
        <ele>124.2</ele>
        <time>2019-07-07T08:26:49Z</time>
      </trkpt>
      <trkpt lat="38.5294530" lon="-28.4966380">
        <ele>125.1</ele>
        <time>2019-07-07T08:26:54Z</time>
      </trkpt>
      <trkpt lat="38.5294190" lon="-28.4965630">
        <ele>125.4</ele>
        <time>2019-07-07T08:26:56Z</time>
      </trkpt>
      <trkpt lat="38.5293500" lon="-28.4963870">
        <ele>126.2</ele>
        <time>2019-07-07T08:27:01Z</time>
      </trkpt>
      <trkpt lat="38.5293090" lon="-28.4962570">
        <ele>127.1</ele>
        <time>2019-07-07T08:27:05Z</time>
      </trkpt>
      <trkpt lat="38.5292610" lon="-28.4960930">
        <ele>127.6</ele>
        <time>2019-07-07T08:27:10Z</time>
      </trkpt>
      <trkpt lat="38.5292220" lon="-28.4959870">
        <ele>127.5</ele>
        <time>2019-07-07T08:27:13Z</time>
      </trkpt>
      <trkpt lat="38.5291770" lon="-28.4958910">
        <ele>127.1</ele>
        <time>2019-07-07T08:27:15Z</time>
      </trkpt>
      <trkpt lat="38.5289970" lon="-28.4956090">
        <ele>126.4</ele>
        <time>2019-07-07T08:27:21Z</time>
      </trkpt>
      <trkpt lat="38.5289010" lon="-28.4954730">
        <ele>128.5</ele>
        <time>2019-07-07T08:27:26Z</time>
      </trkpt>
      <trkpt lat="38.5288260" lon="-28.4953650">
        <ele>130.4</ele>
        <time>2019-07-07T08:27:30Z</time>
      </trkpt>
      <trkpt lat="38.5287700" lon="-28.4952850">
        <ele>131.5</ele>
        <time>2019-07-07T08:27:33Z</time>
      </trkpt>
      <trkpt lat="38.5286890" lon="-28.4952080">
        <ele>132.4</ele>
        <time>2019-07-07T08:27:37Z</time>
      </trkpt>
      <trkpt lat="38.5286290" lon="-28.4951380">
        <ele>132.7</ele>
        <time>2019-07-07T08:27:40Z</time>
      </trkpt>
      <trkpt lat="38.5285440" lon="-28.4950320">
        <ele>132.9</ele>
        <time>2019-07-07T08:27:44Z</time>
      </trkpt>
      <trkpt lat="38.5284790" lon="-28.4949370">
        <ele>133.4</ele>
        <time>2019-07-07T08:27:47Z</time>
      </trkpt>
      <trkpt lat="38.5283460" lon="-28.4947340">
        <ele>134.7</ele>
        <time>2019-07-07T08:27:54Z</time>
      </trkpt>
      <trkpt lat="38.5283040" lon="-28.4946720">
        <ele>135.1</ele>
        <time>2019-07-07T08:27:56Z</time>
      </trkpt>
      <trkpt lat="38.5281820" lon="-28.4945120">
        <ele>136.6</ele>
        <time>2019-07-07T08:28:02Z</time>
      </trkpt>
      <trkpt lat="38.5281650" lon="-28.4944920">
        <ele>136.8</ele>
        <time>2019-07-07T08:28:03Z</time>
      </trkpt>
      <trkpt lat="38.5280890" lon="-28.4943960">
        <ele>138.2</ele>
        <time>2019-07-07T08:28:08Z</time>
      </trkpt>
      <trkpt lat="38.5280460" lon="-28.4943450">
        <ele>139.0</ele>
        <time>2019-07-07T08:28:11Z</time>
      </trkpt>
      <trkpt lat="38.5280210" lon="-28.4943070">
        <ele>139.6</ele>
        <time>2019-07-07T08:28:13Z</time>
      </trkpt>
      <trkpt lat="38.5279660" lon="-28.4942370">
        <ele>140.7</ele>
        <time>2019-07-07T08:28:17Z</time>
      </trkpt>
      <trkpt lat="38.5279490" lon="-28.4942190">
        <ele>141.0</ele>
        <time>2019-07-07T08:28:18Z</time>
      </trkpt>
      <trkpt lat="38.5278870" lon="-28.4941640">
        <ele>142.0</ele>
        <time>2019-07-07T08:28:22Z</time>
      </trkpt>
      <trkpt lat="38.5278590" lon="-28.4941400">
        <ele>142.1</ele>
        <time>2019-07-07T08:28:24Z</time>
      </trkpt>
      <trkpt lat="38.5278450" lon="-28.4941240">
        <ele>142.2</ele>
        <time>2019-07-07T08:28:25Z</time>
      </trkpt>
      <trkpt lat="38.5277700" lon="-28.4940390">
        <ele>142.7</ele>
        <time>2019-07-07T08:28:30Z</time>
      </trkpt>
      <trkpt lat="38.5276540" lon="-28.4939190">
        <ele>143.7</ele>
        <time>2019-07-07T08:28:36Z</time>
      </trkpt>
      <trkpt lat="38.5276070" lon="-28.4938860">
        <ele>144.0</ele>
        <time>2019-07-07T08:28:38Z</time>
      </trkpt>
      <trkpt lat="38.5275120" lon="-28.4938110">
        <ele>144.8</ele>
        <time>2019-07-07T08:28:42Z</time>
      </trkpt>
      <trkpt lat="38.5273970" lon="-28.4936850">
        <ele>145.9</ele>
        <time>2019-07-07T08:28:47Z</time>
      </trkpt>
      <trkpt lat="38.5273590" lon="-28.4936240">
        <ele>146.4</ele>
        <time>2019-07-07T08:28:49Z</time>
      </trkpt>
      <trkpt lat="38.5272840" lon="-28.4935080">
        <ele>147.2</ele>
        <time>2019-07-07T08:28:53Z</time>
      </trkpt>
      <trkpt lat="38.5272470" lon="-28.4934510">
        <ele>147.7</ele>
        <time>2019-07-07T08:28:55Z</time>
      </trkpt>
      <trkpt lat="38.5271330" lon="-28.4932840">
        <ele>149.1</ele>
        <time>2019-07-07T08:29:01Z</time>
      </trkpt>
      <trkpt lat="38.5270810" lon="-28.4932180">
        <ele>149.8</ele>
        <time>2019-07-07T08:29:04Z</time>
      </trkpt>
      <trkpt lat="38.5270440" lon="-28.4931770">
        <ele>150.3</ele>
        <time>2019-07-07T08:29:06Z</time>
      </trkpt>
      <trkpt lat="38.5269840" lon="-28.4930910">
        <ele>151.1</ele>
        <time>2019-07-07T08:29:10Z</time>
      </trkpt>
      <trkpt lat="38.5269700" lon="-28.4930700">
        <ele>151.3</ele>
        <time>2019-07-07T08:29:11Z</time>
      </trkpt>
      <trkpt lat="38.5269260" lon="-28.4929820">
        <ele>152.1</ele>
        <time>2019-07-07T08:29:15Z</time>
      </trkpt>
      <trkpt lat="38.5268910" lon="-28.4929070">
        <ele>152.7</ele>
        <time>2019-07-07T08:29:18Z</time>
      </trkpt>
      <trkpt lat="38.5268540" lon="-28.4928370">
        <ele>153.1</ele>
        <time>2019-07-07T08:29:21Z</time>
      </trkpt>
      <trkpt lat="38.5267920" lon="-28.4927260">
        <ele>153.8</ele>
        <time>2019-07-07T08:29:26Z</time>
      </trkpt>
      <trkpt lat="38.5267800" lon="-28.4927050">
        <ele>154.0</ele>
        <time>2019-07-07T08:29:27Z</time>
      </trkpt>
      <trkpt lat="38.5267110" lon="-28.4925260">
        <ele>155.0</ele>
        <time>2019-07-07T08:29:34Z</time>
      </trkpt>
      <trkpt lat="38.5266890" lon="-28.4924690">
        <ele>155.3</ele>
        <time>2019-07-07T08:29:36Z</time>
      </trkpt>
      <trkpt lat="38.5266330" lon="-28.4922580">
        <ele>156.5</ele>
        <time>2019-07-07T08:29:43Z</time>
      </trkpt>
      <trkpt lat="38.5265870" lon="-28.4920900">
        <ele>157.2</ele>
        <time>2019-07-07T08:29:49Z</time>
      </trkpt>
      <trkpt lat="38.5265660" lon="-28.4920380">
        <ele>157.5</ele>
        <time>2019-07-07T08:29:51Z</time>
      </trkpt>
      <trkpt lat="38.5265530" lon="-28.4920180">
        <ele>157.6</ele>
        <time>2019-07-07T08:29:52Z</time>
      </trkpt>
      <trkpt lat="38.5264990" lon="-28.4919900">
        <ele>158.0</ele>
        <time>2019-07-07T08:29:55Z</time>
      </trkpt>
      <trkpt lat="38.5264760" lon="-28.4919890">
        <ele>158.1</ele>
        <time>2019-07-07T08:29:56Z</time>
      </trkpt>
      <trkpt lat="38.5264050" lon="-28.4919890">
        <ele>158.6</ele>
        <time>2019-07-07T08:29:59Z</time>
      </trkpt>
      <trkpt lat="38.5262980" lon="-28.4919920">
        <ele>159.2</ele>
        <time>2019-07-07T08:30:04Z</time>
      </trkpt>
      <trkpt lat="38.5262160" lon="-28.4919980">
        <ele>159.6</ele>
        <time>2019-07-07T08:30:08Z</time>
      </trkpt>
      <trkpt lat="38.5261560" lon="-28.4920200">
        <ele>159.8</ele>
        <time>2019-07-07T08:30:11Z</time>
      </trkpt>
      <trkpt lat="38.5261380" lon="-28.4920270">
        <ele>159.9</ele>
        <time>2019-07-07T08:30:12Z</time>
      </trkpt>
      <trkpt lat="38.5260510" lon="-28.4920590">
        <ele>160.4</ele>
        <time>2019-07-07T08:30:17Z</time>
      </trkpt>
      <trkpt lat="38.5260180" lon="-28.4920720">
        <ele>160.6</ele>
        <time>2019-07-07T08:30:19Z</time>
      </trkpt>
      <trkpt lat="38.5259880" lon="-28.4920900">
        <ele>160.9</ele>
        <time>2019-07-07T08:30:21Z</time>
      </trkpt>
      <trkpt lat="38.5259290" lon="-28.4921260">
        <ele>161.5</ele>
        <time>2019-07-07T08:30:25Z</time>
      </trkpt>
      <trkpt lat="38.5258900" lon="-28.4921600">
        <ele>162.2</ele>
        <time>2019-07-07T08:30:28Z</time>
      </trkpt>
      <trkpt lat="38.5258230" lon="-28.4922230">
        <ele>163.4</ele>
        <time>2019-07-07T08:30:33Z</time>
      </trkpt>
      <trkpt lat="38.5257690" lon="-28.4922680">
        <ele>164.4</ele>
        <time>2019-07-07T08:30:36Z</time>
      </trkpt>
      <trkpt lat="38.5257350" lon="-28.4922920">
        <ele>164.9</ele>
        <time>2019-07-07T08:30:38Z</time>
      </trkpt>
      <trkpt lat="38.5256680" lon="-28.4923280">
        <ele>165.8</ele>
        <time>2019-07-07T08:30:42Z</time>
      </trkpt>
      <trkpt lat="38.5256140" lon="-28.4923520">
        <ele>166.3</ele>
        <time>2019-07-07T08:30:45Z</time>
      </trkpt>
      <trkpt lat="38.5255230" lon="-28.4924060">
        <ele>167.0</ele>
        <time>2019-07-07T08:30:49Z</time>
      </trkpt>
      <trkpt lat="38.5254270" lon="-28.4924280">
        <ele>168.0</ele>
        <time>2019-07-07T08:30:53Z</time>
      </trkpt>
      <trkpt lat="38.5254030" lon="-28.4923240">
        <ele>169.1</ele>
        <time>2019-07-07T08:30:57Z</time>
      </trkpt>
      <trkpt lat="38.5253920" lon="-28.4922040">
        <ele>170.2</ele>
        <time>2019-07-07T08:31:01Z</time>
      </trkpt>
      <trkpt lat="38.5253810" lon="-28.4921350">
        <ele>171.0</ele>
        <time>2019-07-07T08:31:03Z</time>
      </trkpt>
      <trkpt lat="38.5253700" lon="-28.4920260">
        <ele>172.0</ele>
        <time>2019-07-07T08:31:06Z</time>
      </trkpt>
      <trkpt lat="38.5253750" lon="-28.4919490">
        <ele>172.8</ele>
        <time>2019-07-07T08:31:08Z</time>
      </trkpt>
      <trkpt lat="38.5253760" lon="-28.4919180">
        <ele>173.0</ele>
        <time>2019-07-07T08:31:09Z</time>
      </trkpt>
      <trkpt lat="38.5253810" lon="-28.4918030">
        <ele>174.0</ele>
        <time>2019-07-07T08:31:13Z</time>
      </trkpt>
      <trkpt lat="38.5253810" lon="-28.4917750">
        <ele>174.2</ele>
        <time>2019-07-07T08:31:14Z</time>
      </trkpt>
      <trkpt lat="38.5253790" lon="-28.4915990">
        <ele>176.1</ele>
        <time>2019-07-07T08:31:20Z</time>
      </trkpt>
      <trkpt lat="38.5253800" lon="-28.4915360">
        <ele>176.9</ele>
        <time>2019-07-07T08:31:22Z</time>
      </trkpt>
      <trkpt lat="38.5253650" lon="-28.4913140">
        <ele>179.4</ele>
        <time>2019-07-07T08:31:29Z</time>
      </trkpt>
      <trkpt lat="38.5253560" lon="-28.4912540">
        <ele>179.8</ele>
        <time>2019-07-07T08:31:31Z</time>
      </trkpt>
      <trkpt lat="38.5253240" lon="-28.4911260">
        <ele>180.1</ele>
        <time>2019-07-07T08:31:35Z</time>
      </trkpt>
      <trkpt lat="38.5253010" lon="-28.4909800">
        <ele>180.2</ele>
        <time>2019-07-07T08:31:39Z</time>
      </trkpt>
      <trkpt lat="38.5252530" lon="-28.4906940">
        <ele>180.2</ele>
        <time>2019-07-07T08:31:46Z</time>
      </trkpt>
      <trkpt lat="38.5252430" lon="-28.4906480">
        <ele>180.2</ele>
        <time>2019-07-07T08:31:47Z</time>
      </trkpt>
      <trkpt lat="38.5251360" lon="-28.4901610">
        <ele>180.6</ele>
        <time>2019-07-07T08:31:58Z</time>
      </trkpt>
      <trkpt lat="38.5251010" lon="-28.4898990">
        <ele>181.2</ele>
        <time>2019-07-07T08:32:05Z</time>
      </trkpt>
      <trkpt lat="38.5250980" lon="-28.4898630">
        <ele>181.2</ele>
        <time>2019-07-07T08:32:06Z</time>
      </trkpt>
      <trkpt lat="38.5251080" lon="-28.4898270">
        <ele>180.7</ele>
        <time>2019-07-07T08:32:07Z</time>
      </trkpt>
      <trkpt lat="38.5251760" lon="-28.4897850">
        <ele>180.0</ele>
        <time>2019-07-07T08:32:09Z</time>
      </trkpt>
      <trkpt lat="38.5252850" lon="-28.4897810">
        <ele>178.6</ele>
        <time>2019-07-07T08:32:11Z</time>
      </trkpt>
      <trkpt lat="38.5254040" lon="-28.4897760">
        <ele>177.4</ele>
        <time>2019-07-07T08:32:13Z</time>
      </trkpt>
      <trkpt lat="38.5255340" lon="-28.4897500">
        <ele>176.2</ele>
        <time>2019-07-07T08:32:15Z</time>
      </trkpt>
      <trkpt lat="38.5256010" lon="-28.4897260">
        <ele>175.3</ele>
        <time>2019-07-07T08:32:16Z</time>
      </trkpt>
      <trkpt lat="38.5256730" lon="-28.4896950">
        <ele>174.6</ele>
        <time>2019-07-07T08:32:17Z</time>
      </trkpt>
      <trkpt lat="38.5258430" lon="-28.4896290">
        <ele>173.3</ele>
        <time>2019-07-07T08:32:19Z</time>
      </trkpt>
      <trkpt lat="38.5260350" lon="-28.4895540">
        <ele>171.5</ele>
        <time>2019-07-07T08:32:21Z</time>
      </trkpt>
      <trkpt lat="38.5261330" lon="-28.4895160">
        <ele>170.9</ele>
        <time>2019-07-07T08:32:22Z</time>
      </trkpt>
      <trkpt lat="38.5262260" lon="-28.4894770">
        <ele>170.3</ele>
        <time>2019-07-07T08:32:23Z</time>
      </trkpt>
      <trkpt lat="38.5263130" lon="-28.4894300">
        <ele>169.7</ele>
        <time>2019-07-07T08:32:24Z</time>
      </trkpt>
      <trkpt lat="38.5263960" lon="-28.4893720">
        <ele>169.3</ele>
        <time>2019-07-07T08:32:25Z</time>
      </trkpt>
      <trkpt lat="38.5264770" lon="-28.4893110">
        <ele>169.1</ele>
        <time>2019-07-07T08:32:26Z</time>
      </trkpt>
      <trkpt lat="38.5266220" lon="-28.4892070">
        <ele>168.9</ele>
        <time>2019-07-07T08:32:28Z</time>
      </trkpt>
      <trkpt lat="38.5266830" lon="-28.4891540">
        <ele>168.9</ele>
        <time>2019-07-07T08:32:29Z</time>
      </trkpt>
      <trkpt lat="38.5267390" lon="-28.4890900">
        <ele>168.8</ele>
        <time>2019-07-07T08:32:30Z</time>
      </trkpt>
      <trkpt lat="38.5268510" lon="-28.4889840">
        <ele>168.8</ele>
        <time>2019-07-07T08:32:32Z</time>
      </trkpt>
      <trkpt lat="38.5269060" lon="-28.4889700">
        <ele>168.8</ele>
        <time>2019-07-07T08:32:33Z</time>
      </trkpt>
      <trkpt lat="38.5269650" lon="-28.4889770">
        <ele>168.6</ele>
        <time>2019-07-07T08:32:34Z</time>
      </trkpt>
      <trkpt lat="38.5270880" lon="-28.4889750">
        <ele>168.5</ele>
        <time>2019-07-07T08:32:36Z</time>
      </trkpt>
      <trkpt lat="38.5272920" lon="-28.4888450">
        <ele>168.8</ele>
        <time>2019-07-07T08:32:40Z</time>
      </trkpt>
      <trkpt lat="38.5273560" lon="-28.4887380">
        <ele>168.9</ele>
        <time>2019-07-07T08:32:42Z</time>
      </trkpt>
      <trkpt lat="38.5273850" lon="-28.4886910">
        <ele>168.9</ele>
        <time>2019-07-07T08:32:43Z</time>
      </trkpt>
      <trkpt lat="38.5274150" lon="-28.4886520">
        <ele>168.9</ele>
        <time>2019-07-07T08:32:44Z</time>
      </trkpt>
      <trkpt lat="38.5275280" lon="-28.4885670">
        <ele>169.0</ele>
        <time>2019-07-07T08:32:47Z</time>
      </trkpt>
      <trkpt lat="38.5275790" lon="-28.4885380">
        <ele>169.1</ele>
        <time>2019-07-07T08:32:48Z</time>
      </trkpt>
      <trkpt lat="38.5276330" lon="-28.4885130">
        <ele>169.2</ele>
        <time>2019-07-07T08:32:49Z</time>
      </trkpt>
      <trkpt lat="38.5278420" lon="-28.4884040">
        <ele>171.0</ele>
        <time>2019-07-07T08:32:53Z</time>
      </trkpt>
      <trkpt lat="38.5278920" lon="-28.4883780">
        <ele>171.7</ele>
        <time>2019-07-07T08:32:54Z</time>
      </trkpt>
      <trkpt lat="38.5280790" lon="-28.4883130">
        <ele>173.6</ele>
        <time>2019-07-07T08:32:58Z</time>
      </trkpt>
      <trkpt lat="38.5281750" lon="-28.4882850">
        <ele>174.0</ele>
        <time>2019-07-07T08:33:00Z</time>
      </trkpt>
      <trkpt lat="38.5283340" lon="-28.4882340">
        <ele>174.4</ele>
        <time>2019-07-07T08:33:03Z</time>
      </trkpt>
      <trkpt lat="38.5284680" lon="-28.4881160">
        <ele>175.3</ele>
        <time>2019-07-07T08:33:07Z</time>
      </trkpt>
      <trkpt lat="38.5284630" lon="-28.4879580">
        <ele>176.4</ele>
        <time>2019-07-07T08:33:10Z</time>
      </trkpt>
      <trkpt lat="38.5284430" lon="-28.4879020">
        <ele>176.8</ele>
        <time>2019-07-07T08:33:11Z</time>
      </trkpt>
      <trkpt lat="38.5283700" lon="-28.4876970">
        <ele>177.9</ele>
        <time>2019-07-07T08:33:15Z</time>
      </trkpt>
      <trkpt lat="38.5283370" lon="-28.4875940">
        <ele>178.4</ele>
        <time>2019-07-07T08:33:17Z</time>
      </trkpt>
      <trkpt lat="38.5283530" lon="-28.4874010">
        <ele>179.0</ele>
        <time>2019-07-07T08:33:21Z</time>
      </trkpt>
      <trkpt lat="38.5285120" lon="-28.4872260">
        <ele>179.4</ele>
        <time>2019-07-07T08:33:26Z</time>
      </trkpt>
      <trkpt lat="38.5285490" lon="-28.4871890">
        <ele>179.3</ele>
        <time>2019-07-07T08:33:27Z</time>
      </trkpt>
      <trkpt lat="38.5286520" lon="-28.4870830">
        <ele>178.4</ele>
        <time>2019-07-07T08:33:30Z</time>
      </trkpt>
      <trkpt lat="38.5287090" lon="-28.4870260">
        <ele>177.5</ele>
        <time>2019-07-07T08:33:32Z</time>
      </trkpt>
      <trkpt lat="38.5287410" lon="-28.4869950">
        <ele>176.9</ele>
        <time>2019-07-07T08:33:33Z</time>
      </trkpt>
      <trkpt lat="38.5288720" lon="-28.4868680">
        <ele>174.7</ele>
        <time>2019-07-07T08:33:36Z</time>
      </trkpt>
      <trkpt lat="38.5290240" lon="-28.4867350">
        <ele>173.8</ele>
        <time>2019-07-07T08:33:39Z</time>
      </trkpt>
      <trkpt lat="38.5291200" lon="-28.4866260">
        <ele>174.3</ele>
        <time>2019-07-07T08:33:41Z</time>
      </trkpt>
      <trkpt lat="38.5291550" lon="-28.4865780">
        <ele>174.7</ele>
        <time>2019-07-07T08:33:42Z</time>
      </trkpt>
      <trkpt lat="38.5291950" lon="-28.4865080">
        <ele>175.5</ele>
        <time>2019-07-07T08:33:44Z</time>
      </trkpt>
      <trkpt lat="38.5292480" lon="-28.4863990">
        <ele>176.7</ele>
        <time>2019-07-07T08:33:47Z</time>
      </trkpt>
      <trkpt lat="38.5292930" lon="-28.4863180">
        <ele>177.6</ele>
        <time>2019-07-07T08:33:49Z</time>
      </trkpt>
      <trkpt lat="38.5293500" lon="-28.4861780">
        <ele>178.6</ele>
        <time>2019-07-07T08:33:52Z</time>
      </trkpt>
      <trkpt lat="38.5294110" lon="-28.4860380">
        <ele>178.9</ele>
        <time>2019-07-07T08:33:55Z</time>
      </trkpt>
      <trkpt lat="38.5295320" lon="-28.4858420">
        <ele>178.7</ele>
        <time>2019-07-07T08:33:59Z</time>
      </trkpt>
      <trkpt lat="38.5295580" lon="-28.4857850">
        <ele>178.7</ele>
        <time>2019-07-07T08:34:00Z</time>
      </trkpt>
      <trkpt lat="38.5296660" lon="-28.4855670">
        <ele>178.4</ele>
        <time>2019-07-07T08:34:04Z</time>
      </trkpt>
      <trkpt lat="38.5297190" lon="-28.4854840">
        <ele>178.1</ele>
        <time>2019-07-07T08:34:06Z</time>
      </trkpt>
      <trkpt lat="38.5297840" lon="-28.4853500">
        <ele>177.2</ele>
        <time>2019-07-07T08:34:09Z</time>
      </trkpt>
      <trkpt lat="38.5298200" lon="-28.4852990">
        <ele>176.6</ele>
        <time>2019-07-07T08:34:10Z</time>
      </trkpt>
      <trkpt lat="38.5300650" lon="-28.4851030">
        <ele>173.8</ele>
        <time>2019-07-07T08:34:14Z</time>
      </trkpt>
      <trkpt lat="38.5301290" lon="-28.4850530">
        <ele>173.7</ele>
        <time>2019-07-07T08:34:15Z</time>
      </trkpt>
      <trkpt lat="38.5302920" lon="-28.4849040">
        <ele>174.0</ele>
        <time>2019-07-07T08:34:18Z</time>
      </trkpt>
      <trkpt lat="38.5303450" lon="-28.4848650">
        <ele>174.0</ele>
        <time>2019-07-07T08:34:19Z</time>
      </trkpt>
      <trkpt lat="38.5304360" lon="-28.4847910">
        <ele>174.1</ele>
        <time>2019-07-07T08:34:21Z</time>
      </trkpt>
      <trkpt lat="38.5304710" lon="-28.4847660">
        <ele>174.1</ele>
        <time>2019-07-07T08:34:22Z</time>
      </trkpt>
      <trkpt lat="38.5305240" lon="-28.4847160">
        <ele>174.1</ele>
        <time>2019-07-07T08:34:24Z</time>
      </trkpt>
      <trkpt lat="38.5305300" lon="-28.4846190">
        <ele>174.1</ele>
        <time>2019-07-07T08:34:26Z</time>
      </trkpt>
      <trkpt lat="38.5304610" lon="-28.4844670">
        <ele>174.5</ele>
        <time>2019-07-07T08:34:29Z</time>
      </trkpt>
      <trkpt lat="38.5303630" lon="-28.4842870">
        <ele>175.8</ele>
        <time>2019-07-07T08:34:34Z</time>
      </trkpt>
      <trkpt lat="38.5302320" lon="-28.4841140">
        <ele>177.3</ele>
        <time>2019-07-07T08:34:39Z</time>
      </trkpt>
      <trkpt lat="38.5301810" lon="-28.4840330">
        <ele>177.7</ele>
        <time>2019-07-07T08:34:41Z</time>
      </trkpt>
      <trkpt lat="38.5301030" lon="-28.4839230">
        <ele>178.2</ele>
        <time>2019-07-07T08:34:44Z</time>
      </trkpt>
      <trkpt lat="38.5300270" lon="-28.4838100">
        <ele>178.6</ele>
        <time>2019-07-07T08:34:47Z</time>
      </trkpt>
      <trkpt lat="38.5298810" lon="-28.4835630">
        <ele>179.5</ele>
        <time>2019-07-07T08:34:53Z</time>
      </trkpt>
      <trkpt lat="38.5298210" lon="-28.4834410">
        <ele>180.1</ele>
        <time>2019-07-07T08:34:56Z</time>
      </trkpt>
      <trkpt lat="38.5297870" lon="-28.4833790">
        <ele>180.5</ele>
        <time>2019-07-07T08:34:58Z</time>
      </trkpt>
      <trkpt lat="38.5297150" lon="-28.4832810">
        <ele>181.2</ele>
        <time>2019-07-07T08:35:02Z</time>
      </trkpt>
      <trkpt lat="38.5296620" lon="-28.4832310">
        <ele>181.7</ele>
        <time>2019-07-07T08:35:04Z</time>
      </trkpt>
      <trkpt lat="38.5296320" lon="-28.4832040">
        <ele>182.0</ele>
        <time>2019-07-07T08:35:05Z</time>
      </trkpt>
      <trkpt lat="38.5295300" lon="-28.4831000">
        <ele>183.0</ele>
        <time>2019-07-07T08:35:09Z</time>
      </trkpt>
      <trkpt lat="38.5295110" lon="-28.4830750">
        <ele>183.2</ele>
        <time>2019-07-07T08:35:10Z</time>
      </trkpt>
      <trkpt lat="38.5294390" lon="-28.4829860">
        <ele>183.7</ele>
        <time>2019-07-07T08:35:13Z</time>
      </trkpt>
      <trkpt lat="38.5293860" lon="-28.4828880">
        <ele>184.0</ele>
        <time>2019-07-07T08:35:16Z</time>
      </trkpt>
      <trkpt lat="38.5293780" lon="-28.4826900">
        <ele>184.3</ele>
        <time>2019-07-07T08:35:20Z</time>
      </trkpt>
      <trkpt lat="38.5294650" lon="-28.4825770">
        <ele>183.4</ele>
        <time>2019-07-07T08:35:23Z</time>
      </trkpt>
      <trkpt lat="38.5295090" lon="-28.4825550">
        <ele>183.2</ele>
        <time>2019-07-07T08:35:24Z</time>
      </trkpt>
      <trkpt lat="38.5297350" lon="-28.4824240">
        <ele>182.3</ele>
        <time>2019-07-07T08:35:29Z</time>
      </trkpt>
      <trkpt lat="38.5298180" lon="-28.4823610">
        <ele>181.9</ele>
        <time>2019-07-07T08:35:31Z</time>
      </trkpt>
      <trkpt lat="38.5299780" lon="-28.4822330">
        <ele>181.2</ele>
        <time>2019-07-07T08:35:35Z</time>
      </trkpt>
      <trkpt lat="38.5300240" lon="-28.4821980">
        <ele>181.2</ele>
        <time>2019-07-07T08:35:36Z</time>
      </trkpt>
      <trkpt lat="38.5303140" lon="-28.4819810">
        <ele>181.1</ele>
        <time>2019-07-07T08:35:42Z</time>
      </trkpt>
      <trkpt lat="38.5306290" lon="-28.4817900">
        <ele>181.0</ele>
        <time>2019-07-07T08:35:49Z</time>
      </trkpt>
      <trkpt lat="38.5306690" lon="-28.4817610">
        <ele>181.0</ele>
        <time>2019-07-07T08:35:50Z</time>
      </trkpt>
      <trkpt lat="38.5307430" lon="-28.4817020">
        <ele>181.0</ele>
        <time>2019-07-07T08:35:52Z</time>
      </trkpt>
      <trkpt lat="38.5307890" lon="-28.4816090">
        <ele>181.0</ele>
        <time>2019-07-07T08:35:54Z</time>
      </trkpt>
      <trkpt lat="38.5308290" lon="-28.4814120">
        <ele>180.8</ele>
        <time>2019-07-07T08:35:58Z</time>
      </trkpt>
      <trkpt lat="38.5308430" lon="-28.4813630">
        <ele>181.0</ele>
        <time>2019-07-07T08:35:59Z</time>
      </trkpt>
      <trkpt lat="38.5308540" lon="-28.4813100">
        <ele>181.0</ele>
        <time>2019-07-07T08:36:00Z</time>
      </trkpt>
      <trkpt lat="38.5308760" lon="-28.4811700">
        <ele>181.5</ele>
        <time>2019-07-07T08:36:03Z</time>
      </trkpt>
      <trkpt lat="38.5309140" lon="-28.4809860">
        <ele>181.9</ele>
        <time>2019-07-07T08:36:08Z</time>
      </trkpt>
      <trkpt lat="38.5309320" lon="-28.4808870">
        <ele>182.7</ele>
        <time>2019-07-07T08:36:10Z</time>
      </trkpt>
      <trkpt lat="38.5309530" lon="-28.4807470">
        <ele>183.3</ele>
        <time>2019-07-07T08:36:13Z</time>
      </trkpt>
      <trkpt lat="38.5309690" lon="-28.4806470">
        <ele>183.6</ele>
        <time>2019-07-07T08:36:15Z</time>
      </trkpt>
      <trkpt lat="38.5309990" lon="-28.4805610">
        <ele>183.5</ele>
        <time>2019-07-07T08:36:17Z</time>
      </trkpt>
      <trkpt lat="38.5310520" lon="-28.4804500">
        <ele>183.1</ele>
        <time>2019-07-07T08:36:21Z</time>
      </trkpt>
      <trkpt lat="38.5310670" lon="-28.4804010">
        <ele>183.1</ele>
        <time>2019-07-07T08:36:25Z</time>
      </trkpt>
      <trkpt lat="38.5311330" lon="-28.4802350">
        <ele>182.5</ele>
        <time>2019-07-07T08:36:55Z</time>
      </trkpt>
      <trkpt lat="38.5311430" lon="-28.4801760">
        <ele>182.4</ele>
        <time>2019-07-07T08:36:57Z</time>
      </trkpt>
      <trkpt lat="38.5311470" lon="-28.4801020">
        <ele>181.9</ele>
        <time>2019-07-07T08:36:59Z</time>
      </trkpt>
      <trkpt lat="38.5311440" lon="-28.4799250">
        <ele>181.7</ele>
        <time>2019-07-07T08:37:04Z</time>
      </trkpt>
      <trkpt lat="38.5310790" lon="-28.4797210">
        <ele>182.0</ele>
        <time>2019-07-07T08:37:09Z</time>
      </trkpt>
      <trkpt lat="38.5310630" lon="-28.4795960">
        <ele>182.1</ele>
        <time>2019-07-07T08:37:11Z</time>
      </trkpt>
      <trkpt lat="38.5310530" lon="-28.4794690">
        <ele>182.2</ele>
        <time>2019-07-07T08:37:13Z</time>
      </trkpt>
      <trkpt lat="38.5310510" lon="-28.4794080">
        <ele>182.2</ele>
        <time>2019-07-07T08:37:14Z</time>
      </trkpt>
      <trkpt lat="38.5310540" lon="-28.4793500">
        <ele>182.4</ele>
        <time>2019-07-07T08:37:15Z</time>
      </trkpt>
      <trkpt lat="38.5311150" lon="-28.4791360">
        <ele>182.6</ele>
        <time>2019-07-07T08:37:19Z</time>
      </trkpt>
      <trkpt lat="38.5311740" lon="-28.4790670">
        <ele>182.5</ele>
        <time>2019-07-07T08:37:22Z</time>
      </trkpt>
      <trkpt lat="38.5311890" lon="-28.4790480">
        <ele>182.4</ele>
        <time>2019-07-07T08:37:23Z</time>
      </trkpt>
      <trkpt lat="38.5312240" lon="-28.4790020">
        <ele>182.3</ele>
        <time>2019-07-07T08:37:26Z</time>
      </trkpt>
      <trkpt lat="38.5312510" lon="-28.4789640">
        <ele>182.1</ele>
        <time>2019-07-07T08:37:28Z</time>
      </trkpt>
      <trkpt lat="38.5313200" lon="-28.4788570">
        <ele>181.7</ele>
        <time>2019-07-07T08:37:33Z</time>
      </trkpt>
      <trkpt lat="38.5313860" lon="-28.4787930">
        <ele>181.2</ele>
        <time>2019-07-07T08:37:37Z</time>
      </trkpt>
      <trkpt lat="38.5314020" lon="-28.4787820">
        <ele>181.2</ele>
        <time>2019-07-07T08:37:38Z</time>
      </trkpt>
      <trkpt lat="38.5314120" lon="-28.4787580">
        <ele>181.2</ele>
        <time>2019-07-07T08:37:39Z</time>
      </trkpt>
      <trkpt lat="38.5314330" lon="-28.4786760">
        <ele>181.3</ele>
        <time>2019-07-07T08:37:42Z</time>
      </trkpt>
      <trkpt lat="38.5314440" lon="-28.4786500">
        <ele>181.5</ele>
        <time>2019-07-07T08:37:43Z</time>
      </trkpt>
      <trkpt lat="38.5314870" lon="-28.4785800">
        <ele>181.2</ele>
        <time>2019-07-07T08:37:46Z</time>
      </trkpt>
      <trkpt lat="38.5315180" lon="-28.4785180">
        <ele>181.4</ele>
        <time>2019-07-07T08:37:48Z</time>
      </trkpt>
      <trkpt lat="38.5316110" lon="-28.4783860">
        <ele>181.2</ele>
        <time>2019-07-07T08:37:53Z</time>
      </trkpt>
      <trkpt lat="38.5317210" lon="-28.4782700">
        <ele>180.2</ele>
        <time>2019-07-07T08:37:58Z</time>
      </trkpt>
      <trkpt lat="38.5317320" lon="-28.4782510">
        <ele>180.2</ele>
        <time>2019-07-07T08:37:59Z</time>
      </trkpt>
      <trkpt lat="38.5318050" lon="-28.4781420">
        <ele>180.1</ele>
        <time>2019-07-07T08:38:03Z</time>
      </trkpt>
      <trkpt lat="38.5318800" lon="-28.4780710">
        <ele>179.5</ele>
        <time>2019-07-07T08:38:06Z</time>
      </trkpt>
      <trkpt lat="38.5318930" lon="-28.4780500">
        <ele>179.4</ele>
        <time>2019-07-07T08:38:07Z</time>
      </trkpt>
      <trkpt lat="38.5320090" lon="-28.4779440">
        <ele>178.9</ele>
        <time>2019-07-07T08:38:13Z</time>
      </trkpt>
      <trkpt lat="38.5321490" lon="-28.4778550">
        <ele>178.4</ele>
        <time>2019-07-07T08:38:17Z</time>
      </trkpt>
      <trkpt lat="38.5321780" lon="-28.4778350">
        <ele>178.4</ele>
        <time>2019-07-07T08:38:18Z</time>
      </trkpt>
      <trkpt lat="38.5323330" lon="-28.4777160">
        <ele>178.0</ele>
        <time>2019-07-07T08:38:24Z</time>
      </trkpt>
      <trkpt lat="38.5324100" lon="-28.4775900">
        <ele>178.8</ele>
        <time>2019-07-07T08:38:28Z</time>
      </trkpt>
      <trkpt lat="38.5324530" lon="-28.4775380">
        <ele>179.0</ele>
        <time>2019-07-07T08:38:30Z</time>
      </trkpt>
      <trkpt lat="38.5324810" lon="-28.4774730">
        <ele>179.2</ele>
        <time>2019-07-07T08:38:33Z</time>
      </trkpt>
      <trkpt lat="38.5325000" lon="-28.4774240">
        <ele>179.4</ele>
        <time>2019-07-07T08:38:35Z</time>
      </trkpt>
      <trkpt lat="38.5325890" lon="-28.4773410">
        <ele>179.7</ele>
        <time>2019-07-07T08:38:38Z</time>
      </trkpt>
      <trkpt lat="38.5327040" lon="-28.4772750">
        <ele>178.9</ele>
        <time>2019-07-07T08:38:40Z</time>
      </trkpt>
      <trkpt lat="38.5327550" lon="-28.4772530">
        <ele>178.4</ele>
        <time>2019-07-07T08:38:41Z</time>
      </trkpt>
      <trkpt lat="38.5328590" lon="-28.4772500">
        <ele>175.7</ele>
        <time>2019-07-07T08:38:43Z</time>
      </trkpt>
      <trkpt lat="38.5329090" lon="-28.4772510">
        <ele>174.9</ele>
        <time>2019-07-07T08:38:44Z</time>
      </trkpt>
      <trkpt lat="38.5329650" lon="-28.4772410">
        <ele>173.6</ele>
        <time>2019-07-07T08:38:45Z</time>
      </trkpt>
      <trkpt lat="38.5330320" lon="-28.4772200">
        <ele>172.1</ele>
        <time>2019-07-07T08:38:46Z</time>
      </trkpt>
      <trkpt lat="38.5331750" lon="-28.4772020">
        <ele>169.5</ele>
        <time>2019-07-07T08:38:48Z</time>
      </trkpt>
      <trkpt lat="38.5332400" lon="-28.4771980">
        <ele>168.2</ele>
        <time>2019-07-07T08:38:49Z</time>
      </trkpt>
      <trkpt lat="38.5333090" lon="-28.4772030">
        <ele>167.1</ele>
        <time>2019-07-07T08:38:50Z</time>
      </trkpt>
      <trkpt lat="38.5334540" lon="-28.4772170">
        <ele>165.2</ele>
        <time>2019-07-07T08:38:52Z</time>
      </trkpt>
      <trkpt lat="38.5335250" lon="-28.4772200">
        <ele>164.3</ele>
        <time>2019-07-07T08:38:53Z</time>
      </trkpt>
      <trkpt lat="38.5335960" lon="-28.4772170">
        <ele>163.6</ele>
        <time>2019-07-07T08:38:54Z</time>
      </trkpt>
      <trkpt lat="38.5337270" lon="-28.4772070">
        <ele>162.2</ele>
        <time>2019-07-07T08:38:56Z</time>
      </trkpt>
      <trkpt lat="38.5337900" lon="-28.4772040">
        <ele>161.8</ele>
        <time>2019-07-07T08:38:57Z</time>
      </trkpt>
      <trkpt lat="38.5338430" lon="-28.4771960">
        <ele>161.5</ele>
        <time>2019-07-07T08:38:58Z</time>
      </trkpt>
      <trkpt lat="38.5339340" lon="-28.4771190">
        <ele>161.5</ele>
        <time>2019-07-07T08:39:00Z</time>
      </trkpt>
      <trkpt lat="38.5339770" lon="-28.4770690">
        <ele>161.7</ele>
        <time>2019-07-07T08:39:01Z</time>
      </trkpt>
      <trkpt lat="38.5340780" lon="-28.4769710">
        <ele>161.7</ele>
        <time>2019-07-07T08:39:03Z</time>
      </trkpt>
      <trkpt lat="38.5341410" lon="-28.4769340">
        <ele>161.6</ele>
        <time>2019-07-07T08:39:04Z</time>
      </trkpt>
      <trkpt lat="38.5342000" lon="-28.4768890">
        <ele>161.5</ele>
        <time>2019-07-07T08:39:05Z</time>
      </trkpt>
      <trkpt lat="38.5342520" lon="-28.4768330">
        <ele>161.3</ele>
        <time>2019-07-07T08:39:06Z</time>
      </trkpt>
      <trkpt lat="38.5343540" lon="-28.4767010">
        <ele>160.9</ele>
        <time>2019-07-07T08:39:08Z</time>
      </trkpt>
      <trkpt lat="38.5344030" lon="-28.4766430">
        <ele>160.6</ele>
        <time>2019-07-07T08:39:09Z</time>
      </trkpt>
      <trkpt lat="38.5346110" lon="-28.4763850">
        <ele>158.4</ele>
        <time>2019-07-07T08:39:13Z</time>
      </trkpt>
      <trkpt lat="38.5346690" lon="-28.4763170">
        <ele>157.9</ele>
        <time>2019-07-07T08:39:14Z</time>
      </trkpt>
      <trkpt lat="38.5347750" lon="-28.4761940">
        <ele>157.1</ele>
        <time>2019-07-07T08:39:16Z</time>
      </trkpt>
      <trkpt lat="38.5349120" lon="-28.4760140">
        <ele>155.7</ele>
        <time>2019-07-07T08:39:19Z</time>
      </trkpt>
      <trkpt lat="38.5350180" lon="-28.4759110">
        <ele>155.2</ele>
        <time>2019-07-07T08:39:21Z</time>
      </trkpt>
      <trkpt lat="38.5350760" lon="-28.4758580">
        <ele>154.9</ele>
        <time>2019-07-07T08:39:22Z</time>
      </trkpt>
      <trkpt lat="38.5351380" lon="-28.4758130">
        <ele>154.8</ele>
        <time>2019-07-07T08:39:23Z</time>
      </trkpt>
      <trkpt lat="38.5352640" lon="-28.4757140">
        <ele>154.3</ele>
        <time>2019-07-07T08:39:25Z</time>
      </trkpt>
      <trkpt lat="38.5353710" lon="-28.4755720">
        <ele>153.8</ele>
        <time>2019-07-07T08:39:27Z</time>
      </trkpt>
      <trkpt lat="38.5354750" lon="-28.4754360">
        <ele>153.3</ele>
        <time>2019-07-07T08:39:29Z</time>
      </trkpt>
      <trkpt lat="38.5355570" lon="-28.4753090">
        <ele>153.1</ele>
        <time>2019-07-07T08:39:31Z</time>
      </trkpt>
      <trkpt lat="38.5355970" lon="-28.4752470">
        <ele>153.0</ele>
        <time>2019-07-07T08:39:32Z</time>
      </trkpt>
      <trkpt lat="38.5356450" lon="-28.4751870">
        <ele>152.7</ele>
        <time>2019-07-07T08:39:33Z</time>
      </trkpt>
      <trkpt lat="38.5357420" lon="-28.4750530">
        <ele>151.2</ele>
        <time>2019-07-07T08:39:35Z</time>
      </trkpt>
      <trkpt lat="38.5357750" lon="-28.4749790">
        <ele>150.2</ele>
        <time>2019-07-07T08:39:36Z</time>
      </trkpt>
      <trkpt lat="38.5358060" lon="-28.4748960">
        <ele>149.4</ele>
        <time>2019-07-07T08:39:37Z</time>
      </trkpt>
      <trkpt lat="38.5358390" lon="-28.4748150">
        <ele>148.9</ele>
        <time>2019-07-07T08:39:38Z</time>
      </trkpt>
      <trkpt lat="38.5358700" lon="-28.4747470">
        <ele>148.5</ele>
        <time>2019-07-07T08:39:39Z</time>
      </trkpt>
      <trkpt lat="38.5359140" lon="-28.4746560">
        <ele>147.9</ele>
        <time>2019-07-07T08:39:41Z</time>
      </trkpt>
      <trkpt lat="38.5359060" lon="-28.4745800">
        <ele>148.0</ele>
        <time>2019-07-07T08:39:43Z</time>
      </trkpt>
      <trkpt lat="38.5358860" lon="-28.4745410">
        <ele>148.2</ele>
        <time>2019-07-07T08:39:44Z</time>
      </trkpt>
      <trkpt lat="38.5358400" lon="-28.4744830">
        <ele>148.5</ele>
        <time>2019-07-07T08:39:46Z</time>
      </trkpt>
      <trkpt lat="38.5357580" lon="-28.4743760">
        <ele>148.9</ele>
        <time>2019-07-07T08:39:50Z</time>
      </trkpt>
      <trkpt lat="38.5357380" lon="-28.4743440">
        <ele>149.0</ele>
        <time>2019-07-07T08:39:51Z</time>
      </trkpt>
      <trkpt lat="38.5356370" lon="-28.4742050">
        <ele>149.3</ele>
        <time>2019-07-07T08:39:55Z</time>
      </trkpt>
      <trkpt lat="38.5356090" lon="-28.4741740">
        <ele>149.4</ele>
        <time>2019-07-07T08:39:56Z</time>
      </trkpt>
      <trkpt lat="38.5355670" lon="-28.4741190">
        <ele>149.6</ele>
        <time>2019-07-07T08:39:58Z</time>
      </trkpt>
      <trkpt lat="38.5355120" lon="-28.4740590">
        <ele>149.8</ele>
        <time>2019-07-07T08:40:01Z</time>
      </trkpt>
      <trkpt lat="38.5354930" lon="-28.4740390">
        <ele>149.8</ele>
        <time>2019-07-07T08:40:02Z</time>
      </trkpt>
      <trkpt lat="38.5354370" lon="-28.4739760">
        <ele>150.0</ele>
        <time>2019-07-07T08:40:05Z</time>
      </trkpt>
      <trkpt lat="38.5353690" lon="-28.4739080">
        <ele>150.2</ele>
        <time>2019-07-07T08:40:08Z</time>
      </trkpt>
      <trkpt lat="38.5353490" lon="-28.4738870">
        <ele>150.3</ele>
        <time>2019-07-07T08:40:09Z</time>
      </trkpt>
      <trkpt lat="38.5353160" lon="-28.4738450">
        <ele>150.4</ele>
        <time>2019-07-07T08:40:11Z</time>
      </trkpt>
      <trkpt lat="38.5352290" lon="-28.4737120">
        <ele>150.7</ele>
        <time>2019-07-07T08:40:16Z</time>
      </trkpt>
      <trkpt lat="38.5351580" lon="-28.4736270">
        <ele>150.9</ele>
        <time>2019-07-07T08:40:19Z</time>
      </trkpt>
      <trkpt lat="38.5350900" lon="-28.4735680">
        <ele>151.1</ele>
        <time>2019-07-07T08:40:21Z</time>
      </trkpt>
      <trkpt lat="38.5350510" lon="-28.4735270">
        <ele>151.1</ele>
        <time>2019-07-07T08:40:22Z</time>
      </trkpt>
      <trkpt lat="38.5349630" lon="-28.4734300">
        <ele>151.0</ele>
        <time>2019-07-07T08:40:24Z</time>
      </trkpt>
      <trkpt lat="38.5349200" lon="-28.4733860">
        <ele>151.0</ele>
        <time>2019-07-07T08:40:25Z</time>
      </trkpt>
      <trkpt lat="38.5348400" lon="-28.4732910">
        <ele>150.8</ele>
        <time>2019-07-07T08:40:27Z</time>
      </trkpt>
      <trkpt lat="38.5347230" lon="-28.4731580">
        <ele>150.7</ele>
        <time>2019-07-07T08:40:30Z</time>
      </trkpt>
      <trkpt lat="38.5346800" lon="-28.4731180">
        <ele>150.8</ele>
        <time>2019-07-07T08:40:31Z</time>
      </trkpt>
      <trkpt lat="38.5345280" lon="-28.4729710">
        <ele>151.2</ele>
        <time>2019-07-07T08:40:35Z</time>
      </trkpt>
      <trkpt lat="38.5342810" lon="-28.4727430">
        <ele>152.5</ele>
        <time>2019-07-07T08:40:41Z</time>
      </trkpt>
      <trkpt lat="38.5340720" lon="-28.4725380">
        <ele>155.4</ele>
        <time>2019-07-07T08:40:47Z</time>
      </trkpt>
      <trkpt lat="38.5340430" lon="-28.4724990">
        <ele>155.9</ele>
        <time>2019-07-07T08:40:48Z</time>
      </trkpt>
      <trkpt lat="38.5339080" lon="-28.4723630">
        <ele>157.7</ele>
        <time>2019-07-07T08:40:53Z</time>
      </trkpt>
      <trkpt lat="38.5338820" lon="-28.4723430">
        <ele>158.0</ele>
        <time>2019-07-07T08:40:54Z</time>
      </trkpt>
      <trkpt lat="38.5338320" lon="-28.4723030">
        <ele>158.5</ele>
        <time>2019-07-07T08:40:56Z</time>
      </trkpt>
      <trkpt lat="38.5337500" lon="-28.4722440">
        <ele>159.4</ele>
        <time>2019-07-07T08:40:59Z</time>
      </trkpt>
      <trkpt lat="38.5336130" lon="-28.4721360">
        <ele>160.9</ele>
        <time>2019-07-07T08:41:03Z</time>
      </trkpt>
      <trkpt lat="38.5335170" lon="-28.4721200">
        <ele>161.9</ele>
        <time>2019-07-07T08:41:08Z</time>
      </trkpt>
      <trkpt lat="38.5333900" lon="-28.4720850">
        <ele>162.9</ele>
        <time>2019-07-07T08:41:12Z</time>
      </trkpt>
      <trkpt lat="38.5332840" lon="-28.4719670">
        <ele>163.6</ele>
        <time>2019-07-07T08:41:17Z</time>
      </trkpt>
      <trkpt lat="38.5331260" lon="-28.4717910">
        <ele>164.2</ele>
        <time>2019-07-07T08:41:23Z</time>
      </trkpt>
      <trkpt lat="38.5330850" lon="-28.4717450">
        <ele>164.4</ele>
        <time>2019-07-07T08:41:25Z</time>
      </trkpt>
      <trkpt lat="38.5330260" lon="-28.4716860">
        <ele>164.7</ele>
        <time>2019-07-07T08:41:28Z</time>
      </trkpt>
      <trkpt lat="38.5330100" lon="-28.4716650">
        <ele>164.8</ele>
        <time>2019-07-07T08:41:29Z</time>
      </trkpt>
      <trkpt lat="38.5329110" lon="-28.4715590">
        <ele>165.2</ele>
        <time>2019-07-07T08:41:34Z</time>
      </trkpt>
      <trkpt lat="38.5327710" lon="-28.4714350">
        <ele>166.0</ele>
        <time>2019-07-07T08:41:39Z</time>
      </trkpt>
      <trkpt lat="38.5326990" lon="-28.4713480">
        <ele>166.4</ele>
        <time>2019-07-07T08:41:41Z</time>
      </trkpt>
      <trkpt lat="38.5326440" lon="-28.4712650">
        <ele>166.7</ele>
        <time>2019-07-07T08:41:43Z</time>
      </trkpt>
      <trkpt lat="38.5325610" lon="-28.4711680">
        <ele>167.2</ele>
        <time>2019-07-07T08:41:47Z</time>
      </trkpt>
      <trkpt lat="38.5324980" lon="-28.4710900">
        <ele>167.5</ele>
        <time>2019-07-07T08:41:51Z</time>
      </trkpt>
      <trkpt lat="38.5324510" lon="-28.4710200">
        <ele>167.8</ele>
        <time>2019-07-07T08:41:54Z</time>
      </trkpt>
      <trkpt lat="38.5324390" lon="-28.4710040">
        <ele>167.9</ele>
        <time>2019-07-07T08:41:55Z</time>
      </trkpt>
      <trkpt lat="38.5323630" lon="-28.4709110">
        <ele>168.5</ele>
        <time>2019-07-07T08:41:59Z</time>
      </trkpt>
      <trkpt lat="38.5323450" lon="-28.4708900">
        <ele>168.6</ele>
        <time>2019-07-07T08:42:00Z</time>
      </trkpt>
      <trkpt lat="38.5322700" lon="-28.4707810">
        <ele>169.2</ele>
        <time>2019-07-07T08:42:05Z</time>
      </trkpt>
      <trkpt lat="38.5321240" lon="-28.4706560">
        <ele>170.1</ele>
        <time>2019-07-07T08:42:10Z</time>
      </trkpt>
      <trkpt lat="38.5320440" lon="-28.4705730">
        <ele>170.6</ele>
        <time>2019-07-07T08:42:13Z</time>
      </trkpt>
      <trkpt lat="38.5319470" lon="-28.4704720">
        <ele>171.2</ele>
        <time>2019-07-07T08:42:16Z</time>
      </trkpt>
      <trkpt lat="38.5317930" lon="-28.4702910">
        <ele>171.9</ele>
        <time>2019-07-07T08:42:20Z</time>
      </trkpt>
      <trkpt lat="38.5317500" lon="-28.4702420">
        <ele>172.3</ele>
        <time>2019-07-07T08:42:21Z</time>
      </trkpt>
      <trkpt lat="38.5315330" lon="-28.4699760">
        <ele>173.3</ele>
        <time>2019-07-07T08:42:26Z</time>
      </trkpt>
      <trkpt lat="38.5314620" lon="-28.4698800">
        <ele>173.5</ele>
        <time>2019-07-07T08:42:28Z</time>
      </trkpt>
      <trkpt lat="38.5313640" lon="-28.4697800">
        <ele>174.0</ele>
        <time>2019-07-07T08:42:31Z</time>
      </trkpt>
      <trkpt lat="38.5312760" lon="-28.4696900">
        <ele>174.4</ele>
        <time>2019-07-07T08:42:34Z</time>
      </trkpt>
      <trkpt lat="38.5312300" lon="-28.4696190">
        <ele>174.8</ele>
        <time>2019-07-07T08:42:36Z</time>
      </trkpt>
      <trkpt lat="38.5311630" lon="-28.4695030">
        <ele>175.4</ele>
        <time>2019-07-07T08:42:39Z</time>
      </trkpt>
      <trkpt lat="38.5311160" lon="-28.4694440">
        <ele>175.8</ele>
        <time>2019-07-07T08:42:41Z</time>
      </trkpt>
      <trkpt lat="38.5309780" lon="-28.4692580">
        <ele>176.5</ele>
        <time>2019-07-07T08:42:46Z</time>
      </trkpt>
      <trkpt lat="38.5309830" lon="-28.4691020">
        <ele>176.7</ele>
        <time>2019-07-07T08:42:49Z</time>
      </trkpt>
      <trkpt lat="38.5310310" lon="-28.4688420">
        <ele>176.3</ele>
        <time>2019-07-07T08:42:53Z</time>
      </trkpt>
      <trkpt lat="38.5310410" lon="-28.4687680">
        <ele>176.0</ele>
        <time>2019-07-07T08:42:54Z</time>
      </trkpt>
      <trkpt lat="38.5311030" lon="-28.4686760">
        <ele>175.6</ele>
        <time>2019-07-07T08:42:56Z</time>
      </trkpt>
      <trkpt lat="38.5312090" lon="-28.4685990">
        <ele>175.0</ele>
        <time>2019-07-07T08:42:59Z</time>
      </trkpt>
      <trkpt lat="38.5312530" lon="-28.4685730">
        <ele>174.8</ele>
        <time>2019-07-07T08:43:00Z</time>
      </trkpt>
      <trkpt lat="38.5314210" lon="-28.4684840">
        <ele>173.1</ele>
        <time>2019-07-07T08:43:03Z</time>
      </trkpt>
      <trkpt lat="38.5314790" lon="-28.4684430">
        <ele>172.4</ele>
        <time>2019-07-07T08:43:04Z</time>
      </trkpt>
      <trkpt lat="38.5315700" lon="-28.4683390">
        <ele>171.2</ele>
        <time>2019-07-07T08:43:06Z</time>
      </trkpt>
      <trkpt lat="38.5316150" lon="-28.4682880">
        <ele>170.5</ele>
        <time>2019-07-07T08:43:07Z</time>
      </trkpt>
      <trkpt lat="38.5316680" lon="-28.4682390">
        <ele>170.1</ele>
        <time>2019-07-07T08:43:08Z</time>
      </trkpt>
      <trkpt lat="38.5317220" lon="-28.4681770">
        <ele>169.6</ele>
        <time>2019-07-07T08:43:09Z</time>
      </trkpt>
      <trkpt lat="38.5318160" lon="-28.4680040">
        <ele>168.5</ele>
        <time>2019-07-07T08:43:11Z</time>
      </trkpt>
      <trkpt lat="38.5318460" lon="-28.4679200">
        <ele>168.0</ele>
        <time>2019-07-07T08:43:12Z</time>
      </trkpt>
      <trkpt lat="38.5318670" lon="-28.4678420">
        <ele>167.6</ele>
        <time>2019-07-07T08:43:13Z</time>
      </trkpt>
      <trkpt lat="38.5318860" lon="-28.4677600">
        <ele>167.2</ele>
        <time>2019-07-07T08:43:14Z</time>
      </trkpt>
      <trkpt lat="38.5319130" lon="-28.4676780">
        <ele>166.9</ele>
        <time>2019-07-07T08:43:15Z</time>
      </trkpt>
      <trkpt lat="38.5320280" lon="-28.4674750">
        <ele>166.1</ele>
        <time>2019-07-07T08:43:18Z</time>
      </trkpt>
      <trkpt lat="38.5320810" lon="-28.4674260">
        <ele>165.6</ele>
        <time>2019-07-07T08:43:19Z</time>
      </trkpt>
      <trkpt lat="38.5321940" lon="-28.4673580">
        <ele>164.7</ele>
        <time>2019-07-07T08:43:21Z</time>
      </trkpt>
      <trkpt lat="38.5322370" lon="-28.4673090">
        <ele>164.3</ele>
        <time>2019-07-07T08:43:22Z</time>
      </trkpt>
      <trkpt lat="38.5322990" lon="-28.4671590">
        <ele>162.9</ele>
        <time>2019-07-07T08:43:24Z</time>
      </trkpt>
      <trkpt lat="38.5323240" lon="-28.4670780">
        <ele>162.1</ele>
        <time>2019-07-07T08:43:25Z</time>
      </trkpt>
      <trkpt lat="38.5323460" lon="-28.4669890">
        <ele>161.3</ele>
        <time>2019-07-07T08:43:26Z</time>
      </trkpt>
      <trkpt lat="38.5323760" lon="-28.4669010">
        <ele>160.3</ele>
        <time>2019-07-07T08:43:27Z</time>
      </trkpt>
      <trkpt lat="38.5324170" lon="-28.4668250">
        <ele>159.2</ele>
        <time>2019-07-07T08:43:28Z</time>
      </trkpt>
      <trkpt lat="38.5324730" lon="-28.4667650">
        <ele>158.4</ele>
        <time>2019-07-07T08:43:29Z</time>
      </trkpt>
      <trkpt lat="38.5325420" lon="-28.4667150">
        <ele>157.6</ele>
        <time>2019-07-07T08:43:30Z</time>
      </trkpt>
      <trkpt lat="38.5326090" lon="-28.4666650">
        <ele>156.4</ele>
        <time>2019-07-07T08:43:31Z</time>
      </trkpt>
      <trkpt lat="38.5326690" lon="-28.4666130">
        <ele>155.2</ele>
        <time>2019-07-07T08:43:32Z</time>
      </trkpt>
      <trkpt lat="38.5327220" lon="-28.4665510">
        <ele>154.3</ele>
        <time>2019-07-07T08:43:33Z</time>
      </trkpt>
      <trkpt lat="38.5327770" lon="-28.4664810">
        <ele>153.4</ele>
        <time>2019-07-07T08:43:34Z</time>
      </trkpt>
      <trkpt lat="38.5329460" lon="-28.4662570">
        <ele>150.9</ele>
        <time>2019-07-07T08:43:37Z</time>
      </trkpt>
      <trkpt lat="38.5330310" lon="-28.4661530">
        <ele>150.0</ele>
        <time>2019-07-07T08:43:39Z</time>
      </trkpt>
      <trkpt lat="38.5330420" lon="-28.4660930">
        <ele>149.8</ele>
        <time>2019-07-07T08:43:40Z</time>
      </trkpt>
      <trkpt lat="38.5330070" lon="-28.4659390">
        <ele>149.2</ele>
        <time>2019-07-07T08:43:43Z</time>
      </trkpt>
      <trkpt lat="38.5329210" lon="-28.4657720">
        <ele>149.1</ele>
        <time>2019-07-07T08:43:47Z</time>
      </trkpt>
      <trkpt lat="38.5329920" lon="-28.4656380">
        <ele>149.4</ele>
        <time>2019-07-07T08:43:50Z</time>
      </trkpt>
      <trkpt lat="38.5331840" lon="-28.4653770">
        <ele>149.7</ele>
        <time>2019-07-07T08:43:55Z</time>
      </trkpt>
      <trkpt lat="38.5332800" lon="-28.4650630">
        <ele>149.9</ele>
        <time>2019-07-07T08:44:00Z</time>
      </trkpt>
      <trkpt lat="38.5331950" lon="-28.4649310">
        <ele>150.0</ele>
        <time>2019-07-07T08:44:03Z</time>
      </trkpt>
      <trkpt lat="38.5331590" lon="-28.4647640">
        <ele>150.3</ele>
        <time>2019-07-07T08:44:06Z</time>
      </trkpt>
      <trkpt lat="38.5331680" lon="-28.4647010">
        <ele>150.5</ele>
        <time>2019-07-07T08:44:07Z</time>
      </trkpt>
      <trkpt lat="38.5331740" lon="-28.4646260">
        <ele>150.6</ele>
        <time>2019-07-07T08:44:08Z</time>
      </trkpt>
      <trkpt lat="38.5331510" lon="-28.4644700">
        <ele>150.8</ele>
        <time>2019-07-07T08:44:10Z</time>
      </trkpt>
      <trkpt lat="38.5331230" lon="-28.4642820">
        <ele>151.1</ele>
        <time>2019-07-07T08:44:13Z</time>
      </trkpt>
      <trkpt lat="38.5330590" lon="-28.4641130">
        <ele>151.3</ele>
        <time>2019-07-07T08:44:16Z</time>
      </trkpt>
      <trkpt lat="38.5330180" lon="-28.4639730">
        <ele>151.7</ele>
        <time>2019-07-07T08:44:18Z</time>
      </trkpt>
      <trkpt lat="38.5330230" lon="-28.4638950">
        <ele>151.9</ele>
        <time>2019-07-07T08:44:19Z</time>
      </trkpt>
      <trkpt lat="38.5331170" lon="-28.4636970">
        <ele>152.6</ele>
        <time>2019-07-07T08:44:22Z</time>
      </trkpt>
      <trkpt lat="38.5331760" lon="-28.4635920">
        <ele>152.7</ele>
        <time>2019-07-07T08:44:24Z</time>
      </trkpt>
      <trkpt lat="38.5332150" lon="-28.4634960">
        <ele>152.5</ele>
        <time>2019-07-07T08:44:26Z</time>
      </trkpt>
      <trkpt lat="38.5332600" lon="-28.4634120">
        <ele>152.3</ele>
        <time>2019-07-07T08:44:28Z</time>
      </trkpt>
      <trkpt lat="38.5332940" lon="-28.4633700">
        <ele>152.1</ele>
        <time>2019-07-07T08:44:29Z</time>
      </trkpt>
      <trkpt lat="38.5333340" lon="-28.4633360">
        <ele>151.8</ele>
        <time>2019-07-07T08:44:30Z</time>
      </trkpt>
      <trkpt lat="38.5334890" lon="-28.4632570">
        <ele>150.8</ele>
        <time>2019-07-07T08:44:34Z</time>
      </trkpt>
      <trkpt lat="38.5335310" lon="-28.4632390">
        <ele>150.5</ele>
        <time>2019-07-07T08:44:35Z</time>
      </trkpt>
      <trkpt lat="38.5337740" lon="-28.4631170">
        <ele>148.6</ele>
        <time>2019-07-07T08:44:40Z</time>
      </trkpt>
      <trkpt lat="38.5338220" lon="-28.4630890">
        <ele>147.6</ele>
        <time>2019-07-07T08:44:41Z</time>
      </trkpt>
      <trkpt lat="38.5339200" lon="-28.4630570">
        <ele>147.0</ele>
        <time>2019-07-07T08:44:44Z</time>
      </trkpt>
      <trkpt lat="38.5339830" lon="-28.4631140">
        <ele>146.3</ele>
        <time>2019-07-07T08:44:46Z</time>
      </trkpt>
      <trkpt lat="38.5340080" lon="-28.4631610">
        <ele>145.9</ele>
        <time>2019-07-07T08:44:47Z</time>
      </trkpt>
      <trkpt lat="38.5340350" lon="-28.4632150">
        <ele>145.6</ele>
        <time>2019-07-07T08:44:48Z</time>
      </trkpt>
      <trkpt lat="38.5341720" lon="-28.4634310">
        <ele>144.4</ele>
        <time>2019-07-07T08:44:52Z</time>
      </trkpt>
      <trkpt lat="38.5344660" lon="-28.4638050">
        <ele>142.0</ele>
        <time>2019-07-07T08:44:59Z</time>
      </trkpt>
      <trkpt lat="38.5345160" lon="-28.4638610">
        <ele>141.4</ele>
        <time>2019-07-07T08:45:00Z</time>
      </trkpt>
      <trkpt lat="38.5346290" lon="-28.4639820">
        <ele>140.4</ele>
        <time>2019-07-07T08:45:02Z</time>
      </trkpt>
      <trkpt lat="38.5348320" lon="-28.4641830">
        <ele>138.6</ele>
        <time>2019-07-07T08:45:05Z</time>
      </trkpt>
      <trkpt lat="38.5351700" lon="-28.4644390">
        <ele>135.4</ele>
        <time>2019-07-07T08:45:09Z</time>
      </trkpt>
      <trkpt lat="38.5353350" lon="-28.4645410">
        <ele>134.1</ele>
        <time>2019-07-07T08:45:11Z</time>
      </trkpt>
      <trkpt lat="38.5354230" lon="-28.4645750">
        <ele>133.4</ele>
        <time>2019-07-07T08:45:12Z</time>
      </trkpt>
      <trkpt lat="38.5355140" lon="-28.4645970">
        <ele>132.8</ele>
        <time>2019-07-07T08:45:13Z</time>
      </trkpt>
      <trkpt lat="38.5355980" lon="-28.4646080">
        <ele>132.5</ele>
        <time>2019-07-07T08:45:14Z</time>
      </trkpt>
      <trkpt lat="38.5357250" lon="-28.4645990">
        <ele>131.9</ele>
        <time>2019-07-07T08:45:16Z</time>
      </trkpt>
      <trkpt lat="38.5357620" lon="-28.4645660">
        <ele>131.7</ele>
        <time>2019-07-07T08:45:17Z</time>
      </trkpt>
      <trkpt lat="38.5358470" lon="-28.4644780">
        <ele>130.9</ele>
        <time>2019-07-07T08:45:19Z</time>
      </trkpt>
      <trkpt lat="38.5359320" lon="-28.4644130">
        <ele>130.2</ele>
        <time>2019-07-07T08:45:21Z</time>
      </trkpt>
      <trkpt lat="38.5359580" lon="-28.4643860">
        <ele>132.6</ele>
        <time>2019-07-07T08:45:22Z</time>
      </trkpt>
      <trkpt lat="38.5359700" lon="-28.4643570">
        <ele>132.9</ele>
        <time>2019-07-07T08:45:23Z</time>
      </trkpt>
      <trkpt lat="38.5359680" lon="-28.4642920">
        <ele>133.3</ele>
        <time>2019-07-07T08:45:25Z</time>
      </trkpt>
      <trkpt lat="38.5359500" lon="-28.4642470">
        <ele>133.6</ele>
        <time>2019-07-07T08:45:27Z</time>
      </trkpt>
      <trkpt lat="38.5358950" lon="-28.4641370">
        <ele>134.6</ele>
        <time>2019-07-07T08:45:31Z</time>
      </trkpt>
      <trkpt lat="38.5358790" lon="-28.4640460">
        <ele>135.1</ele>
        <time>2019-07-07T08:45:34Z</time>
      </trkpt>
      <trkpt lat="38.5358780" lon="-28.4639920">
        <ele>135.4</ele>
        <time>2019-07-07T08:45:36Z</time>
      </trkpt>
      <trkpt lat="38.5358730" lon="-28.4639640">
        <ele>135.5</ele>
        <time>2019-07-07T08:45:37Z</time>
      </trkpt>
      <trkpt lat="38.5358730" lon="-28.4638840">
        <ele>135.9</ele>
        <time>2019-07-07T08:45:40Z</time>
      </trkpt>
      <trkpt lat="38.5358810" lon="-28.4638430">
        <ele>136.1</ele>
        <time>2019-07-07T08:45:42Z</time>
      </trkpt>
      <trkpt lat="38.5358970" lon="-28.4637770">
        <ele>136.2</ele>
        <time>2019-07-07T08:45:45Z</time>
      </trkpt>
      <trkpt lat="38.5359060" lon="-28.4637410">
        <ele>136.3</ele>
        <time>2019-07-07T08:45:47Z</time>
      </trkpt>
      <trkpt lat="38.5359250" lon="-28.4636800">
        <ele>136.6</ele>
        <time>2019-07-07T08:45:50Z</time>
      </trkpt>
      <trkpt lat="38.5359430" lon="-28.4636310">
        <ele>136.6</ele>
        <time>2019-07-07T08:45:52Z</time>
      </trkpt>
      <trkpt lat="38.5360050" lon="-28.4635240">
        <ele>136.6</ele>
        <time>2019-07-07T08:45:57Z</time>
      </trkpt>
      <trkpt lat="38.5360320" lon="-28.4634920">
        <ele>136.7</ele>
        <time>2019-07-07T08:45:59Z</time>
      </trkpt>
      <trkpt lat="38.5361070" lon="-28.4634090">
        <ele>136.6</ele>
        <time>2019-07-07T08:46:03Z</time>
      </trkpt>
      <trkpt lat="38.5361250" lon="-28.4633870">
        <ele>136.6</ele>
        <time>2019-07-07T08:46:04Z</time>
      </trkpt>
      <trkpt lat="38.5362410" lon="-28.4632460">
        <ele>135.6</ele>
        <time>2019-07-07T08:46:09Z</time>
      </trkpt>
      <trkpt lat="38.5362690" lon="-28.4632040">
        <ele>135.2</ele>
        <time>2019-07-07T08:46:10Z</time>
      </trkpt>
      <trkpt lat="38.5363350" lon="-28.4630950">
        <ele>134.1</ele>
        <time>2019-07-07T08:46:12Z</time>
      </trkpt>
      <trkpt lat="38.5363710" lon="-28.4630460">
        <ele>133.6</ele>
        <time>2019-07-07T08:46:13Z</time>
      </trkpt>
      <trkpt lat="38.5364090" lon="-28.4630020">
        <ele>133.0</ele>
        <time>2019-07-07T08:46:14Z</time>
      </trkpt>
      <trkpt lat="38.5365290" lon="-28.4629410">
        <ele>132.0</ele>
        <time>2019-07-07T08:46:17Z</time>
      </trkpt>
      <trkpt lat="38.5365910" lon="-28.4628230">
        <ele>132.0</ele>
        <time>2019-07-07T08:46:20Z</time>
      </trkpt>
      <trkpt lat="38.5365370" lon="-28.4627380">
        <ele>132.7</ele>
        <time>2019-07-07T08:46:23Z</time>
      </trkpt>
      <trkpt lat="38.5365100" lon="-28.4627120">
        <ele>133.1</ele>
        <time>2019-07-07T08:46:24Z</time>
      </trkpt>
      <trkpt lat="38.5363840" lon="-28.4625800">
        <ele>134.4</ele>
        <time>2019-07-07T08:46:29Z</time>
      </trkpt>
      <trkpt lat="38.5363040" lon="-28.4624470">
        <ele>134.9</ele>
        <time>2019-07-07T08:46:33Z</time>
      </trkpt>
      <trkpt lat="38.5362560" lon="-28.4623980">
        <ele>135.0</ele>
        <time>2019-07-07T08:46:35Z</time>
      </trkpt>
      <trkpt lat="38.5362350" lon="-28.4623800">
        <ele>135.1</ele>
        <time>2019-07-07T08:46:36Z</time>
      </trkpt>
      <trkpt lat="38.5361630" lon="-28.4623000">
        <ele>135.3</ele>
        <time>2019-07-07T08:46:40Z</time>
      </trkpt>
      <trkpt lat="38.5361490" lon="-28.4622760">
        <ele>135.3</ele>
        <time>2019-07-07T08:46:41Z</time>
      </trkpt>
      <trkpt lat="38.5361430" lon="-28.4621420">
        <ele>135.6</ele>
        <time>2019-07-07T08:46:46Z</time>
      </trkpt>
      <trkpt lat="38.5361620" lon="-28.4621160">
        <ele>135.5</ele>
        <time>2019-07-07T08:46:47Z</time>
      </trkpt>
      <trkpt lat="38.5362290" lon="-28.4620830">
        <ele>135.2</ele>
        <time>2019-07-07T08:46:49Z</time>
      </trkpt>
      <trkpt lat="38.5364550" lon="-28.4620370">
        <ele>134.0</ele>
        <time>2019-07-07T08:46:53Z</time>
      </trkpt>
      <trkpt lat="38.5366810" lon="-28.4619840">
        <ele>132.4</ele>
        <time>2019-07-07T08:46:56Z</time>
      </trkpt>
      <trkpt lat="38.5368330" lon="-28.4619420">
        <ele>131.1</ele>
        <time>2019-07-07T08:46:58Z</time>
      </trkpt>
      <trkpt lat="38.5369020" lon="-28.4619260">
        <ele>130.5</ele>
        <time>2019-07-07T08:46:59Z</time>
      </trkpt>
      <trkpt lat="38.5370110" lon="-28.4619100">
        <ele>129.6</ele>
        <time>2019-07-07T08:47:01Z</time>
      </trkpt>
      <trkpt lat="38.5370740" lon="-28.4618590">
        <ele>129.3</ele>
        <time>2019-07-07T08:47:03Z</time>
      </trkpt>
      <trkpt lat="38.5370830" lon="-28.4618150">
        <ele>129.4</ele>
        <time>2019-07-07T08:47:04Z</time>
      </trkpt>
      <trkpt lat="38.5370790" lon="-28.4617730">
        <ele>129.6</ele>
        <time>2019-07-07T08:47:05Z</time>
      </trkpt>
      <trkpt lat="38.5370340" lon="-28.4617090">
        <ele>129.9</ele>
        <time>2019-07-07T08:47:07Z</time>
      </trkpt>
      <trkpt lat="38.5370040" lon="-28.4616840">
        <ele>130.0</ele>
        <time>2019-07-07T08:47:08Z</time>
      </trkpt>
      <trkpt lat="38.5368410" lon="-28.4615130">
        <ele>130.3</ele>
        <time>2019-07-07T08:47:13Z</time>
      </trkpt>
      <trkpt lat="38.5368030" lon="-28.4614810">
        <ele>130.3</ele>
        <time>2019-07-07T08:47:14Z</time>
      </trkpt>
      <trkpt lat="38.5367610" lon="-28.4614520">
        <ele>130.3</ele>
        <time>2019-07-07T08:47:15Z</time>
      </trkpt>
      <trkpt lat="38.5366300" lon="-28.4613730">
        <ele>130.8</ele>
        <time>2019-07-07T08:47:18Z</time>
      </trkpt>
      <trkpt lat="38.5365280" lon="-28.4612920">
        <ele>131.2</ele>
        <time>2019-07-07T08:47:21Z</time>
      </trkpt>
      <trkpt lat="38.5364680" lon="-28.4612440">
        <ele>131.5</ele>
        <time>2019-07-07T08:47:23Z</time>
      </trkpt>
      <trkpt lat="38.5364360" lon="-28.4612140">
        <ele>131.7</ele>
        <time>2019-07-07T08:47:24Z</time>
      </trkpt>
      <trkpt lat="38.5364010" lon="-28.4611790">
        <ele>131.9</ele>
        <time>2019-07-07T08:47:25Z</time>
      </trkpt>
      <trkpt lat="38.5363270" lon="-28.4611040">
        <ele>132.2</ele>
        <time>2019-07-07T08:47:27Z</time>
      </trkpt>
      <trkpt lat="38.5362900" lon="-28.4610670">
        <ele>132.4</ele>
        <time>2019-07-07T08:47:28Z</time>
      </trkpt>
      <trkpt lat="38.5360040" lon="-28.4607850">
        <ele>134.2</ele>
        <time>2019-07-07T08:47:36Z</time>
      </trkpt>
      <trkpt lat="38.5359460" lon="-28.4607270">
        <ele>134.9</ele>
        <time>2019-07-07T08:47:38Z</time>
      </trkpt>
      <trkpt lat="38.5358060" lon="-28.4605920">
        <ele>136.7</ele>
        <time>2019-07-07T08:47:43Z</time>
      </trkpt>
      <trkpt lat="38.5357630" lon="-28.4605500">
        <ele>137.3</ele>
        <time>2019-07-07T08:47:45Z</time>
      </trkpt>
      <trkpt lat="38.5356990" lon="-28.4604840">
        <ele>138.3</ele>
        <time>2019-07-07T08:47:49Z</time>
      </trkpt>
      <trkpt lat="38.5356690" lon="-28.4604520">
        <ele>138.8</ele>
        <time>2019-07-07T08:47:51Z</time>
      </trkpt>
      <trkpt lat="38.5355940" lon="-28.4603780">
        <ele>139.9</ele>
        <time>2019-07-07T08:47:56Z</time>
      </trkpt>
      <trkpt lat="38.5355790" lon="-28.4603620">
        <ele>139.9</ele>
        <time>2019-07-07T08:47:57Z</time>
      </trkpt>
      <trkpt lat="38.5355500" lon="-28.4603330">
        <ele>140.5</ele>
        <time>2019-07-07T08:47:59Z</time>
      </trkpt>
      <trkpt lat="38.5355140" lon="-28.4602930">
        <ele>141.2</ele>
        <time>2019-07-07T08:48:02Z</time>
      </trkpt>
      <trkpt lat="38.5354720" lon="-28.4602530">
        <ele>142.3</ele>
        <time>2019-07-07T08:48:05Z</time>
      </trkpt>
      <trkpt lat="38.5354590" lon="-28.4602390">
        <ele>142.3</ele>
        <time>2019-07-07T08:48:06Z</time>
      </trkpt>
      <trkpt lat="38.5354130" lon="-28.4601820">
        <ele>143.1</ele>
        <time>2019-07-07T08:48:10Z</time>
      </trkpt>
      <trkpt lat="38.5353840" lon="-28.4601370">
        <ele>143.8</ele>
        <time>2019-07-07T08:48:13Z</time>
      </trkpt>
      <trkpt lat="38.5353720" lon="-28.4601230">
        <ele>144.6</ele>
        <time>2019-07-07T08:48:14Z</time>
      </trkpt>
      <trkpt lat="38.5353350" lon="-28.4600630">
        <ele>145.4</ele>
        <time>2019-07-07T08:48:18Z</time>
      </trkpt>
      <trkpt lat="38.5353130" lon="-28.4600260">
        <ele>145.7</ele>
        <time>2019-07-07T08:48:21Z</time>
      </trkpt>
      <trkpt lat="38.5352340" lon="-28.4599460">
        <ele>148.0</ele>
        <time>2019-07-07T08:48:27Z</time>
      </trkpt>
      <trkpt lat="38.5352160" lon="-28.4599350">
        <ele>148.0</ele>
        <time>2019-07-07T08:48:28Z</time>
      </trkpt>
      <trkpt lat="38.5351150" lon="-28.4598760">
        <ele>149.5</ele>
        <time>2019-07-07T08:48:33Z</time>
      </trkpt>
      <trkpt lat="38.5350630" lon="-28.4598410">
        <ele>150.3</ele>
        <time>2019-07-07T08:48:36Z</time>
      </trkpt>
      <trkpt lat="38.5350350" lon="-28.4598170">
        <ele>150.7</ele>
        <time>2019-07-07T08:48:38Z</time>
      </trkpt>
      <trkpt lat="38.5349500" lon="-28.4597410">
        <ele>151.2</ele>
        <time>2019-07-07T08:48:43Z</time>
      </trkpt>
      <trkpt lat="38.5347930" lon="-28.4595900">
        <ele>151.8</ele>
        <time>2019-07-07T08:48:50Z</time>
      </trkpt>
      <trkpt lat="38.5346510" lon="-28.4594730">
        <ele>152.7</ele>
        <time>2019-07-07T08:48:56Z</time>
      </trkpt>
      <trkpt lat="38.5345990" lon="-28.4594290">
        <ele>153.5</ele>
        <time>2019-07-07T08:48:58Z</time>
      </trkpt>
      <trkpt lat="38.5345480" lon="-28.4593870">
        <ele>154.0</ele>
        <time>2019-07-07T08:49:00Z</time>
      </trkpt>
      <trkpt lat="38.5344100" lon="-28.4592610">
        <ele>156.5</ele>
        <time>2019-07-07T08:49:06Z</time>
      </trkpt>
      <trkpt lat="38.5343730" lon="-28.4592210">
        <ele>157.1</ele>
        <time>2019-07-07T08:49:08Z</time>
      </trkpt>
      <trkpt lat="38.5343080" lon="-28.4591430">
        <ele>158.1</ele>
        <time>2019-07-07T08:49:12Z</time>
      </trkpt>
      <trkpt lat="38.5342630" lon="-28.4591020">
        <ele>159.0</ele>
        <time>2019-07-07T08:49:15Z</time>
      </trkpt>
      <trkpt lat="38.5342090" lon="-28.4590510">
        <ele>159.2</ele>
        <time>2019-07-07T08:49:19Z</time>
      </trkpt>
      <trkpt lat="38.5341450" lon="-28.4589950">
        <ele>160.0</ele>
        <time>2019-07-07T08:49:24Z</time>
      </trkpt>
      <trkpt lat="38.5341000" lon="-28.4589520">
        <ele>160.8</ele>
        <time>2019-07-07T08:49:27Z</time>
      </trkpt>
      <trkpt lat="38.5340570" lon="-28.4589090">
        <ele>161.1</ele>
        <time>2019-07-07T08:49:30Z</time>
      </trkpt>
      <trkpt lat="38.5339970" lon="-28.4588520">
        <ele>161.8</ele>
        <time>2019-07-07T08:49:33Z</time>
      </trkpt>
      <trkpt lat="38.5339200" lon="-28.4587690">
        <ele>162.7</ele>
        <time>2019-07-07T08:49:37Z</time>
      </trkpt>
      <trkpt lat="38.5338740" lon="-28.4587180">
        <ele>163.1</ele>
        <time>2019-07-07T08:49:40Z</time>
      </trkpt>
      <trkpt lat="38.5338490" lon="-28.4586750">
        <ele>163.5</ele>
        <time>2019-07-07T08:49:42Z</time>
      </trkpt>
      <trkpt lat="38.5337810" lon="-28.4585440">
        <ele>164.4</ele>
        <time>2019-07-07T08:49:48Z</time>
      </trkpt>
      <trkpt lat="38.5336780" lon="-28.4584240">
        <ele>165.8</ele>
        <time>2019-07-07T08:49:53Z</time>
      </trkpt>
      <trkpt lat="38.5336380" lon="-28.4583820">
        <ele>166.3</ele>
        <time>2019-07-07T08:49:55Z</time>
      </trkpt>
      <trkpt lat="38.5335530" lon="-28.4583130">
        <ele>167.7</ele>
        <time>2019-07-07T08:49:59Z</time>
      </trkpt>
      <trkpt lat="38.5334310" lon="-28.4582050">
        <ele>169.1</ele>
        <time>2019-07-07T08:50:04Z</time>
      </trkpt>
      <trkpt lat="38.5334070" lon="-28.4581850">
        <ele>169.6</ele>
        <time>2019-07-07T08:50:05Z</time>
      </trkpt>
      <trkpt lat="38.5332900" lon="-28.4580900">
        <ele>171.4</ele>
        <time>2019-07-07T08:50:10Z</time>
      </trkpt>
      <trkpt lat="38.5332680" lon="-28.4580730">
        <ele>171.4</ele>
        <time>2019-07-07T08:50:11Z</time>
      </trkpt>
      <trkpt lat="38.5331200" lon="-28.4579330">
        <ele>173.8</ele>
        <time>2019-07-07T08:50:17Z</time>
      </trkpt>
      <trkpt lat="38.5329440" lon="-28.4577660">
        <ele>175.8</ele>
        <time>2019-07-07T08:50:23Z</time>
      </trkpt>
      <trkpt lat="38.5328410" lon="-28.4576730">
        <ele>176.8</ele>
        <time>2019-07-07T08:50:26Z</time>
      </trkpt>
      <trkpt lat="38.5327400" lon="-28.4575920">
        <ele>177.4</ele>
        <time>2019-07-07T08:50:29Z</time>
      </trkpt>
      <trkpt lat="38.5325280" lon="-28.4574400">
        <ele>178.2</ele>
        <time>2019-07-07T08:50:35Z</time>
      </trkpt>
      <trkpt lat="38.5322550" lon="-28.4572340">
        <ele>178.9</ele>
        <time>2019-07-07T08:50:43Z</time>
      </trkpt>
      <trkpt lat="38.5320990" lon="-28.4571090">
        <ele>179.6</ele>
        <time>2019-07-07T08:50:48Z</time>
      </trkpt>
      <trkpt lat="38.5320730" lon="-28.4570870">
        <ele>179.8</ele>
        <time>2019-07-07T08:50:49Z</time>
      </trkpt>
      <trkpt lat="38.5319700" lon="-28.4569900">
        <ele>180.1</ele>
        <time>2019-07-07T08:50:53Z</time>
      </trkpt>
      <trkpt lat="38.5318910" lon="-28.4568750">
        <ele>180.5</ele>
        <time>2019-07-07T08:50:57Z</time>
      </trkpt>
      <trkpt lat="38.5318700" lon="-28.4568130">
        <ele>180.7</ele>
        <time>2019-07-07T08:50:59Z</time>
      </trkpt>
      <trkpt lat="38.5319080" lon="-28.4566440">
        <ele>180.4</ele>
        <time>2019-07-07T08:51:04Z</time>
      </trkpt>
      <trkpt lat="38.5319740" lon="-28.4564970">
        <ele>180.0</ele>
        <time>2019-07-07T08:51:08Z</time>
      </trkpt>
      <trkpt lat="38.5319890" lon="-28.4564540">
        <ele>180.0</ele>
        <time>2019-07-07T08:51:09Z</time>
      </trkpt>
      <trkpt lat="38.5320050" lon="-28.4564110">
        <ele>179.9</ele>
        <time>2019-07-07T08:51:10Z</time>
      </trkpt>
      <trkpt lat="38.5321250" lon="-28.4560930">
        <ele>179.6</ele>
        <time>2019-07-07T08:51:18Z</time>
      </trkpt>
      <trkpt lat="38.5322000" lon="-28.4559040">
        <ele>179.8</ele>
        <time>2019-07-07T08:51:22Z</time>
      </trkpt>
      <trkpt lat="38.5322730" lon="-28.4557090">
        <ele>179.9</ele>
        <time>2019-07-07T08:51:26Z</time>
      </trkpt>
      <trkpt lat="38.5324000" lon="-28.4553430">
        <ele>180.2</ele>
        <time>2019-07-07T08:51:33Z</time>
      </trkpt>
      <trkpt lat="38.5324850" lon="-28.4549750">
        <ele>181.4</ele>
        <time>2019-07-07T08:51:38Z</time>
      </trkpt>
      <trkpt lat="38.5325290" lon="-28.4546000">
        <ele>182.1</ele>
        <time>2019-07-07T08:51:43Z</time>
      </trkpt>
      <trkpt lat="38.5325300" lon="-28.4544350">
        <ele>182.2</ele>
        <time>2019-07-07T08:51:46Z</time>
      </trkpt>
      <trkpt lat="38.5325200" lon="-28.4542330">
        <ele>182.9</ele>
        <time>2019-07-07T08:51:50Z</time>
      </trkpt>
      <trkpt lat="38.5325200" lon="-28.4540100">
        <ele>184.0</ele>
        <time>2019-07-07T08:51:55Z</time>
      </trkpt>
      <trkpt lat="38.5325210" lon="-28.4539660">
        <ele>184.1</ele>
        <time>2019-07-07T08:51:56Z</time>
      </trkpt>
      <trkpt lat="38.5325250" lon="-28.4537970">
        <ele>185.2</ele>
        <time>2019-07-07T08:52:00Z</time>
      </trkpt>
      <trkpt lat="38.5325230" lon="-28.4536440">
        <ele>185.6</ele>
        <time>2019-07-07T08:52:04Z</time>
      </trkpt>
      <trkpt lat="38.5325150" lon="-28.4535220">
        <ele>186.3</ele>
        <time>2019-07-07T08:52:07Z</time>
      </trkpt>
      <trkpt lat="38.5324880" lon="-28.4532840">
        <ele>187.9</ele>
        <time>2019-07-07T08:52:12Z</time>
      </trkpt>
      <trkpt lat="38.5324830" lon="-28.4532320">
        <ele>188.0</ele>
        <time>2019-07-07T08:52:13Z</time>
      </trkpt>
      <trkpt lat="38.5324490" lon="-28.4530100">
        <ele>189.4</ele>
        <time>2019-07-07T08:52:17Z</time>
      </trkpt>
      <trkpt lat="38.5323790" lon="-28.4525910">
        <ele>189.9</ele>
        <time>2019-07-07T08:52:24Z</time>
      </trkpt>
      <trkpt lat="38.5323440" lon="-28.4521320">
        <ele>189.7</ele>
        <time>2019-07-07T08:52:30Z</time>
      </trkpt>
      <trkpt lat="38.5323590" lon="-28.4517770">
        <ele>189.8</ele>
        <time>2019-07-07T08:52:35Z</time>
      </trkpt>
      <trkpt lat="38.5323360" lon="-28.4512840">
        <ele>189.9</ele>
        <time>2019-07-07T08:52:43Z</time>
      </trkpt>
      <trkpt lat="38.5323260" lon="-28.4512290">
        <ele>190.1</ele>
        <time>2019-07-07T08:52:44Z</time>
      </trkpt>
      <trkpt lat="38.5322440" lon="-28.4510170">
        <ele>190.9</ele>
        <time>2019-07-07T08:52:48Z</time>
      </trkpt>
      <trkpt lat="38.5321880" lon="-28.4509150">
        <ele>191.4</ele>
        <time>2019-07-07T08:52:50Z</time>
      </trkpt>
      <trkpt lat="38.5320850" lon="-28.4507760">
        <ele>192.1</ele>
        <time>2019-07-07T08:52:53Z</time>
      </trkpt>
      <trkpt lat="38.5319750" lon="-28.4506340">
        <ele>193.1</ele>
        <time>2019-07-07T08:52:56Z</time>
      </trkpt>
      <trkpt lat="38.5319150" lon="-28.4505450">
        <ele>193.3</ele>
        <time>2019-07-07T08:52:58Z</time>
      </trkpt>
      <trkpt lat="38.5318280" lon="-28.4503830">
        <ele>193.8</ele>
        <time>2019-07-07T08:53:02Z</time>
      </trkpt>
      <trkpt lat="38.5317930" lon="-28.4503010">
        <ele>193.7</ele>
        <time>2019-07-07T08:53:04Z</time>
      </trkpt>
      <trkpt lat="38.5317090" lon="-28.4500490">
        <ele>194.0</ele>
        <time>2019-07-07T08:53:09Z</time>
      </trkpt>
      <trkpt lat="38.5316870" lon="-28.4499270">
        <ele>194.0</ele>
        <time>2019-07-07T08:53:11Z</time>
      </trkpt>
      <trkpt lat="38.5316740" lon="-28.4497920">
        <ele>194.4</ele>
        <time>2019-07-07T08:53:13Z</time>
      </trkpt>
      <trkpt lat="38.5316700" lon="-28.4495600">
        <ele>194.7</ele>
        <time>2019-07-07T08:53:16Z</time>
      </trkpt>
      <trkpt lat="38.5316780" lon="-28.4494080">
        <ele>195.0</ele>
        <time>2019-07-07T08:53:18Z</time>
      </trkpt>
      <trkpt lat="38.5317070" lon="-28.4490950">
        <ele>195.4</ele>
        <time>2019-07-07T08:53:23Z</time>
      </trkpt>
      <trkpt lat="38.5317370" lon="-28.4489310">
        <ele>195.8</ele>
        <time>2019-07-07T08:53:27Z</time>
      </trkpt>
      <trkpt lat="38.5317540" lon="-28.4488720">
        <ele>196.2</ele>
        <time>2019-07-07T08:53:29Z</time>
      </trkpt>
      <trkpt lat="38.5317580" lon="-28.4488480">
        <ele>196.3</ele>
        <time>2019-07-07T08:53:30Z</time>
      </trkpt>
      <trkpt lat="38.5317770" lon="-28.4487180">
        <ele>196.8</ele>
        <time>2019-07-07T08:53:35Z</time>
      </trkpt>
      <trkpt lat="38.5317830" lon="-28.4486370">
        <ele>197.2</ele>
        <time>2019-07-07T08:53:38Z</time>
      </trkpt>
      <trkpt lat="38.5317990" lon="-28.4485210">
        <ele>198.0</ele>
        <time>2019-07-07T08:53:42Z</time>
      </trkpt>
      <trkpt lat="38.5318020" lon="-28.4484920">
        <ele>198.2</ele>
        <time>2019-07-07T08:53:43Z</time>
      </trkpt>
      <trkpt lat="38.5318130" lon="-28.4483240">
        <ele>199.1</ele>
        <time>2019-07-07T08:53:49Z</time>
      </trkpt>
      <trkpt lat="38.5318170" lon="-28.4482990">
        <ele>199.2</ele>
        <time>2019-07-07T08:53:50Z</time>
      </trkpt>
      <trkpt lat="38.5318300" lon="-28.4482790">
        <ele>199.0</ele>
        <time>2019-07-07T08:53:51Z</time>
      </trkpt>
      <trkpt lat="38.5319080" lon="-28.4482780">
        <ele>198.2</ele>
        <time>2019-07-07T08:53:55Z</time>
      </trkpt>
      <trkpt lat="38.5319310" lon="-28.4482810">
        <ele>197.8</ele>
        <time>2019-07-07T08:53:56Z</time>
      </trkpt>
      <trkpt lat="38.5319960" lon="-28.4483160">
        <ele>196.8</ele>
        <time>2019-07-07T08:54:00Z</time>
      </trkpt>
      <trkpt lat="38.5320110" lon="-28.4483280">
        <ele>196.5</ele>
        <time>2019-07-07T08:54:01Z</time>
      </trkpt>
      <trkpt lat="38.5320290" lon="-28.4483450">
        <ele>196.2</ele>
        <time>2019-07-07T08:54:02Z</time>
      </trkpt>
      <trkpt lat="38.5320730" lon="-28.4483820">
        <ele>195.6</ele>
        <time>2019-07-07T08:54:04Z</time>
      </trkpt>
      <trkpt lat="38.5321130" lon="-28.4484170">
        <ele>195.0</ele>
        <time>2019-07-07T08:54:06Z</time>
      </trkpt>
      <trkpt lat="38.5321420" lon="-28.4484710">
        <ele>194.5</ele>
        <time>2019-07-07T08:54:08Z</time>
      </trkpt>
      <trkpt lat="38.5321620" lon="-28.4484960">
        <ele>193.8</ele>
        <time>2019-07-07T08:54:09Z</time>
      </trkpt>
      <trkpt lat="38.5321810" lon="-28.4485250">
        <ele>193.8</ele>
        <time>2019-07-07T08:54:10Z</time>
      </trkpt>
      <trkpt lat="38.5322170" lon="-28.4485680">
        <ele>193.2</ele>
        <time>2019-07-07T08:54:12Z</time>
      </trkpt>
      <trkpt lat="38.5322350" lon="-28.4485900">
        <ele>192.6</ele>
        <time>2019-07-07T08:54:13Z</time>
      </trkpt>
      <trkpt lat="38.5322520" lon="-28.4486110">
        <ele>192.6</ele>
        <time>2019-07-07T08:54:14Z</time>
      </trkpt>
      <trkpt lat="38.5322990" lon="-28.4486480">
        <ele>191.8</ele>
        <time>2019-07-07T08:54:16Z</time>
      </trkpt>
      <trkpt lat="38.5323830" lon="-28.4487150">
        <ele>190.9</ele>
        <time>2019-07-07T08:54:19Z</time>
      </trkpt>
      <trkpt lat="38.5324100" lon="-28.4487410">
        <ele>190.6</ele>
        <time>2019-07-07T08:54:20Z</time>
      </trkpt>
      <trkpt lat="38.5325340" lon="-28.4488230">
        <ele>189.3</ele>
        <time>2019-07-07T08:54:24Z</time>
      </trkpt>
      <trkpt lat="38.5326750" lon="-28.4489080">
        <ele>188.2</ele>
        <time>2019-07-07T08:54:30Z</time>
      </trkpt>
      <trkpt lat="38.5327950" lon="-28.4489610">
        <ele>187.4</ele>
        <time>2019-07-07T08:54:35Z</time>
      </trkpt>
      <trkpt lat="38.5328380" lon="-28.4489430">
        <ele>187.2</ele>
        <time>2019-07-07T08:54:38Z</time>
      </trkpt>
      <trkpt lat="38.5328410" lon="-28.4489280">
        <ele>187.2</ele>
        <time>2019-07-07T08:54:39Z</time>
      </trkpt>
      <trkpt lat="38.5328550" lon="-28.4488280">
        <ele>187.5</ele>
        <time>2019-07-07T08:54:43Z</time>
      </trkpt>
      <trkpt lat="38.5328630" lon="-28.4487980">
        <ele>187.3</ele>
        <time>2019-07-07T08:54:44Z</time>
      </trkpt>
      <trkpt lat="38.5328730" lon="-28.4487730">
        <ele>187.3</ele>
        <time>2019-07-07T08:54:45Z</time>
      </trkpt>
      <trkpt lat="38.5329100" lon="-28.4486790">
        <ele>187.3</ele>
        <time>2019-07-07T08:54:49Z</time>
      </trkpt>
      <trkpt lat="38.5329730" lon="-28.4485480">
        <ele>187.0</ele>
        <time>2019-07-07T08:54:56Z</time>
      </trkpt>
      <trkpt lat="38.5329900" lon="-28.4485060">
        <ele>187.0</ele>
        <time>2019-07-07T08:54:58Z</time>
      </trkpt>
      <trkpt lat="38.5330300" lon="-28.4484240">
        <ele>186.6</ele>
        <time>2019-07-07T08:55:02Z</time>
      </trkpt>
      <trkpt lat="38.5330720" lon="-28.4482900">
        <ele>186.5</ele>
        <time>2019-07-07T08:55:08Z</time>
      </trkpt>
      <trkpt lat="38.5330870" lon="-28.4482500">
        <ele>186.6</ele>
        <time>2019-07-07T08:55:10Z</time>
      </trkpt>
      <trkpt lat="38.5331260" lon="-28.4481810">
        <ele>186.4</ele>
        <time>2019-07-07T08:55:14Z</time>
      </trkpt>
      <trkpt lat="38.5331560" lon="-28.4481460">
        <ele>186.2</ele>
        <time>2019-07-07T08:55:16Z</time>
      </trkpt>
      <trkpt lat="38.5331900" lon="-28.4480820">
        <ele>186.1</ele>
        <time>2019-07-07T08:55:20Z</time>
      </trkpt>
      <trkpt lat="38.5331910" lon="-28.4480650">
        <ele>186.2</ele>
        <time>2019-07-07T08:55:21Z</time>
      </trkpt>
      <trkpt lat="38.5331970" lon="-28.4480160">
        <ele>186.0</ele>
        <time>2019-07-07T08:55:24Z</time>
      </trkpt>
      <trkpt lat="38.5332430" lon="-28.4476640">
        <ele>186.9</ele>
        <time>2019-07-07T08:55:38Z</time>
      </trkpt>
      <trkpt lat="38.5332380" lon="-28.4475760">
        <ele>187.2</ele>
        <time>2019-07-07T08:55:40Z</time>
      </trkpt>
      <trkpt lat="38.5332460" lon="-28.4475140">
        <ele>187.4</ele>
        <time>2019-07-07T08:55:42Z</time>
      </trkpt>
      <trkpt lat="38.5332590" lon="-28.4474230">
        <ele>187.7</ele>
        <time>2019-07-07T08:55:45Z</time>
      </trkpt>
      <trkpt lat="38.5332560" lon="-28.4473920">
        <ele>187.9</ele>
        <time>2019-07-07T08:55:46Z</time>
      </trkpt>
      <trkpt lat="38.5332470" lon="-28.4472660">
        <ele>188.5</ele>
        <time>2019-07-07T08:55:50Z</time>
      </trkpt>
      <trkpt lat="38.5332390" lon="-28.4472010">
        <ele>188.9</ele>
        <time>2019-07-07T08:55:52Z</time>
      </trkpt>
      <trkpt lat="38.5332320" lon="-28.4471290">
        <ele>189.2</ele>
        <time>2019-07-07T08:55:55Z</time>
      </trkpt>
      <trkpt lat="38.5332290" lon="-28.4471100">
        <ele>189.4</ele>
        <time>2019-07-07T08:55:56Z</time>
      </trkpt>
      <trkpt lat="38.5332270" lon="-28.4470360">
        <ele>190.3</ele>
        <time>2019-07-07T08:55:59Z</time>
      </trkpt>
      <trkpt lat="38.5332200" lon="-28.4469630">
        <ele>190.5</ele>
        <time>2019-07-07T08:56:02Z</time>
      </trkpt>
      <trkpt lat="38.5332180" lon="-28.4469330">
        <ele>190.8</ele>
        <time>2019-07-07T08:56:03Z</time>
      </trkpt>
      <trkpt lat="38.5332150" lon="-28.4468430">
        <ele>191.2</ele>
        <time>2019-07-07T08:56:07Z</time>
      </trkpt>
      <trkpt lat="38.5331930" lon="-28.4467240">
        <ele>192.4</ele>
        <time>2019-07-07T08:56:12Z</time>
      </trkpt>
      <trkpt lat="38.5331910" lon="-28.4467030">
        <ele>192.4</ele>
        <time>2019-07-07T08:56:13Z</time>
      </trkpt>
      <trkpt lat="38.5331910" lon="-28.4466850">
        <ele>192.6</ele>
        <time>2019-07-07T08:56:14Z</time>
      </trkpt>
      <trkpt lat="38.5331850" lon="-28.4466340">
        <ele>192.8</ele>
        <time>2019-07-07T08:56:17Z</time>
      </trkpt>
      <trkpt lat="38.5331720" lon="-28.4465710">
        <ele>193.0</ele>
        <time>2019-07-07T08:56:20Z</time>
      </trkpt>
      <trkpt lat="38.5331620" lon="-28.4465210">
        <ele>193.4</ele>
        <time>2019-07-07T08:56:22Z</time>
      </trkpt>
      <trkpt lat="38.5331500" lon="-28.4463980">
        <ele>194.1</ele>
        <time>2019-07-07T08:56:26Z</time>
      </trkpt>
      <trkpt lat="38.5331330" lon="-28.4461280">
        <ele>195.0</ele>
        <time>2019-07-07T08:56:33Z</time>
      </trkpt>
      <trkpt lat="38.5331230" lon="-28.4459780">
        <ele>195.7</ele>
        <time>2019-07-07T08:56:38Z</time>
      </trkpt>
      <trkpt lat="38.5331060" lon="-28.4458460">
        <ele>196.0</ele>
        <time>2019-07-07T08:56:43Z</time>
      </trkpt>
      <trkpt lat="38.5330640" lon="-28.4456500">
        <ele>196.9</ele>
        <time>2019-07-07T08:56:49Z</time>
      </trkpt>
      <trkpt lat="38.5330840" lon="-28.4454040">
        <ele>197.7</ele>
        <time>2019-07-07T08:56:55Z</time>
      </trkpt>
      <trkpt lat="38.5331310" lon="-28.4450650">
        <ele>197.8</ele>
        <time>2019-07-07T08:57:02Z</time>
      </trkpt>
      <trkpt lat="38.5331290" lon="-28.4449810">
        <ele>198.1</ele>
        <time>2019-07-07T08:57:04Z</time>
      </trkpt>
      <trkpt lat="38.5331250" lon="-28.4448570">
        <ele>198.7</ele>
        <time>2019-07-07T08:57:07Z</time>
      </trkpt>
      <trkpt lat="38.5331250" lon="-28.4447830">
        <ele>198.8</ele>
        <time>2019-07-07T08:57:09Z</time>
      </trkpt>
      <trkpt lat="38.5331270" lon="-28.4446830">
        <ele>198.9</ele>
        <time>2019-07-07T08:57:12Z</time>
      </trkpt>
      <trkpt lat="38.5331290" lon="-28.4446550">
        <ele>198.6</ele>
        <time>2019-07-07T08:57:13Z</time>
      </trkpt>
      <trkpt lat="38.5331300" lon="-28.4446050">
        <ele>198.6</ele>
        <time>2019-07-07T08:57:15Z</time>
      </trkpt>
      <trkpt lat="38.5331250" lon="-28.4445220">
        <ele>199.0</ele>
        <time>2019-07-07T08:57:18Z</time>
      </trkpt>
      <trkpt lat="38.5331220" lon="-28.4444910">
        <ele>199.0</ele>
        <time>2019-07-07T08:57:19Z</time>
      </trkpt>
      <trkpt lat="38.5331160" lon="-28.4443660">
        <ele>199.1</ele>
        <time>2019-07-07T08:57:22Z</time>
      </trkpt>
      <trkpt lat="38.5331250" lon="-28.4443140">
        <ele>199.1</ele>
        <time>2019-07-07T08:57:23Z</time>
      </trkpt>
      <trkpt lat="38.5331700" lon="-28.4440390">
        <ele>198.4</ele>
        <time>2019-07-07T08:57:28Z</time>
      </trkpt>
      <trkpt lat="38.5331800" lon="-28.4439930">
        <ele>198.5</ele>
        <time>2019-07-07T08:57:29Z</time>
      </trkpt>
      <trkpt lat="38.5331800" lon="-28.4438040">
        <ele>199.3</ele>
        <time>2019-07-07T08:57:34Z</time>
      </trkpt>
      <trkpt lat="38.5331660" lon="-28.4437600">
        <ele>199.5</ele>
        <time>2019-07-07T08:57:36Z</time>
      </trkpt>
      <trkpt lat="38.5331480" lon="-28.4437030">
        <ele>200.2</ele>
        <time>2019-07-07T08:57:39Z</time>
      </trkpt>
      <trkpt lat="38.5331470" lon="-28.4436840">
        <ele>200.4</ele>
        <time>2019-07-07T08:57:40Z</time>
      </trkpt>
      <trkpt lat="38.5331420" lon="-28.4436180">
        <ele>200.7</ele>
        <time>2019-07-07T08:57:44Z</time>
      </trkpt>
      <trkpt lat="38.5331530" lon="-28.4435830">
        <ele>201.0</ele>
        <time>2019-07-07T08:57:46Z</time>
      </trkpt>
      <trkpt lat="38.5331820" lon="-28.4435110">
        <ele>201.1</ele>
        <time>2019-07-07T08:57:49Z</time>
      </trkpt>
      <trkpt lat="38.5332110" lon="-28.4434520">
        <ele>200.8</ele>
        <time>2019-07-07T08:57:51Z</time>
      </trkpt>
      <trkpt lat="38.5333110" lon="-28.4431990">
        <ele>200.6</ele>
        <time>2019-07-07T08:57:59Z</time>
      </trkpt>
      <trkpt lat="38.5333990" lon="-28.4429980">
        <ele>200.1</ele>
        <time>2019-07-07T08:58:04Z</time>
      </trkpt>
      <trkpt lat="38.5334720" lon="-28.4427910">
        <ele>199.7</ele>
        <time>2019-07-07T08:58:08Z</time>
      </trkpt>
      <trkpt lat="38.5335150" lon="-28.4426570">
        <ele>199.8</ele>
        <time>2019-07-07T08:58:11Z</time>
      </trkpt>
      <trkpt lat="38.5335570" lon="-28.4425750">
        <ele>199.6</ele>
        <time>2019-07-07T08:58:13Z</time>
      </trkpt>
      <trkpt lat="38.5336090" lon="-28.4424750">
        <ele>199.1</ele>
        <time>2019-07-07T08:58:15Z</time>
      </trkpt>
      <trkpt lat="38.5336750" lon="-28.4423380">
        <ele>198.5</ele>
        <time>2019-07-07T08:58:17Z</time>
      </trkpt>
      <trkpt lat="38.5337150" lon="-28.4422730">
        <ele>198.3</ele>
        <time>2019-07-07T08:58:18Z</time>
      </trkpt>
      <trkpt lat="38.5338210" lon="-28.4420770">
        <ele>197.3</ele>
        <time>2019-07-07T08:58:21Z</time>
      </trkpt>
      <trkpt lat="38.5338500" lon="-28.4420040">
        <ele>197.0</ele>
        <time>2019-07-07T08:58:22Z</time>
      </trkpt>
      <trkpt lat="38.5339800" lon="-28.4417750">
        <ele>195.5</ele>
        <time>2019-07-07T08:58:26Z</time>
      </trkpt>
      <trkpt lat="38.5341630" lon="-28.4414900">
        <ele>194.6</ele>
        <time>2019-07-07T08:58:32Z</time>
      </trkpt>
      <trkpt lat="38.5342380" lon="-28.4413410">
        <ele>194.3</ele>
        <time>2019-07-07T08:58:36Z</time>
      </trkpt>
      <trkpt lat="38.5342680" lon="-28.4412780">
        <ele>194.7</ele>
        <time>2019-07-07T08:58:38Z</time>
      </trkpt>
      <trkpt lat="38.5343110" lon="-28.4411940">
        <ele>194.7</ele>
        <time>2019-07-07T08:58:41Z</time>
      </trkpt>
      <trkpt lat="38.5343530" lon="-28.4410800">
        <ele>194.9</ele>
        <time>2019-07-07T08:58:44Z</time>
      </trkpt>
      <trkpt lat="38.5344850" lon="-28.4408800">
        <ele>194.8</ele>
        <time>2019-07-07T08:58:49Z</time>
      </trkpt>
      <trkpt lat="38.5345240" lon="-28.4408240">
        <ele>194.7</ele>
        <time>2019-07-07T08:58:50Z</time>
      </trkpt>
      <trkpt lat="38.5345550" lon="-28.4407600">
        <ele>194.7</ele>
        <time>2019-07-07T08:58:51Z</time>
      </trkpt>
      <trkpt lat="38.5346270" lon="-28.4406250">
        <ele>194.5</ele>
        <time>2019-07-07T08:58:53Z</time>
      </trkpt>
      <trkpt lat="38.5346740" lon="-28.4405680">
        <ele>194.0</ele>
        <time>2019-07-07T08:58:54Z</time>
      </trkpt>
      <trkpt lat="38.5347230" lon="-28.4405250">
        <ele>193.8</ele>
        <time>2019-07-07T08:58:55Z</time>
      </trkpt>
      <trkpt lat="38.5348040" lon="-28.4404700">
        <ele>193.1</ele>
        <time>2019-07-07T08:58:57Z</time>
      </trkpt>
      <trkpt lat="38.5348690" lon="-28.4404270">
        <ele>192.5</ele>
        <time>2019-07-07T08:58:59Z</time>
      </trkpt>
      <trkpt lat="38.5349500" lon="-28.4403860">
        <ele>191.6</ele>
        <time>2019-07-07T08:59:02Z</time>
      </trkpt>
      <trkpt lat="38.5349770" lon="-28.4403720">
        <ele>191.2</ele>
        <time>2019-07-07T08:59:03Z</time>
      </trkpt>
      <trkpt lat="38.5350190" lon="-28.4403450">
        <ele>190.8</ele>
        <time>2019-07-07T08:59:05Z</time>
      </trkpt>
      <trkpt lat="38.5350760" lon="-28.4403080">
        <ele>190.1</ele>
        <time>2019-07-07T08:59:08Z</time>
      </trkpt>
      <trkpt lat="38.5351520" lon="-28.4402640">
        <ele>189.4</ele>
        <time>2019-07-07T08:59:11Z</time>
      </trkpt>
      <trkpt lat="38.5352210" lon="-28.4402340">
        <ele>188.8</ele>
        <time>2019-07-07T08:59:13Z</time>
      </trkpt>
      <trkpt lat="38.5352810" lon="-28.4401980">
        <ele>188.0</ele>
        <time>2019-07-07T08:59:15Z</time>
      </trkpt>
      <trkpt lat="38.5353120" lon="-28.4401730">
        <ele>187.6</ele>
        <time>2019-07-07T08:59:16Z</time>
      </trkpt>
      <trkpt lat="38.5353450" lon="-28.4401460">
        <ele>187.3</ele>
        <time>2019-07-07T08:59:17Z</time>
      </trkpt>
      <trkpt lat="38.5354270" lon="-28.4400820">
        <ele>186.6</ele>
        <time>2019-07-07T08:59:21Z</time>
      </trkpt>
      <trkpt lat="38.5355210" lon="-28.4400290">
        <ele>185.6</ele>
        <time>2019-07-07T08:59:25Z</time>
      </trkpt>
      <trkpt lat="38.5355460" lon="-28.4400140">
        <ele>185.2</ele>
        <time>2019-07-07T08:59:26Z</time>
      </trkpt>
      <trkpt lat="38.5356720" lon="-28.4399400">
        <ele>184.1</ele>
        <time>2019-07-07T08:59:31Z</time>
      </trkpt>
      <trkpt lat="38.5357440" lon="-28.4399550">
        <ele>183.5</ele>
        <time>2019-07-07T08:59:34Z</time>
      </trkpt>
      <trkpt lat="38.5357900" lon="-28.4399750">
        <ele>182.7</ele>
        <time>2019-07-07T08:59:36Z</time>
      </trkpt>
      <trkpt lat="38.5359370" lon="-28.4400320">
        <ele>181.2</ele>
        <time>2019-07-07T08:59:41Z</time>
      </trkpt>
      <trkpt lat="38.5359600" lon="-28.4400370">
        <ele>180.9</ele>
        <time>2019-07-07T08:59:42Z</time>
      </trkpt>
      <trkpt lat="38.5360420" lon="-28.4400720">
        <ele>180.2</ele>
        <time>2019-07-07T08:59:46Z</time>
      </trkpt>
      <trkpt lat="38.5360580" lon="-28.4400810">
        <ele>179.8</ele>
        <time>2019-07-07T08:59:47Z</time>
      </trkpt>
      <trkpt lat="38.5361290" lon="-28.4401080">
        <ele>179.1</ele>
        <time>2019-07-07T08:59:50Z</time>
      </trkpt>
      <trkpt lat="38.5361510" lon="-28.4401140">
        <ele>178.7</ele>
        <time>2019-07-07T08:59:51Z</time>
      </trkpt>
      <trkpt lat="38.5362100" lon="-28.4401380">
        <ele>178.4</ele>
        <time>2019-07-07T08:59:53Z</time>
      </trkpt>
      <trkpt lat="38.5362630" lon="-28.4401600">
        <ele>177.8</ele>
        <time>2019-07-07T08:59:55Z</time>
      </trkpt>
      <trkpt lat="38.5363170" lon="-28.4401810">
        <ele>177.1</ele>
        <time>2019-07-07T08:59:58Z</time>
      </trkpt>
      <trkpt lat="38.5363700" lon="-28.4402170">
        <ele>176.8</ele>
        <time>2019-07-07T09:00:01Z</time>
      </trkpt>
      <trkpt lat="38.5364390" lon="-28.4402780">
        <ele>176.2</ele>
        <time>2019-07-07T09:00:04Z</time>
      </trkpt>
      <trkpt lat="38.5364820" lon="-28.4403290">
        <ele>175.9</ele>
        <time>2019-07-07T09:00:06Z</time>
      </trkpt>
      <trkpt lat="38.5365530" lon="-28.4404080">
        <ele>175.1</ele>
        <time>2019-07-07T09:00:09Z</time>
      </trkpt>
      <trkpt lat="38.5366050" lon="-28.4404550">
        <ele>174.7</ele>
        <time>2019-07-07T09:00:12Z</time>
      </trkpt>
      <trkpt lat="38.5366310" lon="-28.4404770">
        <ele>174.3</ele>
        <time>2019-07-07T09:00:14Z</time>
      </trkpt>
      <trkpt lat="38.5367230" lon="-28.4405440">
        <ele>173.5</ele>
        <time>2019-07-07T09:00:18Z</time>
      </trkpt>
      <trkpt lat="38.5368130" lon="-28.4405970">
        <ele>172.8</ele>
        <time>2019-07-07T09:00:21Z</time>
      </trkpt>
      <trkpt lat="38.5368670" lon="-28.4406280">
        <ele>172.0</ele>
        <time>2019-07-07T09:00:23Z</time>
      </trkpt>
      <trkpt lat="38.5369170" lon="-28.4406720">
        <ele>171.4</ele>
        <time>2019-07-07T09:00:25Z</time>
      </trkpt>
      <trkpt lat="38.5369690" lon="-28.4407150">
        <ele>170.2</ele>
        <time>2019-07-07T09:00:27Z</time>
      </trkpt>
      <trkpt lat="38.5370090" lon="-28.4407500">
        <ele>169.5</ele>
        <time>2019-07-07T09:00:29Z</time>
      </trkpt>
      <trkpt lat="38.5370250" lon="-28.4407610">
        <ele>169.0</ele>
        <time>2019-07-07T09:00:30Z</time>
      </trkpt>
      <trkpt lat="38.5371060" lon="-28.4408080">
        <ele>167.7</ele>
        <time>2019-07-07T09:00:33Z</time>
      </trkpt>
      <trkpt lat="38.5371330" lon="-28.4408240">
        <ele>166.8</ele>
        <time>2019-07-07T09:00:34Z</time>
      </trkpt>
      <trkpt lat="38.5371760" lon="-28.4408460">
        <ele>166.2</ele>
        <time>2019-07-07T09:00:36Z</time>
      </trkpt>
      <trkpt lat="38.5372470" lon="-28.4408910">
        <ele>164.6</ele>
        <time>2019-07-07T09:00:39Z</time>
      </trkpt>
      <trkpt lat="38.5372850" lon="-28.4409210">
        <ele>163.5</ele>
        <time>2019-07-07T09:00:40Z</time>
      </trkpt>
      <trkpt lat="38.5373380" lon="-28.4409470">
        <ele>161.5</ele>
        <time>2019-07-07T09:00:42Z</time>
      </trkpt>
      <trkpt lat="38.5373640" lon="-28.4409530">
        <ele>160.8</ele>
        <time>2019-07-07T09:00:43Z</time>
      </trkpt>
      <trkpt lat="38.5373870" lon="-28.4409660">
        <ele>160.8</ele>
        <time>2019-07-07T09:00:44Z</time>
      </trkpt>
      <trkpt lat="38.5374520" lon="-28.4410330">
        <ele>158.2</ele>
        <time>2019-07-07T09:00:48Z</time>
      </trkpt>
      <trkpt lat="38.5374680" lon="-28.4410530">
        <ele>157.5</ele>
        <time>2019-07-07T09:00:49Z</time>
      </trkpt>
      <trkpt lat="38.5375480" lon="-28.4411190">
        <ele>154.9</ele>
        <time>2019-07-07T09:00:52Z</time>
      </trkpt>
      <trkpt lat="38.5375860" lon="-28.4411380">
        <ele>154.2</ele>
        <time>2019-07-07T09:00:53Z</time>
      </trkpt>
      <trkpt lat="38.5376180" lon="-28.4411530">
        <ele>153.5</ele>
        <time>2019-07-07T09:00:54Z</time>
      </trkpt>
      <trkpt lat="38.5376680" lon="-28.4411880">
        <ele>151.6</ele>
        <time>2019-07-07T09:00:56Z</time>
      </trkpt>
      <trkpt lat="38.5377120" lon="-28.4412240">
        <ele>150.4</ele>
        <time>2019-07-07T09:00:58Z</time>
      </trkpt>
      <trkpt lat="38.5377870" lon="-28.4412800">
        <ele>148.6</ele>
        <time>2019-07-07T09:01:01Z</time>
      </trkpt>
      <trkpt lat="38.5378470" lon="-28.4413240">
        <ele>147.1</ele>
        <time>2019-07-07T09:01:03Z</time>
      </trkpt>
      <trkpt lat="38.5378760" lon="-28.4413450">
        <ele>146.2</ele>
        <time>2019-07-07T09:01:04Z</time>
      </trkpt>
      <trkpt lat="38.5379160" lon="-28.4413780">
        <ele>145.4</ele>
        <time>2019-07-07T09:01:05Z</time>
      </trkpt>
      <trkpt lat="38.5380160" lon="-28.4414750">
        <ele>144.1</ele>
        <time>2019-07-07T09:01:08Z</time>
      </trkpt>
      <trkpt lat="38.5380420" lon="-28.4415140">
        <ele>143.8</ele>
        <time>2019-07-07T09:01:09Z</time>
      </trkpt>
      <trkpt lat="38.5380750" lon="-28.4415480">
        <ele>143.6</ele>
        <time>2019-07-07T09:01:10Z</time>
      </trkpt>
      <trkpt lat="38.5381330" lon="-28.4415970">
        <ele>143.4</ele>
        <time>2019-07-07T09:01:12Z</time>
      </trkpt>
      <trkpt lat="38.5382100" lon="-28.4416620">
        <ele>143.4</ele>
        <time>2019-07-07T09:01:14Z</time>
      </trkpt>
      <trkpt lat="38.5382580" lon="-28.4416940">
        <ele>143.3</ele>
        <time>2019-07-07T09:01:15Z</time>
      </trkpt>
      <trkpt lat="38.5383920" lon="-28.4417710">
        <ele>142.8</ele>
        <time>2019-07-07T09:01:20Z</time>
      </trkpt>
      <trkpt lat="38.5384160" lon="-28.4417860">
        <ele>142.6</ele>
        <time>2019-07-07T09:01:21Z</time>
      </trkpt>
      <trkpt lat="38.5385140" lon="-28.4418490">
        <ele>141.3</ele>
        <time>2019-07-07T09:01:24Z</time>
      </trkpt>
      <trkpt lat="38.5385630" lon="-28.4418720">
        <ele>141.0</ele>
        <time>2019-07-07T09:01:25Z</time>
      </trkpt>
      <trkpt lat="38.5386510" lon="-28.4418920">
        <ele>139.4</ele>
        <time>2019-07-07T09:01:28Z</time>
      </trkpt>
      <trkpt lat="38.5387090" lon="-28.4418950">
        <ele>138.5</ele>
        <time>2019-07-07T09:01:30Z</time>
      </trkpt>
      <trkpt lat="38.5387460" lon="-28.4418870">
        <ele>138.1</ele>
        <time>2019-07-07T09:01:31Z</time>
      </trkpt>
      <trkpt lat="38.5387960" lon="-28.4418490">
        <ele>137.9</ele>
        <time>2019-07-07T09:01:33Z</time>
      </trkpt>
      <trkpt lat="38.5389080" lon="-28.4417830">
        <ele>137.2</ele>
        <time>2019-07-07T09:01:36Z</time>
      </trkpt>
      <trkpt lat="38.5390790" lon="-28.4418330">
        <ele>136.5</ele>
        <time>2019-07-07T09:01:39Z</time>
      </trkpt>
      <trkpt lat="38.5391390" lon="-28.4418550">
        <ele>136.0</ele>
        <time>2019-07-07T09:01:40Z</time>
      </trkpt>
      <trkpt lat="38.5394410" lon="-28.4420200">
        <ele>133.4</ele>
        <time>2019-07-07T09:01:45Z</time>
      </trkpt>
      <trkpt lat="38.5395930" lon="-28.4421080">
        <ele>132.0</ele>
        <time>2019-07-07T09:01:47Z</time>
      </trkpt>
      <trkpt lat="38.5397510" lon="-28.4422150">
        <ele>130.5</ele>
        <time>2019-07-07T09:01:49Z</time>
      </trkpt>
      <trkpt lat="38.5398400" lon="-28.4422700">
        <ele>129.9</ele>
        <time>2019-07-07T09:01:50Z</time>
      </trkpt>
      <trkpt lat="38.5399300" lon="-28.4423240">
        <ele>128.9</ele>
        <time>2019-07-07T09:01:51Z</time>
      </trkpt>
      <trkpt lat="38.5401140" lon="-28.4424310">
        <ele>126.8</ele>
        <time>2019-07-07T09:01:53Z</time>
      </trkpt>
      <trkpt lat="38.5403040" lon="-28.4425470">
        <ele>124.8</ele>
        <time>2019-07-07T09:01:55Z</time>
      </trkpt>
      <trkpt lat="38.5404020" lon="-28.4426120">
        <ele>124.0</ele>
        <time>2019-07-07T09:01:56Z</time>
      </trkpt>
      <trkpt lat="38.5404980" lon="-28.4426770">
        <ele>123.2</ele>
        <time>2019-07-07T09:01:57Z</time>
      </trkpt>
      <trkpt lat="38.5406930" lon="-28.4427990">
        <ele>121.6</ele>
        <time>2019-07-07T09:01:59Z</time>
      </trkpt>
      <trkpt lat="38.5408860" lon="-28.4429060">
        <ele>120.2</ele>
        <time>2019-07-07T09:02:01Z</time>
      </trkpt>
      <trkpt lat="38.5409800" lon="-28.4429620">
        <ele>119.4</ele>
        <time>2019-07-07T09:02:02Z</time>
      </trkpt>
      <trkpt lat="38.5410730" lon="-28.4430190">
        <ele>118.3</ele>
        <time>2019-07-07T09:02:03Z</time>
      </trkpt>
      <trkpt lat="38.5414440" lon="-28.4432530">
        <ele>113.6</ele>
        <time>2019-07-07T09:02:07Z</time>
      </trkpt>
      <trkpt lat="38.5416340" lon="-28.4433680">
        <ele>111.0</ele>
        <time>2019-07-07T09:02:09Z</time>
      </trkpt>
      <trkpt lat="38.5418180" lon="-28.4434850">
        <ele>108.5</ele>
        <time>2019-07-07T09:02:11Z</time>
      </trkpt>
      <trkpt lat="38.5419940" lon="-28.4435910">
        <ele>106.8</ele>
        <time>2019-07-07T09:02:13Z</time>
      </trkpt>
      <trkpt lat="38.5420700" lon="-28.4436310">
        <ele>106.2</ele>
        <time>2019-07-07T09:02:14Z</time>
      </trkpt>
      <trkpt lat="38.5421370" lon="-28.4436670">
        <ele>105.7</ele>
        <time>2019-07-07T09:02:15Z</time>
      </trkpt>
      <trkpt lat="38.5422470" lon="-28.4437350">
        <ele>105.4</ele>
        <time>2019-07-07T09:02:17Z</time>
      </trkpt>
      <trkpt lat="38.5423330" lon="-28.4437850">
        <ele>105.3</ele>
        <time>2019-07-07T09:02:19Z</time>
      </trkpt>
      <trkpt lat="38.5424120" lon="-28.4438330">
        <ele>105.5</ele>
        <time>2019-07-07T09:02:23Z</time>
      </trkpt>
      <trkpt lat="38.5425250" lon="-28.4438930">
        <ele>105.6</ele>
        <time>2019-07-07T09:02:28Z</time>
      </trkpt>
      <trkpt lat="38.5425740" lon="-28.4439220">
        <ele>105.3</ele>
        <time>2019-07-07T09:02:29Z</time>
      </trkpt>
      <trkpt lat="38.5426790" lon="-28.4439830">
        <ele>105.2</ele>
        <time>2019-07-07T09:02:31Z</time>
      </trkpt>
      <trkpt lat="38.5428010" lon="-28.4440480">
        <ele>105.1</ele>
        <time>2019-07-07T09:02:33Z</time>
      </trkpt>
      <trkpt lat="38.5429870" lon="-28.4441490">
        <ele>104.6</ele>
        <time>2019-07-07T09:02:36Z</time>
      </trkpt>
      <trkpt lat="38.5430980" lon="-28.4442160">
        <ele>103.2</ele>
        <time>2019-07-07T09:02:38Z</time>
      </trkpt>
      <trkpt lat="38.5431390" lon="-28.4442440">
        <ele>102.8</ele>
        <time>2019-07-07T09:02:39Z</time>
      </trkpt>
      <trkpt lat="38.5431800" lon="-28.4442680">
        <ele>102.4</ele>
        <time>2019-07-07T09:02:40Z</time>
      </trkpt>
      <trkpt lat="38.5432660" lon="-28.4442950">
        <ele>100.7</ele>
        <time>2019-07-07T09:02:42Z</time>
      </trkpt>
      <trkpt lat="38.5433600" lon="-28.4443160">
        <ele>99.3</ele>
        <time>2019-07-07T09:02:44Z</time>
      </trkpt>
      <trkpt lat="38.5433970" lon="-28.4443410">
        <ele>98.5</ele>
        <time>2019-07-07T09:02:45Z</time>
      </trkpt>
      <trkpt lat="38.5434260" lon="-28.4443810">
        <ele>97.8</ele>
        <time>2019-07-07T09:02:46Z</time>
      </trkpt>
      <trkpt lat="38.5434550" lon="-28.4445540">
        <ele>97.3</ele>
        <time>2019-07-07T09:02:49Z</time>
      </trkpt>
      <trkpt lat="38.5434640" lon="-28.4446130">
        <ele>97.4</ele>
        <time>2019-07-07T09:02:50Z</time>
      </trkpt>
      <trkpt lat="38.5435100" lon="-28.4446740">
        <ele>96.5</ele>
        <time>2019-07-07T09:02:52Z</time>
      </trkpt>
      <trkpt lat="38.5436230" lon="-28.4447030">
        <ele>95.0</ele>
        <time>2019-07-07T09:02:55Z</time>
      </trkpt>
      <trkpt lat="38.5436700" lon="-28.4447180">
        <ele>93.8</ele>
        <time>2019-07-07T09:02:56Z</time>
      </trkpt>
      <trkpt lat="38.5438320" lon="-28.4447770">
        <ele>91.9</ele>
        <time>2019-07-07T09:02:59Z</time>
      </trkpt>
      <trkpt lat="38.5439560" lon="-28.4448340">
        <ele>90.1</ele>
        <time>2019-07-07T09:03:01Z</time>
      </trkpt>
      <trkpt lat="38.5440170" lon="-28.4448620">
        <ele>89.4</ele>
        <time>2019-07-07T09:03:02Z</time>
      </trkpt>
      <trkpt lat="38.5440790" lon="-28.4448850">
        <ele>88.7</ele>
        <time>2019-07-07T09:03:03Z</time>
      </trkpt>
      <trkpt lat="38.5441930" lon="-28.4449360">
        <ele>87.6</ele>
        <time>2019-07-07T09:03:05Z</time>
      </trkpt>
      <trkpt lat="38.5442410" lon="-28.4449730">
        <ele>87.2</ele>
        <time>2019-07-07T09:03:06Z</time>
      </trkpt>
      <trkpt lat="38.5443200" lon="-28.4450630">
        <ele>86.6</ele>
        <time>2019-07-07T09:03:08Z</time>
      </trkpt>
      <trkpt lat="38.5443590" lon="-28.4451570">
        <ele>86.4</ele>
        <time>2019-07-07T09:03:10Z</time>
      </trkpt>
      <trkpt lat="38.5443440" lon="-28.4453580">
        <ele>86.0</ele>
        <time>2019-07-07T09:03:14Z</time>
      </trkpt>
      <trkpt lat="38.5443370" lon="-28.4454110">
        <ele>86.0</ele>
        <time>2019-07-07T09:03:15Z</time>
      </trkpt>
      <trkpt lat="38.5443340" lon="-28.4454650">
        <ele>85.9</ele>
        <time>2019-07-07T09:03:16Z</time>
      </trkpt>
      <trkpt lat="38.5443440" lon="-28.4455160">
        <ele>85.7</ele>
        <time>2019-07-07T09:03:17Z</time>
      </trkpt>
      <trkpt lat="38.5443660" lon="-28.4455630">
        <ele>85.7</ele>
        <time>2019-07-07T09:03:18Z</time>
      </trkpt>
      <trkpt lat="38.5444300" lon="-28.4456640">
        <ele>85.3</ele>
        <time>2019-07-07T09:03:20Z</time>
      </trkpt>
      <trkpt lat="38.5445070" lon="-28.4458030">
        <ele>85.0</ele>
        <time>2019-07-07T09:03:23Z</time>
      </trkpt>
      <trkpt lat="38.5445100" lon="-28.4459040">
        <ele>85.2</ele>
        <time>2019-07-07T09:03:25Z</time>
      </trkpt>
      <trkpt lat="38.5444980" lon="-28.4459560">
        <ele>85.2</ele>
        <time>2019-07-07T09:03:26Z</time>
      </trkpt>
      <trkpt lat="38.5444420" lon="-28.4461160">
        <ele>85.3</ele>
        <time>2019-07-07T09:03:29Z</time>
      </trkpt>
      <trkpt lat="38.5444020" lon="-28.4462260">
        <ele>85.2</ele>
        <time>2019-07-07T09:03:31Z</time>
      </trkpt>
      <trkpt lat="38.5443580" lon="-28.4463410">
        <ele>85.2</ele>
        <time>2019-07-07T09:03:33Z</time>
      </trkpt>
      <trkpt lat="38.5442800" lon="-28.4464960">
        <ele>85.0</ele>
        <time>2019-07-07T09:03:36Z</time>
      </trkpt>
      <trkpt lat="38.5442140" lon="-28.4466190">
        <ele>84.9</ele>
        <time>2019-07-07T09:03:39Z</time>
      </trkpt>
      <trkpt lat="38.5441220" lon="-28.4467590">
        <ele>84.8</ele>
        <time>2019-07-07T09:03:44Z</time>
      </trkpt>
      <trkpt lat="38.5440920" lon="-28.4467900">
        <ele>84.8</ele>
        <time>2019-07-07T09:03:45Z</time>
      </trkpt>
      <trkpt lat="38.5439360" lon="-28.4469520">
        <ele>85.6</ele>
        <time>2019-07-07T09:03:49Z</time>
      </trkpt>
      <trkpt lat="38.5437100" lon="-28.4472980">
        <ele>87.3</ele>
        <time>2019-07-07T09:03:55Z</time>
      </trkpt>
      <trkpt lat="38.5434930" lon="-28.4476540">
        <ele>89.0</ele>
        <time>2019-07-07T09:04:01Z</time>
      </trkpt>
      <trkpt lat="38.5434170" lon="-28.4477830">
        <ele>89.4</ele>
        <time>2019-07-07T09:04:04Z</time>
      </trkpt>
      <trkpt lat="38.5433490" lon="-28.4478980">
        <ele>89.7</ele>
        <time>2019-07-07T09:04:07Z</time>
      </trkpt>
      <trkpt lat="38.5433270" lon="-28.4479350">
        <ele>89.8</ele>
        <time>2019-07-07T09:04:08Z</time>
      </trkpt>
      <trkpt lat="38.5432310" lon="-28.4481020">
        <ele>90.6</ele>
        <time>2019-07-07T09:04:13Z</time>
      </trkpt>
      <trkpt lat="38.5432170" lon="-28.4481290">
        <ele>90.7</ele>
        <time>2019-07-07T09:04:14Z</time>
      </trkpt>
      <trkpt lat="38.5432020" lon="-28.4481570">
        <ele>90.9</ele>
        <time>2019-07-07T09:04:15Z</time>
      </trkpt>
      <trkpt lat="38.5431730" lon="-28.4482190">
        <ele>91.3</ele>
        <time>2019-07-07T09:04:17Z</time>
      </trkpt>
      <trkpt lat="38.5431370" lon="-28.4483290">
        <ele>91.9</ele>
        <time>2019-07-07T09:04:20Z</time>
      </trkpt>
      <trkpt lat="38.5431260" lon="-28.4483620">
        <ele>92.1</ele>
        <time>2019-07-07T09:04:21Z</time>
      </trkpt>
      <trkpt lat="38.5430870" lon="-28.4485370">
        <ele>93.1</ele>
        <time>2019-07-07T09:04:26Z</time>
      </trkpt>
      <trkpt lat="38.5430650" lon="-28.4486110">
        <ele>93.7</ele>
        <time>2019-07-07T09:04:28Z</time>
      </trkpt>
      <trkpt lat="38.5430320" lon="-28.4487210">
        <ele>94.5</ele>
        <time>2019-07-07T09:04:31Z</time>
      </trkpt>
      <trkpt lat="38.5429800" lon="-28.4488990">
        <ele>96.1</ele>
        <time>2019-07-07T09:04:36Z</time>
      </trkpt>
      <trkpt lat="38.5429660" lon="-28.4489380">
        <ele>96.4</ele>
        <time>2019-07-07T09:04:37Z</time>
      </trkpt>
      <trkpt lat="38.5428770" lon="-28.4491110">
        <ele>97.7</ele>
        <time>2019-07-07T09:04:42Z</time>
      </trkpt>
      <trkpt lat="38.5427410" lon="-28.4493430">
        <ele>99.2</ele>
        <time>2019-07-07T09:04:49Z</time>
      </trkpt>
      <trkpt lat="38.5425350" lon="-28.4496460">
        <ele>100.0</ele>
        <time>2019-07-07T09:04:58Z</time>
      </trkpt>
      <trkpt lat="38.5425170" lon="-28.4496850">
        <ele>100.0</ele>
        <time>2019-07-07T09:04:59Z</time>
      </trkpt>
      <trkpt lat="38.5424570" lon="-28.4498460">
        <ele>100.2</ele>
        <time>2019-07-07T09:05:03Z</time>
      </trkpt>
      <trkpt lat="38.5424460" lon="-28.4498920">
        <ele>100.3</ele>
        <time>2019-07-07T09:05:04Z</time>
      </trkpt>
      <trkpt lat="38.5424240" lon="-28.4499800">
        <ele>100.5</ele>
        <time>2019-07-07T09:05:06Z</time>
      </trkpt>
      <trkpt lat="38.5423390" lon="-28.4502700">
        <ele>101.6</ele>
        <time>2019-07-07T09:05:13Z</time>
      </trkpt>
      <trkpt lat="38.5423180" lon="-28.4503540">
        <ele>101.9</ele>
        <time>2019-07-07T09:05:15Z</time>
      </trkpt>
      <trkpt lat="38.5423040" lon="-28.4505570">
        <ele>102.2</ele>
        <time>2019-07-07T09:05:20Z</time>
      </trkpt>
      <trkpt lat="38.5424440" lon="-28.4506650">
        <ele>102.0</ele>
        <time>2019-07-07T09:05:25Z</time>
      </trkpt>
      <trkpt lat="38.5424940" lon="-28.4507050">
        <ele>101.8</ele>
        <time>2019-07-07T09:05:27Z</time>
      </trkpt>
      <trkpt lat="38.5425650" lon="-28.4507720">
        <ele>101.7</ele>
        <time>2019-07-07T09:05:30Z</time>
      </trkpt>
      <trkpt lat="38.5427010" lon="-28.4508790">
        <ele>101.5</ele>
        <time>2019-07-07T09:05:35Z</time>
      </trkpt>
      <trkpt lat="38.5428470" lon="-28.4510080">
        <ele>101.3</ele>
        <time>2019-07-07T09:05:40Z</time>
      </trkpt>
      <trkpt lat="38.5429330" lon="-28.4510760">
        <ele>101.0</ele>
        <time>2019-07-07T09:05:43Z</time>
      </trkpt>
      <trkpt lat="38.5430390" lon="-28.4511670">
        <ele>100.5</ele>
        <time>2019-07-07T09:05:47Z</time>
      </trkpt>
      <trkpt lat="38.5431880" lon="-28.4512640">
        <ele>100.1</ele>
        <time>2019-07-07T09:05:52Z</time>
      </trkpt>
      <trkpt lat="38.5432280" lon="-28.4512880">
        <ele>100.0</ele>
        <time>2019-07-07T09:05:53Z</time>
      </trkpt>
      <trkpt lat="38.5433310" lon="-28.4513530">
        <ele>99.7</ele>
        <time>2019-07-07T09:05:56Z</time>
      </trkpt>
      <trkpt lat="38.5433640" lon="-28.4513800">
        <ele>99.5</ele>
        <time>2019-07-07T09:05:57Z</time>
      </trkpt>
      <trkpt lat="38.5435030" lon="-28.4514930">
        <ele>98.7</ele>
        <time>2019-07-07T09:06:01Z</time>
      </trkpt>
      <trkpt lat="38.5436870" lon="-28.4516460">
        <ele>97.7</ele>
        <time>2019-07-07T09:06:07Z</time>
      </trkpt>
      <trkpt lat="38.5437240" lon="-28.4516700">
        <ele>97.5</ele>
        <time>2019-07-07T09:06:08Z</time>
      </trkpt>
      <trkpt lat="38.5438710" lon="-28.4517530">
        <ele>96.1</ele>
        <time>2019-07-07T09:06:13Z</time>
      </trkpt>
      <trkpt lat="38.5439140" lon="-28.4517880">
        <ele>95.7</ele>
        <time>2019-07-07T09:06:15Z</time>
      </trkpt>
      <trkpt lat="38.5439500" lon="-28.4518280">
        <ele>95.3</ele>
        <time>2019-07-07T09:06:17Z</time>
      </trkpt>
      <trkpt lat="38.5440250" lon="-28.4518690">
        <ele>94.8</ele>
        <time>2019-07-07T09:06:20Z</time>
      </trkpt>
      <trkpt lat="38.5440640" lon="-28.4518980">
        <ele>94.5</ele>
        <time>2019-07-07T09:06:22Z</time>
      </trkpt>
      <trkpt lat="38.5441750" lon="-28.4519760">
        <ele>93.4</ele>
        <time>2019-07-07T09:06:27Z</time>
      </trkpt>
      <trkpt lat="38.5442980" lon="-28.4520500">
        <ele>92.6</ele>
        <time>2019-07-07T09:06:32Z</time>
      </trkpt>
      <trkpt lat="38.5443490" lon="-28.4520780">
        <ele>91.9</ele>
        <time>2019-07-07T09:06:34Z</time>
      </trkpt>
      <trkpt lat="38.5444210" lon="-28.4521270">
        <ele>91.0</ele>
        <time>2019-07-07T09:06:37Z</time>
      </trkpt>
      <trkpt lat="38.5444720" lon="-28.4521610">
        <ele>90.6</ele>
        <time>2019-07-07T09:06:39Z</time>
      </trkpt>
      <trkpt lat="38.5445680" lon="-28.4522210">
        <ele>89.5</ele>
        <time>2019-07-07T09:06:43Z</time>
      </trkpt>
      <trkpt lat="38.5446060" lon="-28.4522380">
        <ele>89.1</ele>
        <time>2019-07-07T09:06:45Z</time>
      </trkpt>
      <trkpt lat="38.5446820" lon="-28.4522720">
        <ele>87.6</ele>
        <time>2019-07-07T09:06:48Z</time>
      </trkpt>
      <trkpt lat="38.5448000" lon="-28.4523670">
        <ele>86.2</ele>
        <time>2019-07-07T09:06:53Z</time>
      </trkpt>
      <trkpt lat="38.5449600" lon="-28.4524590">
        <ele>84.3</ele>
        <time>2019-07-07T09:06:58Z</time>
      </trkpt>
      <trkpt lat="38.5449820" lon="-28.4524740">
        <ele>83.9</ele>
        <time>2019-07-07T09:06:59Z</time>
      </trkpt>
      <trkpt lat="38.5450060" lon="-28.4524880">
        <ele>84.0</ele>
        <time>2019-07-07T09:07:00Z</time>
      </trkpt>
      <trkpt lat="38.5451050" lon="-28.4525550">
        <ele>83.1</ele>
        <time>2019-07-07T09:07:03Z</time>
      </trkpt>
      <trkpt lat="38.5452030" lon="-28.4526270">
        <ele>82.2</ele>
        <time>2019-07-07T09:07:06Z</time>
      </trkpt>
      <trkpt lat="38.5453500" lon="-28.4527420">
        <ele>80.8</ele>
        <time>2019-07-07T09:07:11Z</time>
      </trkpt>
      <trkpt lat="38.5454430" lon="-28.4528020">
        <ele>80.6</ele>
        <time>2019-07-07T09:07:14Z</time>
      </trkpt>
      <trkpt lat="38.5455010" lon="-28.4528240">
        <ele>80.6</ele>
        <time>2019-07-07T09:07:16Z</time>
      </trkpt>
      <trkpt lat="38.5455300" lon="-28.4528470">
        <ele>80.8</ele>
        <time>2019-07-07T09:07:17Z</time>
      </trkpt>
      <trkpt lat="38.5456250" lon="-28.4529200">
        <ele>81.3</ele>
        <time>2019-07-07T09:07:20Z</time>
      </trkpt>
      <trkpt lat="38.5456600" lon="-28.4529440">
        <ele>81.5</ele>
        <time>2019-07-07T09:07:21Z</time>
      </trkpt>
      <trkpt lat="38.5457270" lon="-28.4530270">
        <ele>81.5</ele>
        <time>2019-07-07T09:07:24Z</time>
      </trkpt>
      <trkpt lat="38.5457310" lon="-28.4530610">
        <ele>81.3</ele>
        <time>2019-07-07T09:07:25Z</time>
      </trkpt>
      <trkpt lat="38.5456900" lon="-28.4531280">
        <ele>81.1</ele>
        <time>2019-07-07T09:07:29Z</time>
      </trkpt>
      <trkpt lat="38.5456230" lon="-28.4531820">
        <ele>81.0</ele>
        <time>2019-07-07T09:07:34Z</time>
      </trkpt>
      <trkpt lat="38.5456080" lon="-28.4531960">
        <ele>81.1</ele>
        <time>2019-07-07T09:07:35Z</time>
      </trkpt>
      <trkpt lat="38.5455410" lon="-28.4532440">
        <ele>81.4</ele>
        <time>2019-07-07T09:07:39Z</time>
      </trkpt>
      <trkpt lat="38.5455060" lon="-28.4532750">
        <ele>81.7</ele>
        <time>2019-07-07T09:07:41Z</time>
      </trkpt>
      <trkpt lat="38.5454950" lon="-28.4532860">
        <ele>81.8</ele>
        <time>2019-07-07T09:07:44Z</time>
      </trkpt>
      <trkpt lat="38.5454490" lon="-28.4533260">
        <ele>82.2</ele>
        <time>2019-07-07T09:09:49Z</time>
      </trkpt>
      <trkpt lat="38.5454310" lon="-28.4533410">
        <ele>82.4</ele>
        <time>2019-07-07T09:09:50Z</time>
      </trkpt>
      <trkpt lat="38.5453680" lon="-28.4534000">
        <ele>83.0</ele>
        <time>2019-07-07T09:09:53Z</time>
      </trkpt>
      <trkpt lat="38.5453250" lon="-28.4534400">
        <ele>83.4</ele>
        <time>2019-07-07T09:09:55Z</time>
      </trkpt>
      <trkpt lat="38.5452520" lon="-28.4534960">
        <ele>84.3</ele>
        <time>2019-07-07T09:09:58Z</time>
      </trkpt>
      <trkpt lat="38.5451510" lon="-28.4535850">
        <ele>85.6</ele>
        <time>2019-07-07T09:10:02Z</time>
      </trkpt>
      <trkpt lat="38.5451240" lon="-28.4536080">
        <ele>86.0</ele>
        <time>2019-07-07T09:10:03Z</time>
      </trkpt>
      <trkpt lat="38.5450750" lon="-28.4536480">
        <ele>86.6</ele>
        <time>2019-07-07T09:10:05Z</time>
      </trkpt>
      <trkpt lat="38.5449940" lon="-28.4537190">
        <ele>87.5</ele>
        <time>2019-07-07T09:10:09Z</time>
      </trkpt>
      <trkpt lat="38.5449740" lon="-28.4537390">
        <ele>87.7</ele>
        <time>2019-07-07T09:10:10Z</time>
      </trkpt>
      <trkpt lat="38.5449100" lon="-28.4538000">
        <ele>88.4</ele>
        <time>2019-07-07T09:10:13Z</time>
      </trkpt>
      <trkpt lat="38.5448500" lon="-28.4538550">
        <ele>88.9</ele>
        <time>2019-07-07T09:10:16Z</time>
      </trkpt>
      <trkpt lat="38.5448130" lon="-28.4538960">
        <ele>89.4</ele>
        <time>2019-07-07T09:10:18Z</time>
      </trkpt>
      <trkpt lat="38.5447480" lon="-28.4539910">
        <ele>90.5</ele>
        <time>2019-07-07T09:10:22Z</time>
      </trkpt>
      <trkpt lat="38.5447310" lon="-28.4540170">
        <ele>90.6</ele>
        <time>2019-07-07T09:10:23Z</time>
      </trkpt>
      <trkpt lat="38.5446740" lon="-28.4541310">
        <ele>91.7</ele>
        <time>2019-07-07T09:10:27Z</time>
      </trkpt>
      <trkpt lat="38.5446030" lon="-28.4542590">
        <ele>92.4</ele>
        <time>2019-07-07T09:10:32Z</time>
      </trkpt>
      <trkpt lat="38.5445460" lon="-28.4543650">
        <ele>93.2</ele>
        <time>2019-07-07T09:10:36Z</time>
      </trkpt>
      <trkpt lat="38.5445190" lon="-28.4544110">
        <ele>93.7</ele>
        <time>2019-07-07T09:10:38Z</time>
      </trkpt>
      <trkpt lat="38.5444160" lon="-28.4545890">
        <ele>94.9</ele>
        <time>2019-07-07T09:10:45Z</time>
      </trkpt>
      <trkpt lat="38.5443130" lon="-28.4547580">
        <ele>96.0</ele>
        <time>2019-07-07T09:10:52Z</time>
      </trkpt>
      <trkpt lat="38.5442420" lon="-28.4548260">
        <ele>96.4</ele>
        <time>2019-07-07T09:10:56Z</time>
      </trkpt>
      <trkpt lat="38.5441580" lon="-28.4549190">
        <ele>96.9</ele>
        <time>2019-07-07T09:11:01Z</time>
      </trkpt>
      <trkpt lat="38.5441420" lon="-28.4549400">
        <ele>97.0</ele>
        <time>2019-07-07T09:11:02Z</time>
      </trkpt>
      <trkpt lat="38.5439940" lon="-28.4551170">
        <ele>97.8</ele>
        <time>2019-07-07T09:11:10Z</time>
      </trkpt>
      <trkpt lat="38.5439470" lon="-28.4551620">
        <ele>98.0</ele>
        <time>2019-07-07T09:11:12Z</time>
      </trkpt>
      <trkpt lat="38.5438040" lon="-28.4552780">
        <ele>98.7</ele>
        <time>2019-07-07T09:11:17Z</time>
      </trkpt>
      <trkpt lat="38.5435430" lon="-28.4554820">
        <ele>99.7</ele>
        <time>2019-07-07T09:11:26Z</time>
      </trkpt>
      <trkpt lat="38.5435200" lon="-28.4555050">
        <ele>99.8</ele>
        <time>2019-07-07T09:11:27Z</time>
      </trkpt>
      <trkpt lat="38.5433540" lon="-28.4556890">
        <ele>99.9</ele>
        <time>2019-07-07T09:11:34Z</time>
      </trkpt>
      <trkpt lat="38.5431550" lon="-28.4559180">
        <ele>99.9</ele>
        <time>2019-07-07T09:11:41Z</time>
      </trkpt>
      <trkpt lat="38.5431180" lon="-28.4559490">
        <ele>100.0</ele>
        <time>2019-07-07T09:11:42Z</time>
      </trkpt>
      <trkpt lat="38.5428760" lon="-28.4561090">
        <ele>99.7</ele>
        <time>2019-07-07T09:11:48Z</time>
      </trkpt>
      <trkpt lat="38.5426680" lon="-28.4562370">
        <ele>99.2</ele>
        <time>2019-07-07T09:11:53Z</time>
      </trkpt>
      <trkpt lat="38.5425980" lon="-28.4563040">
        <ele>99.0</ele>
        <time>2019-07-07T09:11:55Z</time>
      </trkpt>
      <trkpt lat="38.5425080" lon="-28.4564450">
        <ele>98.4</ele>
        <time>2019-07-07T09:11:59Z</time>
      </trkpt>
      <trkpt lat="38.5425110" lon="-28.4564800">
        <ele>98.3</ele>
        <time>2019-07-07T09:12:00Z</time>
      </trkpt>
      <trkpt lat="38.5425850" lon="-28.4565560">
        <ele>98.3</ele>
        <time>2019-07-07T09:12:03Z</time>
      </trkpt>
      <trkpt lat="38.5426220" lon="-28.4565840">
        <ele>98.1</ele>
        <time>2019-07-07T09:12:04Z</time>
      </trkpt>
      <trkpt lat="38.5426870" lon="-28.4566320">
        <ele>98.0</ele>
        <time>2019-07-07T09:12:06Z</time>
      </trkpt>
      <trkpt lat="38.5427400" lon="-28.4566620">
        <ele>97.8</ele>
        <time>2019-07-07T09:12:08Z</time>
      </trkpt>
      <trkpt lat="38.5428910" lon="-28.4567480">
        <ele>97.1</ele>
        <time>2019-07-07T09:12:14Z</time>
      </trkpt>
      <trkpt lat="38.5430390" lon="-28.4568200">
        <ele>96.3</ele>
        <time>2019-07-07T09:12:20Z</time>
      </trkpt>
      <trkpt lat="38.5430620" lon="-28.4568310">
        <ele>96.0</ele>
        <time>2019-07-07T09:12:21Z</time>
      </trkpt>
      <trkpt lat="38.5431330" lon="-28.4568800">
        <ele>95.2</ele>
        <time>2019-07-07T09:12:24Z</time>
      </trkpt>
      <trkpt lat="38.5431860" lon="-28.4569110">
        <ele>94.7</ele>
        <time>2019-07-07T09:12:26Z</time>
      </trkpt>
      <trkpt lat="38.5432440" lon="-28.4569390">
        <ele>94.4</ele>
        <time>2019-07-07T09:12:28Z</time>
      </trkpt>
      <trkpt lat="38.5433000" lon="-28.4569750">
        <ele>93.8</ele>
        <time>2019-07-07T09:12:30Z</time>
      </trkpt>
      <trkpt lat="38.5433300" lon="-28.4569960">
        <ele>93.5</ele>
        <time>2019-07-07T09:12:31Z</time>
      </trkpt>
      <trkpt lat="38.5434580" lon="-28.4570730">
        <ele>92.4</ele>
        <time>2019-07-07T09:12:35Z</time>
      </trkpt>
      <trkpt lat="38.5435800" lon="-28.4571590">
        <ele>90.8</ele>
        <time>2019-07-07T09:12:40Z</time>
      </trkpt>
      <trkpt lat="38.5436720" lon="-28.4572250">
        <ele>89.6</ele>
        <time>2019-07-07T09:12:43Z</time>
      </trkpt>
      <trkpt lat="38.5437800" lon="-28.4573050">
        <ele>88.6</ele>
        <time>2019-07-07T09:12:46Z</time>
      </trkpt>
      <trkpt lat="38.5438950" lon="-28.4573840">
        <ele>87.7</ele>
        <time>2019-07-07T09:12:49Z</time>
      </trkpt>
      <trkpt lat="38.5440230" lon="-28.4574800">
        <ele>86.8</ele>
        <time>2019-07-07T09:12:52Z</time>
      </trkpt>
      <trkpt lat="38.5441440" lon="-28.4575770">
        <ele>86.4</ele>
        <time>2019-07-07T09:12:55Z</time>
      </trkpt>
      <trkpt lat="38.5442200" lon="-28.4576290">
        <ele>86.3</ele>
        <time>2019-07-07T09:12:57Z</time>
      </trkpt>
      <trkpt lat="38.5443560" lon="-28.4577560">
        <ele>86.0</ele>
        <time>2019-07-07T09:13:01Z</time>
      </trkpt>
      <trkpt lat="38.5444300" lon="-28.4578270">
        <ele>85.6</ele>
        <time>2019-07-07T09:13:03Z</time>
      </trkpt>
      <trkpt lat="38.5445380" lon="-28.4579290">
        <ele>84.9</ele>
        <time>2019-07-07T09:13:07Z</time>
      </trkpt>
      <trkpt lat="38.5446380" lon="-28.4580580">
        <ele>84.0</ele>
        <time>2019-07-07T09:13:12Z</time>
      </trkpt>
      <trkpt lat="38.5446930" lon="-28.4581280">
        <ele>83.2</ele>
        <time>2019-07-07T09:13:15Z</time>
      </trkpt>
      <trkpt lat="38.5447320" lon="-28.4581760">
        <ele>82.9</ele>
        <time>2019-07-07T09:13:17Z</time>
      </trkpt>
      <trkpt lat="38.5448480" lon="-28.4582940">
        <ele>81.6</ele>
        <time>2019-07-07T09:13:22Z</time>
      </trkpt>
      <trkpt lat="38.5448760" lon="-28.4583240">
        <ele>81.4</ele>
        <time>2019-07-07T09:13:23Z</time>
      </trkpt>
      <trkpt lat="38.5450070" lon="-28.4584640">
        <ele>80.3</ele>
        <time>2019-07-07T09:13:28Z</time>
      </trkpt>
      <trkpt lat="38.5451530" lon="-28.4586330">
        <ele>78.5</ele>
        <time>2019-07-07T09:13:33Z</time>
      </trkpt>
      <trkpt lat="38.5451870" lon="-28.4586820">
        <ele>78.0</ele>
        <time>2019-07-07T09:13:34Z</time>
      </trkpt>
      <trkpt lat="38.5452660" lon="-28.4587850">
        <ele>77.2</ele>
        <time>2019-07-07T09:13:36Z</time>
      </trkpt>
      <trkpt lat="38.5453540" lon="-28.4588730">
        <ele>76.3</ele>
        <time>2019-07-07T09:13:38Z</time>
      </trkpt>
      <trkpt lat="38.5453950" lon="-28.4589070">
        <ele>75.9</ele>
        <time>2019-07-07T09:13:39Z</time>
      </trkpt>
      <trkpt lat="38.5454400" lon="-28.4589400">
        <ele>75.4</ele>
        <time>2019-07-07T09:13:40Z</time>
      </trkpt>
      <trkpt lat="38.5455930" lon="-28.4590290">
        <ele>73.9</ele>
        <time>2019-07-07T09:13:43Z</time>
      </trkpt>
      <trkpt lat="38.5456770" lon="-28.4590880">
        <ele>73.3</ele>
        <time>2019-07-07T09:13:45Z</time>
      </trkpt>
      <trkpt lat="38.5457780" lon="-28.4591630">
        <ele>72.3</ele>
        <time>2019-07-07T09:13:47Z</time>
      </trkpt>
      <trkpt lat="38.5458310" lon="-28.4592010">
        <ele>71.9</ele>
        <time>2019-07-07T09:13:48Z</time>
      </trkpt>
      <trkpt lat="38.5459940" lon="-28.4593460">
        <ele>70.9</ele>
        <time>2019-07-07T09:13:51Z</time>
      </trkpt>
      <trkpt lat="38.5460460" lon="-28.4594010">
        <ele>70.4</ele>
        <time>2019-07-07T09:13:52Z</time>
      </trkpt>
      <trkpt lat="38.5461000" lon="-28.4594540">
        <ele>69.7</ele>
        <time>2019-07-07T09:13:53Z</time>
      </trkpt>
      <trkpt lat="38.5462100" lon="-28.4595500">
        <ele>68.6</ele>
        <time>2019-07-07T09:13:55Z</time>
      </trkpt>
      <trkpt lat="38.5463160" lon="-28.4596380">
        <ele>67.7</ele>
        <time>2019-07-07T09:13:57Z</time>
      </trkpt>
      <trkpt lat="38.5463800" lon="-28.4596940">
        <ele>67.3</ele>
        <time>2019-07-07T09:13:58Z</time>
      </trkpt>
      <trkpt lat="38.5465560" lon="-28.4598800">
        <ele>66.6</ele>
        <time>2019-07-07T09:14:01Z</time>
      </trkpt>
      <trkpt lat="38.5466870" lon="-28.4600000">
        <ele>66.3</ele>
        <time>2019-07-07T09:14:03Z</time>
      </trkpt>
      <trkpt lat="38.5468090" lon="-28.4601110">
        <ele>66.0</ele>
        <time>2019-07-07T09:14:05Z</time>
      </trkpt>
      <trkpt lat="38.5468730" lon="-28.4601690">
        <ele>66.1</ele>
        <time>2019-07-07T09:14:06Z</time>
      </trkpt>
      <trkpt lat="38.5470630" lon="-28.4603200">
        <ele>65.7</ele>
        <time>2019-07-07T09:14:09Z</time>
      </trkpt>
      <trkpt lat="38.5471320" lon="-28.4603700">
        <ele>65.6</ele>
        <time>2019-07-07T09:14:10Z</time>
      </trkpt>
      <trkpt lat="38.5472830" lon="-28.4604720">
        <ele>65.6</ele>
        <time>2019-07-07T09:14:12Z</time>
      </trkpt>
      <trkpt lat="38.5474400" lon="-28.4605720">
        <ele>65.4</ele>
        <time>2019-07-07T09:14:14Z</time>
      </trkpt>
      <trkpt lat="38.5476000" lon="-28.4606690">
        <ele>64.1</ele>
        <time>2019-07-07T09:14:16Z</time>
      </trkpt>
      <trkpt lat="38.5476780" lon="-28.4607130">
        <ele>63.6</ele>
        <time>2019-07-07T09:14:17Z</time>
      </trkpt>
      <trkpt lat="38.5478030" lon="-28.4607740">
        <ele>62.6</ele>
        <time>2019-07-07T09:14:19Z</time>
      </trkpt>
      <trkpt lat="38.5480530" lon="-28.4608790">
        <ele>60.1</ele>
        <time>2019-07-07T09:14:23Z</time>
      </trkpt>
      <trkpt lat="38.5481090" lon="-28.4609040">
        <ele>59.2</ele>
        <time>2019-07-07T09:14:24Z</time>
      </trkpt>
      <trkpt lat="38.5481700" lon="-28.4609230">
        <ele>58.4</ele>
        <time>2019-07-07T09:14:25Z</time>
      </trkpt>
      <trkpt lat="38.5483000" lon="-28.4609260">
        <ele>56.9</ele>
        <time>2019-07-07T09:14:27Z</time>
      </trkpt>
      <trkpt lat="38.5483610" lon="-28.4609210">
        <ele>56.6</ele>
        <time>2019-07-07T09:14:28Z</time>
      </trkpt>
      <trkpt lat="38.5484150" lon="-28.4609320">
        <ele>55.9</ele>
        <time>2019-07-07T09:14:29Z</time>
      </trkpt>
      <trkpt lat="38.5484650" lon="-28.4609610">
        <ele>55.6</ele>
        <time>2019-07-07T09:14:30Z</time>
      </trkpt>
      <trkpt lat="38.5485090" lon="-28.4609970">
        <ele>55.0</ele>
        <time>2019-07-07T09:14:31Z</time>
      </trkpt>
      <trkpt lat="38.5485540" lon="-28.4610310">
        <ele>54.7</ele>
        <time>2019-07-07T09:14:32Z</time>
      </trkpt>
      <trkpt lat="38.5487050" lon="-28.4611460">
        <ele>53.1</ele>
        <time>2019-07-07T09:14:35Z</time>
      </trkpt>
      <trkpt lat="38.5488830" lon="-28.4612760">
        <ele>51.5</ele>
        <time>2019-07-07T09:14:38Z</time>
      </trkpt>
      <trkpt lat="38.5490040" lon="-28.4613620">
        <ele>50.5</ele>
        <time>2019-07-07T09:14:40Z</time>
      </trkpt>
      <trkpt lat="38.5491410" lon="-28.4614590">
        <ele>48.2</ele>
        <time>2019-07-07T09:14:42Z</time>
      </trkpt>
      <trkpt lat="38.5492870" lon="-28.4615650">
        <ele>46.6</ele>
        <time>2019-07-07T09:14:44Z</time>
      </trkpt>
      <trkpt lat="38.5493580" lon="-28.4616160">
        <ele>46.2</ele>
        <time>2019-07-07T09:14:45Z</time>
      </trkpt>
      <trkpt lat="38.5494900" lon="-28.4617180">
        <ele>46.2</ele>
        <time>2019-07-07T09:14:47Z</time>
      </trkpt>
      <trkpt lat="38.5496860" lon="-28.4618990">
        <ele>45.5</ele>
        <time>2019-07-07T09:14:50Z</time>
      </trkpt>
      <trkpt lat="38.5500270" lon="-28.4622310">
        <ele>45.9</ele>
        <time>2019-07-07T09:14:56Z</time>
      </trkpt>
      <trkpt lat="38.5501320" lon="-28.4623250">
        <ele>45.3</ele>
        <time>2019-07-07T09:14:58Z</time>
      </trkpt>
      <trkpt lat="38.5502890" lon="-28.4624410">
        <ele>43.6</ele>
        <time>2019-07-07T09:15:01Z</time>
      </trkpt>
      <trkpt lat="38.5503360" lon="-28.4624730">
        <ele>43.1</ele>
        <time>2019-07-07T09:15:02Z</time>
      </trkpt>
      <trkpt lat="38.5503830" lon="-28.4625090">
        <ele>42.3</ele>
        <time>2019-07-07T09:15:03Z</time>
      </trkpt>
      <trkpt lat="38.5504730" lon="-28.4625790">
        <ele>41.7</ele>
        <time>2019-07-07T09:15:05Z</time>
      </trkpt>
      <trkpt lat="38.5506270" lon="-28.4626850">
        <ele>40.0</ele>
        <time>2019-07-07T09:15:08Z</time>
      </trkpt>
      <trkpt lat="38.5506760" lon="-28.4627160">
        <ele>39.7</ele>
        <time>2019-07-07T09:15:09Z</time>
      </trkpt>
      <trkpt lat="38.5508150" lon="-28.4628130">
        <ele>38.4</ele>
        <time>2019-07-07T09:15:12Z</time>
      </trkpt>
      <trkpt lat="38.5509140" lon="-28.4628830">
        <ele>37.8</ele>
        <time>2019-07-07T09:15:14Z</time>
      </trkpt>
      <trkpt lat="38.5509640" lon="-28.4629200">
        <ele>37.5</ele>
        <time>2019-07-07T09:15:15Z</time>
      </trkpt>
      <trkpt lat="38.5510100" lon="-28.4629610">
        <ele>37.5</ele>
        <time>2019-07-07T09:15:16Z</time>
      </trkpt>
      <trkpt lat="38.5510510" lon="-28.4630050">
        <ele>37.5</ele>
        <time>2019-07-07T09:15:17Z</time>
      </trkpt>
      <trkpt lat="38.5511230" lon="-28.4630850">
        <ele>36.9</ele>
        <time>2019-07-07T09:15:19Z</time>
      </trkpt>
      <trkpt lat="38.5511570" lon="-28.4631180">
        <ele>36.8</ele>
        <time>2019-07-07T09:15:20Z</time>
      </trkpt>
      <trkpt lat="38.5512370" lon="-28.4631770">
        <ele>36.5</ele>
        <time>2019-07-07T09:15:23Z</time>
      </trkpt>
      <trkpt lat="38.5512680" lon="-28.4631890">
        <ele>36.3</ele>
        <time>2019-07-07T09:15:24Z</time>
      </trkpt>
      <trkpt lat="38.5513820" lon="-28.4632590">
        <ele>35.9</ele>
        <time>2019-07-07T09:15:27Z</time>
      </trkpt>
      <trkpt lat="38.5515230" lon="-28.4633580">
        <ele>35.0</ele>
        <time>2019-07-07T09:15:30Z</time>
      </trkpt>
      <trkpt lat="38.5516080" lon="-28.4634150">
        <ele>34.7</ele>
        <time>2019-07-07T09:15:32Z</time>
      </trkpt>
      <trkpt lat="38.5517790" lon="-28.4635690">
        <ele>34.5</ele>
        <time>2019-07-07T09:15:38Z</time>
      </trkpt>
      <trkpt lat="38.5518510" lon="-28.4636400">
        <ele>34.4</ele>
        <time>2019-07-07T09:15:41Z</time>
      </trkpt>
      <trkpt lat="38.5519780" lon="-28.4637430">
        <ele>34.2</ele>
        <time>2019-07-07T09:15:45Z</time>
      </trkpt>
      <trkpt lat="38.5521120" lon="-28.4638570">
        <ele>34.2</ele>
        <time>2019-07-07T09:15:49Z</time>
      </trkpt>
      <trkpt lat="38.5522230" lon="-28.4639260">
        <ele>34.6</ele>
        <time>2019-07-07T09:15:52Z</time>
      </trkpt>
      <trkpt lat="38.5523920" lon="-28.4640190">
        <ele>34.8</ele>
        <time>2019-07-07T09:15:56Z</time>
      </trkpt>
      <trkpt lat="38.5524340" lon="-28.4640430">
        <ele>34.9</ele>
        <time>2019-07-07T09:15:57Z</time>
      </trkpt>
      <trkpt lat="38.5525070" lon="-28.4640980">
        <ele>34.9</ele>
        <time>2019-07-07T09:15:59Z</time>
      </trkpt>
      <trkpt lat="38.5525730" lon="-28.4641410">
        <ele>34.9</ele>
        <time>2019-07-07T09:16:01Z</time>
      </trkpt>
      <trkpt lat="38.5526400" lon="-28.4641970">
        <ele>34.8</ele>
        <time>2019-07-07T09:16:04Z</time>
      </trkpt>
      <trkpt lat="38.5527560" lon="-28.4642770">
        <ele>34.9</ele>
        <time>2019-07-07T09:16:10Z</time>
      </trkpt>
      <trkpt lat="38.5528550" lon="-28.4643440">
        <ele>35.0</ele>
        <time>2019-07-07T09:16:15Z</time>
      </trkpt>
      <trkpt lat="38.5528880" lon="-28.4643650">
        <ele>35.0</ele>
        <time>2019-07-07T09:16:17Z</time>
      </trkpt>
      <trkpt lat="38.5529670" lon="-28.4644300">
        <ele>35.1</ele>
        <time>2019-07-07T09:16:23Z</time>
      </trkpt>
      <trkpt lat="38.5529810" lon="-28.4644440">
        <ele>35.1</ele>
        <time>2019-07-07T09:16:24Z</time>
      </trkpt>
      <trkpt lat="38.5530340" lon="-28.4645010">
        <ele>35.1</ele>
        <time>2019-07-07T09:16:29Z</time>
      </trkpt>
      <trkpt lat="38.5530570" lon="-28.4645250">
        <ele>35.4</ele>
        <time>2019-07-07T09:16:31Z</time>
      </trkpt>
      <trkpt lat="38.5530870" lon="-28.4645590">
        <ele>35.5</ele>
        <time>2019-07-07T09:16:34Z</time>
      </trkpt>
      <trkpt lat="38.5530930" lon="-28.4645640">
        <ele>35.5</ele>
        <time>2019-07-07T09:16:36Z</time>
      </trkpt>
      <trkpt lat="38.5531370" lon="-28.4646100">
        <ele>35.4</ele>
        <time>2019-07-07T09:16:52Z</time>
      </trkpt>
      <trkpt lat="38.5531500" lon="-28.4646250">
        <ele>35.4</ele>
        <time>2019-07-07T09:16:53Z</time>
      </trkpt>
      <trkpt lat="38.5532510" lon="-28.4647140">
        <ele>35.4</ele>
        <time>2019-07-07T09:17:00Z</time>
      </trkpt>
      <trkpt lat="38.5532960" lon="-28.4647670">
        <ele>35.7</ele>
        <time>2019-07-07T09:17:05Z</time>
      </trkpt>
      <trkpt lat="38.5540330" lon="-28.4652040">
        <ele>33.3</ele>
        <time>2019-07-07T09:19:15Z</time>
      </trkpt>
      <trkpt lat="38.5540480" lon="-28.4652230">
        <ele>33.2</ele>
        <time>2019-07-07T09:19:16Z</time>
      </trkpt>
      <trkpt lat="38.5541370" lon="-28.4652720">
        <ele>33.3</ele>
        <time>2019-07-07T09:19:21Z</time>
      </trkpt>
      <trkpt lat="38.5541610" lon="-28.4652890">
        <ele>33.4</ele>
        <time>2019-07-07T09:19:23Z</time>
      </trkpt>
      <trkpt lat="38.5541640" lon="-28.4652950">
        <ele>33.4</ele>
        <time>2019-07-07T09:19:25Z</time>
      </trkpt>
      <trkpt lat="38.5546110" lon="-28.4656490">
        <ele>32.2</ele>
        <time>2019-07-07T09:20:36Z</time>
      </trkpt>
      <trkpt lat="38.5546530" lon="-28.4656870">
        <ele>32.2</ele>
        <time>2019-07-07T09:20:39Z</time>
      </trkpt>
      <trkpt lat="38.5547190" lon="-28.4657320">
        <ele>31.9</ele>
        <time>2019-07-07T09:20:43Z</time>
      </trkpt>
      <trkpt lat="38.5547720" lon="-28.4657650">
        <ele>31.9</ele>
        <time>2019-07-07T09:20:46Z</time>
      </trkpt>
      <trkpt lat="38.5548300" lon="-28.4658420">
        <ele>31.8</ele>
        <time>2019-07-07T09:20:52Z</time>
      </trkpt>
      <trkpt lat="38.5548290" lon="-28.4658520">
        <ele>31.8</ele>
        <time>2019-07-07T09:20:54Z</time>
      </trkpt>
      <trkpt lat="38.5548550" lon="-28.4658770">
        <ele>31.6</ele>
        <time>2019-07-07T09:21:00Z</time>
      </trkpt>
      <trkpt lat="38.5548680" lon="-28.4658890">
        <ele>31.6</ele>
        <time>2019-07-07T09:21:01Z</time>
      </trkpt>
      <trkpt lat="38.5549410" lon="-28.4659500">
        <ele>31.1</ele>
        <time>2019-07-07T09:21:07Z</time>
      </trkpt>
      <trkpt lat="38.5549570" lon="-28.4659640">
        <ele>30.8</ele>
        <time>2019-07-07T09:21:08Z</time>
      </trkpt>
      <trkpt lat="38.5550560" lon="-28.4660430">
        <ele>29.6</ele>
        <time>2019-07-07T09:21:13Z</time>
      </trkpt>
      <trkpt lat="38.5551580" lon="-28.4661340">
        <ele>28.6</ele>
        <time>2019-07-07T09:21:19Z</time>
      </trkpt>
      <trkpt lat="38.5552920" lon="-28.4662330">
        <ele>27.9</ele>
        <time>2019-07-07T09:21:25Z</time>
      </trkpt>
      <trkpt lat="38.5553950" lon="-28.4663020">
        <ele>27.6</ele>
        <time>2019-07-07T09:21:31Z</time>
      </trkpt>
      <trkpt lat="38.5555030" lon="-28.4663820">
        <ele>27.5</ele>
        <time>2019-07-07T09:21:36Z</time>
      </trkpt>
      <trkpt lat="38.5555870" lon="-28.4664420">
        <ele>27.4</ele>
        <time>2019-07-07T09:21:39Z</time>
      </trkpt>
      <trkpt lat="38.5556610" lon="-28.4664960">
        <ele>27.3</ele>
        <time>2019-07-07T09:21:43Z</time>
      </trkpt>
      <trkpt lat="38.5557970" lon="-28.4665890">
        <ele>27.5</ele>
        <time>2019-07-07T09:21:48Z</time>
      </trkpt>
      <trkpt lat="38.5558650" lon="-28.4666400">
        <ele>27.7</ele>
        <time>2019-07-07T09:21:50Z</time>
      </trkpt>
      <trkpt lat="38.5559630" lon="-28.4667120">
        <ele>28.0</ele>
        <time>2019-07-07T09:21:54Z</time>
      </trkpt>
      <trkpt lat="38.5560450" lon="-28.4667700">
        <ele>28.1</ele>
        <time>2019-07-07T09:21:58Z</time>
      </trkpt>
      <trkpt lat="38.5561100" lon="-28.4668210">
        <ele>28.3</ele>
        <time>2019-07-07T09:22:01Z</time>
      </trkpt>
      <trkpt lat="38.5562280" lon="-28.4669120">
        <ele>28.0</ele>
        <time>2019-07-07T09:22:07Z</time>
      </trkpt>
      <trkpt lat="38.5562920" lon="-28.4669610">
        <ele>27.8</ele>
        <time>2019-07-07T09:22:11Z</time>
      </trkpt>
      <trkpt lat="38.5563190" lon="-28.4669870">
        <ele>27.8</ele>
        <time>2019-07-07T09:22:13Z</time>
      </trkpt>
      <trkpt lat="38.5563490" lon="-28.4670090">
        <ele>27.7</ele>
        <time>2019-07-07T09:22:15Z</time>
      </trkpt>
      <trkpt lat="38.5564490" lon="-28.4670900">
        <ele>27.3</ele>
        <time>2019-07-07T09:22:21Z</time>
      </trkpt>
      <trkpt lat="38.5564660" lon="-28.4671040">
        <ele>27.1</ele>
        <time>2019-07-07T09:22:22Z</time>
      </trkpt>
      <trkpt lat="38.5564990" lon="-28.4671310">
        <ele>27.1</ele>
        <time>2019-07-07T09:22:24Z</time>
      </trkpt>
      <trkpt lat="38.5565130" lon="-28.4671510">
        <ele>27.1</ele>
        <time>2019-07-07T09:22:25Z</time>
      </trkpt>
      <trkpt lat="38.5565170" lon="-28.4671930">
        <ele>27.2</ele>
        <time>2019-07-07T09:22:27Z</time>
      </trkpt>
      <trkpt lat="38.5564550" lon="-28.4672850">
        <ele>27.7</ele>
        <time>2019-07-07T09:22:32Z</time>
      </trkpt>
      <trkpt lat="38.5563840" lon="-28.4674250">
        <ele>28.6</ele>
        <time>2019-07-07T09:22:38Z</time>
      </trkpt>
      <trkpt lat="38.5563260" lon="-28.4675580">
        <ele>29.1</ele>
        <time>2019-07-07T09:22:44Z</time>
      </trkpt>
      <trkpt lat="38.5562800" lon="-28.4676430">
        <ele>29.7</ele>
        <time>2019-07-07T09:22:48Z</time>
      </trkpt>
      <trkpt lat="38.5562510" lon="-28.4677060">
        <ele>29.9</ele>
        <time>2019-07-07T09:22:51Z</time>
      </trkpt>
      <trkpt lat="38.5561650" lon="-28.4678530">
        <ele>30.3</ele>
        <time>2019-07-07T09:22:57Z</time>
      </trkpt>
      <trkpt lat="38.5561140" lon="-28.4679710">
        <ele>30.8</ele>
        <time>2019-07-07T09:23:02Z</time>
      </trkpt>
      <trkpt lat="38.5561060" lon="-28.4679890">
        <ele>30.8</ele>
        <time>2019-07-07T09:23:03Z</time>
      </trkpt>
      <trkpt lat="38.5560790" lon="-28.4680390">
        <ele>31.1</ele>
        <time>2019-07-07T09:23:06Z</time>
      </trkpt>
      <trkpt lat="38.5560490" lon="-28.4680800">
        <ele>31.3</ele>
        <time>2019-07-07T09:23:09Z</time>
      </trkpt>
      <trkpt lat="38.5560380" lon="-28.4681050">
        <ele>31.3</ele>
        <time>2019-07-07T09:23:11Z</time>
      </trkpt>
      <trkpt lat="38.5560030" lon="-28.4681640">
        <ele>31.5</ele>
        <time>2019-07-07T09:23:15Z</time>
      </trkpt>
      <trkpt lat="38.5559700" lon="-28.4681930">
        <ele>31.8</ele>
        <time>2019-07-07T09:23:17Z</time>
      </trkpt>
      <trkpt lat="38.5559400" lon="-28.4682400">
        <ele>32.0</ele>
        <time>2019-07-07T09:23:19Z</time>
      </trkpt>
      <trkpt lat="38.5558820" lon="-28.4683480">
        <ele>32.4</ele>
        <time>2019-07-07T09:23:25Z</time>
      </trkpt>
      <trkpt lat="38.5558730" lon="-28.4683650">
        <ele>32.4</ele>
        <time>2019-07-07T09:23:26Z</time>
      </trkpt>
      <trkpt lat="38.5558440" lon="-28.4684160">
        <ele>32.5</ele>
        <time>2019-07-07T09:23:29Z</time>
      </trkpt>
      <trkpt lat="38.5558240" lon="-28.4684540">
        <ele>32.5</ele>
        <time>2019-07-07T09:23:31Z</time>
      </trkpt>
      <trkpt lat="38.5557720" lon="-28.4685370">
        <ele>33.0</ele>
        <time>2019-07-07T09:23:36Z</time>
      </trkpt>
      <trkpt lat="38.5557610" lon="-28.4685550">
        <ele>33.0</ele>
        <time>2019-07-07T09:23:37Z</time>
      </trkpt>
      <trkpt lat="38.5556980" lon="-28.4686990">
        <ele>33.3</ele>
        <time>2019-07-07T09:23:43Z</time>
      </trkpt>
      <trkpt lat="38.5556180" lon="-28.4688290">
        <ele>33.7</ele>
        <time>2019-07-07T09:23:50Z</time>
      </trkpt>
      <trkpt lat="38.5556020" lon="-28.4688420">
        <ele>33.9</ele>
        <time>2019-07-07T09:23:51Z</time>
      </trkpt>
      <trkpt lat="38.5555380" lon="-28.4689140">
        <ele>34.5</ele>
        <time>2019-07-07T09:23:55Z</time>
      </trkpt>
      <trkpt lat="38.5554770" lon="-28.4689660">
        <ele>35.1</ele>
        <time>2019-07-07T09:23:59Z</time>
      </trkpt>
      <trkpt lat="38.5554620" lon="-28.4690170">
        <ele>35.1</ele>
        <time>2019-07-07T09:24:01Z</time>
      </trkpt>
      <trkpt lat="38.5553770" lon="-28.4691770">
        <ele>36.3</ele>
        <time>2019-07-07T09:24:07Z</time>
      </trkpt>
      <trkpt lat="38.5552830" lon="-28.4693630">
        <ele>38.1</ele>
        <time>2019-07-07T09:24:13Z</time>
      </trkpt>
      <trkpt lat="38.5552460" lon="-28.4694790">
        <ele>39.7</ele>
        <time>2019-07-07T09:24:16Z</time>
      </trkpt>
      <trkpt lat="38.5551820" lon="-28.4696110">
        <ele>41.3</ele>
        <time>2019-07-07T09:24:19Z</time>
      </trkpt>
      <trkpt lat="38.5550430" lon="-28.4698430">
        <ele>43.1</ele>
        <time>2019-07-07T09:24:25Z</time>
      </trkpt>
      <trkpt lat="38.5549720" lon="-28.4699850">
        <ele>43.1</ele>
        <time>2019-07-07T09:24:29Z</time>
      </trkpt>
      <trkpt lat="38.5549540" lon="-28.4700080">
        <ele>42.9</ele>
        <time>2019-07-07T09:24:30Z</time>
      </trkpt>
      <trkpt lat="38.5548780" lon="-28.4700800">
        <ele>42.9</ele>
        <time>2019-07-07T09:24:33Z</time>
      </trkpt>
      <trkpt lat="38.5548390" lon="-28.4701520">
        <ele>42.8</ele>
        <time>2019-07-07T09:24:35Z</time>
      </trkpt>
      <trkpt lat="38.5547900" lon="-28.4702780">
        <ele>42.6</ele>
        <time>2019-07-07T09:24:38Z</time>
      </trkpt>
      <trkpt lat="38.5547800" lon="-28.4703060">
        <ele>42.6</ele>
        <time>2019-07-07T09:24:39Z</time>
      </trkpt>
      <trkpt lat="38.5547360" lon="-28.4704450">
        <ele>42.8</ele>
        <time>2019-07-07T09:24:43Z</time>
      </trkpt>
      <trkpt lat="38.5546300" lon="-28.4706850">
        <ele>42.7</ele>
        <time>2019-07-07T09:24:49Z</time>
      </trkpt>
      <trkpt lat="38.5545580" lon="-28.4708290">
        <ele>42.8</ele>
        <time>2019-07-07T09:24:54Z</time>
      </trkpt>
      <trkpt lat="38.5544810" lon="-28.4709550">
        <ele>42.8</ele>
        <time>2019-07-07T09:24:59Z</time>
      </trkpt>
      <trkpt lat="38.5544480" lon="-28.4710170">
        <ele>42.9</ele>
        <time>2019-07-07T09:25:01Z</time>
      </trkpt>
      <trkpt lat="38.5543270" lon="-28.4712490">
        <ele>43.7</ele>
        <time>2019-07-07T09:25:08Z</time>
      </trkpt>
      <trkpt lat="38.5542390" lon="-28.4713820">
        <ele>44.4</ele>
        <time>2019-07-07T09:25:13Z</time>
      </trkpt>
      <trkpt lat="38.5542050" lon="-28.4714270">
        <ele>44.7</ele>
        <time>2019-07-07T09:25:15Z</time>
      </trkpt>
      <trkpt lat="38.5541800" lon="-28.4714660">
        <ele>44.8</ele>
        <time>2019-07-07T09:25:17Z</time>
      </trkpt>
      <trkpt lat="38.5541460" lon="-28.4715290">
        <ele>45.2</ele>
        <time>2019-07-07T09:25:20Z</time>
      </trkpt>
      <trkpt lat="38.5541170" lon="-28.4715940">
        <ele>45.9</ele>
        <time>2019-07-07T09:25:23Z</time>
      </trkpt>
      <trkpt lat="38.5540780" lon="-28.4716760">
        <ele>46.9</ele>
        <time>2019-07-07T09:25:27Z</time>
      </trkpt>
      <trkpt lat="38.5540430" lon="-28.4717810">
        <ele>47.8</ele>
        <time>2019-07-07T09:25:31Z</time>
      </trkpt>
      <trkpt lat="38.5540360" lon="-28.4718670">
        <ele>48.7</ele>
        <time>2019-07-07T09:25:34Z</time>
      </trkpt>
      <trkpt lat="38.5540220" lon="-28.4719200">
        <ele>48.8</ele>
        <time>2019-07-07T09:25:36Z</time>
      </trkpt>
      <trkpt lat="38.5539550" lon="-28.4720280">
        <ele>49.9</ele>
        <time>2019-07-07T09:25:41Z</time>
      </trkpt>
      <trkpt lat="38.5539230" lon="-28.4720810">
        <ele>50.3</ele>
        <time>2019-07-07T09:25:43Z</time>
      </trkpt>
      <trkpt lat="38.5538010" lon="-28.4723200">
        <ele>51.8</ele>
        <time>2019-07-07T09:25:49Z</time>
      </trkpt>
      <trkpt lat="38.5537350" lon="-28.4724030">
        <ele>52.3</ele>
        <time>2019-07-07T09:25:53Z</time>
      </trkpt>
      <trkpt lat="38.5537130" lon="-28.4724200">
        <ele>52.3</ele>
        <time>2019-07-07T09:25:54Z</time>
      </trkpt>
      <trkpt lat="38.5536130" lon="-28.4724400">
        <ele>52.9</ele>
        <time>2019-07-07T09:25:58Z</time>
      </trkpt>
      <trkpt lat="38.5535860" lon="-28.4724370">
        <ele>53.1</ele>
        <time>2019-07-07T09:25:59Z</time>
      </trkpt>
      <trkpt lat="38.5534290" lon="-28.4723930">
        <ele>53.8</ele>
        <time>2019-07-07T09:26:05Z</time>
      </trkpt>
      <trkpt lat="38.5533770" lon="-28.4723710">
        <ele>53.9</ele>
        <time>2019-07-07T09:26:07Z</time>
      </trkpt>
      <trkpt lat="38.5532860" lon="-28.4723270">
        <ele>54.3</ele>
        <time>2019-07-07T09:26:11Z</time>
      </trkpt>
      <trkpt lat="38.5531200" lon="-28.4723160">
        <ele>55.2</ele>
        <time>2019-07-07T09:26:16Z</time>
      </trkpt>
      <trkpt lat="38.5530390" lon="-28.4724090">
        <ele>55.6</ele>
        <time>2019-07-07T09:26:19Z</time>
      </trkpt>
      <trkpt lat="38.5530200" lon="-28.4724560">
        <ele>55.9</ele>
        <time>2019-07-07T09:26:20Z</time>
      </trkpt>
      <trkpt lat="38.5529720" lon="-28.4726170">
        <ele>56.1</ele>
        <time>2019-07-07T09:26:23Z</time>
      </trkpt>
      <trkpt lat="38.5528990" lon="-28.4727590">
        <ele>56.3</ele>
        <time>2019-07-07T09:26:26Z</time>
      </trkpt>
      <trkpt lat="38.5528730" lon="-28.4728130">
        <ele>56.4</ele>
        <time>2019-07-07T09:26:27Z</time>
      </trkpt>
      <trkpt lat="38.5528210" lon="-28.4729100">
        <ele>56.5</ele>
        <time>2019-07-07T09:26:29Z</time>
      </trkpt>
      <trkpt lat="38.5527320" lon="-28.4730370">
        <ele>56.3</ele>
        <time>2019-07-07T09:26:32Z</time>
      </trkpt>
      <trkpt lat="38.5527070" lon="-28.4730780">
        <ele>56.4</ele>
        <time>2019-07-07T09:26:33Z</time>
      </trkpt>
      <trkpt lat="38.5526280" lon="-28.4732090">
        <ele>56.8</ele>
        <time>2019-07-07T09:26:37Z</time>
      </trkpt>
      <trkpt lat="38.5525990" lon="-28.4732570">
        <ele>56.8</ele>
        <time>2019-07-07T09:26:40Z</time>
      </trkpt>
      <trkpt lat="38.5525620" lon="-28.4733170">
        <ele>57.4</ele>
        <time>2019-07-07T09:26:43Z</time>
      </trkpt>
      <trkpt lat="38.5525200" lon="-28.4733950">
        <ele>57.9</ele>
        <time>2019-07-07T09:26:46Z</time>
      </trkpt>
      <trkpt lat="38.5525000" lon="-28.4734320">
        <ele>58.1</ele>
        <time>2019-07-07T09:26:48Z</time>
      </trkpt>
      <trkpt lat="38.5524880" lon="-28.4734550">
        <ele>58.2</ele>
        <time>2019-07-07T09:26:49Z</time>
      </trkpt>
      <trkpt lat="38.5524330" lon="-28.4735550">
        <ele>58.5</ele>
        <time>2019-07-07T09:26:54Z</time>
      </trkpt>
      <trkpt lat="38.5524230" lon="-28.4735730">
        <ele>58.6</ele>
        <time>2019-07-07T09:26:55Z</time>
      </trkpt>
      <trkpt lat="38.5523300" lon="-28.4737100">
        <ele>59.0</ele>
        <time>2019-07-07T09:26:59Z</time>
      </trkpt>
      <trkpt lat="38.5521700" lon="-28.4739370">
        <ele>60.4</ele>
        <time>2019-07-07T09:27:04Z</time>
      </trkpt>
      <trkpt lat="38.5521350" lon="-28.4739960">
        <ele>60.7</ele>
        <time>2019-07-07T09:27:05Z</time>
      </trkpt>
      <trkpt lat="38.5520220" lon="-28.4741800">
        <ele>61.0</ele>
        <time>2019-07-07T09:27:09Z</time>
      </trkpt>
      <trkpt lat="38.5518960" lon="-28.4743660">
        <ele>61.6</ele>
        <time>2019-07-07T09:27:13Z</time>
      </trkpt>
      <trkpt lat="38.5518390" lon="-28.4744530">
        <ele>61.9</ele>
        <time>2019-07-07T09:27:15Z</time>
      </trkpt>
      <trkpt lat="38.5517900" lon="-28.4745310">
        <ele>62.0</ele>
        <time>2019-07-07T09:27:17Z</time>
      </trkpt>
      <trkpt lat="38.5517520" lon="-28.4746150">
        <ele>61.9</ele>
        <time>2019-07-07T09:27:20Z</time>
      </trkpt>
      <trkpt lat="38.5517910" lon="-28.4747000">
        <ele>61.1</ele>
        <time>2019-07-07T09:27:23Z</time>
      </trkpt>
      <trkpt lat="38.5518200" lon="-28.4747300">
        <ele>61.0</ele>
        <time>2019-07-07T09:27:24Z</time>
      </trkpt>
      <trkpt lat="38.5519360" lon="-28.4748450">
        <ele>59.8</ele>
        <time>2019-07-07T09:27:27Z</time>
      </trkpt>
      <trkpt lat="38.5520610" lon="-28.4750010">
        <ele>58.5</ele>
        <time>2019-07-07T09:27:30Z</time>
      </trkpt>
      <trkpt lat="38.5521360" lon="-28.4751220">
        <ele>57.5</ele>
        <time>2019-07-07T09:27:32Z</time>
      </trkpt>
      <trkpt lat="38.5521790" lon="-28.4751770">
        <ele>57.2</ele>
        <time>2019-07-07T09:27:33Z</time>
      </trkpt>
      <trkpt lat="38.5522760" lon="-28.4752800">
        <ele>56.1</ele>
        <time>2019-07-07T09:27:35Z</time>
      </trkpt>
      <trkpt lat="38.5523810" lon="-28.4753720">
        <ele>55.4</ele>
        <time>2019-07-07T09:27:37Z</time>
      </trkpt>
      <trkpt lat="38.5526190" lon="-28.4755630">
        <ele>54.3</ele>
        <time>2019-07-07T09:27:41Z</time>
      </trkpt>
      <trkpt lat="38.5526740" lon="-28.4756080">
        <ele>54.1</ele>
        <time>2019-07-07T09:27:42Z</time>
      </trkpt>
      <trkpt lat="38.5527910" lon="-28.4756970">
        <ele>53.7</ele>
        <time>2019-07-07T09:27:44Z</time>
      </trkpt>
      <trkpt lat="38.5529230" lon="-28.4758840">
        <ele>53.1</ele>
        <time>2019-07-07T09:27:47Z</time>
      </trkpt>
      <trkpt lat="38.5529610" lon="-28.4759500">
        <ele>52.9</ele>
        <time>2019-07-07T09:27:48Z</time>
      </trkpt>
      <trkpt lat="38.5530970" lon="-28.4760670">
        <ele>52.2</ele>
        <time>2019-07-07T09:27:51Z</time>
      </trkpt>
      <trkpt lat="38.5531590" lon="-28.4760850">
        <ele>51.7</ele>
        <time>2019-07-07T09:27:52Z</time>
      </trkpt>
      <trkpt lat="38.5532190" lon="-28.4761180">
        <ele>51.1</ele>
        <time>2019-07-07T09:27:53Z</time>
      </trkpt>
      <trkpt lat="38.5532740" lon="-28.4761640">
        <ele>50.4</ele>
        <time>2019-07-07T09:27:54Z</time>
      </trkpt>
      <trkpt lat="38.5534440" lon="-28.4763120">
        <ele>48.8</ele>
        <time>2019-07-07T09:27:57Z</time>
      </trkpt>
      <trkpt lat="38.5535130" lon="-28.4763640">
        <ele>48.2</ele>
        <time>2019-07-07T09:27:58Z</time>
      </trkpt>
      <trkpt lat="38.5535830" lon="-28.4764190">
        <ele>47.4</ele>
        <time>2019-07-07T09:27:59Z</time>
      </trkpt>
      <trkpt lat="38.5537060" lon="-28.4765180">
        <ele>46.1</ele>
        <time>2019-07-07T09:28:01Z</time>
      </trkpt>
      <trkpt lat="38.5537680" lon="-28.4765660">
        <ele>46.1</ele>
        <time>2019-07-07T09:28:02Z</time>
      </trkpt>
      <trkpt lat="38.5539000" lon="-28.4766930">
        <ele>45.7</ele>
        <time>2019-07-07T09:28:04Z</time>
      </trkpt>
      <trkpt lat="38.5540440" lon="-28.4768180">
        <ele>44.5</ele>
        <time>2019-07-07T09:28:06Z</time>
      </trkpt>
      <trkpt lat="38.5542020" lon="-28.4769320">
        <ele>43.5</ele>
        <time>2019-07-07T09:28:08Z</time>
      </trkpt>
      <trkpt lat="38.5542770" lon="-28.4769970">
        <ele>42.7</ele>
        <time>2019-07-07T09:28:09Z</time>
      </trkpt>
      <trkpt lat="38.5544100" lon="-28.4771290">
        <ele>41.9</ele>
        <time>2019-07-07T09:28:11Z</time>
      </trkpt>
      <trkpt lat="38.5545580" lon="-28.4773160">
        <ele>40.8</ele>
        <time>2019-07-07T09:28:14Z</time>
      </trkpt>
      <trkpt lat="38.5545900" lon="-28.4773850">
        <ele>40.6</ele>
        <time>2019-07-07T09:28:15Z</time>
      </trkpt>
      <trkpt lat="38.5546630" lon="-28.4775020">
        <ele>40.1</ele>
        <time>2019-07-07T09:28:17Z</time>
      </trkpt>
      <trkpt lat="38.5547120" lon="-28.4775440">
        <ele>39.3</ele>
        <time>2019-07-07T09:28:18Z</time>
      </trkpt>
      <trkpt lat="38.5547640" lon="-28.4775740">
        <ele>38.9</ele>
        <time>2019-07-07T09:28:19Z</time>
      </trkpt>
      <trkpt lat="38.5548180" lon="-28.4775990">
        <ele>38.0</ele>
        <time>2019-07-07T09:28:20Z</time>
      </trkpt>
      <trkpt lat="38.5548640" lon="-28.4776310">
        <ele>37.5</ele>
        <time>2019-07-07T09:28:21Z</time>
      </trkpt>
      <trkpt lat="38.5549110" lon="-28.4776710">
        <ele>37.1</ele>
        <time>2019-07-07T09:28:22Z</time>
      </trkpt>
      <trkpt lat="38.5550620" lon="-28.4778470">
        <ele>35.3</ele>
        <time>2019-07-07T09:28:25Z</time>
      </trkpt>
      <trkpt lat="38.5551720" lon="-28.4779830">
        <ele>34.0</ele>
        <time>2019-07-07T09:28:27Z</time>
      </trkpt>
      <trkpt lat="38.5552300" lon="-28.4780490">
        <ele>33.1</ele>
        <time>2019-07-07T09:28:28Z</time>
      </trkpt>
      <trkpt lat="38.5553700" lon="-28.4781640">
        <ele>31.5</ele>
        <time>2019-07-07T09:28:30Z</time>
      </trkpt>
      <trkpt lat="38.5554520" lon="-28.4782100">
        <ele>30.5</ele>
        <time>2019-07-07T09:28:31Z</time>
      </trkpt>
      <trkpt lat="38.5555830" lon="-28.4783010">
        <ele>29.2</ele>
        <time>2019-07-07T09:28:33Z</time>
      </trkpt>
      <trkpt lat="38.5556540" lon="-28.4784090">
        <ele>28.6</ele>
        <time>2019-07-07T09:28:35Z</time>
      </trkpt>
      <trkpt lat="38.5556640" lon="-28.4784660">
        <ele>28.6</ele>
        <time>2019-07-07T09:28:36Z</time>
      </trkpt>
      <trkpt lat="38.5556530" lon="-28.4785540">
        <ele>28.8</ele>
        <time>2019-07-07T09:28:38Z</time>
      </trkpt>
      <trkpt lat="38.5556410" lon="-28.4785800">
        <ele>29.0</ele>
        <time>2019-07-07T09:28:39Z</time>
      </trkpt>
      <trkpt lat="38.5555780" lon="-28.4786090">
        <ele>29.8</ele>
        <time>2019-07-07T09:28:43Z</time>
      </trkpt>
      <trkpt lat="38.5555570" lon="-28.4786230">
        <ele>30.2</ele>
        <time>2019-07-07T09:28:44Z</time>
      </trkpt>
      <trkpt lat="38.5555370" lon="-28.4786420">
        <ele>30.5</ele>
        <time>2019-07-07T09:28:45Z</time>
      </trkpt>
      <trkpt lat="38.5554660" lon="-28.4787020">
        <ele>32.1</ele>
        <time>2019-07-07T09:28:48Z</time>
      </trkpt>
      <trkpt lat="38.5554390" lon="-28.4787180">
        <ele>32.4</ele>
        <time>2019-07-07T09:28:49Z</time>
      </trkpt>
      <trkpt lat="38.5553250" lon="-28.4787500">
        <ele>33.4</ele>
        <time>2019-07-07T09:28:53Z</time>
      </trkpt>
      <trkpt lat="38.5552430" lon="-28.4787740">
        <ele>34.2</ele>
        <time>2019-07-07T09:28:56Z</time>
      </trkpt>
      <trkpt lat="38.5551880" lon="-28.4787920">
        <ele>34.8</ele>
        <time>2019-07-07T09:28:58Z</time>
      </trkpt>
      <trkpt lat="38.5550770" lon="-28.4788300">
        <ele>35.7</ele>
        <time>2019-07-07T09:29:02Z</time>
      </trkpt>
      <trkpt lat="38.5550210" lon="-28.4788440">
        <ele>35.9</ele>
        <time>2019-07-07T09:29:04Z</time>
      </trkpt>
      <trkpt lat="38.5549370" lon="-28.4788590">
        <ele>36.2</ele>
        <time>2019-07-07T09:29:07Z</time>
      </trkpt>
      <trkpt lat="38.5548810" lon="-28.4788700">
        <ele>36.4</ele>
        <time>2019-07-07T09:29:09Z</time>
      </trkpt>
      <trkpt lat="38.5547780" lon="-28.4788750">
        <ele>36.9</ele>
        <time>2019-07-07T09:29:13Z</time>
      </trkpt>
      <trkpt lat="38.5547530" lon="-28.4788740">
        <ele>37.0</ele>
        <time>2019-07-07T09:29:14Z</time>
      </trkpt>
      <trkpt lat="38.5546390" lon="-28.4788720">
        <ele>37.3</ele>
        <time>2019-07-07T09:29:18Z</time>
      </trkpt>
      <trkpt lat="38.5546110" lon="-28.4788700">
        <ele>37.4</ele>
        <time>2019-07-07T09:29:19Z</time>
      </trkpt>
      <trkpt lat="38.5545580" lon="-28.4788510">
        <ele>37.7</ele>
        <time>2019-07-07T09:29:21Z</time>
      </trkpt>
      <trkpt lat="38.5545030" lon="-28.4788210">
        <ele>38.0</ele>
        <time>2019-07-07T09:29:23Z</time>
      </trkpt>
      <trkpt lat="38.5544140" lon="-28.4787810">
        <ele>38.6</ele>
        <time>2019-07-07T09:29:27Z</time>
      </trkpt>
      <trkpt lat="38.5543950" lon="-28.4787710">
        <ele>38.8</ele>
        <time>2019-07-07T09:29:28Z</time>
      </trkpt>
      <trkpt lat="38.5543420" lon="-28.4787290">
        <ele>39.2</ele>
        <time>2019-07-07T09:29:31Z</time>
      </trkpt>
      <trkpt lat="38.5542510" lon="-28.4786690">
        <ele>39.8</ele>
        <time>2019-07-07T09:29:36Z</time>
      </trkpt>
      <trkpt lat="38.5542330" lon="-28.4786590">
        <ele>39.9</ele>
        <time>2019-07-07T09:29:37Z</time>
      </trkpt>
      <trkpt lat="38.5541390" lon="-28.4786280">
        <ele>40.5</ele>
        <time>2019-07-07T09:29:42Z</time>
      </trkpt>
      <trkpt lat="38.5540990" lon="-28.4786000">
        <ele>40.8</ele>
        <time>2019-07-07T09:29:44Z</time>
      </trkpt>
      <trkpt lat="38.5540190" lon="-28.4785470">
        <ele>41.4</ele>
        <time>2019-07-07T09:29:48Z</time>
      </trkpt>
      <trkpt lat="38.5539420" lon="-28.4785090">
        <ele>41.8</ele>
        <time>2019-07-07T09:29:52Z</time>
      </trkpt>
      <trkpt lat="38.5539210" lon="-28.4785110">
        <ele>41.9</ele>
        <time>2019-07-07T09:29:53Z</time>
      </trkpt>
      <trkpt lat="38.5539010" lon="-28.4785200">
        <ele>42.1</ele>
        <time>2019-07-07T09:29:54Z</time>
      </trkpt>
      <trkpt lat="38.5538530" lon="-28.4785930">
        <ele>42.2</ele>
        <time>2019-07-07T09:29:57Z</time>
      </trkpt>
      <trkpt lat="38.5538410" lon="-28.4786280">
        <ele>42.3</ele>
        <time>2019-07-07T09:29:58Z</time>
      </trkpt>
      <trkpt lat="38.5538190" lon="-28.4786980">
        <ele>42.4</ele>
        <time>2019-07-07T09:30:00Z</time>
      </trkpt>
      <trkpt lat="38.5537410" lon="-28.4788560">
        <ele>43.3</ele>
        <time>2019-07-07T09:30:05Z</time>
      </trkpt>
      <trkpt lat="38.5535590" lon="-28.4789920">
        <ele>44.5</ele>
        <time>2019-07-07T09:30:11Z</time>
      </trkpt>
      <trkpt lat="38.5534990" lon="-28.4790580">
        <ele>44.6</ele>
        <time>2019-07-07T09:30:13Z</time>
      </trkpt>
      <trkpt lat="38.5534450" lon="-28.4791540">
        <ele>44.6</ele>
        <time>2019-07-07T09:30:15Z</time>
      </trkpt>
      <trkpt lat="38.5532890" lon="-28.4795080">
        <ele>44.7</ele>
        <time>2019-07-07T09:30:22Z</time>
      </trkpt>
      <trkpt lat="38.5532130" lon="-28.4796560">
        <ele>44.7</ele>
        <time>2019-07-07T09:30:25Z</time>
      </trkpt>
      <trkpt lat="38.5531230" lon="-28.4798100">
        <ele>44.7</ele>
        <time>2019-07-07T09:30:29Z</time>
      </trkpt>
      <trkpt lat="38.5529750" lon="-28.4800710">
        <ele>44.7</ele>
        <time>2019-07-07T09:30:35Z</time>
      </trkpt>
      <trkpt lat="38.5528840" lon="-28.4803020">
        <ele>44.7</ele>
        <time>2019-07-07T09:30:39Z</time>
      </trkpt>
      <trkpt lat="38.5528630" lon="-28.4804850">
        <ele>44.7</ele>
        <time>2019-07-07T09:30:42Z</time>
      </trkpt>
      <trkpt lat="38.5528590" lon="-28.4805560">
        <ele>44.7</ele>
        <time>2019-07-07T09:30:43Z</time>
      </trkpt>
      <trkpt lat="38.5528140" lon="-28.4808270">
        <ele>44.7</ele>
        <time>2019-07-07T09:30:47Z</time>
      </trkpt>
      <trkpt lat="38.5527630" lon="-28.4811830">
        <ele>44.2</ele>
        <time>2019-07-07T09:30:53Z</time>
      </trkpt>
      <trkpt lat="38.5527620" lon="-28.4812420">
        <ele>44.1</ele>
        <time>2019-07-07T09:30:54Z</time>
      </trkpt>
      <trkpt lat="38.5527910" lon="-28.4816930">
        <ele>42.8</ele>
        <time>2019-07-07T09:31:01Z</time>
      </trkpt>
      <trkpt lat="38.5528230" lon="-28.4819540">
        <ele>42.3</ele>
        <time>2019-07-07T09:31:04Z</time>
      </trkpt>
      <trkpt lat="38.5528500" lon="-28.4821460">
        <ele>41.7</ele>
        <time>2019-07-07T09:31:06Z</time>
      </trkpt>
      <trkpt lat="38.5528680" lon="-28.4822480">
        <ele>41.4</ele>
        <time>2019-07-07T09:31:07Z</time>
      </trkpt>
      <trkpt lat="38.5529150" lon="-28.4825440">
        <ele>41.1</ele>
        <time>2019-07-07T09:31:10Z</time>
      </trkpt>
      <trkpt lat="38.5529290" lon="-28.4827120">
        <ele>41.2</ele>
        <time>2019-07-07T09:31:12Z</time>
      </trkpt>
      <trkpt lat="38.5529210" lon="-28.4831560">
        <ele>42.4</ele>
        <time>2019-07-07T09:31:17Z</time>
      </trkpt>
      <trkpt lat="38.5529100" lon="-28.4833540">
        <ele>42.7</ele>
        <time>2019-07-07T09:31:19Z</time>
      </trkpt>
      <trkpt lat="38.5528980" lon="-28.4836150">
        <ele>42.7</ele>
        <time>2019-07-07T09:31:22Z</time>
      </trkpt>
      <trkpt lat="38.5528930" lon="-28.4840960">
        <ele>42.7</ele>
        <time>2019-07-07T09:31:28Z</time>
      </trkpt>
      <trkpt lat="38.5528780" lon="-28.4842570">
        <ele>42.7</ele>
        <time>2019-07-07T09:31:30Z</time>
      </trkpt>
      <trkpt lat="38.5528370" lon="-28.4844040">
        <ele>42.7</ele>
        <time>2019-07-07T09:31:32Z</time>
      </trkpt>
      <trkpt lat="38.5527190" lon="-28.4848110">
        <ele>42.7</ele>
        <time>2019-07-07T09:31:38Z</time>
      </trkpt>
      <trkpt lat="38.5526990" lon="-28.4848740">
        <ele>42.7</ele>
        <time>2019-07-07T09:31:39Z</time>
      </trkpt>
      <trkpt lat="38.5526020" lon="-28.4851880">
        <ele>42.3</ele>
        <time>2019-07-07T09:31:44Z</time>
      </trkpt>
      <trkpt lat="38.5525650" lon="-28.4853150">
        <ele>42.1</ele>
        <time>2019-07-07T09:31:46Z</time>
      </trkpt>
      <trkpt lat="38.5525470" lon="-28.4853790">
        <ele>42.0</ele>
        <time>2019-07-07T09:31:47Z</time>
      </trkpt>
      <trkpt lat="38.5525000" lon="-28.4855510">
        <ele>41.6</ele>
        <time>2019-07-07T09:31:50Z</time>
      </trkpt>
      <trkpt lat="38.5524720" lon="-28.4856610">
        <ele>41.3</ele>
        <time>2019-07-07T09:31:52Z</time>
      </trkpt>
      <trkpt lat="38.5524380" lon="-28.4858130">
        <ele>40.7</ele>
        <time>2019-07-07T09:31:55Z</time>
      </trkpt>
      <trkpt lat="38.5524050" lon="-28.4859560">
        <ele>40.2</ele>
        <time>2019-07-07T09:31:58Z</time>
      </trkpt>
      <trkpt lat="38.5523360" lon="-28.4862390">
        <ele>38.7</ele>
        <time>2019-07-07T09:32:04Z</time>
      </trkpt>
      <trkpt lat="38.5522840" lon="-28.4865920">
        <ele>37.3</ele>
        <time>2019-07-07T09:32:11Z</time>
      </trkpt>
      <trkpt lat="38.5522640" lon="-28.4867040">
        <ele>37.0</ele>
        <time>2019-07-07T09:32:13Z</time>
      </trkpt>
      <trkpt lat="38.5521980" lon="-28.4868700">
        <ele>37.2</ele>
        <time>2019-07-07T09:32:16Z</time>
      </trkpt>
      <trkpt lat="38.5521460" lon="-28.4869940">
        <ele>37.8</ele>
        <time>2019-07-07T09:32:18Z</time>
      </trkpt>
      <trkpt lat="38.5520740" lon="-28.4872030">
        <ele>39.2</ele>
        <time>2019-07-07T09:32:21Z</time>
      </trkpt>
      <trkpt lat="38.5520240" lon="-28.4873320">
        <ele>39.7</ele>
        <time>2019-07-07T09:32:23Z</time>
      </trkpt>
      <trkpt lat="38.5519100" lon="-28.4875970">
        <ele>40.0</ele>
        <time>2019-07-07T09:32:27Z</time>
      </trkpt>
      <trkpt lat="38.5518840" lon="-28.4876620">
        <ele>40.0</ele>
        <time>2019-07-07T09:32:28Z</time>
      </trkpt>
      <trkpt lat="38.5517660" lon="-28.4880040">
        <ele>40.0</ele>
        <time>2019-07-07T09:32:33Z</time>
      </trkpt>
      <trkpt lat="38.5516680" lon="-28.4883430">
        <ele>39.9</ele>
        <time>2019-07-07T09:32:38Z</time>
      </trkpt>
      <trkpt lat="38.5516620" lon="-28.4884140">
        <ele>39.8</ele>
        <time>2019-07-07T09:32:39Z</time>
      </trkpt>
      <trkpt lat="38.5516700" lon="-28.4886590">
        <ele>39.2</ele>
        <time>2019-07-07T09:32:42Z</time>
      </trkpt>
      <trkpt lat="38.5516730" lon="-28.4887460">
        <ele>39.0</ele>
        <time>2019-07-07T09:32:43Z</time>
      </trkpt>
      <trkpt lat="38.5516780" lon="-28.4888290">
        <ele>38.8</ele>
        <time>2019-07-07T09:32:44Z</time>
      </trkpt>
      <trkpt lat="38.5516880" lon="-28.4889170">
        <ele>38.6</ele>
        <time>2019-07-07T09:32:45Z</time>
      </trkpt>
      <trkpt lat="38.5517210" lon="-28.4891030">
        <ele>37.9</ele>
        <time>2019-07-07T09:32:47Z</time>
      </trkpt>
      <trkpt lat="38.5517310" lon="-28.4892000">
        <ele>37.6</ele>
        <time>2019-07-07T09:32:48Z</time>
      </trkpt>
      <trkpt lat="38.5517560" lon="-28.4893930">
        <ele>37.4</ele>
        <time>2019-07-07T09:32:50Z</time>
      </trkpt>
      <trkpt lat="38.5518040" lon="-28.4895800">
        <ele>37.2</ele>
        <time>2019-07-07T09:32:52Z</time>
      </trkpt>
      <trkpt lat="38.5518120" lon="-28.4896770">
        <ele>37.2</ele>
        <time>2019-07-07T09:32:53Z</time>
      </trkpt>
      <trkpt lat="38.5517780" lon="-28.4898540">
        <ele>36.8</ele>
        <time>2019-07-07T09:32:55Z</time>
      </trkpt>
      <trkpt lat="38.5517570" lon="-28.4899460">
        <ele>36.4</ele>
        <time>2019-07-07T09:32:56Z</time>
      </trkpt>
      <trkpt lat="38.5517150" lon="-28.4902260">
        <ele>35.4</ele>
        <time>2019-07-07T09:32:59Z</time>
      </trkpt>
      <trkpt lat="38.5516740" lon="-28.4904960">
        <ele>34.7</ele>
        <time>2019-07-07T09:33:03Z</time>
      </trkpt>
      <trkpt lat="38.5516430" lon="-28.4907200">
        <ele>34.0</ele>
        <time>2019-07-07T09:33:09Z</time>
      </trkpt>
      <trkpt lat="38.5516310" lon="-28.4908250">
        <ele>33.7</ele>
        <time>2019-07-07T09:33:12Z</time>
      </trkpt>
      <trkpt lat="38.5516020" lon="-28.4908720">
        <ele>33.6</ele>
        <time>2019-07-07T09:33:14Z</time>
      </trkpt>
      <trkpt lat="38.5515840" lon="-28.4908800">
        <ele>33.5</ele>
        <time>2019-07-07T09:33:15Z</time>
      </trkpt>
      <trkpt lat="38.5515680" lon="-28.4908760">
        <ele>33.4</ele>
        <time>2019-07-07T09:33:16Z</time>
      </trkpt>
      <trkpt lat="38.5515500" lon="-28.4908640">
        <ele>33.4</ele>
        <time>2019-07-07T09:33:17Z</time>
      </trkpt>
      <trkpt lat="38.5514990" lon="-28.4908310">
        <ele>33.3</ele>
        <time>2019-07-07T09:33:19Z</time>
      </trkpt>
      <trkpt lat="38.5514690" lon="-28.4908110">
        <ele>33.4</ele>
        <time>2019-07-07T09:33:20Z</time>
      </trkpt>
      <trkpt lat="38.5514090" lon="-28.4907720">
        <ele>33.3</ele>
        <time>2019-07-07T09:33:22Z</time>
      </trkpt>
      <trkpt lat="38.5512980" lon="-28.4906720">
        <ele>33.1</ele>
        <time>2019-07-07T09:33:26Z</time>
      </trkpt>
      <trkpt lat="38.5512560" lon="-28.4906160">
        <ele>33.0</ele>
        <time>2019-07-07T09:33:28Z</time>
      </trkpt>
      <trkpt lat="38.5511410" lon="-28.4904670">
        <ele>32.8</ele>
        <time>2019-07-07T09:33:33Z</time>
      </trkpt>
      <trkpt lat="38.5510410" lon="-28.4903660">
        <ele>32.8</ele>
        <time>2019-07-07T09:33:37Z</time>
      </trkpt>
      <trkpt lat="38.5509390" lon="-28.4902810">
        <ele>32.6</ele>
        <time>2019-07-07T09:33:41Z</time>
      </trkpt>
      <trkpt lat="38.5508320" lon="-28.4901920">
        <ele>32.3</ele>
        <time>2019-07-07T09:33:45Z</time>
      </trkpt>
      <trkpt lat="38.5505910" lon="-28.4899700">
        <ele>32.4</ele>
        <time>2019-07-07T09:33:54Z</time>
      </trkpt>
      <trkpt lat="38.5504890" lon="-28.4898740">
        <ele>32.6</ele>
        <time>2019-07-07T09:33:58Z</time>
      </trkpt>
      <trkpt lat="38.5504400" lon="-28.4898450">
        <ele>32.7</ele>
        <time>2019-07-07T09:34:00Z</time>
      </trkpt>
      <trkpt lat="38.5503820" lon="-28.4898170">
        <ele>32.9</ele>
        <time>2019-07-07T09:34:03Z</time>
      </trkpt>
      <trkpt lat="38.5503400" lon="-28.4897660">
        <ele>33.2</ele>
        <time>2019-07-07T09:34:06Z</time>
      </trkpt>
      <trkpt lat="38.5503300" lon="-28.4897490">
        <ele>33.3</ele>
        <time>2019-07-07T09:34:07Z</time>
      </trkpt>
      <trkpt lat="38.5503000" lon="-28.4897110">
        <ele>33.5</ele>
        <time>2019-07-07T09:34:10Z</time>
      </trkpt>
      <trkpt lat="38.5502690" lon="-28.4896710">
        <ele>33.8</ele>
        <time>2019-07-07T09:34:13Z</time>
      </trkpt>
      <trkpt lat="38.5502310" lon="-28.4896010">
        <ele>34.3</ele>
        <time>2019-07-07T09:34:17Z</time>
      </trkpt>
      <trkpt lat="38.5501790" lon="-28.4895010">
        <ele>35.1</ele>
        <time>2019-07-07T09:34:22Z</time>
      </trkpt>
      <trkpt lat="38.5501290" lon="-28.4894320">
        <ele>35.7</ele>
        <time>2019-07-07T09:34:26Z</time>
      </trkpt>
      <trkpt lat="38.5500630" lon="-28.4893610">
        <ele>36.3</ele>
        <time>2019-07-07T09:34:31Z</time>
      </trkpt>
      <trkpt lat="38.5499990" lon="-28.4892680">
        <ele>37.1</ele>
        <time>2019-07-07T09:34:37Z</time>
      </trkpt>
      <trkpt lat="38.5499810" lon="-28.4892310">
        <ele>37.4</ele>
        <time>2019-07-07T09:34:39Z</time>
      </trkpt>
      <trkpt lat="38.5499580" lon="-28.4891860">
        <ele>37.7</ele>
        <time>2019-07-07T09:34:41Z</time>
      </trkpt>
      <trkpt lat="38.5498860" lon="-28.4890950">
        <ele>38.6</ele>
        <time>2019-07-07T09:34:46Z</time>
      </trkpt>
      <trkpt lat="38.5498310" lon="-28.4890190">
        <ele>39.2</ele>
        <time>2019-07-07T09:34:50Z</time>
      </trkpt>
      <trkpt lat="38.5497700" lon="-28.4889290">
        <ele>40.0</ele>
        <time>2019-07-07T09:34:55Z</time>
      </trkpt>
      <trkpt lat="38.5497480" lon="-28.4888880">
        <ele>40.3</ele>
        <time>2019-07-07T09:34:57Z</time>
      </trkpt>
      <trkpt lat="38.5496050" lon="-28.4887150">
        <ele>41.6</ele>
        <time>2019-07-07T09:35:05Z</time>
      </trkpt>
      <trkpt lat="38.5494790" lon="-28.4885620">
        <ele>42.6</ele>
        <time>2019-07-07T09:35:11Z</time>
      </trkpt>
      <trkpt lat="38.5494100" lon="-28.4884990">
        <ele>43.0</ele>
        <time>2019-07-07T09:35:14Z</time>
      </trkpt>
      <trkpt lat="38.5492700" lon="-28.4883430">
        <ele>43.4</ele>
        <time>2019-07-07T09:35:21Z</time>
      </trkpt>
      <trkpt lat="38.5491240" lon="-28.4881230">
        <ele>44.0</ele>
        <time>2019-07-07T09:35:28Z</time>
      </trkpt>
      <trkpt lat="38.5489600" lon="-28.4878990">
        <ele>45.7</ele>
        <time>2019-07-07T09:35:34Z</time>
      </trkpt>
      <trkpt lat="38.5489230" lon="-28.4878580">
        <ele>46.2</ele>
        <time>2019-07-07T09:35:35Z</time>
      </trkpt>
      <trkpt lat="38.5487800" lon="-28.4877070">
        <ele>48.4</ele>
        <time>2019-07-07T09:35:39Z</time>
      </trkpt>
      <trkpt lat="38.5487560" lon="-28.4876790">
        <ele>48.8</ele>
        <time>2019-07-07T09:35:40Z</time>
      </trkpt>
      <trkpt lat="38.5487090" lon="-28.4876340">
        <ele>49.5</ele>
        <time>2019-07-07T09:35:42Z</time>
      </trkpt>
      <trkpt lat="38.5486560" lon="-28.4876090">
        <ele>50.1</ele>
        <time>2019-07-07T09:35:44Z</time>
      </trkpt>
      <trkpt lat="38.5486290" lon="-28.4876000">
        <ele>50.4</ele>
        <time>2019-07-07T09:35:45Z</time>
      </trkpt>
      <trkpt lat="38.5485370" lon="-28.4875270">
        <ele>51.6</ele>
        <time>2019-07-07T09:35:49Z</time>
      </trkpt>
      <trkpt lat="38.5483580" lon="-28.4873290">
        <ele>53.8</ele>
        <time>2019-07-07T09:35:58Z</time>
      </trkpt>
      <trkpt lat="38.5482990" lon="-28.4872570">
        <ele>54.5</ele>
        <time>2019-07-07T09:36:01Z</time>
      </trkpt>
      <trkpt lat="38.5482440" lon="-28.4871960">
        <ele>55.0</ele>
        <time>2019-07-07T09:36:04Z</time>
      </trkpt>
      <trkpt lat="38.5480070" lon="-28.4869610">
        <ele>56.7</ele>
        <time>2019-07-07T09:36:15Z</time>
      </trkpt>
      <trkpt lat="38.5479720" lon="-28.4869190">
        <ele>57.1</ele>
        <time>2019-07-07T09:36:17Z</time>
      </trkpt>
      <trkpt lat="38.5479160" lon="-28.4868470">
        <ele>57.8</ele>
        <time>2019-07-07T09:36:21Z</time>
      </trkpt>
      <trkpt lat="38.5479030" lon="-28.4868330">
        <ele>58.0</ele>
        <time>2019-07-07T09:36:22Z</time>
      </trkpt>
      <trkpt lat="38.5478650" lon="-28.4867940">
        <ele>58.5</ele>
        <time>2019-07-07T09:36:25Z</time>
      </trkpt>
      <trkpt lat="38.5478190" lon="-28.4867400">
        <ele>59.3</ele>
        <time>2019-07-07T09:36:29Z</time>
      </trkpt>
      <trkpt lat="38.5477780" lon="-28.4866910">
        <ele>60.0</ele>
        <time>2019-07-07T09:36:33Z</time>
      </trkpt>
      <trkpt lat="38.5477170" lon="-28.4866200">
        <ele>61.0</ele>
        <time>2019-07-07T09:36:38Z</time>
      </trkpt>
      <trkpt lat="38.5476200" lon="-28.4865110">
        <ele>62.2</ele>
        <time>2019-07-07T09:36:45Z</time>
      </trkpt>
      <trkpt lat="38.5475540" lon="-28.4864280">
        <ele>63.0</ele>
        <time>2019-07-07T09:36:51Z</time>
      </trkpt>
      <trkpt lat="38.5474730" lon="-28.4863430">
        <ele>63.9</ele>
        <time>2019-07-07T09:36:57Z</time>
      </trkpt>
      <trkpt lat="38.5474250" lon="-28.4862910">
        <ele>64.5</ele>
        <time>2019-07-07T09:37:00Z</time>
      </trkpt>
      <trkpt lat="38.5473380" lon="-28.4861990">
        <ele>65.3</ele>
        <time>2019-07-07T09:37:04Z</time>
      </trkpt>
      <trkpt lat="38.5473020" lon="-28.4861640">
        <ele>65.6</ele>
        <time>2019-07-07T09:37:06Z</time>
      </trkpt>
      <trkpt lat="38.5472530" lon="-28.4861200">
        <ele>65.9</ele>
        <time>2019-07-07T09:37:09Z</time>
      </trkpt>
      <trkpt lat="38.5471970" lon="-28.4860610">
        <ele>66.3</ele>
        <time>2019-07-07T09:37:12Z</time>
      </trkpt>
      <trkpt lat="38.5470800" lon="-28.4859420">
        <ele>67.1</ele>
        <time>2019-07-07T09:37:18Z</time>
      </trkpt>
      <trkpt lat="38.5469570" lon="-28.4858330">
        <ele>68.2</ele>
        <time>2019-07-07T09:37:24Z</time>
      </trkpt>
      <trkpt lat="38.5468890" lon="-28.4857700">
        <ele>68.8</ele>
        <time>2019-07-07T09:37:27Z</time>
      </trkpt>
      <trkpt lat="38.5468030" lon="-28.4856940">
        <ele>69.8</ele>
        <time>2019-07-07T09:37:31Z</time>
      </trkpt>
      <trkpt lat="38.5467850" lon="-28.4856740">
        <ele>70.0</ele>
        <time>2019-07-07T09:37:32Z</time>
      </trkpt>
      <trkpt lat="38.5467440" lon="-28.4856400">
        <ele>70.6</ele>
        <time>2019-07-07T09:37:34Z</time>
      </trkpt>
      <trkpt lat="38.5466920" lon="-28.4855910">
        <ele>71.4</ele>
        <time>2019-07-07T09:37:37Z</time>
      </trkpt>
      <trkpt lat="38.5466790" lon="-28.4855770">
        <ele>71.6</ele>
        <time>2019-07-07T09:37:38Z</time>
      </trkpt>
      <trkpt lat="38.5465670" lon="-28.4854680">
        <ele>73.4</ele>
        <time>2019-07-07T09:37:45Z</time>
      </trkpt>
      <trkpt lat="38.5465510" lon="-28.4854500">
        <ele>73.6</ele>
        <time>2019-07-07T09:37:46Z</time>
      </trkpt>
      <trkpt lat="38.5464320" lon="-28.4853060">
        <ele>75.9</ele>
        <time>2019-07-07T09:37:53Z</time>
      </trkpt>
      <trkpt lat="38.5464120" lon="-28.4852850">
        <ele>76.2</ele>
        <time>2019-07-07T09:37:54Z</time>
      </trkpt>
      <trkpt lat="38.5462370" lon="-28.4850900">
        <ele>79.1</ele>
        <time>2019-07-07T09:38:03Z</time>
      </trkpt>
      <trkpt lat="38.5461670" lon="-28.4850110">
        <ele>80.1</ele>
        <time>2019-07-07T09:38:07Z</time>
      </trkpt>
      <trkpt lat="38.5460890" lon="-28.4849150">
        <ele>81.2</ele>
        <time>2019-07-07T09:38:11Z</time>
      </trkpt>
      <trkpt lat="38.5459180" lon="-28.4847240">
        <ele>83.4</ele>
        <time>2019-07-07T09:38:18Z</time>
      </trkpt>
      <trkpt lat="38.5457610" lon="-28.4845290">
        <ele>85.1</ele>
        <time>2019-07-07T09:38:25Z</time>
      </trkpt>
      <trkpt lat="38.5457360" lon="-28.4845030">
        <ele>85.4</ele>
        <time>2019-07-07T09:38:26Z</time>
      </trkpt>
      <trkpt lat="38.5455410" lon="-28.4843180">
        <ele>87.2</ele>
        <time>2019-07-07T09:38:34Z</time>
      </trkpt>
      <trkpt lat="38.5455150" lon="-28.4842960">
        <ele>87.4</ele>
        <time>2019-07-07T09:38:35Z</time>
      </trkpt>
      <trkpt lat="38.5453840" lon="-28.4842490">
        <ele>88.4</ele>
        <time>2019-07-07T09:38:39Z</time>
      </trkpt>
      <trkpt lat="38.5453230" lon="-28.4842420">
        <ele>89.1</ele>
        <time>2019-07-07T09:38:41Z</time>
      </trkpt>
      <trkpt lat="38.5452680" lon="-28.4842380">
        <ele>89.5</ele>
        <time>2019-07-07T09:38:43Z</time>
      </trkpt>
      <trkpt lat="38.5451930" lon="-28.4842360">
        <ele>90.2</ele>
        <time>2019-07-07T09:38:46Z</time>
      </trkpt>
      <trkpt lat="38.5450700" lon="-28.4842320">
        <ele>91.4</ele>
        <time>2019-07-07T09:38:51Z</time>
      </trkpt>
      <trkpt lat="38.5449450" lon="-28.4842230">
        <ele>92.7</ele>
        <time>2019-07-07T09:38:55Z</time>
      </trkpt>
      <trkpt lat="38.5446840" lon="-28.4842060">
        <ele>95.1</ele>
        <time>2019-07-07T09:39:03Z</time>
      </trkpt>
      <trkpt lat="38.5444520" lon="-28.4842010">
        <ele>96.4</ele>
        <time>2019-07-07T09:39:10Z</time>
      </trkpt>
      <trkpt lat="38.5444190" lon="-28.4842170">
        <ele>96.5</ele>
        <time>2019-07-07T09:39:11Z</time>
      </trkpt>
      <trkpt lat="38.5444000" lon="-28.4842920">
        <ele>96.6</ele>
        <time>2019-07-07T09:39:13Z</time>
      </trkpt>
      <trkpt lat="38.5444580" lon="-28.4843900">
        <ele>95.6</ele>
        <time>2019-07-07T09:39:16Z</time>
      </trkpt>
      <trkpt lat="38.5444980" lon="-28.4845240">
        <ele>94.7</ele>
        <time>2019-07-07T09:39:19Z</time>
      </trkpt>
      <trkpt lat="38.5444600" lon="-28.4846680">
        <ele>94.1</ele>
        <time>2019-07-07T09:39:22Z</time>
      </trkpt>
      <trkpt lat="38.5444330" lon="-28.4847610">
        <ele>93.5</ele>
        <time>2019-07-07T09:39:24Z</time>
      </trkpt>
      <trkpt lat="38.5443950" lon="-28.4849630">
        <ele>93.0</ele>
        <time>2019-07-07T09:39:28Z</time>
      </trkpt>
      <trkpt lat="38.5444040" lon="-28.4850140">
        <ele>92.9</ele>
        <time>2019-07-07T09:39:29Z</time>
      </trkpt>
      <trkpt lat="38.5445230" lon="-28.4851780">
        <ele>92.3</ele>
        <time>2019-07-07T09:39:33Z</time>
      </trkpt>
      <trkpt lat="38.5445620" lon="-28.4852130">
        <ele>92.2</ele>
        <time>2019-07-07T09:39:34Z</time>
      </trkpt>
      <trkpt lat="38.5447560" lon="-28.4854100">
        <ele>91.5</ele>
        <time>2019-07-07T09:39:39Z</time>
      </trkpt>
      <trkpt lat="38.5447950" lon="-28.4854530">
        <ele>91.3</ele>
        <time>2019-07-07T09:39:40Z</time>
      </trkpt>
      <trkpt lat="38.5449620" lon="-28.4856500">
        <ele>90.0</ele>
        <time>2019-07-07T09:39:44Z</time>
      </trkpt>
      <trkpt lat="38.5450080" lon="-28.4857010">
        <ele>89.6</ele>
        <time>2019-07-07T09:39:45Z</time>
      </trkpt>
      <trkpt lat="38.5451910" lon="-28.4859090">
        <ele>88.1</ele>
        <time>2019-07-07T09:39:49Z</time>
      </trkpt>
      <trkpt lat="38.5453250" lon="-28.4860590">
        <ele>87.6</ele>
        <time>2019-07-07T09:39:52Z</time>
      </trkpt>
      <trkpt lat="38.5453670" lon="-28.4861090">
        <ele>87.5</ele>
        <time>2019-07-07T09:39:53Z</time>
      </trkpt>
      <trkpt lat="38.5454030" lon="-28.4861640">
        <ele>87.4</ele>
        <time>2019-07-07T09:39:54Z</time>
      </trkpt>
      <trkpt lat="38.5454440" lon="-28.4862930">
        <ele>87.4</ele>
        <time>2019-07-07T09:39:56Z</time>
      </trkpt>
      <trkpt lat="38.5454730" lon="-28.4864920">
        <ele>87.1</ele>
        <time>2019-07-07T09:39:59Z</time>
      </trkpt>
      <trkpt lat="38.5454530" lon="-28.4866170">
        <ele>86.9</ele>
        <time>2019-07-07T09:40:01Z</time>
      </trkpt>
      <trkpt lat="38.5454320" lon="-28.4866740">
        <ele>86.8</ele>
        <time>2019-07-07T09:40:02Z</time>
      </trkpt>
      <trkpt lat="38.5454100" lon="-28.4867290">
        <ele>86.7</ele>
        <time>2019-07-07T09:40:03Z</time>
      </trkpt>
      <trkpt lat="38.5453290" lon="-28.4868930">
        <ele>86.3</ele>
        <time>2019-07-07T09:40:06Z</time>
      </trkpt>
      <trkpt lat="38.5451450" lon="-28.4870620">
        <ele>86.3</ele>
        <time>2019-07-07T09:40:10Z</time>
      </trkpt>
      <trkpt lat="38.5451010" lon="-28.4871110">
        <ele>86.4</ele>
        <time>2019-07-07T09:40:11Z</time>
      </trkpt>
      <trkpt lat="38.5450460" lon="-28.4872190">
        <ele>86.2</ele>
        <time>2019-07-07T09:40:13Z</time>
      </trkpt>
      <trkpt lat="38.5449650" lon="-28.4874430">
        <ele>86.2</ele>
        <time>2019-07-07T09:40:17Z</time>
      </trkpt>
      <trkpt lat="38.5449540" lon="-28.4875060">
        <ele>86.0</ele>
        <time>2019-07-07T09:40:18Z</time>
      </trkpt>
      <trkpt lat="38.5449530" lon="-28.4875710">
        <ele>85.8</ele>
        <time>2019-07-07T09:40:19Z</time>
      </trkpt>
      <trkpt lat="38.5449640" lon="-28.4877000">
        <ele>85.6</ele>
        <time>2019-07-07T09:40:21Z</time>
      </trkpt>
      <trkpt lat="38.5449600" lon="-28.4877730">
        <ele>85.5</ele>
        <time>2019-07-07T09:40:22Z</time>
      </trkpt>
      <trkpt lat="38.5449520" lon="-28.4878430">
        <ele>85.4</ele>
        <time>2019-07-07T09:40:23Z</time>
      </trkpt>
      <trkpt lat="38.5449360" lon="-28.4879610">
        <ele>85.4</ele>
        <time>2019-07-07T09:40:25Z</time>
      </trkpt>
      <trkpt lat="38.5449460" lon="-28.4880650">
        <ele>85.0</ele>
        <time>2019-07-07T09:40:27Z</time>
      </trkpt>
      <trkpt lat="38.5449840" lon="-28.4881640">
        <ele>84.7</ele>
        <time>2019-07-07T09:40:29Z</time>
      </trkpt>
      <trkpt lat="38.5450610" lon="-28.4883160">
        <ele>84.2</ele>
        <time>2019-07-07T09:40:32Z</time>
      </trkpt>
      <trkpt lat="38.5452200" lon="-28.4886180">
        <ele>82.0</ele>
        <time>2019-07-07T09:40:37Z</time>
      </trkpt>
      <trkpt lat="38.5453270" lon="-28.4888610">
        <ele>79.8</ele>
        <time>2019-07-07T09:40:41Z</time>
      </trkpt>
      <trkpt lat="38.5453350" lon="-28.4889180">
        <ele>79.4</ele>
        <time>2019-07-07T09:40:42Z</time>
      </trkpt>
      <trkpt lat="38.5453140" lon="-28.4890530">
        <ele>78.1</ele>
        <time>2019-07-07T09:40:45Z</time>
      </trkpt>
      <trkpt lat="38.5453010" lon="-28.4890920">
        <ele>78.3</ele>
        <time>2019-07-07T09:40:46Z</time>
      </trkpt>
      <trkpt lat="38.5452770" lon="-28.4891790">
        <ele>77.9</ele>
        <time>2019-07-07T09:40:48Z</time>
      </trkpt>
      <trkpt lat="38.5452940" lon="-28.4892710">
        <ele>77.0</ele>
        <time>2019-07-07T09:40:50Z</time>
      </trkpt>
      <trkpt lat="38.5453410" lon="-28.4894230">
        <ele>76.2</ele>
        <time>2019-07-07T09:40:53Z</time>
      </trkpt>
      <trkpt lat="38.5453690" lon="-28.4895350">
        <ele>75.3</ele>
        <time>2019-07-07T09:40:55Z</time>
      </trkpt>
      <trkpt lat="38.5453730" lon="-28.4895970">
        <ele>75.0</ele>
        <time>2019-07-07T09:40:56Z</time>
      </trkpt>
      <trkpt lat="38.5453420" lon="-28.4897770">
        <ele>74.0</ele>
        <time>2019-07-07T09:40:59Z</time>
      </trkpt>
      <trkpt lat="38.5453220" lon="-28.4898250">
        <ele>73.3</ele>
        <time>2019-07-07T09:41:00Z</time>
      </trkpt>
      <trkpt lat="38.5452860" lon="-28.4899150">
        <ele>72.9</ele>
        <time>2019-07-07T09:41:02Z</time>
      </trkpt>
      <trkpt lat="38.5452650" lon="-28.4899570">
        <ele>72.7</ele>
        <time>2019-07-07T09:41:03Z</time>
      </trkpt>
      <trkpt lat="38.5451990" lon="-28.4900350">
        <ele>72.6</ele>
        <time>2019-07-07T09:41:05Z</time>
      </trkpt>
      <trkpt lat="38.5449880" lon="-28.4902870">
        <ele>71.4</ele>
        <time>2019-07-07T09:41:10Z</time>
      </trkpt>
      <trkpt lat="38.5449520" lon="-28.4903450">
        <ele>71.0</ele>
        <time>2019-07-07T09:41:11Z</time>
      </trkpt>
      <trkpt lat="38.5448780" lon="-28.4904590">
        <ele>70.6</ele>
        <time>2019-07-07T09:41:13Z</time>
      </trkpt>
      <trkpt lat="38.5447920" lon="-28.4905840">
        <ele>70.0</ele>
        <time>2019-07-07T09:41:15Z</time>
      </trkpt>
      <trkpt lat="38.5447510" lon="-28.4906510">
        <ele>69.6</ele>
        <time>2019-07-07T09:41:16Z</time>
      </trkpt>
      <trkpt lat="38.5447170" lon="-28.4907230">
        <ele>69.4</ele>
        <time>2019-07-07T09:41:17Z</time>
      </trkpt>
      <trkpt lat="38.5446540" lon="-28.4908660">
        <ele>68.7</ele>
        <time>2019-07-07T09:41:19Z</time>
      </trkpt>
      <trkpt lat="38.5445640" lon="-28.4909970">
        <ele>68.5</ele>
        <time>2019-07-07T09:41:21Z</time>
      </trkpt>
      <trkpt lat="38.5445230" lon="-28.4910630">
        <ele>68.5</ele>
        <time>2019-07-07T09:41:22Z</time>
      </trkpt>
      <trkpt lat="38.5444610" lon="-28.4911910">
        <ele>68.4</ele>
        <time>2019-07-07T09:41:24Z</time>
      </trkpt>
      <trkpt lat="38.5444370" lon="-28.4912510">
        <ele>68.3</ele>
        <time>2019-07-07T09:41:25Z</time>
      </trkpt>
      <trkpt lat="38.5443650" lon="-28.4914840">
        <ele>68.0</ele>
        <time>2019-07-07T09:41:29Z</time>
      </trkpt>
      <trkpt lat="38.5443770" lon="-28.4916220">
        <ele>67.4</ele>
        <time>2019-07-07T09:41:31Z</time>
      </trkpt>
      <trkpt lat="38.5443960" lon="-28.4916970">
        <ele>67.0</ele>
        <time>2019-07-07T09:41:32Z</time>
      </trkpt>
      <trkpt lat="38.5444440" lon="-28.4919300">
        <ele>65.5</ele>
        <time>2019-07-07T09:41:35Z</time>
      </trkpt>
      <trkpt lat="38.5444950" lon="-28.4921520">
        <ele>64.1</ele>
        <time>2019-07-07T09:41:38Z</time>
      </trkpt>
      <trkpt lat="38.5445390" lon="-28.4923360">
        <ele>63.2</ele>
        <time>2019-07-07T09:41:41Z</time>
      </trkpt>
      <trkpt lat="38.5445500" lon="-28.4923820">
        <ele>62.9</ele>
        <time>2019-07-07T09:41:42Z</time>
      </trkpt>
      <trkpt lat="38.5445490" lon="-28.4924470">
        <ele>62.7</ele>
        <time>2019-07-07T09:41:44Z</time>
      </trkpt>
      <trkpt lat="38.5445310" lon="-28.4924740">
        <ele>62.8</ele>
        <time>2019-07-07T09:41:45Z</time>
      </trkpt>
      <trkpt lat="38.5444110" lon="-28.4925370">
        <ele>63.2</ele>
        <time>2019-07-07T09:41:49Z</time>
      </trkpt>
      <trkpt lat="38.5443790" lon="-28.4925560">
        <ele>63.4</ele>
        <time>2019-07-07T09:41:50Z</time>
      </trkpt>
      <trkpt lat="38.5442560" lon="-28.4926340">
        <ele>64.3</ele>
        <time>2019-07-07T09:41:53Z</time>
      </trkpt>
      <trkpt lat="38.5441610" lon="-28.4927260">
        <ele>65.2</ele>
        <time>2019-07-07T09:41:56Z</time>
      </trkpt>
      <trkpt lat="38.5441600" lon="-28.4927620">
        <ele>65.3</ele>
        <time>2019-07-07T09:41:57Z</time>
      </trkpt>
      <trkpt lat="38.5441720" lon="-28.4927910">
        <ele>65.1</ele>
        <time>2019-07-07T09:41:58Z</time>
      </trkpt>
      <trkpt lat="38.5442240" lon="-28.4928330">
        <ele>64.9</ele>
        <time>2019-07-07T09:42:00Z</time>
      </trkpt>
      <trkpt lat="38.5443110" lon="-28.4928690">
        <ele>64.5</ele>
        <time>2019-07-07T09:42:02Z</time>
      </trkpt>
      <trkpt lat="38.5443680" lon="-28.4928890">
        <ele>64.2</ele>
        <time>2019-07-07T09:42:03Z</time>
      </trkpt>
      <trkpt lat="38.5444300" lon="-28.4929170">
        <ele>63.9</ele>
        <time>2019-07-07T09:42:04Z</time>
      </trkpt>
      <trkpt lat="38.5445910" lon="-28.4930770">
        <ele>62.9</ele>
        <time>2019-07-07T09:42:07Z</time>
      </trkpt>
      <trkpt lat="38.5446850" lon="-28.4932130">
        <ele>62.1</ele>
        <time>2019-07-07T09:42:09Z</time>
      </trkpt>
      <trkpt lat="38.5448600" lon="-28.4934740">
        <ele>60.9</ele>
        <time>2019-07-07T09:42:13Z</time>
      </trkpt>
      <trkpt lat="38.5451760" lon="-28.4938860">
        <ele>59.8</ele>
        <time>2019-07-07T09:42:20Z</time>
      </trkpt>
      <trkpt lat="38.5454540" lon="-28.4941920">
        <ele>58.4</ele>
        <time>2019-07-07T09:42:25Z</time>
      </trkpt>
      <trkpt lat="38.5456440" lon="-28.4944130">
        <ele>57.0</ele>
        <time>2019-07-07T09:42:28Z</time>
      </trkpt>
      <trkpt lat="38.5457680" lon="-28.4945910">
        <ele>56.2</ele>
        <time>2019-07-07T09:42:30Z</time>
      </trkpt>
      <trkpt lat="38.5459030" lon="-28.4947740">
        <ele>55.6</ele>
        <time>2019-07-07T09:42:32Z</time>
      </trkpt>
      <trkpt lat="38.5460320" lon="-28.4949540">
        <ele>54.6</ele>
        <time>2019-07-07T09:42:34Z</time>
      </trkpt>
      <trkpt lat="38.5461690" lon="-28.4951270">
        <ele>53.3</ele>
        <time>2019-07-07T09:42:36Z</time>
      </trkpt>
      <trkpt lat="38.5463160" lon="-28.4953100">
        <ele>52.0</ele>
        <time>2019-07-07T09:42:38Z</time>
      </trkpt>
      <trkpt lat="38.5465120" lon="-28.4955780">
        <ele>50.5</ele>
        <time>2019-07-07T09:42:41Z</time>
      </trkpt>
      <trkpt lat="38.5466750" lon="-28.4958190">
        <ele>49.7</ele>
        <time>2019-07-07T09:42:44Z</time>
      </trkpt>
      <trkpt lat="38.5467870" lon="-28.4959630">
        <ele>49.5</ele>
        <time>2019-07-07T09:42:46Z</time>
      </trkpt>
      <trkpt lat="38.5470200" lon="-28.4962390">
        <ele>48.6</ele>
        <time>2019-07-07T09:42:50Z</time>
      </trkpt>
      <trkpt lat="38.5471930" lon="-28.4964690">
        <ele>47.4</ele>
        <time>2019-07-07T09:42:53Z</time>
      </trkpt>
      <trkpt lat="38.5473650" lon="-28.4966940">
        <ele>46.4</ele>
        <time>2019-07-07T09:42:56Z</time>
      </trkpt>
      <trkpt lat="38.5475910" lon="-28.4969910">
        <ele>44.2</ele>
        <time>2019-07-07T09:43:00Z</time>
      </trkpt>
      <trkpt lat="38.5476470" lon="-28.4970660">
        <ele>43.6</ele>
        <time>2019-07-07T09:43:01Z</time>
      </trkpt>
      <trkpt lat="38.5477030" lon="-28.4971450">
        <ele>43.0</ele>
        <time>2019-07-07T09:43:02Z</time>
      </trkpt>
      <trkpt lat="38.5478120" lon="-28.4973290">
        <ele>40.9</ele>
        <time>2019-07-07T09:43:04Z</time>
      </trkpt>
      <trkpt lat="38.5478560" lon="-28.4974290">
        <ele>39.5</ele>
        <time>2019-07-07T09:43:05Z</time>
      </trkpt>
      <trkpt lat="38.5478990" lon="-28.4975180">
        <ele>38.3</ele>
        <time>2019-07-07T09:43:06Z</time>
      </trkpt>
      <trkpt lat="38.5479490" lon="-28.4975910">
        <ele>37.3</ele>
        <time>2019-07-07T09:43:07Z</time>
      </trkpt>
      <trkpt lat="38.5480100" lon="-28.4976580">
        <ele>36.4</ele>
        <time>2019-07-07T09:43:08Z</time>
      </trkpt>
      <trkpt lat="38.5480790" lon="-28.4977280">
        <ele>35.5</ele>
        <time>2019-07-07T09:43:09Z</time>
      </trkpt>
      <trkpt lat="38.5481540" lon="-28.4978010">
        <ele>34.5</ele>
        <time>2019-07-07T09:43:10Z</time>
      </trkpt>
      <trkpt lat="38.5482330" lon="-28.4978770">
        <ele>33.7</ele>
        <time>2019-07-07T09:43:11Z</time>
      </trkpt>
      <trkpt lat="38.5483110" lon="-28.4979590">
        <ele>32.9</ele>
        <time>2019-07-07T09:43:12Z</time>
      </trkpt>
      <trkpt lat="38.5483890" lon="-28.4980430">
        <ele>32.3</ele>
        <time>2019-07-07T09:43:13Z</time>
      </trkpt>
      <trkpt lat="38.5484700" lon="-28.4981250">
        <ele>31.7</ele>
        <time>2019-07-07T09:43:14Z</time>
      </trkpt>
      <trkpt lat="38.5485470" lon="-28.4982070">
        <ele>31.0</ele>
        <time>2019-07-07T09:43:15Z</time>
      </trkpt>
      <trkpt lat="38.5486180" lon="-28.4982910">
        <ele>30.4</ele>
        <time>2019-07-07T09:43:16Z</time>
      </trkpt>
      <trkpt lat="38.5486890" lon="-28.4983680">
        <ele>30.0</ele>
        <time>2019-07-07T09:43:17Z</time>
      </trkpt>
      <trkpt lat="38.5487600" lon="-28.4984340">
        <ele>29.8</ele>
        <time>2019-07-07T09:43:18Z</time>
      </trkpt>
      <trkpt lat="38.5489210" lon="-28.4986070">
        <ele>29.2</ele>
        <time>2019-07-07T09:43:21Z</time>
      </trkpt>
      <trkpt lat="38.5489670" lon="-28.4986660">
        <ele>28.9</ele>
        <time>2019-07-07T09:43:22Z</time>
      </trkpt>
      <trkpt lat="38.5490100" lon="-28.4987300">
        <ele>28.7</ele>
        <time>2019-07-07T09:43:23Z</time>
      </trkpt>
      <trkpt lat="38.5491100" lon="-28.4988540">
        <ele>28.2</ele>
        <time>2019-07-07T09:43:25Z</time>
      </trkpt>
      <trkpt lat="38.5492210" lon="-28.4989910">
        <ele>27.8</ele>
        <time>2019-07-07T09:43:27Z</time>
      </trkpt>
      <trkpt lat="38.5493800" lon="-28.4991890">
        <ele>26.5</ele>
        <time>2019-07-07T09:43:30Z</time>
      </trkpt>
      <trkpt lat="38.5494350" lon="-28.4992440">
        <ele>26.0</ele>
        <time>2019-07-07T09:43:31Z</time>
      </trkpt>
      <trkpt lat="38.5496230" lon="-28.4994700">
        <ele>23.5</ele>
        <time>2019-07-07T09:43:36Z</time>
      </trkpt>
      <trkpt lat="38.5496280" lon="-28.4994750">
        <ele>23.4</ele>
        <time>2019-07-07T09:43:38Z</time>
      </trkpt>
      <trkpt lat="38.5496600" lon="-28.4994840">
        <ele>23.1</ele>
        <time>2019-07-07T09:44:01Z</time>
      </trkpt>
      <trkpt lat="38.5497640" lon="-28.4994420">
        <ele>21.9</ele>
        <time>2019-07-07T09:44:05Z</time>
      </trkpt>
      <trkpt lat="38.5500350" lon="-28.4992980">
        <ele>20.9</ele>
        <time>2019-07-07T09:44:11Z</time>
      </trkpt>
      <trkpt lat="38.5501870" lon="-28.4992390">
        <ele>20.9</ele>
        <time>2019-07-07T09:44:14Z</time>
      </trkpt>
      <trkpt lat="38.5503590" lon="-28.4991900">
        <ele>20.8</ele>
        <time>2019-07-07T09:44:17Z</time>
      </trkpt>
      <trkpt lat="38.5507280" lon="-28.4991100">
        <ele>20.0</ele>
        <time>2019-07-07T09:44:23Z</time>
      </trkpt>
      <trkpt lat="38.5507870" lon="-28.4990830">
        <ele>19.9</ele>
        <time>2019-07-07T09:44:24Z</time>
      </trkpt>
      <trkpt lat="38.5509380" lon="-28.4989570">
        <ele>19.7</ele>
        <time>2019-07-07T09:44:27Z</time>
      </trkpt>
      <trkpt lat="38.5509750" lon="-28.4989060">
        <ele>19.7</ele>
        <time>2019-07-07T09:44:28Z</time>
      </trkpt>
      <trkpt lat="38.5510650" lon="-28.4987720">
        <ele>20.0</ele>
        <time>2019-07-07T09:44:31Z</time>
      </trkpt>
      <trkpt lat="38.5510950" lon="-28.4987320">
        <ele>20.1</ele>
        <time>2019-07-07T09:44:32Z</time>
      </trkpt>
      <trkpt lat="38.5511680" lon="-28.4986610">
        <ele>20.3</ele>
        <time>2019-07-07T09:44:34Z</time>
      </trkpt>
      <trkpt lat="38.5512480" lon="-28.4985970">
        <ele>20.5</ele>
        <time>2019-07-07T09:44:36Z</time>
      </trkpt>
      <trkpt lat="38.5513700" lon="-28.4985170">
        <ele>20.6</ele>
        <time>2019-07-07T09:44:39Z</time>
      </trkpt>
      <trkpt lat="38.5514580" lon="-28.4984620">
        <ele>20.6</ele>
        <time>2019-07-07T09:44:41Z</time>
      </trkpt>
      <trkpt lat="38.5515490" lon="-28.4983960">
        <ele>20.7</ele>
        <time>2019-07-07T09:44:43Z</time>
      </trkpt>
      <trkpt lat="38.5517830" lon="-28.4981910">
        <ele>20.8</ele>
        <time>2019-07-07T09:44:48Z</time>
      </trkpt>
      <trkpt lat="38.5518350" lon="-28.4981520">
        <ele>20.9</ele>
        <time>2019-07-07T09:44:49Z</time>
      </trkpt>
      <trkpt lat="38.5521910" lon="-28.4978770">
        <ele>20.7</ele>
        <time>2019-07-07T09:44:55Z</time>
      </trkpt>
      <trkpt lat="38.5523420" lon="-28.4977640">
        <ele>19.8</ele>
        <time>2019-07-07T09:44:57Z</time>
      </trkpt>
      <trkpt lat="38.5524900" lon="-28.4976830">
        <ele>18.7</ele>
        <time>2019-07-07T09:44:59Z</time>
      </trkpt>
      <trkpt lat="38.5525550" lon="-28.4976660">
        <ele>18.1</ele>
        <time>2019-07-07T09:45:00Z</time>
      </trkpt>
      <trkpt lat="38.5526620" lon="-28.4976090">
        <ele>17.0</ele>
        <time>2019-07-07T09:45:02Z</time>
      </trkpt>
      <trkpt lat="38.5527470" lon="-28.4974530">
        <ele>15.9</ele>
        <time>2019-07-07T09:45:04Z</time>
      </trkpt>
      <trkpt lat="38.5527880" lon="-28.4973620">
        <ele>15.3</ele>
        <time>2019-07-07T09:45:05Z</time>
      </trkpt>
      <trkpt lat="38.5528210" lon="-28.4972800">
        <ele>14.6</ele>
        <time>2019-07-07T09:45:06Z</time>
      </trkpt>
      <trkpt lat="38.5528340" lon="-28.4971370">
        <ele>13.6</ele>
        <time>2019-07-07T09:45:08Z</time>
      </trkpt>
      <trkpt lat="38.5527410" lon="-28.4969400">
        <ele>12.2</ele>
        <time>2019-07-07T09:45:11Z</time>
      </trkpt>
      <trkpt lat="38.5526910" lon="-28.4968870">
        <ele>11.8</ele>
        <time>2019-07-07T09:45:12Z</time>
      </trkpt>
      <trkpt lat="38.5525970" lon="-28.4967710">
        <ele>11.0</ele>
        <time>2019-07-07T09:45:14Z</time>
      </trkpt>
      <trkpt lat="38.5525600" lon="-28.4967030">
        <ele>10.7</ele>
        <time>2019-07-07T09:45:15Z</time>
      </trkpt>
      <trkpt lat="38.5524930" lon="-28.4965450">
        <ele>10.2</ele>
        <time>2019-07-07T09:45:17Z</time>
      </trkpt>
      <trkpt lat="38.5524170" lon="-28.4963890">
        <ele>10.1</ele>
        <time>2019-07-07T09:45:19Z</time>
      </trkpt>
      <trkpt lat="38.5523890" lon="-28.4963240">
        <ele>10.2</ele>
        <time>2019-07-07T09:45:20Z</time>
      </trkpt>
      <trkpt lat="38.5523810" lon="-28.4962680">
        <ele>10.2</ele>
        <time>2019-07-07T09:45:21Z</time>
      </trkpt>
      <trkpt lat="38.5523940" lon="-28.4962180">
        <ele>10.2</ele>
        <time>2019-07-07T09:45:22Z</time>
      </trkpt>
      <trkpt lat="38.5524790" lon="-28.4960840">
        <ele>10.1</ele>
        <time>2019-07-07T09:45:25Z</time>
      </trkpt>
      <trkpt lat="38.5525290" lon="-28.4960040">
        <ele>10.0</ele>
        <time>2019-07-07T09:45:27Z</time>
      </trkpt>
      <trkpt lat="38.5525950" lon="-28.4958480">
        <ele>9.7</ele>
        <time>2019-07-07T09:45:30Z</time>
      </trkpt>
      <trkpt lat="38.5526740" lon="-28.4956610">
        <ele>9.6</ele>
        <time>2019-07-07T09:45:33Z</time>
      </trkpt>
      <trkpt lat="38.5527570" lon="-28.4954680">
        <ele>9.6</ele>
        <time>2019-07-07T09:45:36Z</time>
      </trkpt>
      <trkpt lat="38.5528120" lon="-28.4953350">
        <ele>9.7</ele>
        <time>2019-07-07T09:45:38Z</time>
      </trkpt>
      <trkpt lat="38.5528530" lon="-28.4952160">
        <ele>9.7</ele>
        <time>2019-07-07T09:45:40Z</time>
      </trkpt>
      <trkpt lat="38.5529030" lon="-28.4950490">
        <ele>9.8</ele>
        <time>2019-07-07T09:45:43Z</time>
      </trkpt>
      <trkpt lat="38.5529890" lon="-28.4948730">
        <ele>9.9</ele>
        <time>2019-07-07T09:45:47Z</time>
      </trkpt>
      <trkpt lat="38.5531030" lon="-28.4949030">
        <ele>8.5</ele>
        <time>2019-07-07T09:45:50Z</time>
      </trkpt>
      <trkpt lat="38.5531840" lon="-28.4949690">
        <ele>7.5</ele>
        <time>2019-07-07T09:45:52Z</time>
      </trkpt>
      <trkpt lat="38.5532720" lon="-28.4950220">
        <ele>7.3</ele>
        <time>2019-07-07T09:45:54Z</time>
      </trkpt>
      <trkpt lat="38.5533190" lon="-28.4950440">
        <ele>7.4</ele>
        <time>2019-07-07T09:45:55Z</time>
      </trkpt>
      <trkpt lat="38.5535140" lon="-28.4951640">
        <ele>8.0</ele>
        <time>2019-07-07T09:45:59Z</time>
      </trkpt>
      <trkpt lat="38.5535560" lon="-28.4952110">
        <ele>8.1</ele>
        <time>2019-07-07T09:46:00Z</time>
      </trkpt>
      <trkpt lat="38.5538220" lon="-28.4955690">
        <ele>7.0</ele>
        <time>2019-07-07T09:46:07Z</time>
      </trkpt>
      <trkpt lat="38.5539040" lon="-28.4956720">
        <ele>6.4</ele>
        <time>2019-07-07T09:46:09Z</time>
      </trkpt>
      <trkpt lat="38.5541630" lon="-28.4959450">
        <ele>3.7</ele>
        <time>2019-07-07T09:46:15Z</time>
      </trkpt>
      <trkpt lat="38.5541960" lon="-28.4959900">
        <ele>3.6</ele>
        <time>2019-07-07T09:46:16Z</time>
      </trkpt>
      <trkpt lat="38.5542250" lon="-28.4960740">
        <ele>3.5</ele>
        <time>2019-07-07T09:46:18Z</time>
      </trkpt>
      <trkpt lat="38.5542290" lon="-28.4961060">
        <ele>3.4</ele>
        <time>2019-07-07T09:46:19Z</time>
      </trkpt>
      <trkpt lat="38.5542240" lon="-28.4961880">
        <ele>3.6</ele>
        <time>2019-07-07T09:46:22Z</time>
      </trkpt>
      <trkpt lat="38.5542190" lon="-28.4962190">
        <ele>3.6</ele>
        <time>2019-07-07T09:46:23Z</time>
      </trkpt>
      <trkpt lat="38.5541470" lon="-28.4963860">
        <ele>3.6</ele>
        <time>2019-07-07T09:46:27Z</time>
      </trkpt>
      <trkpt lat="38.5539930" lon="-28.4966400">
        <ele>3.6</ele>
        <time>2019-07-07T09:46:32Z</time>
      </trkpt>
      <trkpt lat="38.5539600" lon="-28.4966960">
        <ele>3.8</ele>
        <time>2019-07-07T09:46:33Z</time>
      </trkpt>
      <trkpt lat="38.5538000" lon="-28.4969710">
        <ele>4.4</ele>
        <time>2019-07-07T09:46:38Z</time>
      </trkpt>
      <trkpt lat="38.5537690" lon="-28.4970250">
        <ele>4.4</ele>
        <time>2019-07-07T09:46:39Z</time>
      </trkpt>
      <trkpt lat="38.5537100" lon="-28.4971310">
        <ele>4.4</ele>
        <time>2019-07-07T09:46:41Z</time>
      </trkpt>
      <trkpt lat="38.5534890" lon="-28.4975020">
        <ele>4.6</ele>
        <time>2019-07-07T09:46:48Z</time>
      </trkpt>
      <trkpt lat="38.5532260" lon="-28.4979270">
        <ele>5.6</ele>
        <time>2019-07-07T09:46:56Z</time>
      </trkpt>
      <trkpt lat="38.5529710" lon="-28.4983640">
        <ele>6.3</ele>
        <time>2019-07-07T09:47:04Z</time>
      </trkpt>
      <trkpt lat="38.5527090" lon="-28.4987940">
        <ele>7.0</ele>
        <time>2019-07-07T09:47:12Z</time>
      </trkpt>
      <trkpt lat="38.5524710" lon="-28.4993060">
        <ele>8.4</ele>
        <time>2019-07-07T09:47:21Z</time>
      </trkpt>
      <trkpt lat="38.5522960" lon="-28.4998360">
        <ele>9.2</ele>
        <time>2019-07-07T09:47:29Z</time>
      </trkpt>
      <trkpt lat="38.5521740" lon="-28.5002430">
        <ele>9.5</ele>
        <time>2019-07-07T09:47:35Z</time>
      </trkpt>
      <trkpt lat="38.5520990" lon="-28.5005100">
        <ele>9.8</ele>
        <time>2019-07-07T09:47:39Z</time>
      </trkpt>
      <trkpt lat="38.5519490" lon="-28.5010430">
        <ele>8.9</ele>
        <time>2019-07-07T09:47:47Z</time>
      </trkpt>
      <trkpt lat="38.5518120" lon="-28.5015150">
        <ele>7.9</ele>
        <time>2019-07-07T09:47:54Z</time>
      </trkpt>
      <trkpt lat="38.5516550" lon="-28.5020930">
        <ele>6.4</ele>
        <time>2019-07-07T09:48:03Z</time>
      </trkpt>
      <trkpt lat="38.5514880" lon="-28.5026750">
        <ele>7.1</ele>
        <time>2019-07-07T09:48:11Z</time>
      </trkpt>
      <trkpt lat="38.5513150" lon="-28.5033160">
        <ele>6.1</ele>
        <time>2019-07-07T09:48:20Z</time>
      </trkpt>
      <trkpt lat="38.5511250" lon="-28.5039900">
        <ele>7.0</ele>
        <time>2019-07-07T09:48:29Z</time>
      </trkpt>
      <trkpt lat="38.5509320" lon="-28.5046640">
        <ele>8.0</ele>
        <time>2019-07-07T09:48:38Z</time>
      </trkpt>
      <trkpt lat="38.5509100" lon="-28.5047440">
        <ele>8.0</ele>
        <time>2019-07-07T09:48:39Z</time>
      </trkpt>
      <trkpt lat="38.5507130" lon="-28.5053650">
        <ele>8.4</ele>
        <time>2019-07-07T09:48:47Z</time>
      </trkpt>
      <trkpt lat="38.5504970" lon="-28.5058840">
        <ele>9.4</ele>
        <time>2019-07-07T09:48:54Z</time>
      </trkpt>
      <trkpt lat="38.5501830" lon="-28.5064770">
        <ele>8.9</ele>
        <time>2019-07-07T09:49:03Z</time>
      </trkpt>
      <trkpt lat="38.5500810" lon="-28.5066450">
        <ele>8.7</ele>
        <time>2019-07-07T09:49:06Z</time>
      </trkpt>
      <trkpt lat="38.5499860" lon="-28.5068290">
        <ele>8.2</ele>
        <time>2019-07-07T09:49:09Z</time>
      </trkpt>
      <trkpt lat="38.5499520" lon="-28.5068920">
        <ele>7.9</ele>
        <time>2019-07-07T09:49:10Z</time>
      </trkpt>
      <trkpt lat="38.5497750" lon="-28.5072010">
        <ele>6.4</ele>
        <time>2019-07-07T09:49:15Z</time>
      </trkpt>
      <trkpt lat="38.5494940" lon="-28.5077040">
        <ele>4.4</ele>
        <time>2019-07-07T09:49:23Z</time>
      </trkpt>
      <trkpt lat="38.5492300" lon="-28.5081510">
        <ele>5.7</ele>
        <time>2019-07-07T09:49:31Z</time>
      </trkpt>
      <trkpt lat="38.5490440" lon="-28.5084970">
        <ele>6.7</ele>
        <time>2019-07-07T09:49:37Z</time>
      </trkpt>
      <trkpt lat="38.5488020" lon="-28.5089620">
        <ele>8.0</ele>
        <time>2019-07-07T09:49:45Z</time>
      </trkpt>
      <trkpt lat="38.5486180" lon="-28.5093850">
        <ele>9.3</ele>
        <time>2019-07-07T09:49:52Z</time>
      </trkpt>
      <trkpt lat="38.5485960" lon="-28.5094450">
        <ele>9.5</ele>
        <time>2019-07-07T09:49:53Z</time>
      </trkpt>
      <trkpt lat="38.5484930" lon="-28.5098170">
        <ele>10.7</ele>
        <time>2019-07-07T09:49:59Z</time>
      </trkpt>
      <trkpt lat="38.5484830" lon="-28.5098870">
        <ele>10.8</ele>
        <time>2019-07-07T09:50:00Z</time>
      </trkpt>
      <trkpt lat="38.5484500" lon="-28.5103820">
        <ele>11.0</ele>
        <time>2019-07-07T09:50:07Z</time>
      </trkpt>
      <trkpt lat="38.5484350" lon="-28.5109700">
        <ele>9.9</ele>
        <time>2019-07-07T09:50:15Z</time>
      </trkpt>
      <trkpt lat="38.5484340" lon="-28.5110430">
        <ele>9.7</ele>
        <time>2019-07-07T09:50:16Z</time>
      </trkpt>
      <trkpt lat="38.5484030" lon="-28.5115330">
        <ele>8.8</ele>
        <time>2019-07-07T09:50:23Z</time>
      </trkpt>
      <trkpt lat="38.5483160" lon="-28.5120980">
        <ele>8.0</ele>
        <time>2019-07-07T09:50:31Z</time>
      </trkpt>
      <trkpt lat="38.5481580" lon="-28.5124840">
        <ele>7.3</ele>
        <time>2019-07-07T09:50:37Z</time>
      </trkpt>
      <trkpt lat="38.5479020" lon="-28.5129430">
        <ele>6.8</ele>
        <time>2019-07-07T09:50:45Z</time>
      </trkpt>
      <trkpt lat="38.5476280" lon="-28.5133940">
        <ele>7.1</ele>
        <time>2019-07-07T09:50:53Z</time>
      </trkpt>
      <trkpt lat="38.5473970" lon="-28.5137710">
        <ele>6.9</ele>
        <time>2019-07-07T09:51:00Z</time>
      </trkpt>
      <trkpt lat="38.5471270" lon="-28.5141950">
        <ele>7.0</ele>
        <time>2019-07-07T09:51:08Z</time>
      </trkpt>
      <trkpt lat="38.5468790" lon="-28.5145980">
        <ele>7.1</ele>
        <time>2019-07-07T09:51:15Z</time>
      </trkpt>
      <trkpt lat="38.5465470" lon="-28.5151500">
        <ele>7.0</ele>
        <time>2019-07-07T09:51:24Z</time>
      </trkpt>
      <trkpt lat="38.5464060" lon="-28.5153820">
        <ele>7.0</ele>
        <time>2019-07-07T09:51:28Z</time>
      </trkpt>
      <trkpt lat="38.5462020" lon="-28.5157040">
        <ele>7.2</ele>
        <time>2019-07-07T09:51:34Z</time>
      </trkpt>
      <trkpt lat="38.5459410" lon="-28.5161310">
        <ele>6.5</ele>
        <time>2019-07-07T09:51:42Z</time>
      </trkpt>
      <trkpt lat="38.5455900" lon="-28.5166960">
        <ele>4.8</ele>
        <time>2019-07-07T09:51:52Z</time>
      </trkpt>
      <trkpt lat="38.5454790" lon="-28.5168660">
        <ele>4.3</ele>
        <time>2019-07-07T09:51:55Z</time>
      </trkpt>
      <trkpt lat="38.5452660" lon="-28.5172140">
        <ele>3.8</ele>
        <time>2019-07-07T09:52:01Z</time>
      </trkpt>
      <trkpt lat="38.5451950" lon="-28.5173350">
        <ele>3.6</ele>
        <time>2019-07-07T09:52:03Z</time>
      </trkpt>
      <trkpt lat="38.5448810" lon="-28.5178440">
        <ele>2.9</ele>
        <time>2019-07-07T09:52:11Z</time>
      </trkpt>
      <trkpt lat="38.5445230" lon="-28.5184200">
        <ele>3.9</ele>
        <time>2019-07-07T09:52:20Z</time>
      </trkpt>
      <trkpt lat="38.5444430" lon="-28.5185390">
        <ele>4.5</ele>
        <time>2019-07-07T09:52:22Z</time>
      </trkpt>
      <trkpt lat="38.5441260" lon="-28.5189920">
        <ele>5.1</ele>
        <time>2019-07-07T09:52:30Z</time>
      </trkpt>
      <trkpt lat="38.5437820" lon="-28.5193620">
        <ele>4.5</ele>
        <time>2019-07-07T09:52:38Z</time>
      </trkpt>
      <trkpt lat="38.5434320" lon="-28.5195900">
        <ele>5.0</ele>
        <time>2019-07-07T09:52:45Z</time>
      </trkpt>
      <trkpt lat="38.5430310" lon="-28.5197480">
        <ele>5.3</ele>
        <time>2019-07-07T09:52:53Z</time>
      </trkpt>
      <trkpt lat="38.5426590" lon="-28.5197950">
        <ele>5.3</ele>
        <time>2019-07-07T09:53:00Z</time>
      </trkpt>
      <trkpt lat="38.5422750" lon="-28.5197960">
        <ele>5.6</ele>
        <time>2019-07-07T09:53:07Z</time>
      </trkpt>
      <trkpt lat="38.5421690" lon="-28.5197960">
        <ele>5.7</ele>
        <time>2019-07-07T09:53:09Z</time>
      </trkpt>
      <trkpt lat="38.5419550" lon="-28.5197910">
        <ele>6.0</ele>
        <time>2019-07-07T09:53:13Z</time>
      </trkpt>
      <trkpt lat="38.5417200" lon="-28.5197910">
        <ele>6.2</ele>
        <time>2019-07-07T09:53:17Z</time>
      </trkpt>
      <trkpt lat="38.5412720" lon="-28.5197940">
        <ele>6.2</ele>
        <time>2019-07-07T09:53:25Z</time>
      </trkpt>
      <trkpt lat="38.5407760" lon="-28.5198100">
        <ele>5.2</ele>
        <time>2019-07-07T09:53:34Z</time>
      </trkpt>
      <trkpt lat="38.5403270" lon="-28.5199190">
        <ele>4.2</ele>
        <time>2019-07-07T09:53:42Z</time>
      </trkpt>
      <trkpt lat="38.5399170" lon="-28.5201000">
        <ele>4.4</ele>
        <time>2019-07-07T09:53:50Z</time>
      </trkpt>
      <trkpt lat="38.5395990" lon="-28.5203580">
        <ele>4.6</ele>
        <time>2019-07-07T09:53:57Z</time>
      </trkpt>
      <trkpt lat="38.5393710" lon="-28.5206130">
        <ele>4.9</ele>
        <time>2019-07-07T09:54:03Z</time>
      </trkpt>
      <trkpt lat="38.5391470" lon="-28.5209740">
        <ele>5.0</ele>
        <time>2019-07-07T09:54:10Z</time>
      </trkpt>
      <trkpt lat="38.5390980" lon="-28.5210850">
        <ele>5.3</ele>
        <time>2019-07-07T09:54:12Z</time>
      </trkpt>
      <trkpt lat="38.5389610" lon="-28.5214330">
        <ele>6.0</ele>
        <time>2019-07-07T09:54:18Z</time>
      </trkpt>
      <trkpt lat="38.5389180" lon="-28.5215630">
        <ele>6.4</ele>
        <time>2019-07-07T09:54:20Z</time>
      </trkpt>
      <trkpt lat="38.5388260" lon="-28.5218550">
        <ele>7.0</ele>
        <time>2019-07-07T09:54:25Z</time>
      </trkpt>
      <trkpt lat="38.5387140" lon="-28.5222390">
        <ele>7.1</ele>
        <time>2019-07-07T09:54:32Z</time>
      </trkpt>
      <trkpt lat="38.5386120" lon="-28.5226130">
        <ele>7.1</ele>
        <time>2019-07-07T09:54:39Z</time>
      </trkpt>
      <trkpt lat="38.5385070" lon="-28.5230270">
        <ele>8.3</ele>
        <time>2019-07-07T09:54:47Z</time>
      </trkpt>
      <trkpt lat="38.5384310" lon="-28.5232890">
        <ele>8.9</ele>
        <time>2019-07-07T09:54:52Z</time>
      </trkpt>
      <trkpt lat="38.5383790" lon="-28.5234620">
        <ele>9.0</ele>
        <time>2019-07-07T09:54:55Z</time>
      </trkpt>
      <trkpt lat="38.5382240" lon="-28.5239460">
        <ele>8.1</ele>
        <time>2019-07-07T09:55:03Z</time>
      </trkpt>
      <trkpt lat="38.5381790" lon="-28.5240680">
        <ele>7.8</ele>
        <time>2019-07-07T09:55:05Z</time>
      </trkpt>
      <trkpt lat="38.5380920" lon="-28.5241260">
        <ele>8.0</ele>
        <time>2019-07-07T09:55:07Z</time>
      </trkpt>
      <trkpt lat="38.5379250" lon="-28.5240770">
        <ele>9.1</ele>
        <time>2019-07-07T09:55:11Z</time>
      </trkpt>
      <trkpt lat="38.5377760" lon="-28.5239840">
        <ele>10.2</ele>
        <time>2019-07-07T09:55:15Z</time>
      </trkpt>
      <trkpt lat="38.5376910" lon="-28.5239440">
        <ele>10.5</ele>
        <time>2019-07-07T09:55:17Z</time>
      </trkpt>
      <trkpt lat="38.5376520" lon="-28.5239260">
        <ele>10.7</ele>
        <time>2019-07-07T09:55:18Z</time>
      </trkpt>
      <trkpt lat="38.5373760" lon="-28.5238160">
        <ele>12.0</ele>
        <time>2019-07-07T09:55:25Z</time>
      </trkpt>
      <trkpt lat="38.5373350" lon="-28.5237960">
        <ele>12.2</ele>
        <time>2019-07-07T09:55:26Z</time>
      </trkpt>
      <trkpt lat="38.5371310" lon="-28.5236770">
        <ele>13.2</ele>
        <time>2019-07-07T09:55:32Z</time>
      </trkpt>
      <trkpt lat="38.5370620" lon="-28.5236590">
        <ele>13.5</ele>
        <time>2019-07-07T09:55:34Z</time>
      </trkpt>
      <trkpt lat="38.5370280" lon="-28.5236760">
        <ele>13.4</ele>
        <time>2019-07-07T09:55:35Z</time>
      </trkpt>
      <trkpt lat="38.5369250" lon="-28.5238430">
        <ele>13.1</ele>
        <time>2019-07-07T09:55:39Z</time>
      </trkpt>
      <trkpt lat="38.5369010" lon="-28.5238920">
        <ele>12.8</ele>
        <time>2019-07-07T09:55:40Z</time>
      </trkpt>
      <trkpt lat="38.5367320" lon="-28.5242030">
        <ele>12.1</ele>
        <time>2019-07-07T09:55:46Z</time>
      </trkpt>
      <trkpt lat="38.5365270" lon="-28.5245530">
        <ele>11.1</ele>
        <time>2019-07-07T09:55:53Z</time>
      </trkpt>
      <trkpt lat="38.5363520" lon="-28.5248480">
        <ele>10.2</ele>
        <time>2019-07-07T09:55:58Z</time>
      </trkpt>
      <trkpt lat="38.5363160" lon="-28.5249100">
        <ele>10.1</ele>
        <time>2019-07-07T09:55:59Z</time>
      </trkpt>
      <trkpt lat="38.5361660" lon="-28.5251610">
        <ele>9.5</ele>
        <time>2019-07-07T09:56:03Z</time>
      </trkpt>
      <trkpt lat="38.5360170" lon="-28.5254140">
        <ele>9.2</ele>
        <time>2019-07-07T09:56:07Z</time>
      </trkpt>
      <trkpt lat="38.5358770" lon="-28.5256440">
        <ele>9.1</ele>
        <time>2019-07-07T09:56:11Z</time>
      </trkpt>
      <trkpt lat="38.5357610" lon="-28.5258100">
        <ele>9.1</ele>
        <time>2019-07-07T09:56:14Z</time>
      </trkpt>
      <trkpt lat="38.5356070" lon="-28.5258990">
        <ele>9.3</ele>
        <time>2019-07-07T09:56:17Z</time>
      </trkpt>
      <trkpt lat="38.5354990" lon="-28.5259100">
        <ele>9.5</ele>
        <time>2019-07-07T09:56:19Z</time>
      </trkpt>
      <trkpt lat="38.5354450" lon="-28.5259090">
        <ele>9.6</ele>
        <time>2019-07-07T09:56:20Z</time>
      </trkpt>
      <trkpt lat="38.5352930" lon="-28.5259090">
        <ele>10.0</ele>
        <time>2019-07-07T09:56:23Z</time>
      </trkpt>
      <trkpt lat="38.5351850" lon="-28.5259170">
        <ele>10.2</ele>
        <time>2019-07-07T09:56:26Z</time>
      </trkpt>
      <trkpt lat="38.5351620" lon="-28.5259300">
        <ele>10.2</ele>
        <time>2019-07-07T09:56:27Z</time>
      </trkpt>
      <trkpt lat="38.5351460" lon="-28.5259530">
        <ele>10.3</ele>
        <time>2019-07-07T09:56:28Z</time>
      </trkpt>
      <trkpt lat="38.5351040" lon="-28.5260710">
        <ele>10.3</ele>
        <time>2019-07-07T09:56:31Z</time>
      </trkpt>
      <trkpt lat="38.5350210" lon="-28.5263090">
        <ele>10.3</ele>
        <time>2019-07-07T09:56:36Z</time>
      </trkpt>
      <trkpt lat="38.5349970" lon="-28.5263570">
        <ele>10.3</ele>
        <time>2019-07-07T09:56:37Z</time>
      </trkpt>
      <trkpt lat="38.5349160" lon="-28.5264970">
        <ele>10.5</ele>
        <time>2019-07-07T09:56:40Z</time>
      </trkpt>
      <trkpt lat="38.5348660" lon="-28.5265940">
        <ele>10.5</ele>
        <time>2019-07-07T09:56:42Z</time>
      </trkpt>
      <trkpt lat="38.5347810" lon="-28.5268060">
        <ele>10.4</ele>
        <time>2019-07-07T09:56:46Z</time>
      </trkpt>
      <trkpt lat="38.5347690" lon="-28.5268650">
        <ele>10.3</ele>
        <time>2019-07-07T09:56:47Z</time>
      </trkpt>
      <trkpt lat="38.5347400" lon="-28.5272180">
        <ele>10.0</ele>
        <time>2019-07-07T09:56:53Z</time>
      </trkpt>
      <trkpt lat="38.5348190" lon="-28.5275710">
        <ele>8.8</ele>
        <time>2019-07-07T10:51:49Z</time>
      </trkpt>
      <trkpt lat="38.5347870" lon="-28.5276050">
        <ele>8.7</ele>
        <time>2019-07-07T10:51:50Z</time>
      </trkpt>
      <trkpt lat="38.5347710" lon="-28.5276340">
        <ele>8.7</ele>
        <time>2019-07-07T10:51:51Z</time>
      </trkpt>
      <trkpt lat="38.5347560" lon="-28.5276750">
        <ele>8.6</ele>
        <time>2019-07-07T10:51:52Z</time>
      </trkpt>
      <trkpt lat="38.5347570" lon="-28.5277350">
        <ele>8.6</ele>
        <time>2019-07-07T10:51:53Z</time>
      </trkpt>
      <trkpt lat="38.5347530" lon="-28.5279210">
        <ele>8.3</ele>
        <time>2019-07-07T10:51:57Z</time>
      </trkpt>
      <trkpt lat="38.5347390" lon="-28.5280420">
        <ele>8.0</ele>
        <time>2019-07-07T10:51:59Z</time>
      </trkpt>
      <trkpt lat="38.5346390" lon="-28.5281630">
        <ele>7.7</ele>
        <time>2019-07-07T10:52:02Z</time>
      </trkpt>
      <trkpt lat="38.5344450" lon="-28.5281710">
        <ele>8.1</ele>
        <time>2019-07-07T10:52:06Z</time>
      </trkpt>
      <trkpt lat="38.5343700" lon="-28.5283120">
        <ele>7.8</ele>
        <time>2019-07-07T10:52:09Z</time>
      </trkpt>
      <trkpt lat="38.5343710" lon="-28.5284780">
        <ele>7.3</ele>
        <time>2019-07-07T10:52:11Z</time>
      </trkpt>
      <trkpt lat="38.5343640" lon="-28.5285680">
        <ele>7.1</ele>
        <time>2019-07-07T10:52:12Z</time>
      </trkpt>
      <trkpt lat="38.5343410" lon="-28.5286500">
        <ele>6.8</ele>
        <time>2019-07-07T10:52:13Z</time>
      </trkpt>
      <trkpt lat="38.5342140" lon="-28.5288170">
        <ele>6.7</ele>
        <time>2019-07-07T10:52:16Z</time>
      </trkpt>
      <trkpt lat="38.5341670" lon="-28.5288550">
        <ele>6.7</ele>
        <time>2019-07-07T10:52:17Z</time>
      </trkpt>
      <trkpt lat="38.5341230" lon="-28.5288940">
        <ele>6.7</ele>
        <time>2019-07-07T10:52:18Z</time>
      </trkpt>
      <trkpt lat="38.5340570" lon="-28.5289670">
        <ele>6.6</ele>
        <time>2019-07-07T10:52:20Z</time>
      </trkpt>
      <trkpt lat="38.5340400" lon="-28.5290120">
        <ele>6.6</ele>
        <time>2019-07-07T10:52:21Z</time>
      </trkpt>
      <trkpt lat="38.5340510" lon="-28.5291880">
        <ele>6.4</ele>
        <time>2019-07-07T10:52:24Z</time>
      </trkpt>
      <trkpt lat="38.5339900" lon="-28.5293690">
        <ele>6.3</ele>
        <time>2019-07-07T10:52:27Z</time>
      </trkpt>
      <trkpt lat="38.5338580" lon="-28.5295070">
        <ele>6.8</ele>
        <time>2019-07-07T10:52:30Z</time>
      </trkpt>
      <trkpt lat="38.5337630" lon="-28.5295860">
        <ele>7.3</ele>
        <time>2019-07-07T10:52:32Z</time>
      </trkpt>
      <trkpt lat="38.5336300" lon="-28.5296960">
        <ele>8.0</ele>
        <time>2019-07-07T10:52:35Z</time>
      </trkpt>
      <trkpt lat="38.5334920" lon="-28.5297850">
        <ele>8.4</ele>
        <time>2019-07-07T10:52:38Z</time>
      </trkpt>
      <trkpt lat="38.5331960" lon="-28.5299900">
        <ele>9.4</ele>
        <time>2019-07-07T10:52:45Z</time>
      </trkpt>
      <trkpt lat="38.5331840" lon="-28.5300340">
        <ele>9.5</ele>
        <time>2019-07-07T10:52:46Z</time>
      </trkpt>
      <trkpt lat="38.5331960" lon="-28.5300880">
        <ele>9.6</ele>
        <time>2019-07-07T10:52:47Z</time>
      </trkpt>
      <trkpt lat="38.5333160" lon="-28.5304850">
        <ele>9.1</ele>
        <time>2019-07-07T10:52:54Z</time>
      </trkpt>
      <trkpt lat="38.5333170" lon="-28.5305460">
        <ele>9.1</ele>
        <time>2019-07-07T10:52:55Z</time>
      </trkpt>
      <trkpt lat="38.5332800" lon="-28.5307200">
        <ele>8.6</ele>
        <time>2019-07-07T10:52:58Z</time>
      </trkpt>
      <trkpt lat="38.5332800" lon="-28.5307720">
        <ele>8.5</ele>
        <time>2019-07-07T10:52:59Z</time>
      </trkpt>
      <trkpt lat="38.5333540" lon="-28.5309030">
        <ele>7.7</ele>
        <time>2019-07-07T10:53:02Z</time>
      </trkpt>
      <trkpt lat="38.5334680" lon="-28.5311360">
        <ele>6.9</ele>
        <time>2019-07-07T10:53:06Z</time>
      </trkpt>
      <trkpt lat="38.5336160" lon="-28.5315650">
        <ele>4.8</ele>
        <time>2019-07-07T10:53:12Z</time>
      </trkpt>
      <trkpt lat="38.5336400" lon="-28.5316400">
        <ele>4.4</ele>
        <time>2019-07-07T10:53:13Z</time>
      </trkpt>
      <trkpt lat="38.5337480" lon="-28.5319500">
        <ele>3.2</ele>
        <time>2019-07-07T10:53:17Z</time>
      </trkpt>
      <trkpt lat="38.5338290" lon="-28.5321950">
        <ele>2.7</ele>
        <time>2019-07-07T10:53:20Z</time>
      </trkpt>
      <trkpt lat="38.5338560" lon="-28.5322760">
        <ele>2.6</ele>
        <time>2019-07-07T10:53:21Z</time>
      </trkpt>
      <trkpt lat="38.5339600" lon="-28.5326640">
        <ele>2.4</ele>
        <time>2019-07-07T10:53:26Z</time>
      </trkpt>
      <trkpt lat="38.5339720" lon="-28.5327380">
        <ele>2.4</ele>
        <time>2019-07-07T10:53:27Z</time>
      </trkpt>
      <trkpt lat="38.5339800" lon="-28.5328110">
        <ele>2.4</ele>
        <time>2019-07-07T10:53:28Z</time>
      </trkpt>
      <trkpt lat="38.5339860" lon="-28.5330310">
        <ele>2.5</ele>
        <time>2019-07-07T10:53:31Z</time>
      </trkpt>
      <trkpt lat="38.5339610" lon="-28.5332530">
        <ele>2.7</ele>
        <time>2019-07-07T10:53:34Z</time>
      </trkpt>
      <trkpt lat="38.5339170" lon="-28.5334600">
        <ele>2.8</ele>
        <time>2019-07-07T10:53:37Z</time>
      </trkpt>
      <trkpt lat="38.5338690" lon="-28.5335830">
        <ele>2.9</ele>
        <time>2019-07-07T10:53:39Z</time>
      </trkpt>
      <trkpt lat="38.5337890" lon="-28.5337370">
        <ele>3.0</ele>
        <time>2019-07-07T10:53:42Z</time>
      </trkpt>
      <trkpt lat="38.5337140" lon="-28.5338470">
        <ele>3.1</ele>
        <time>2019-07-07T10:53:45Z</time>
      </trkpt>
      <trkpt lat="38.5336330" lon="-28.5339530">
        <ele>3.1</ele>
        <time>2019-07-07T10:53:48Z</time>
      </trkpt>
      <trkpt lat="38.5335160" lon="-28.5340830">
        <ele>3.3</ele>
        <time>2019-07-07T10:53:52Z</time>
      </trkpt>
      <trkpt lat="38.5334540" lon="-28.5341300">
        <ele>3.3</ele>
        <time>2019-07-07T10:53:54Z</time>
      </trkpt>
      <trkpt lat="38.5333400" lon="-28.5341910">
        <ele>3.6</ele>
        <time>2019-07-07T10:53:57Z</time>
      </trkpt>
      <trkpt lat="38.5332960" lon="-28.5341990">
        <ele>3.7</ele>
        <time>2019-07-07T10:53:58Z</time>
      </trkpt>
      <trkpt lat="38.5332490" lon="-28.5342010">
        <ele>3.8</ele>
        <time>2019-07-07T10:53:59Z</time>
      </trkpt>
      <trkpt lat="38.5330490" lon="-28.5342030">
        <ele>4.0</ele>
        <time>2019-07-07T10:54:03Z</time>
      </trkpt>
      <trkpt lat="38.5330020" lon="-28.5342200">
        <ele>3.8</ele>
        <time>2019-07-07T10:54:04Z</time>
      </trkpt>
      <trkpt lat="38.5328600" lon="-28.5342870">
        <ele>3.6</ele>
        <time>2019-07-07T10:54:07Z</time>
      </trkpt>
      <trkpt lat="38.5327110" lon="-28.5344000">
        <ele>3.7</ele>
        <time>2019-07-07T10:54:10Z</time>
      </trkpt>
      <trkpt lat="38.5326570" lon="-28.5344340">
        <ele>3.7</ele>
        <time>2019-07-07T10:54:11Z</time>
      </trkpt>
      <trkpt lat="38.5325990" lon="-28.5344600">
        <ele>3.7</ele>
        <time>2019-07-07T10:54:12Z</time>
      </trkpt>
      <trkpt lat="38.5324840" lon="-28.5345030">
        <ele>3.8</ele>
        <time>2019-07-07T10:54:14Z</time>
      </trkpt>
      <trkpt lat="38.5323290" lon="-28.5344890">
        <ele>4.0</ele>
        <time>2019-07-07T10:54:17Z</time>
      </trkpt>
      <trkpt lat="38.5322660" lon="-28.5345010">
        <ele>4.1</ele>
        <time>2019-07-07T10:54:19Z</time>
      </trkpt>
      <trkpt lat="38.5322430" lon="-28.5345100">
        <ele>4.1</ele>
        <time>2019-07-07T10:54:20Z</time>
      </trkpt>
      <trkpt lat="38.5321610" lon="-28.5346060">
        <ele>3.7</ele>
        <time>2019-07-07T10:54:24Z</time>
      </trkpt>
      <trkpt lat="38.5320910" lon="-28.5347040">
        <ele>3.4</ele>
        <time>2019-07-07T10:54:26Z</time>
      </trkpt>
      <trkpt lat="38.5320310" lon="-28.5348100">
        <ele>3.2</ele>
        <time>2019-07-07T10:54:28Z</time>
      </trkpt>
      <trkpt lat="38.5319640" lon="-28.5349040">
        <ele>3.2</ele>
        <time>2019-07-07T10:54:30Z</time>
      </trkpt>
      <trkpt lat="38.5318710" lon="-28.5350580">
        <ele>3.0</ele>
        <time>2019-07-07T10:54:33Z</time>
      </trkpt>
      <trkpt lat="38.5317940" lon="-28.5352250">
        <ele>2.7</ele>
        <time>2019-07-07T10:54:36Z</time>
      </trkpt>
      <trkpt lat="38.5317230" lon="-28.5353070">
        <ele>2.5</ele>
        <time>2019-07-07T10:54:38Z</time>
      </trkpt>
      <trkpt lat="38.5316340" lon="-28.5353600">
        <ele>2.5</ele>
        <time>2019-07-07T10:54:40Z</time>
      </trkpt>
      <trkpt lat="38.5315010" lon="-28.5354310">
        <ele>3.0</ele>
        <time>2019-07-07T10:54:43Z</time>
      </trkpt>
      <trkpt lat="38.5314570" lon="-28.5354590">
        <ele>3.1</ele>
        <time>2019-07-07T10:54:44Z</time>
      </trkpt>
      <trkpt lat="38.5312970" lon="-28.5355820">
        <ele>3.4</ele>
        <time>2019-07-07T10:54:48Z</time>
      </trkpt>
      <trkpt lat="38.5311680" lon="-28.5356900">
        <ele>3.4</ele>
        <time>2019-07-07T10:54:52Z</time>
      </trkpt>
      <trkpt lat="38.5311090" lon="-28.5357460">
        <ele>3.4</ele>
        <time>2019-07-07T10:54:54Z</time>
      </trkpt>
      <trkpt lat="38.5308610" lon="-28.5359590">
        <ele>3.4</ele>
        <time>2019-07-07T10:55:02Z</time>
      </trkpt>
      <trkpt lat="38.5306700" lon="-28.5360560">
        <ele>3.4</ele>
        <time>2019-07-07T10:55:08Z</time>
      </trkpt>
      <trkpt lat="38.5305240" lon="-28.5361360">
        <ele>3.4</ele>
        <time>2019-07-07T10:55:13Z</time>
      </trkpt>
      <trkpt lat="38.5303700" lon="-28.5362830">
        <ele>3.4</ele>
        <time>2019-07-07T10:55:19Z</time>
      </trkpt>
      <trkpt lat="38.5303130" lon="-28.5363600">
        <ele>3.3</ele>
        <time>2019-07-07T10:55:21Z</time>
      </trkpt>
      <trkpt lat="38.5302530" lon="-28.5364460">
        <ele>3.3</ele>
        <time>2019-07-07T10:55:23Z</time>
      </trkpt>
      <trkpt lat="38.5302180" lon="-28.5364840">
        <ele>3.3</ele>
        <time>2019-07-07T10:55:24Z</time>
      </trkpt>
      <trkpt lat="38.5299610" lon="-28.5366830">
        <ele>3.5</ele>
        <time>2019-07-07T10:55:30Z</time>
      </trkpt>
      <trkpt lat="38.5297090" lon="-28.5368190">
        <ele>4.5</ele>
        <time>2019-07-07T10:55:36Z</time>
      </trkpt>
      <trkpt lat="38.5296280" lon="-28.5368550">
        <ele>4.7</ele>
        <time>2019-07-07T10:55:38Z</time>
      </trkpt>
      <trkpt lat="38.5295420" lon="-28.5368690">
        <ele>4.8</ele>
        <time>2019-07-07T10:55:40Z</time>
      </trkpt>
      <trkpt lat="38.5294540" lon="-28.5368560">
        <ele>4.9</ele>
        <time>2019-07-07T10:55:42Z</time>
      </trkpt>
      <trkpt lat="38.5293660" lon="-28.5368300">
        <ele>4.9</ele>
        <time>2019-07-07T10:55:44Z</time>
      </trkpt>
      <trkpt lat="38.5291940" lon="-28.5367720">
        <ele>5.1</ele>
        <time>2019-07-07T10:55:48Z</time>
      </trkpt>
      <trkpt lat="38.5290710" lon="-28.5367300">
        <ele>5.4</ele>
        <time>2019-07-07T10:55:51Z</time>
      </trkpt>
      <trkpt lat="38.5289420" lon="-28.5366980">
        <ele>6.0</ele>
        <time>2019-07-07T10:55:54Z</time>
      </trkpt>
      <trkpt lat="38.5289010" lon="-28.5366830">
        <ele>6.1</ele>
        <time>2019-07-07T10:55:55Z</time>
      </trkpt>
      <trkpt lat="38.5287860" lon="-28.5366250">
        <ele>6.4</ele>
        <time>2019-07-07T10:55:58Z</time>
      </trkpt>
      <trkpt lat="38.5287500" lon="-28.5365970">
        <ele>6.5</ele>
        <time>2019-07-07T10:55:59Z</time>
      </trkpt>
      <trkpt lat="38.5287140" lon="-28.5365690">
        <ele>6.6</ele>
        <time>2019-07-07T10:56:00Z</time>
      </trkpt>
      <trkpt lat="38.5285370" lon="-28.5365130">
        <ele>7.2</ele>
        <time>2019-07-07T10:56:04Z</time>
      </trkpt>
      <trkpt lat="38.5284910" lon="-28.5365070">
        <ele>7.4</ele>
        <time>2019-07-07T10:56:05Z</time>
      </trkpt>
      <trkpt lat="38.5281500" lon="-28.5365040">
        <ele>7.6</ele>
        <time>2019-07-07T10:56:12Z</time>
      </trkpt>
      <trkpt lat="38.5277510" lon="-28.5365050">
        <ele>6.9</ele>
        <time>2019-07-07T10:56:20Z</time>
      </trkpt>
      <trkpt lat="38.5276120" lon="-28.5365010">
        <ele>6.8</ele>
        <time>2019-07-07T10:56:23Z</time>
      </trkpt>
      <trkpt lat="38.5275240" lon="-28.5364700">
        <ele>6.7</ele>
        <time>2019-07-07T10:56:25Z</time>
      </trkpt>
      <trkpt lat="38.5274820" lon="-28.5364420">
        <ele>6.6</ele>
        <time>2019-07-07T10:56:26Z</time>
      </trkpt>
      <trkpt lat="38.5273670" lon="-28.5363340">
        <ele>6.4</ele>
        <time>2019-07-07T10:56:29Z</time>
      </trkpt>
      <trkpt lat="38.5273330" lon="-28.5362920">
        <ele>6.4</ele>
        <time>2019-07-07T10:56:30Z</time>
      </trkpt>
      <trkpt lat="38.5272840" lon="-28.5361930">
        <ele>6.2</ele>
        <time>2019-07-07T10:56:32Z</time>
      </trkpt>
      <trkpt lat="38.5271830" lon="-28.5360590">
        <ele>5.1</ele>
        <time>2019-07-07T10:56:36Z</time>
      </trkpt>
      <trkpt lat="38.5271030" lon="-28.5360560">
        <ele>4.2</ele>
        <time>2019-07-07T10:56:38Z</time>
      </trkpt>
      <trkpt lat="38.5269820" lon="-28.5360570">
        <ele>3.2</ele>
        <time>2019-07-07T10:56:41Z</time>
      </trkpt>
      <trkpt lat="38.5267990" lon="-28.5361660">
        <ele>2.3</ele>
        <time>2019-07-07T10:56:46Z</time>
      </trkpt>
      <trkpt lat="38.5266390" lon="-28.5363050">
        <ele>2.0</ele>
        <time>2019-07-07T10:56:50Z</time>
      </trkpt>
      <trkpt lat="38.5265670" lon="-28.5364040">
        <ele>1.9</ele>
        <time>2019-07-07T10:56:52Z</time>
      </trkpt>
      <trkpt lat="38.5265120" lon="-28.5365180">
        <ele>1.9</ele>
        <time>2019-07-07T10:56:54Z</time>
      </trkpt>
      <trkpt lat="38.5264040" lon="-28.5367370">
        <ele>2.2</ele>
        <time>2019-07-07T10:56:58Z</time>
      </trkpt>
      <trkpt lat="38.5263690" lon="-28.5367850">
        <ele>2.2</ele>
        <time>2019-07-07T10:56:59Z</time>
      </trkpt>
      <trkpt lat="38.5263300" lon="-28.5368260">
        <ele>2.2</ele>
        <time>2019-07-07T10:57:00Z</time>
      </trkpt>
      <trkpt lat="38.5262050" lon="-28.5369310">
        <ele>2.0</ele>
        <time>2019-07-07T10:57:03Z</time>
      </trkpt>
      <trkpt lat="38.5259860" lon="-28.5370530">
        <ele>1.7</ele>
        <time>2019-07-07T10:57:08Z</time>
      </trkpt>
      <trkpt lat="38.5259430" lon="-28.5370710">
        <ele>1.7</ele>
        <time>2019-07-07T10:57:09Z</time>
      </trkpt>
      <trkpt lat="38.5256440" lon="-28.5372160">
        <ele>1.3</ele>
        <time>2019-07-07T10:57:16Z</time>
      </trkpt>
      <trkpt lat="38.5255980" lon="-28.5372380">
        <ele>1.2</ele>
        <time>2019-07-07T10:57:17Z</time>
      </trkpt>
      <trkpt lat="38.5255060" lon="-28.5372840">
        <ele>1.1</ele>
        <time>2019-07-07T10:57:19Z</time>
      </trkpt>
      <trkpt lat="38.5254080" lon="-28.5373320">
        <ele>1.0</ele>
        <time>2019-07-07T10:57:21Z</time>
      </trkpt>
      <trkpt lat="38.5252550" lon="-28.5373650">
        <ele>0.8</ele>
        <time>2019-07-07T10:57:24Z</time>
      </trkpt>
      <trkpt lat="38.5251540" lon="-28.5373660">
        <ele>0.7</ele>
        <time>2019-07-07T10:57:26Z</time>
      </trkpt>
      <trkpt lat="38.5249060" lon="-28.5373420">
        <ele>0.4</ele>
        <time>2019-07-07T10:57:31Z</time>
      </trkpt>
      <trkpt lat="38.5248060" lon="-28.5373360">
        <ele>0.4</ele>
        <time>2019-07-07T10:57:33Z</time>
      </trkpt>
      <trkpt lat="38.5245150" lon="-28.5373040">
        <ele>0.4</ele>
        <time>2019-07-07T10:57:39Z</time>
      </trkpt>
      <trkpt lat="38.5242840" lon="-28.5373450">
        <ele>0.4</ele>
        <time>2019-07-07T10:57:44Z</time>
      </trkpt>
      <trkpt lat="38.5242400" lon="-28.5373660">
        <ele>0.4</ele>
        <time>2019-07-07T10:57:45Z</time>
      </trkpt>
      <trkpt lat="38.5241530" lon="-28.5374080">
        <ele>0.4</ele>
        <time>2019-07-07T10:57:47Z</time>
      </trkpt>
      <trkpt lat="38.5238420" lon="-28.5375590">
        <ele>1.1</ele>
        <time>2019-07-07T10:57:54Z</time>
      </trkpt>
      <trkpt lat="38.5234750" lon="-28.5376850">
        <ele>1.9</ele>
        <time>2019-07-07T10:58:01Z</time>
      </trkpt>
      <trkpt lat="38.5229830" lon="-28.5377670">
        <ele>2.0</ele>
        <time>2019-07-07T10:58:10Z</time>
      </trkpt>
      <trkpt lat="38.5225440" lon="-28.5377890">
        <ele>2.0</ele>
        <time>2019-07-07T10:58:18Z</time>
      </trkpt>
      <trkpt lat="38.5221890" lon="-28.5377950">
        <ele>2.0</ele>
        <time>2019-07-07T10:58:24Z</time>
      </trkpt>
      <trkpt lat="38.5218280" lon="-28.5378020">
        <ele>2.0</ele>
        <time>2019-07-07T10:58:30Z</time>
      </trkpt>
      <trkpt lat="38.5217070" lon="-28.5378030">
        <ele>1.9</ele>
        <time>2019-07-07T10:58:32Z</time>
      </trkpt>
      <trkpt lat="38.5215310" lon="-28.5378020">
        <ele>1.4</ele>
        <time>2019-07-07T10:58:35Z</time>
      </trkpt>
      <trkpt lat="38.5212340" lon="-28.5378230">
        <ele>0.8</ele>
        <time>2019-07-07T10:58:40Z</time>
      </trkpt>
      <trkpt lat="38.5208850" lon="-28.5379240">
        <ele>0.3</ele>
        <time>2019-07-07T10:58:46Z</time>
      </trkpt>
      <trkpt lat="38.5204880" lon="-28.5380730">
        <ele>0.2</ele>
        <time>2019-07-07T10:58:53Z</time>
      </trkpt>
      <trkpt lat="38.5201560" lon="-28.5382410">
        <ele>0.4</ele>
        <time>2019-07-07T10:58:59Z</time>
      </trkpt>
      <trkpt lat="38.5196560" lon="-28.5384980">
        <ele>1.9</ele>
        <time>2019-07-07T10:59:08Z</time>
      </trkpt>
      <trkpt lat="38.5193890" lon="-28.5386280">
        <ele>1.9</ele>
        <time>2019-07-07T10:59:13Z</time>
      </trkpt>
      <trkpt lat="38.5191220" lon="-28.5387430">
        <ele>1.9</ele>
        <time>2019-07-07T10:59:18Z</time>
      </trkpt>
      <trkpt lat="38.5187480" lon="-28.5388370">
        <ele>1.4</ele>
        <time>2019-07-07T10:59:25Z</time>
      </trkpt>
      <trkpt lat="38.5182450" lon="-28.5389430">
        <ele>0.2</ele>
        <time>2019-07-07T10:59:34Z</time>
      </trkpt>
      <trkpt lat="38.5179100" lon="-28.5390310">
        <ele>0.2</ele>
        <time>2019-07-07T10:59:40Z</time>
      </trkpt>
      <trkpt lat="38.5176890" lon="-28.5390760">
        <ele>0.2</ele>
        <time>2019-07-07T10:59:44Z</time>
      </trkpt>
      <trkpt lat="38.5172110" lon="-28.5391940">
        <ele>0.1</ele>
        <time>2019-07-07T10:59:53Z</time>
      </trkpt>
      <trkpt lat="38.5169710" lon="-28.5392570">
        <ele>0.1</ele>
        <time>2019-07-07T10:59:58Z</time>
      </trkpt>
      <trkpt lat="38.5167750" lon="-28.5393040">
        <ele>0.1</ele>
        <time>2019-07-07T11:00:02Z</time>
      </trkpt>
      <trkpt lat="38.5164750" lon="-28.5393640">
        <ele>-0.2</ele>
        <time>2019-07-07T11:00:08Z</time>
      </trkpt>
      <trkpt lat="38.5163160" lon="-28.5393960">
        <ele>-0.6</ele>
        <time>2019-07-07T11:00:11Z</time>
      </trkpt>
      <trkpt lat="38.5160660" lon="-28.5394200">
        <ele>-0.9</ele>
        <time>2019-07-07T11:00:16Z</time>
      </trkpt>
      <trkpt lat="38.5160270" lon="-28.5393990">
        <ele>-0.9</ele>
        <time>2019-07-07T11:00:17Z</time>
      </trkpt>
      <trkpt lat="38.5159550" lon="-28.5392590">
        <ele>-0.2</ele>
        <time>2019-07-07T11:00:20Z</time>
      </trkpt>
      <trkpt lat="38.5158270" lon="-28.5388820">
        <ele>2.0</ele>
        <time>2019-07-07T11:00:26Z</time>
      </trkpt>
      <trkpt lat="38.5156850" lon="-28.5384300">
        <ele>4.0</ele>
        <time>2019-07-07T11:00:33Z</time>
      </trkpt>
      <trkpt lat="38.5155970" lon="-28.5381500">
        <ele>4.9</ele>
        <time>2019-07-07T11:00:38Z</time>
      </trkpt>
      <trkpt lat="38.5155610" lon="-28.5380390">
        <ele>5.5</ele>
        <time>2019-07-07T11:00:40Z</time>
      </trkpt>
      <trkpt lat="38.5154280" lon="-28.5376180">
        <ele>7.3</ele>
        <time>2019-07-07T11:00:48Z</time>
      </trkpt>
      <trkpt lat="38.5152580" lon="-28.5371260">
        <ele>9.2</ele>
        <time>2019-07-07T11:00:57Z</time>
      </trkpt>
      <trkpt lat="38.5151990" lon="-28.5369660">
        <ele>9.7</ele>
        <time>2019-07-07T11:01:00Z</time>
      </trkpt>
      <trkpt lat="38.5151050" lon="-28.5366950">
        <ele>10.4</ele>
        <time>2019-07-07T11:01:05Z</time>
      </trkpt>
      <trkpt lat="38.5149720" lon="-28.5363160">
        <ele>10.6</ele>
        <time>2019-07-07T11:01:12Z</time>
      </trkpt>
      <trkpt lat="38.5149320" lon="-28.5362140">
        <ele>11.1</ele>
        <time>2019-07-07T11:01:14Z</time>
      </trkpt>
      <trkpt lat="38.5147600" lon="-28.5357940">
        <ele>12.1</ele>
        <time>2019-07-07T11:01:22Z</time>
      </trkpt>
      <trkpt lat="38.5147430" lon="-28.5357450">
        <ele>12.2</ele>
        <time>2019-07-07T11:01:23Z</time>
      </trkpt>
      <trkpt lat="38.5146390" lon="-28.5354480">
        <ele>12.8</ele>
        <time>2019-07-07T11:01:29Z</time>
      </trkpt>
      <trkpt lat="38.5145910" lon="-28.5352710">
        <ele>13.1</ele>
        <time>2019-07-07T11:01:33Z</time>
      </trkpt>
      <trkpt lat="38.5145340" lon="-28.5350500">
        <ele>13.4</ele>
        <time>2019-07-07T11:01:38Z</time>
      </trkpt>
      <trkpt lat="38.5144700" lon="-28.5348230">
        <ele>13.7</ele>
        <time>2019-07-07T11:01:43Z</time>
      </trkpt>
      <trkpt lat="38.5144030" lon="-28.5346050">
        <ele>14.3</ele>
        <time>2019-07-07T11:01:48Z</time>
      </trkpt>
      <trkpt lat="38.5143900" lon="-28.5345640">
        <ele>14.4</ele>
        <time>2019-07-07T11:01:49Z</time>
      </trkpt>
      <trkpt lat="38.5142990" lon="-28.5343220">
        <ele>14.7</ele>
        <time>2019-07-07T11:01:55Z</time>
      </trkpt>
      <trkpt lat="38.5141880" lon="-28.5341550">
        <ele>15.2</ele>
        <time>2019-07-07T11:02:00Z</time>
      </trkpt>
      <trkpt lat="38.5141680" lon="-28.5341180">
        <ele>15.3</ele>
        <time>2019-07-07T11:02:01Z</time>
      </trkpt>
      <trkpt lat="38.5140080" lon="-28.5337830">
        <ele>16.1</ele>
        <time>2019-07-07T11:02:09Z</time>
      </trkpt>
      <trkpt lat="38.5137930" lon="-28.5333110">
        <ele>16.2</ele>
        <time>2019-07-07T11:02:19Z</time>
      </trkpt>
      <trkpt lat="38.5136450" lon="-28.5329970">
        <ele>16.3</ele>
        <time>2019-07-07T11:02:25Z</time>
      </trkpt>
      <trkpt lat="38.5135850" lon="-28.5328750">
        <ele>16.7</ele>
        <time>2019-07-07T11:02:28Z</time>
      </trkpt>
      <trkpt lat="38.5134580" lon="-28.5325860">
        <ele>17.5</ele>
        <time>2019-07-07T11:02:34Z</time>
      </trkpt>
      <trkpt lat="38.5133950" lon="-28.5324170">
        <ele>17.7</ele>
        <time>2019-07-07T11:02:37Z</time>
      </trkpt>
      <trkpt lat="38.5133190" lon="-28.5322260">
        <ele>18.0</ele>
        <time>2019-07-07T11:02:41Z</time>
      </trkpt>
      <trkpt lat="38.5132620" lon="-28.5321750">
        <ele>18.1</ele>
        <time>2019-07-07T11:02:43Z</time>
      </trkpt>
      <trkpt lat="38.5132280" lon="-28.5321770">
        <ele>18.1</ele>
        <time>2019-07-07T11:02:44Z</time>
      </trkpt>
      <trkpt lat="38.5131380" lon="-28.5322680">
        <ele>18.0</ele>
        <time>2019-07-07T11:02:47Z</time>
      </trkpt>
      <trkpt lat="38.5131080" lon="-28.5323050">
        <ele>18.0</ele>
        <time>2019-07-07T11:02:48Z</time>
      </trkpt>
      <trkpt lat="38.5128840" lon="-28.5325390">
        <ele>17.8</ele>
        <time>2019-07-07T11:02:55Z</time>
      </trkpt>
      <trkpt lat="38.5128070" lon="-28.5325960">
        <ele>17.8</ele>
        <time>2019-07-07T11:02:57Z</time>
      </trkpt>
      <trkpt lat="38.5124940" lon="-28.5328330">
        <ele>17.9</ele>
        <time>2019-07-07T11:03:05Z</time>
      </trkpt>
      <trkpt lat="38.5124540" lon="-28.5328680">
        <ele>17.9</ele>
        <time>2019-07-07T11:03:06Z</time>
      </trkpt>
      <trkpt lat="38.5122920" lon="-28.5330010">
        <ele>18.1</ele>
        <time>2019-07-07T11:03:10Z</time>
      </trkpt>
      <trkpt lat="38.5121180" lon="-28.5331000">
        <ele>18.3</ele>
        <time>2019-07-07T11:03:14Z</time>
      </trkpt>
      <trkpt lat="38.5119310" lon="-28.5331080">
        <ele>18.5</ele>
        <time>2019-07-07T11:03:18Z</time>
      </trkpt>
      <trkpt lat="38.5118860" lon="-28.5331020">
        <ele>18.6</ele>
        <time>2019-07-07T11:03:19Z</time>
      </trkpt>
      <trkpt lat="38.5116420" lon="-28.5330320">
        <ele>18.7</ele>
        <time>2019-07-07T11:03:24Z</time>
      </trkpt>
      <trkpt lat="38.5115910" lon="-28.5330190">
        <ele>18.7</ele>
        <time>2019-07-07T11:03:25Z</time>
      </trkpt>
      <trkpt lat="38.5113440" lon="-28.5329530">
        <ele>18.9</ele>
        <time>2019-07-07T11:03:30Z</time>
      </trkpt>
      <trkpt lat="38.5112040" lon="-28.5329000">
        <ele>19.5</ele>
        <time>2019-07-07T11:03:33Z</time>
      </trkpt>
      <trkpt lat="38.5111590" lon="-28.5328850">
        <ele>19.8</ele>
        <time>2019-07-07T11:03:34Z</time>
      </trkpt>
      <trkpt lat="38.5109780" lon="-28.5328710">
        <ele>20.4</ele>
        <time>2019-07-07T11:03:38Z</time>
      </trkpt>
      <trkpt lat="38.5108890" lon="-28.5328860">
        <ele>20.6</ele>
        <time>2019-07-07T11:03:40Z</time>
      </trkpt>
      <trkpt lat="38.5108470" lon="-28.5328990">
        <ele>20.7</ele>
        <time>2019-07-07T11:03:41Z</time>
      </trkpt>
      <trkpt lat="38.5107210" lon="-28.5329320">
        <ele>21.0</ele>
        <time>2019-07-07T11:03:44Z</time>
      </trkpt>
      <trkpt lat="38.5106810" lon="-28.5329470">
        <ele>21.1</ele>
        <time>2019-07-07T11:03:45Z</time>
      </trkpt>
      <trkpt lat="38.5104780" lon="-28.5330040">
        <ele>21.8</ele>
        <time>2019-07-07T11:03:50Z</time>
      </trkpt>
      <trkpt lat="38.5101540" lon="-28.5330270">
        <ele>22.9</ele>
        <time>2019-07-07T11:03:57Z</time>
      </trkpt>
      <trkpt lat="38.5099380" lon="-28.5330210">
        <ele>24.0</ele>
        <time>2019-07-07T11:04:02Z</time>
      </trkpt>
      <trkpt lat="38.5098260" lon="-28.5330290">
        <ele>24.6</ele>
        <time>2019-07-07T11:04:05Z</time>
      </trkpt>
      <trkpt lat="38.5097520" lon="-28.5330270">
        <ele>24.9</ele>
        <time>2019-07-07T11:04:07Z</time>
      </trkpt>
      <trkpt lat="38.5095760" lon="-28.5330420">
        <ele>25.3</ele>
        <time>2019-07-07T11:04:12Z</time>
      </trkpt>
      <trkpt lat="38.5094830" lon="-28.5330790">
        <ele>25.7</ele>
        <time>2019-07-07T11:04:15Z</time>
      </trkpt>
      <trkpt lat="38.5093570" lon="-28.5331450">
        <ele>26.2</ele>
        <time>2019-07-07T11:04:19Z</time>
      </trkpt>
      <trkpt lat="38.5091720" lon="-28.5332290">
        <ele>27.0</ele>
        <time>2019-07-07T11:04:25Z</time>
      </trkpt>
      <trkpt lat="38.5091410" lon="-28.5332360">
        <ele>27.2</ele>
        <time>2019-07-07T11:04:26Z</time>
      </trkpt>
      <trkpt lat="38.5090320" lon="-28.5331800">
        <ele>28.6</ele>
        <time>2019-07-07T11:04:30Z</time>
      </trkpt>
      <trkpt lat="38.5089830" lon="-28.5331140">
        <ele>29.4</ele>
        <time>2019-07-07T11:04:33Z</time>
      </trkpt>
      <trkpt lat="38.5089300" lon="-28.5330400">
        <ele>30.1</ele>
        <time>2019-07-07T11:04:36Z</time>
      </trkpt>
      <trkpt lat="38.5088520" lon="-28.5329420">
        <ele>31.2</ele>
        <time>2019-07-07T11:04:40Z</time>
      </trkpt>
      <trkpt lat="38.5087950" lon="-28.5328200">
        <ele>32.1</ele>
        <time>2019-07-07T11:04:44Z</time>
      </trkpt>
      <trkpt lat="38.5087770" lon="-28.5327530">
        <ele>32.5</ele>
        <time>2019-07-07T11:04:46Z</time>
      </trkpt>
      <trkpt lat="38.5087360" lon="-28.5326790">
        <ele>32.9</ele>
        <time>2019-07-07T11:04:49Z</time>
      </trkpt>
      <trkpt lat="38.5087040" lon="-28.5326350">
        <ele>33.3</ele>
        <time>2019-07-07T11:04:51Z</time>
      </trkpt>
      <trkpt lat="38.5086510" lon="-28.5325740">
        <ele>33.9</ele>
        <time>2019-07-07T11:04:54Z</time>
      </trkpt>
      <trkpt lat="38.5086140" lon="-28.5325450">
        <ele>34.4</ele>
        <time>2019-07-07T11:04:56Z</time>
      </trkpt>
      <trkpt lat="38.5085570" lon="-28.5325020">
        <ele>35.1</ele>
        <time>2019-07-07T11:04:59Z</time>
      </trkpt>
      <trkpt lat="38.5085000" lon="-28.5324650">
        <ele>35.5</ele>
        <time>2019-07-07T11:05:02Z</time>
      </trkpt>
      <trkpt lat="38.5084460" lon="-28.5324280">
        <ele>36.0</ele>
        <time>2019-07-07T11:05:05Z</time>
      </trkpt>
      <trkpt lat="38.5083340" lon="-28.5323550">
        <ele>36.7</ele>
        <time>2019-07-07T11:05:11Z</time>
      </trkpt>
      <trkpt lat="38.5082960" lon="-28.5323270">
        <ele>36.9</ele>
        <time>2019-07-07T11:05:13Z</time>
      </trkpt>
      <trkpt lat="38.5081280" lon="-28.5322310">
        <ele>37.8</ele>
        <time>2019-07-07T11:05:20Z</time>
      </trkpt>
      <trkpt lat="38.5079830" lon="-28.5322280">
        <ele>38.2</ele>
        <time>2019-07-07T11:05:25Z</time>
      </trkpt>
      <trkpt lat="38.5077190" lon="-28.5322550">
        <ele>38.5</ele>
        <time>2019-07-07T11:05:33Z</time>
      </trkpt>
      <trkpt lat="38.5074850" lon="-28.5322170">
        <ele>38.4</ele>
        <time>2019-07-07T11:05:40Z</time>
      </trkpt>
      <trkpt lat="38.5073210" lon="-28.5321250">
        <ele>38.2</ele>
        <time>2019-07-07T11:05:45Z</time>
      </trkpt>
      <trkpt lat="38.5072570" lon="-28.5320710">
        <ele>38.0</ele>
        <time>2019-07-07T11:05:47Z</time>
      </trkpt>
      <trkpt lat="38.5071570" lon="-28.5319960">
        <ele>37.8</ele>
        <time>2019-07-07T11:05:50Z</time>
      </trkpt>
      <trkpt lat="38.5070770" lon="-28.5319850">
        <ele>37.5</ele>
        <time>2019-07-07T11:05:52Z</time>
      </trkpt>
      <trkpt lat="38.5069300" lon="-28.5320470">
        <ele>36.6</ele>
        <time>2019-07-07T11:05:56Z</time>
      </trkpt>
      <trkpt lat="38.5068840" lon="-28.5320610">
        <ele>36.2</ele>
        <time>2019-07-07T11:05:57Z</time>
      </trkpt>
      <trkpt lat="38.5067300" lon="-28.5321050">
        <ele>35.3</ele>
        <time>2019-07-07T11:06:00Z</time>
      </trkpt>
      <trkpt lat="38.5066280" lon="-28.5321420">
        <ele>34.9</ele>
        <time>2019-07-07T11:06:02Z</time>
      </trkpt>
      <trkpt lat="38.5064760" lon="-28.5322100">
        <ele>34.7</ele>
        <time>2019-07-07T11:06:05Z</time>
      </trkpt>
      <trkpt lat="38.5063380" lon="-28.5323330">
        <ele>34.1</ele>
        <time>2019-07-07T11:06:08Z</time>
      </trkpt>
      <trkpt lat="38.5062920" lon="-28.5323770">
        <ele>34.0</ele>
        <time>2019-07-07T11:06:09Z</time>
      </trkpt>
      <trkpt lat="38.5060800" lon="-28.5325190">
        <ele>33.0</ele>
        <time>2019-07-07T11:06:13Z</time>
      </trkpt>
      <trkpt lat="38.5058280" lon="-28.5325440">
        <ele>32.2</ele>
        <time>2019-07-07T11:06:17Z</time>
      </trkpt>
      <trkpt lat="38.5057690" lon="-28.5325360">
        <ele>32.0</ele>
        <time>2019-07-07T11:06:18Z</time>
      </trkpt>
      <trkpt lat="38.5056090" lon="-28.5325200">
        <ele>31.6</ele>
        <time>2019-07-07T11:06:21Z</time>
      </trkpt>
      <trkpt lat="38.5055120" lon="-28.5325300">
        <ele>31.5</ele>
        <time>2019-07-07T11:06:23Z</time>
      </trkpt>
      <trkpt lat="38.5054150" lon="-28.5325430">
        <ele>31.7</ele>
        <time>2019-07-07T11:06:25Z</time>
      </trkpt>
      <trkpt lat="38.5052740" lon="-28.5326090">
        <ele>32.1</ele>
        <time>2019-07-07T11:06:28Z</time>
      </trkpt>
      <trkpt lat="38.5052310" lon="-28.5326410">
        <ele>32.2</ele>
        <time>2019-07-07T11:06:29Z</time>
      </trkpt>
      <trkpt lat="38.5050270" lon="-28.5328080">
        <ele>32.7</ele>
        <time>2019-07-07T11:06:34Z</time>
      </trkpt>
      <trkpt lat="38.5047760" lon="-28.5330780">
        <ele>33.5</ele>
        <time>2019-07-07T11:06:40Z</time>
      </trkpt>
      <trkpt lat="38.5045050" lon="-28.5333220">
        <ele>34.3</ele>
        <time>2019-07-07T11:06:46Z</time>
      </trkpt>
      <trkpt lat="38.5044680" lon="-28.5333670">
        <ele>34.4</ele>
        <time>2019-07-07T11:06:47Z</time>
      </trkpt>
      <trkpt lat="38.5043970" lon="-28.5334710">
        <ele>34.6</ele>
        <time>2019-07-07T11:06:49Z</time>
      </trkpt>
      <trkpt lat="38.5042950" lon="-28.5336590">
        <ele>34.7</ele>
        <time>2019-07-07T11:06:52Z</time>
      </trkpt>
      <trkpt lat="38.5040940" lon="-28.5340800">
        <ele>35.6</ele>
        <time>2019-07-07T11:06:59Z</time>
      </trkpt>
      <trkpt lat="38.5040130" lon="-28.5342250">
        <ele>35.8</ele>
        <time>2019-07-07T11:07:03Z</time>
      </trkpt>
      <trkpt lat="38.5039930" lon="-28.5342480">
        <ele>35.8</ele>
        <time>2019-07-07T11:07:04Z</time>
      </trkpt>
      <trkpt lat="38.5039710" lon="-28.5342700">
        <ele>35.8</ele>
        <time>2019-07-07T11:07:05Z</time>
      </trkpt>
      <trkpt lat="38.5038800" lon="-28.5343210">
        <ele>35.9</ele>
        <time>2019-07-07T11:07:08Z</time>
      </trkpt>
      <trkpt lat="38.5038450" lon="-28.5343320">
        <ele>35.9</ele>
        <time>2019-07-07T11:07:09Z</time>
      </trkpt>
      <trkpt lat="38.5037740" lon="-28.5343410">
        <ele>35.9</ele>
        <time>2019-07-07T11:07:11Z</time>
      </trkpt>
      <trkpt lat="38.5036320" lon="-28.5343480">
        <ele>35.9</ele>
        <time>2019-07-07T11:07:15Z</time>
      </trkpt>
      <trkpt lat="38.5034830" lon="-28.5343790">
        <ele>36.0</ele>
        <time>2019-07-07T11:07:19Z</time>
      </trkpt>
      <trkpt lat="38.5033480" lon="-28.5344280">
        <ele>36.0</ele>
        <time>2019-07-07T11:07:23Z</time>
      </trkpt>
      <trkpt lat="38.5032400" lon="-28.5344600">
        <ele>36.3</ele>
        <time>2019-07-07T11:07:27Z</time>
      </trkpt>
      <trkpt lat="38.5031550" lon="-28.5344860">
        <ele>36.7</ele>
        <time>2019-07-07T11:07:30Z</time>
      </trkpt>
      <trkpt lat="38.5029410" lon="-28.5345590">
        <ele>37.4</ele>
        <time>2019-07-07T11:07:36Z</time>
      </trkpt>
      <trkpt lat="38.5028610" lon="-28.5345720">
        <ele>37.4</ele>
        <time>2019-07-07T11:07:38Z</time>
      </trkpt>
      <trkpt lat="38.5026730" lon="-28.5345910">
        <ele>37.7</ele>
        <time>2019-07-07T11:07:43Z</time>
      </trkpt>
      <trkpt lat="38.5026340" lon="-28.5345920">
        <ele>37.8</ele>
        <time>2019-07-07T11:07:44Z</time>
      </trkpt>
      <trkpt lat="38.5024440" lon="-28.5345590">
        <ele>38.7</ele>
        <time>2019-07-07T11:07:50Z</time>
      </trkpt>
      <trkpt lat="38.5022080" lon="-28.5344370">
        <ele>40.4</ele>
        <time>2019-07-07T11:07:57Z</time>
      </trkpt>
      <trkpt lat="38.5018810" lon="-28.5342330">
        <ele>42.4</ele>
        <time>2019-07-07T11:08:06Z</time>
      </trkpt>
      <trkpt lat="38.5016940" lon="-28.5341100">
        <ele>43.7</ele>
        <time>2019-07-07T11:08:11Z</time>
      </trkpt>
      <trkpt lat="38.5015800" lon="-28.5340660">
        <ele>44.7</ele>
        <time>2019-07-07T11:08:14Z</time>
      </trkpt>
      <trkpt lat="38.5014420" lon="-28.5340830">
        <ele>46.1</ele>
        <time>2019-07-07T11:08:18Z</time>
      </trkpt>
      <trkpt lat="38.5014120" lon="-28.5340940">
        <ele>46.4</ele>
        <time>2019-07-07T11:08:19Z</time>
      </trkpt>
      <trkpt lat="38.5013540" lon="-28.5341160">
        <ele>47.1</ele>
        <time>2019-07-07T11:08:21Z</time>
      </trkpt>
      <trkpt lat="38.5012710" lon="-28.5341470">
        <ele>47.9</ele>
        <time>2019-07-07T11:08:24Z</time>
      </trkpt>
      <trkpt lat="38.5011660" lon="-28.5341770">
        <ele>48.6</ele>
        <time>2019-07-07T11:08:27Z</time>
      </trkpt>
      <trkpt lat="38.5009240" lon="-28.5342720">
        <ele>49.3</ele>
        <time>2019-07-07T11:08:32Z</time>
      </trkpt>
      <trkpt lat="38.5008640" lon="-28.5343020">
        <ele>49.3</ele>
        <time>2019-07-07T11:08:33Z</time>
      </trkpt>
      <trkpt lat="38.5007990" lon="-28.5343260">
        <ele>49.3</ele>
        <time>2019-07-07T11:08:34Z</time>
      </trkpt>
      <trkpt lat="38.5007340" lon="-28.5343310">
        <ele>49.4</ele>
        <time>2019-07-07T11:08:35Z</time>
      </trkpt>
      <trkpt lat="38.5006030" lon="-28.5342500">
        <ele>52.8</ele>
        <time>2019-07-07T11:08:38Z</time>
      </trkpt>
      <trkpt lat="38.5005580" lon="-28.5341710">
        <ele>53.0</ele>
        <time>2019-07-07T11:08:40Z</time>
      </trkpt>
      <trkpt lat="38.5004840" lon="-28.5339900">
        <ele>53.7</ele>
        <time>2019-07-07T11:08:44Z</time>
      </trkpt>
      <trkpt lat="38.5004690" lon="-28.5339420">
        <ele>53.8</ele>
        <time>2019-07-07T11:08:45Z</time>
      </trkpt>
      <trkpt lat="38.5004090" lon="-28.5338220">
        <ele>53.8</ele>
        <time>2019-07-07T11:08:48Z</time>
      </trkpt>
      <trkpt lat="38.5003610" lon="-28.5337500">
        <ele>53.6</ele>
        <time>2019-07-07T11:08:50Z</time>
      </trkpt>
      <trkpt lat="38.5001490" lon="-28.5334360">
        <ele>52.4</ele>
        <time>2019-07-07T11:08:58Z</time>
      </trkpt>
      <trkpt lat="38.4999170" lon="-28.5332740">
        <ele>51.8</ele>
        <time>2019-07-07T11:09:03Z</time>
      </trkpt>
      <trkpt lat="38.4998600" lon="-28.5332460">
        <ele>51.7</ele>
        <time>2019-07-07T11:09:04Z</time>
      </trkpt>
      <trkpt lat="38.4996890" lon="-28.5332060">
        <ele>52.8</ele>
        <time>2019-07-07T11:09:07Z</time>
      </trkpt>
      <trkpt lat="38.4996350" lon="-28.5332010">
        <ele>53.2</ele>
        <time>2019-07-07T11:09:08Z</time>
      </trkpt>
      <trkpt lat="38.4994400" lon="-28.5331950">
        <ele>55.3</ele>
        <time>2019-07-07T11:09:12Z</time>
      </trkpt>
      <trkpt lat="38.4994000" lon="-28.5331930">
        <ele>55.8</ele>
        <time>2019-07-07T11:09:13Z</time>
      </trkpt>
      <trkpt lat="38.4993190" lon="-28.5331910">
        <ele>56.7</ele>
        <time>2019-07-07T11:09:15Z</time>
      </trkpt>
      <trkpt lat="38.4992100" lon="-28.5331890">
        <ele>58.0</ele>
        <time>2019-07-07T11:09:18Z</time>
      </trkpt>
      <trkpt lat="38.4991790" lon="-28.5331780">
        <ele>58.3</ele>
        <time>2019-07-07T11:09:19Z</time>
      </trkpt>
      <trkpt lat="38.4991490" lon="-28.5331640">
        <ele>58.6</ele>
        <time>2019-07-07T11:09:20Z</time>
      </trkpt>
      <trkpt lat="38.4990630" lon="-28.5331290">
        <ele>60.4</ele>
        <time>2019-07-07T11:09:23Z</time>
      </trkpt>
      <trkpt lat="38.4990120" lon="-28.5331270">
        <ele>60.8</ele>
        <time>2019-07-07T11:09:25Z</time>
      </trkpt>
      <trkpt lat="38.4989600" lon="-28.5331240">
        <ele>61.1</ele>
        <time>2019-07-07T11:09:27Z</time>
      </trkpt>
      <trkpt lat="38.4987690" lon="-28.5331060">
        <ele>61.7</ele>
        <time>2019-07-07T11:09:33Z</time>
      </trkpt>
      <trkpt lat="38.4987370" lon="-28.5330980">
        <ele>61.7</ele>
        <time>2019-07-07T11:09:34Z</time>
      </trkpt>
      <trkpt lat="38.4984790" lon="-28.5330440">
        <ele>61.5</ele>
        <time>2019-07-07T11:09:42Z</time>
      </trkpt>
      <trkpt lat="38.4984440" lon="-28.5330400">
        <ele>61.4</ele>
        <time>2019-07-07T11:09:43Z</time>
      </trkpt>
      <trkpt lat="38.4982970" lon="-28.5330810">
        <ele>62.1</ele>
        <time>2019-07-07T11:09:47Z</time>
      </trkpt>
      <trkpt lat="38.4982640" lon="-28.5331070">
        <ele>62.3</ele>
        <time>2019-07-07T11:09:48Z</time>
      </trkpt>
      <trkpt lat="38.4981860" lon="-28.5332020">
        <ele>63.2</ele>
        <time>2019-07-07T11:09:51Z</time>
      </trkpt>
      <trkpt lat="38.4981300" lon="-28.5332600">
        <ele>63.2</ele>
        <time>2019-07-07T11:09:53Z</time>
      </trkpt>
      <trkpt lat="38.4979390" lon="-28.5333990">
        <ele>63.0</ele>
        <time>2019-07-07T11:09:59Z</time>
      </trkpt>
      <trkpt lat="38.4978740" lon="-28.5334530">
        <ele>63.2</ele>
        <time>2019-07-07T11:10:01Z</time>
      </trkpt>
      <trkpt lat="38.4977990" lon="-28.5334960">
        <ele>63.3</ele>
        <time>2019-07-07T11:10:03Z</time>
      </trkpt>
      <trkpt lat="38.4977620" lon="-28.5335270">
        <ele>63.3</ele>
        <time>2019-07-07T11:10:04Z</time>
      </trkpt>
      <trkpt lat="38.4976570" lon="-28.5336410">
        <ele>63.2</ele>
        <time>2019-07-07T11:10:07Z</time>
      </trkpt>
      <trkpt lat="38.4975290" lon="-28.5337960">
        <ele>62.0</ele>
        <time>2019-07-07T11:10:11Z</time>
      </trkpt>
      <trkpt lat="38.4974960" lon="-28.5338350">
        <ele>62.0</ele>
        <time>2019-07-07T11:10:12Z</time>
      </trkpt>
      <trkpt lat="38.4973940" lon="-28.5339460">
        <ele>62.0</ele>
        <time>2019-07-07T11:10:15Z</time>
      </trkpt>
      <trkpt lat="38.4973210" lon="-28.5340290">
        <ele>62.2</ele>
        <time>2019-07-07T11:10:17Z</time>
      </trkpt>
      <trkpt lat="38.4972300" lon="-28.5341230">
        <ele>62.5</ele>
        <time>2019-07-07T11:10:19Z</time>
      </trkpt>
      <trkpt lat="38.4971760" lon="-28.5341690">
        <ele>62.7</ele>
        <time>2019-07-07T11:10:20Z</time>
      </trkpt>
      <trkpt lat="38.4971120" lon="-28.5342120">
        <ele>63.0</ele>
        <time>2019-07-07T11:10:21Z</time>
      </trkpt>
      <trkpt lat="38.4970430" lon="-28.5342540">
        <ele>63.3</ele>
        <time>2019-07-07T11:10:22Z</time>
      </trkpt>
      <trkpt lat="38.4968960" lon="-28.5343350">
        <ele>60.6</ele>
        <time>2019-07-07T11:10:24Z</time>
      </trkpt>
      <trkpt lat="38.4967490" lon="-28.5344080">
        <ele>59.3</ele>
        <time>2019-07-07T11:10:26Z</time>
      </trkpt>
      <trkpt lat="38.4965160" lon="-28.5344980">
        <ele>54.6</ele>
        <time>2019-07-07T11:10:29Z</time>
      </trkpt>
      <trkpt lat="38.4962560" lon="-28.5345590">
        <ele>48.7</ele>
        <time>2019-07-07T11:10:32Z</time>
      </trkpt>
      <trkpt lat="38.4960860" lon="-28.5346210">
        <ele>46.4</ele>
        <time>2019-07-07T11:10:34Z</time>
      </trkpt>
      <trkpt lat="38.4959340" lon="-28.5347190">
        <ele>43.3</ele>
        <time>2019-07-07T11:10:36Z</time>
      </trkpt>
      <trkpt lat="38.4958790" lon="-28.5347940">
        <ele>42.3</ele>
        <time>2019-07-07T11:10:37Z</time>
      </trkpt>
      <trkpt lat="38.4957770" lon="-28.5349890">
        <ele>40.8</ele>
        <time>2019-07-07T11:10:39Z</time>
      </trkpt>
      <trkpt lat="38.4957250" lon="-28.5350940">
        <ele>40.1</ele>
        <time>2019-07-07T11:10:40Z</time>
      </trkpt>
      <trkpt lat="38.4956770" lon="-28.5351960">
        <ele>39.4</ele>
        <time>2019-07-07T11:10:41Z</time>
      </trkpt>
      <trkpt lat="38.4955720" lon="-28.5353740">
        <ele>38.2</ele>
        <time>2019-07-07T11:10:43Z</time>
      </trkpt>
      <trkpt lat="38.4954460" lon="-28.5354810">
        <ele>36.9</ele>
        <time>2019-07-07T11:10:45Z</time>
      </trkpt>
      <trkpt lat="38.4952360" lon="-28.5355650">
        <ele>35.2</ele>
        <time>2019-07-07T11:10:48Z</time>
      </trkpt>
      <trkpt lat="38.4951520" lon="-28.5355740">
        <ele>34.9</ele>
        <time>2019-07-07T11:10:49Z</time>
      </trkpt>
      <trkpt lat="38.4949790" lon="-28.5355660">
        <ele>36.3</ele>
        <time>2019-07-07T11:10:51Z</time>
      </trkpt>
      <trkpt lat="38.4948110" lon="-28.5355890">
        <ele>36.2</ele>
        <time>2019-07-07T11:10:53Z</time>
      </trkpt>
      <trkpt lat="38.4946460" lon="-28.5356480">
        <ele>36.7</ele>
        <time>2019-07-07T11:10:55Z</time>
      </trkpt>
      <trkpt lat="38.4945670" lon="-28.5356780">
        <ele>37.1</ele>
        <time>2019-07-07T11:10:56Z</time>
      </trkpt>
      <trkpt lat="38.4944990" lon="-28.5357210">
        <ele>37.8</ele>
        <time>2019-07-07T11:10:57Z</time>
      </trkpt>
      <trkpt lat="38.4944560" lon="-28.5357900">
        <ele>37.7</ele>
        <time>2019-07-07T11:10:58Z</time>
      </trkpt>
      <trkpt lat="38.4944480" lon="-28.5358790">
        <ele>36.9</ele>
        <time>2019-07-07T11:10:59Z</time>
      </trkpt>
      <trkpt lat="38.4944650" lon="-28.5359790">
        <ele>35.9</ele>
        <time>2019-07-07T11:11:00Z</time>
      </trkpt>
      <trkpt lat="38.4945090" lon="-28.5360820">
        <ele>34.8</ele>
        <time>2019-07-07T11:11:01Z</time>
      </trkpt>
      <trkpt lat="38.4945670" lon="-28.5361830">
        <ele>33.4</ele>
        <time>2019-07-07T11:11:02Z</time>
      </trkpt>
      <trkpt lat="38.4947030" lon="-28.5363700">
        <ele>31.0</ele>
        <time>2019-07-07T11:11:04Z</time>
      </trkpt>
      <trkpt lat="38.4947650" lon="-28.5364690">
        <ele>29.5</ele>
        <time>2019-07-07T11:11:05Z</time>
      </trkpt>
      <trkpt lat="38.4948160" lon="-28.5365800">
        <ele>28.3</ele>
        <time>2019-07-07T11:11:06Z</time>
      </trkpt>
      <trkpt lat="38.4948950" lon="-28.5368180">
        <ele>26.1</ele>
        <time>2019-07-07T11:11:08Z</time>
      </trkpt>
      <trkpt lat="38.4949820" lon="-28.5370480">
        <ele>23.8</ele>
        <time>2019-07-07T11:11:10Z</time>
      </trkpt>
      <trkpt lat="38.4950980" lon="-28.5372750">
        <ele>20.9</ele>
        <time>2019-07-07T11:11:12Z</time>
      </trkpt>
      <trkpt lat="38.4951650" lon="-28.5373930">
        <ele>19.5</ele>
        <time>2019-07-07T11:11:13Z</time>
      </trkpt>
      <trkpt lat="38.4953070" lon="-28.5376320">
        <ele>16.4</ele>
        <time>2019-07-07T11:11:15Z</time>
      </trkpt>
      <trkpt lat="38.4953810" lon="-28.5377470">
        <ele>14.5</ele>
        <time>2019-07-07T11:11:16Z</time>
      </trkpt>
      <trkpt lat="38.4954540" lon="-28.5378580">
        <ele>12.7</ele>
        <time>2019-07-07T11:11:17Z</time>
      </trkpt>
      <trkpt lat="38.4955140" lon="-28.5379640">
        <ele>11.1</ele>
        <time>2019-07-07T11:11:18Z</time>
      </trkpt>
      <trkpt lat="38.4955530" lon="-28.5380740">
        <ele>9.8</ele>
        <time>2019-07-07T11:11:19Z</time>
      </trkpt>
      <trkpt lat="38.4955730" lon="-28.5381910">
        <ele>8.7</ele>
        <time>2019-07-07T11:11:20Z</time>
      </trkpt>
      <trkpt lat="38.4955740" lon="-28.5383100">
        <ele>7.7</ele>
        <time>2019-07-07T11:11:21Z</time>
      </trkpt>
      <trkpt lat="38.4955320" lon="-28.5385500">
        <ele>6.1</ele>
        <time>2019-07-07T11:11:23Z</time>
      </trkpt>
      <trkpt lat="38.4954990" lon="-28.5386760">
        <ele>5.8</ele>
        <time>2019-07-07T11:11:24Z</time>
      </trkpt>
      <trkpt lat="38.4954660" lon="-28.5388080">
        <ele>5.4</ele>
        <time>2019-07-07T11:11:25Z</time>
      </trkpt>
      <trkpt lat="38.4954180" lon="-28.5390820">
        <ele>4.0</ele>
        <time>2019-07-07T11:11:27Z</time>
      </trkpt>
      <trkpt lat="38.4954010" lon="-28.5392170">
        <ele>2.4</ele>
        <time>2019-07-07T11:11:28Z</time>
      </trkpt>
      <trkpt lat="38.4953860" lon="-28.5393320">
        <ele>1.3</ele>
        <time>2019-07-07T11:11:29Z</time>
      </trkpt>
      <trkpt lat="38.4953730" lon="-28.5394260">
        <ele>1.3</ele>
        <time>2019-07-07T11:11:30Z</time>
      </trkpt>
      <trkpt lat="38.4953500" lon="-28.5394990">
        <ele>1.4</ele>
        <time>2019-07-07T11:11:31Z</time>
      </trkpt>
      <trkpt lat="38.4953160" lon="-28.5395470">
        <ele>1.5</ele>
        <time>2019-07-07T11:11:32Z</time>
      </trkpt>
      <trkpt lat="38.4952440" lon="-28.5396180">
        <ele>2.4</ele>
        <time>2019-07-07T11:11:34Z</time>
      </trkpt>
      <trkpt lat="38.4951730" lon="-28.5396770">
        <ele>2.6</ele>
        <time>2019-07-07T11:11:36Z</time>
      </trkpt>
      <trkpt lat="38.4951380" lon="-28.5396930">
        <ele>2.9</ele>
        <time>2019-07-07T11:11:37Z</time>
      </trkpt>
      <trkpt lat="38.4950690" lon="-28.5397010">
        <ele>3.4</ele>
        <time>2019-07-07T11:11:39Z</time>
      </trkpt>
      <trkpt lat="38.4950090" lon="-28.5397100">
        <ele>3.8</ele>
        <time>2019-07-07T11:11:41Z</time>
      </trkpt>
      <trkpt lat="38.4949830" lon="-28.5397150">
        <ele>4.0</ele>
        <time>2019-07-07T11:11:42Z</time>
      </trkpt>
      <trkpt lat="38.4949600" lon="-28.5397160">
        <ele>4.1</ele>
        <time>2019-07-07T11:11:43Z</time>
      </trkpt>
      <trkpt lat="38.4948780" lon="-28.5397120">
        <ele>5.3</ele>
        <time>2019-07-07T11:11:46Z</time>
      </trkpt>
      <trkpt lat="38.4948230" lon="-28.5397130">
        <ele>5.9</ele>
        <time>2019-07-07T11:11:48Z</time>
      </trkpt>
      <trkpt lat="38.4947650" lon="-28.5397190">
        <ele>6.7</ele>
        <time>2019-07-07T11:11:50Z</time>
      </trkpt>
      <trkpt lat="38.4946370" lon="-28.5397470">
        <ele>7.3</ele>
        <time>2019-07-07T11:11:54Z</time>
      </trkpt>
      <trkpt lat="38.4945660" lon="-28.5397610">
        <ele>7.3</ele>
        <time>2019-07-07T11:11:56Z</time>
      </trkpt>
      <trkpt lat="38.4945320" lon="-28.5397660">
        <ele>7.4</ele>
        <time>2019-07-07T11:11:57Z</time>
      </trkpt>
      <trkpt lat="38.4943790" lon="-28.5397710">
        <ele>7.9</ele>
        <time>2019-07-07T11:12:01Z</time>
      </trkpt>
      <trkpt lat="38.4941840" lon="-28.5397840">
        <ele>9.5</ele>
        <time>2019-07-07T11:12:06Z</time>
      </trkpt>
      <trkpt lat="38.4941450" lon="-28.5397850">
        <ele>9.9</ele>
        <time>2019-07-07T11:12:07Z</time>
      </trkpt>
      <trkpt lat="38.4939950" lon="-28.5398060">
        <ele>10.1</ele>
        <time>2019-07-07T11:12:11Z</time>
      </trkpt>
      <trkpt lat="38.4939620" lon="-28.5398080">
        <ele>10.1</ele>
        <time>2019-07-07T11:12:12Z</time>
      </trkpt>
      <trkpt lat="38.4939290" lon="-28.5398080">
        <ele>10.2</ele>
        <time>2019-07-07T11:12:13Z</time>
      </trkpt>
      <trkpt lat="38.4938580" lon="-28.5398030">
        <ele>10.2</ele>
        <time>2019-07-07T11:12:15Z</time>
      </trkpt>
      <trkpt lat="38.4936700" lon="-28.5397990">
        <ele>10.4</ele>
        <time>2019-07-07T11:12:20Z</time>
      </trkpt>
      <trkpt lat="38.4933480" lon="-28.5397740">
        <ele>11.1</ele>
        <time>2019-07-07T11:12:28Z</time>
      </trkpt>
      <trkpt lat="38.4930230" lon="-28.5396900">
        <ele>10.6</ele>
        <time>2019-07-07T11:12:35Z</time>
      </trkpt>
      <trkpt lat="38.4926040" lon="-28.5396250">
        <ele>10.9</ele>
        <time>2019-07-07T11:12:43Z</time>
      </trkpt>
      <trkpt lat="38.4921950" lon="-28.5396140">
        <ele>9.5</ele>
        <time>2019-07-07T11:12:50Z</time>
      </trkpt>
      <trkpt lat="38.4921420" lon="-28.5396120">
        <ele>9.2</ele>
        <time>2019-07-07T11:12:51Z</time>
      </trkpt>
      <trkpt lat="38.4917870" lon="-28.5395810">
        <ele>8.2</ele>
        <time>2019-07-07T11:12:58Z</time>
      </trkpt>
      <trkpt lat="38.4914240" lon="-28.5395470">
        <ele>6.7</ele>
        <time>2019-07-07T11:13:06Z</time>
      </trkpt>
      <trkpt lat="38.4912940" lon="-28.5395390">
        <ele>6.2</ele>
        <time>2019-07-07T11:13:09Z</time>
      </trkpt>
      <trkpt lat="38.4910800" lon="-28.5395090">
        <ele>5.7</ele>
        <time>2019-07-07T11:13:14Z</time>
      </trkpt>
      <trkpt lat="38.4910380" lon="-28.5395070">
        <ele>5.6</ele>
        <time>2019-07-07T11:13:15Z</time>
      </trkpt>
      <trkpt lat="38.4907310" lon="-28.5394840">
        <ele>5.4</ele>
        <time>2019-07-07T11:13:22Z</time>
      </trkpt>
      <trkpt lat="38.4905610" lon="-28.5394570">
        <ele>7.4</ele>
        <time>2019-07-07T11:13:26Z</time>
      </trkpt>
      <trkpt lat="38.4904350" lon="-28.5394450">
        <ele>8.5</ele>
        <time>2019-07-07T11:13:29Z</time>
      </trkpt>
      <trkpt lat="38.4900720" lon="-28.5393950">
        <ele>11.2</ele>
        <time>2019-07-07T11:13:37Z</time>
      </trkpt>
      <trkpt lat="38.4896990" lon="-28.5393030">
        <ele>7.2</ele>
        <time>2019-07-07T11:13:44Z</time>
      </trkpt>
      <trkpt lat="38.4892850" lon="-28.5391010">
        <ele>9.1</ele>
        <time>2019-07-07T11:13:52Z</time>
      </trkpt>
      <trkpt lat="38.4889920" lon="-28.5389030">
        <ele>5.9</ele>
        <time>2019-07-07T11:13:58Z</time>
      </trkpt>
      <trkpt lat="38.4887140" lon="-28.5387980">
        <ele>1.8</ele>
        <time>2019-07-07T11:14:03Z</time>
      </trkpt>
      <trkpt lat="38.4886560" lon="-28.5387770">
        <ele>1.6</ele>
        <time>2019-07-07T11:14:04Z</time>
      </trkpt>
      <trkpt lat="38.4885410" lon="-28.5387420">
        <ele>1.4</ele>
        <time>2019-07-07T11:14:06Z</time>
      </trkpt>
      <trkpt lat="38.4883230" lon="-28.5386840">
        <ele>1.3</ele>
        <time>2019-07-07T11:14:10Z</time>
      </trkpt>
      <trkpt lat="38.4881080" lon="-28.5386010">
        <ele>0.2</ele>
        <time>2019-07-07T11:14:14Z</time>
      </trkpt>
      <trkpt lat="38.4879200" lon="-28.5385240">
        <ele>-0.9</ele>
        <time>2019-07-07T11:14:17Z</time>
      </trkpt>
      <trkpt lat="38.4877700" lon="-28.5384850">
        <ele>-0.8</ele>
        <time>2019-07-07T11:14:19Z</time>
      </trkpt>
      <trkpt lat="38.4876860" lon="-28.5384960">
        <ele>-0.7</ele>
        <time>2019-07-07T11:14:20Z</time>
      </trkpt>
      <trkpt lat="38.4876070" lon="-28.5385400">
        <ele>-1.5</ele>
        <time>2019-07-07T11:14:21Z</time>
      </trkpt>
      <trkpt lat="38.4875330" lon="-28.5386090">
        <ele>-1.2</ele>
        <time>2019-07-07T11:14:22Z</time>
      </trkpt>
      <trkpt lat="38.4874620" lon="-28.5386770">
        <ele>-0.6</ele>
        <time>2019-07-07T11:14:23Z</time>
      </trkpt>
      <trkpt lat="38.4873890" lon="-28.5387250">
        <ele>-0.2</ele>
        <time>2019-07-07T11:14:24Z</time>
      </trkpt>
      <trkpt lat="38.4873130" lon="-28.5387530">
        <ele>0.1</ele>
        <time>2019-07-07T11:14:25Z</time>
      </trkpt>
      <trkpt lat="38.4871580" lon="-28.5387600">
        <ele>0.2</ele>
        <time>2019-07-07T11:14:27Z</time>
      </trkpt>
      <trkpt lat="38.4870790" lon="-28.5387430">
        <ele>0.1</ele>
        <time>2019-07-07T11:14:28Z</time>
      </trkpt>
      <trkpt lat="38.4869960" lon="-28.5387200">
        <ele>-0.4</ele>
        <time>2019-07-07T11:14:29Z</time>
      </trkpt>
      <trkpt lat="38.4867530" lon="-28.5386520">
        <ele>0.3</ele>
        <time>2019-07-07T11:14:32Z</time>
      </trkpt>
      <trkpt lat="38.4866790" lon="-28.5386230">
        <ele>0.5</ele>
        <time>2019-07-07T11:14:33Z</time>
      </trkpt>
      <trkpt lat="38.4865740" lon="-28.5385220">
        <ele>6.5</ele>
        <time>2019-07-07T11:14:35Z</time>
      </trkpt>
      <trkpt lat="38.4865470" lon="-28.5384610">
        <ele>7.9</ele>
        <time>2019-07-07T11:14:36Z</time>
      </trkpt>
      <trkpt lat="38.4865230" lon="-28.5383470">
        <ele>10.0</ele>
        <time>2019-07-07T11:14:38Z</time>
      </trkpt>
      <trkpt lat="38.4865150" lon="-28.5382490">
        <ele>11.2</ele>
        <time>2019-07-07T11:14:40Z</time>
      </trkpt>
      <trkpt lat="38.4865100" lon="-28.5382070">
        <ele>11.8</ele>
        <time>2019-07-07T11:14:41Z</time>
      </trkpt>
      <trkpt lat="38.4864970" lon="-28.5381360">
        <ele>12.6</ele>
        <time>2019-07-07T11:14:43Z</time>
      </trkpt>
      <trkpt lat="38.4864860" lon="-28.5380740">
        <ele>13.2</ele>
        <time>2019-07-07T11:14:45Z</time>
      </trkpt>
      <trkpt lat="38.4864800" lon="-28.5380440">
        <ele>13.6</ele>
        <time>2019-07-07T11:14:46Z</time>
      </trkpt>
      <trkpt lat="38.4864610" lon="-28.5379540">
        <ele>14.6</ele>
        <time>2019-07-07T11:14:49Z</time>
      </trkpt>
      <trkpt lat="38.4864560" lon="-28.5379270">
        <ele>15.0</ele>
        <time>2019-07-07T11:14:50Z</time>
      </trkpt>
      <trkpt lat="38.4864530" lon="-28.5379000">
        <ele>15.3</ele>
        <time>2019-07-07T11:14:51Z</time>
      </trkpt>
      <trkpt lat="38.4864460" lon="-28.5378160">
        <ele>16.2</ele>
        <time>2019-07-07T11:14:54Z</time>
      </trkpt>
      <trkpt lat="38.4864210" lon="-28.5376530">
        <ele>17.5</ele>
        <time>2019-07-07T11:14:59Z</time>
      </trkpt>
      <trkpt lat="38.4864050" lon="-28.5375510">
        <ele>18.6</ele>
        <time>2019-07-07T11:15:02Z</time>
      </trkpt>
      <trkpt lat="38.4863360" lon="-28.5374060">
        <ele>20.1</ele>
        <time>2019-07-07T11:15:07Z</time>
      </trkpt>
      <trkpt lat="38.4862230" lon="-28.5373990">
        <ele>19.6</ele>
        <time>2019-07-07T11:15:11Z</time>
      </trkpt>
      <trkpt lat="38.4861700" lon="-28.5374220">
        <ele>19.3</ele>
        <time>2019-07-07T11:15:13Z</time>
      </trkpt>
      <trkpt lat="38.4860000" lon="-28.5374600">
        <ele>19.0</ele>
        <time>2019-07-07T11:15:19Z</time>
      </trkpt>
      <trkpt lat="38.4857530" lon="-28.5374510">
        <ele>19.2</ele>
        <time>2019-07-07T11:15:26Z</time>
      </trkpt>
      <trkpt lat="38.4855740" lon="-28.5374160">
        <ele>19.3</ele>
        <time>2019-07-07T11:15:30Z</time>
      </trkpt>
      <trkpt lat="38.4854900" lon="-28.5374010">
        <ele>19.4</ele>
        <time>2019-07-07T11:15:32Z</time>
      </trkpt>
      <trkpt lat="38.4854490" lon="-28.5373890">
        <ele>19.4</ele>
        <time>2019-07-07T11:15:33Z</time>
      </trkpt>
      <trkpt lat="38.4853270" lon="-28.5373480">
        <ele>19.4</ele>
        <time>2019-07-07T11:15:36Z</time>
      </trkpt>
      <trkpt lat="38.4852320" lon="-28.5373270">
        <ele>19.5</ele>
        <time>2019-07-07T11:15:38Z</time>
      </trkpt>
      <trkpt lat="38.4851260" lon="-28.5373270">
        <ele>19.6</ele>
        <time>2019-07-07T11:15:40Z</time>
      </trkpt>
      <trkpt lat="38.4849080" lon="-28.5373560">
        <ele>20.1</ele>
        <time>2019-07-07T11:15:45Z</time>
      </trkpt>
      <trkpt lat="38.4846660" lon="-28.5373850">
        <ele>20.9</ele>
        <time>2019-07-07T11:15:52Z</time>
      </trkpt>
      <trkpt lat="38.4844240" lon="-28.5373840">
        <ele>21.0</ele>
        <time>2019-07-07T11:15:57Z</time>
      </trkpt>
      <trkpt lat="38.4843730" lon="-28.5373790">
        <ele>21.0</ele>
        <time>2019-07-07T11:15:58Z</time>
      </trkpt>
      <trkpt lat="38.4841380" lon="-28.5373130">
        <ele>21.1</ele>
        <time>2019-07-07T11:16:03Z</time>
      </trkpt>
      <trkpt lat="38.4840970" lon="-28.5372890">
        <ele>21.1</ele>
        <time>2019-07-07T11:16:04Z</time>
      </trkpt>
      <trkpt lat="38.4838920" lon="-28.5371340">
        <ele>21.1</ele>
        <time>2019-07-07T11:16:09Z</time>
      </trkpt>
      <trkpt lat="38.4838190" lon="-28.5370740">
        <ele>21.2</ele>
        <time>2019-07-07T11:16:11Z</time>
      </trkpt>
      <trkpt lat="38.4837560" lon="-28.5370190">
        <ele>21.3</ele>
        <time>2019-07-07T11:16:13Z</time>
      </trkpt>
      <trkpt lat="38.4836770" lon="-28.5369200">
        <ele>21.6</ele>
        <time>2019-07-07T11:16:16Z</time>
      </trkpt>
      <trkpt lat="38.4836510" lon="-28.5368830">
        <ele>21.7</ele>
        <time>2019-07-07T11:16:17Z</time>
      </trkpt>
      <trkpt lat="38.4834970" lon="-28.5366030">
        <ele>22.8</ele>
        <time>2019-07-07T11:16:23Z</time>
      </trkpt>
      <trkpt lat="38.4833560" lon="-28.5362560">
        <ele>24.0</ele>
        <time>2019-07-07T11:16:30Z</time>
      </trkpt>
      <trkpt lat="38.4832020" lon="-28.5359200">
        <ele>24.4</ele>
        <time>2019-07-07T11:16:38Z</time>
      </trkpt>
      <trkpt lat="38.4830610" lon="-28.5356270">
        <ele>24.9</ele>
        <time>2019-07-07T11:16:43Z</time>
      </trkpt>
      <trkpt lat="38.4830220" lon="-28.5355730">
        <ele>25.2</ele>
        <time>2019-07-07T11:16:44Z</time>
      </trkpt>
      <trkpt lat="38.4829100" lon="-28.5354480">
        <ele>26.3</ele>
        <time>2019-07-07T11:16:47Z</time>
      </trkpt>
      <trkpt lat="38.4828340" lon="-28.5353990">
        <ele>26.8</ele>
        <time>2019-07-07T11:16:49Z</time>
      </trkpt>
      <trkpt lat="38.4825760" lon="-28.5352950">
        <ele>27.7</ele>
        <time>2019-07-07T11:16:56Z</time>
      </trkpt>
      <trkpt lat="38.4823070" lon="-28.5352090">
        <ele>27.9</ele>
        <time>2019-07-07T11:17:04Z</time>
      </trkpt>
      <trkpt lat="38.4821070" lon="-28.5351580">
        <ele>27.9</ele>
        <time>2019-07-07T11:17:10Z</time>
      </trkpt>
      <trkpt lat="38.4819450" lon="-28.5350900">
        <ele>27.9</ele>
        <time>2019-07-07T11:17:15Z</time>
      </trkpt>
      <trkpt lat="38.4817250" lon="-28.5349760">
        <ele>26.6</ele>
        <time>2019-07-07T11:17:22Z</time>
      </trkpt>
      <trkpt lat="38.4815910" lon="-28.5349370">
        <ele>25.0</ele>
        <time>2019-07-07T11:17:27Z</time>
      </trkpt>
      <trkpt lat="38.4814980" lon="-28.5349150">
        <ele>23.6</ele>
        <time>2019-07-07T11:17:31Z</time>
      </trkpt>
      <trkpt lat="38.4814740" lon="-28.5349070">
        <ele>23.2</ele>
        <time>2019-07-07T11:17:32Z</time>
      </trkpt>
      <trkpt lat="38.4813850" lon="-28.5348810">
        <ele>21.9</ele>
        <time>2019-07-07T11:17:35Z</time>
      </trkpt>
      <trkpt lat="38.4813530" lon="-28.5348730">
        <ele>21.5</ele>
        <time>2019-07-07T11:17:36Z</time>
      </trkpt>
      <trkpt lat="38.4813230" lon="-28.5348660">
        <ele>21.1</ele>
        <time>2019-07-07T11:17:37Z</time>
      </trkpt>
      <trkpt lat="38.4810890" lon="-28.5347750">
        <ele>19.7</ele>
        <time>2019-07-07T11:17:44Z</time>
      </trkpt>
      <trkpt lat="38.4808820" lon="-28.5346520">
        <ele>20.3</ele>
        <time>2019-07-07T11:17:48Z</time>
      </trkpt>
      <trkpt lat="38.4807410" lon="-28.5345750">
        <ele>20.5</ele>
        <time>2019-07-07T11:17:50Z</time>
      </trkpt>
      <trkpt lat="38.4806010" lon="-28.5345050">
        <ele>20.4</ele>
        <time>2019-07-07T11:17:52Z</time>
      </trkpt>
      <trkpt lat="38.4804760" lon="-28.5344510">
        <ele>20.3</ele>
        <time>2019-07-07T11:17:54Z</time>
      </trkpt>
      <trkpt lat="38.4802310" lon="-28.5343300">
        <ele>20.1</ele>
        <time>2019-07-07T11:17:59Z</time>
      </trkpt>
      <trkpt lat="38.4800140" lon="-28.5341950">
        <ele>19.9</ele>
        <time>2019-07-07T11:18:05Z</time>
      </trkpt>
      <trkpt lat="38.4799250" lon="-28.5341490">
        <ele>19.7</ele>
        <time>2019-07-07T11:18:08Z</time>
      </trkpt>
      <trkpt lat="38.4798600" lon="-28.5341240">
        <ele>19.5</ele>
        <time>2019-07-07T11:18:11Z</time>
      </trkpt>
      <trkpt lat="38.4797960" lon="-28.5341170">
        <ele>19.2</ele>
        <time>2019-07-07T11:18:14Z</time>
      </trkpt>
      <trkpt lat="38.4796810" lon="-28.5340840">
        <ele>18.5</ele>
        <time>2019-07-07T11:18:19Z</time>
      </trkpt>
      <trkpt lat="38.4796510" lon="-28.5340760">
        <ele>18.4</ele>
        <time>2019-07-07T11:18:20Z</time>
      </trkpt>
      <trkpt lat="38.4794290" lon="-28.5339740">
        <ele>17.7</ele>
        <time>2019-07-07T11:18:27Z</time>
      </trkpt>
      <trkpt lat="38.4791920" lon="-28.5337910">
        <ele>17.4</ele>
        <time>2019-07-07T11:18:33Z</time>
      </trkpt>
      <trkpt lat="38.4789860" lon="-28.5335270">
        <ele>17.2</ele>
        <time>2019-07-07T11:18:39Z</time>
      </trkpt>
      <trkpt lat="38.4789100" lon="-28.5334120">
        <ele>16.9</ele>
        <time>2019-07-07T11:18:41Z</time>
      </trkpt>
      <trkpt lat="38.4787590" lon="-28.5331840">
        <ele>15.8</ele>
        <time>2019-07-07T11:18:45Z</time>
      </trkpt>
      <trkpt lat="38.4784310" lon="-28.5328010">
        <ele>10.8</ele>
        <time>2019-07-07T11:18:53Z</time>
      </trkpt>
      <trkpt lat="38.4783920" lon="-28.5327510">
        <ele>9.9</ele>
        <time>2019-07-07T11:18:54Z</time>
      </trkpt>
      <trkpt lat="38.4782840" lon="-28.5326030">
        <ele>7.5</ele>
        <time>2019-07-07T11:18:57Z</time>
      </trkpt>
      <trkpt lat="38.4782500" lon="-28.5325660">
        <ele>6.9</ele>
        <time>2019-07-07T11:18:58Z</time>
      </trkpt>
      <trkpt lat="38.4780380" lon="-28.5323490">
        <ele>5.8</ele>
        <time>2019-07-07T11:19:05Z</time>
      </trkpt>
      <trkpt lat="38.4778320" lon="-28.5321200">
        <ele>7.1</ele>
        <time>2019-07-07T11:19:12Z</time>
      </trkpt>
      <trkpt lat="38.4775930" lon="-28.5319330">
        <ele>8.6</ele>
        <time>2019-07-07T11:19:19Z</time>
      </trkpt>
      <trkpt lat="38.4772620" lon="-28.5317240">
        <ele>9.5</ele>
        <time>2019-07-07T11:19:26Z</time>
      </trkpt>
      <trkpt lat="38.4772160" lon="-28.5316960">
        <ele>9.7</ele>
        <time>2019-07-07T11:19:27Z</time>
      </trkpt>
      <trkpt lat="38.4771310" lon="-28.5316530">
        <ele>9.9</ele>
        <time>2019-07-07T11:19:29Z</time>
      </trkpt>
      <trkpt lat="38.4770460" lon="-28.5316180">
        <ele>10.3</ele>
        <time>2019-07-07T11:19:31Z</time>
      </trkpt>
      <trkpt lat="38.4768250" lon="-28.5315570">
        <ele>11.5</ele>
        <time>2019-07-07T11:19:37Z</time>
      </trkpt>
      <trkpt lat="38.4766360" lon="-28.5315340">
        <ele>11.8</ele>
        <time>2019-07-07T11:19:42Z</time>
      </trkpt>
      <trkpt lat="38.4763220" lon="-28.5315470">
        <ele>11.6</ele>
        <time>2019-07-07T11:19:48Z</time>
      </trkpt>
      <trkpt lat="38.4761350" lon="-28.5315420">
        <ele>11.4</ele>
        <time>2019-07-07T11:19:51Z</time>
      </trkpt>
      <trkpt lat="38.4759450" lon="-28.5314880">
        <ele>11.3</ele>
        <time>2019-07-07T11:19:54Z</time>
      </trkpt>
      <trkpt lat="38.4758110" lon="-28.5314260">
        <ele>11.2</ele>
        <time>2019-07-07T11:19:56Z</time>
      </trkpt>
      <trkpt lat="38.4756020" lon="-28.5313420">
        <ele>11.0</ele>
        <time>2019-07-07T11:19:59Z</time>
      </trkpt>
      <trkpt lat="38.4754550" lon="-28.5313010">
        <ele>10.9</ele>
        <time>2019-07-07T11:20:01Z</time>
      </trkpt>
      <trkpt lat="38.4752100" lon="-28.5312190">
        <ele>10.9</ele>
        <time>2019-07-07T11:20:05Z</time>
      </trkpt>
      <trkpt lat="38.4749810" lon="-28.5311010">
        <ele>11.6</ele>
        <time>2019-07-07T11:20:11Z</time>
      </trkpt>
      <trkpt lat="38.4749260" lon="-28.5310580">
        <ele>11.9</ele>
        <time>2019-07-07T11:20:13Z</time>
      </trkpt>
      <trkpt lat="38.4748780" lon="-28.5310130">
        <ele>12.0</ele>
        <time>2019-07-07T11:20:15Z</time>
      </trkpt>
      <trkpt lat="38.4748150" lon="-28.5309380">
        <ele>12.3</ele>
        <time>2019-07-07T11:20:18Z</time>
      </trkpt>
      <trkpt lat="38.4746350" lon="-28.5307320">
        <ele>13.7</ele>
        <time>2019-07-07T11:20:25Z</time>
      </trkpt>
      <trkpt lat="38.4745600" lon="-28.5306730">
        <ele>14.2</ele>
        <time>2019-07-07T11:20:27Z</time>
      </trkpt>
      <trkpt lat="38.4744090" lon="-28.5305950">
        <ele>14.9</ele>
        <time>2019-07-07T11:20:30Z</time>
      </trkpt>
      <trkpt lat="38.4742740" lon="-28.5305130">
        <ele>15.3</ele>
        <time>2019-07-07T11:20:32Z</time>
      </trkpt>
      <trkpt lat="38.4741130" lon="-28.5304130">
        <ele>15.4</ele>
        <time>2019-07-07T11:20:34Z</time>
      </trkpt>
      <trkpt lat="38.4739400" lon="-28.5302890">
        <ele>16.0</ele>
        <time>2019-07-07T11:20:36Z</time>
      </trkpt>
      <trkpt lat="38.4738570" lon="-28.5302240">
        <ele>16.4</ele>
        <time>2019-07-07T11:20:37Z</time>
      </trkpt>
      <trkpt lat="38.4737720" lon="-28.5301620">
        <ele>16.7</ele>
        <time>2019-07-07T11:20:38Z</time>
      </trkpt>
      <trkpt lat="38.4736010" lon="-28.5300580">
        <ele>16.9</ele>
        <time>2019-07-07T11:20:40Z</time>
      </trkpt>
      <trkpt lat="38.4734310" lon="-28.5299660">
        <ele>16.8</ele>
        <time>2019-07-07T11:20:42Z</time>
      </trkpt>
      <trkpt lat="38.4732200" lon="-28.5298460">
        <ele>16.0</ele>
        <time>2019-07-07T11:20:45Z</time>
      </trkpt>
      <trkpt lat="38.4730320" lon="-28.5297550">
        <ele>15.0</ele>
        <time>2019-07-07T11:20:49Z</time>
      </trkpt>
      <trkpt lat="38.4729550" lon="-28.5297220">
        <ele>14.7</ele>
        <time>2019-07-07T11:20:51Z</time>
      </trkpt>
      <trkpt lat="38.4728480" lon="-28.5296880">
        <ele>14.2</ele>
        <time>2019-07-07T11:20:54Z</time>
      </trkpt>
      <trkpt lat="38.4727800" lon="-28.5296700">
        <ele>13.6</ele>
        <time>2019-07-07T11:20:56Z</time>
      </trkpt>
      <trkpt lat="38.4727210" lon="-28.5296530">
        <ele>13.0</ele>
        <time>2019-07-07T11:20:58Z</time>
      </trkpt>
      <trkpt lat="38.4726210" lon="-28.5295750">
        <ele>11.9</ele>
        <time>2019-07-07T11:21:02Z</time>
      </trkpt>
      <trkpt lat="38.4726100" lon="-28.5295380">
        <ele>11.6</ele>
        <time>2019-07-07T11:21:03Z</time>
      </trkpt>
      <trkpt lat="38.4726240" lon="-28.5294640">
        <ele>10.9</ele>
        <time>2019-07-07T11:21:05Z</time>
      </trkpt>
      <trkpt lat="38.4727530" lon="-28.5291660">
        <ele>13.7</ele>
        <time>2019-07-07T11:21:13Z</time>
      </trkpt>
      <trkpt lat="38.4728950" lon="-28.5288710">
        <ele>17.8</ele>
        <time>2019-07-07T11:21:21Z</time>
      </trkpt>
      <trkpt lat="38.4729460" lon="-28.5287690">
        <ele>19.5</ele>
        <time>2019-07-07T11:21:24Z</time>
      </trkpt>
      <trkpt lat="38.4729800" lon="-28.5286980">
        <ele>20.8</ele>
        <time>2019-07-07T11:21:27Z</time>
      </trkpt>
      <trkpt lat="38.4729890" lon="-28.5286790">
        <ele>21.1</ele>
        <time>2019-07-07T11:21:28Z</time>
      </trkpt>
      <trkpt lat="38.4730270" lon="-28.5285940">
        <ele>22.5</ele>
        <time>2019-07-07T11:21:32Z</time>
      </trkpt>
      <trkpt lat="38.4730450" lon="-28.5285510">
        <ele>23.2</ele>
        <time>2019-07-07T11:21:34Z</time>
      </trkpt>
      <trkpt lat="38.4730670" lon="-28.5284980">
        <ele>24.0</ele>
        <time>2019-07-07T11:21:37Z</time>
      </trkpt>
      <trkpt lat="38.4730920" lon="-28.5284280">
        <ele>25.1</ele>
        <time>2019-07-07T11:21:41Z</time>
      </trkpt>
      <trkpt lat="38.4730990" lon="-28.5284110">
        <ele>25.3</ele>
        <time>2019-07-07T11:21:42Z</time>
      </trkpt>
      <trkpt lat="38.4731190" lon="-28.5283520">
        <ele>26.1</ele>
        <time>2019-07-07T11:21:45Z</time>
      </trkpt>
      <trkpt lat="38.4731470" lon="-28.5282720">
        <ele>27.1</ele>
        <time>2019-07-07T11:21:49Z</time>
      </trkpt>
      <trkpt lat="38.4731530" lon="-28.5282530">
        <ele>27.3</ele>
        <time>2019-07-07T11:21:50Z</time>
      </trkpt>
      <trkpt lat="38.4731940" lon="-28.5281370">
        <ele>28.7</ele>
        <time>2019-07-07T11:21:56Z</time>
      </trkpt>
      <trkpt lat="38.4732090" lon="-28.5281050">
        <ele>29.1</ele>
        <time>2019-07-07T11:21:58Z</time>
      </trkpt>
      <trkpt lat="38.4732560" lon="-28.5280040">
        <ele>30.2</ele>
        <time>2019-07-07T11:22:04Z</time>
      </trkpt>
      <trkpt lat="38.4732740" lon="-28.5279590">
        <ele>30.7</ele>
        <time>2019-07-07T11:22:06Z</time>
      </trkpt>
      <trkpt lat="38.4733380" lon="-28.5277400">
        <ele>33.4</ele>
        <time>2019-07-07T11:22:13Z</time>
      </trkpt>
      <trkpt lat="38.4733500" lon="-28.5277160">
        <ele>33.8</ele>
        <time>2019-07-07T11:22:14Z</time>
      </trkpt>
      <trkpt lat="38.4734310" lon="-28.5276260">
        <ele>35.7</ele>
        <time>2019-07-07T11:22:19Z</time>
      </trkpt>
      <trkpt lat="38.4735730" lon="-28.5275250">
        <ele>38.3</ele>
        <time>2019-07-07T11:22:26Z</time>
      </trkpt>
      <trkpt lat="38.4736650" lon="-28.5274390">
        <ele>39.7</ele>
        <time>2019-07-07T11:22:30Z</time>
      </trkpt>
      <trkpt lat="38.4737370" lon="-28.5273410">
        <ele>40.8</ele>
        <time>2019-07-07T11:22:33Z</time>
      </trkpt>
      <trkpt lat="38.4737930" lon="-28.5272180">
        <ele>41.9</ele>
        <time>2019-07-07T11:22:36Z</time>
      </trkpt>
      <trkpt lat="38.4738360" lon="-28.5271100">
        <ele>42.7</ele>
        <time>2019-07-07T11:22:39Z</time>
      </trkpt>
      <trkpt lat="38.4739320" lon="-28.5268420">
        <ele>45.0</ele>
        <time>2019-07-07T11:22:46Z</time>
      </trkpt>
      <trkpt lat="38.4739560" lon="-28.5268020">
        <ele>45.4</ele>
        <time>2019-07-07T11:22:47Z</time>
      </trkpt>
      <trkpt lat="38.4740950" lon="-28.5265870">
        <ele>47.5</ele>
        <time>2019-07-07T11:22:53Z</time>
      </trkpt>
      <trkpt lat="38.4741170" lon="-28.5265530">
        <ele>47.7</ele>
        <time>2019-07-07T11:22:54Z</time>
      </trkpt>
      <trkpt lat="38.4741730" lon="-28.5264430">
        <ele>48.5</ele>
        <time>2019-07-07T11:22:57Z</time>
      </trkpt>
      <trkpt lat="38.4741970" lon="-28.5263600">
        <ele>49.1</ele>
        <time>2019-07-07T11:22:59Z</time>
      </trkpt>
      <trkpt lat="38.4742300" lon="-28.5260800">
        <ele>51.3</ele>
        <time>2019-07-07T11:23:05Z</time>
      </trkpt>
      <trkpt lat="38.4742560" lon="-28.5258500">
        <ele>53.0</ele>
        <time>2019-07-07T11:23:10Z</time>
      </trkpt>
      <trkpt lat="38.4742510" lon="-28.5257970">
        <ele>53.4</ele>
        <time>2019-07-07T11:23:11Z</time>
      </trkpt>
      <trkpt lat="38.4742440" lon="-28.5257470">
        <ele>53.7</ele>
        <time>2019-07-07T11:23:12Z</time>
      </trkpt>
      <trkpt lat="38.4742250" lon="-28.5256600">
        <ele>54.3</ele>
        <time>2019-07-07T11:23:14Z</time>
      </trkpt>
      <trkpt lat="38.4742040" lon="-28.5255990">
        <ele>54.6</ele>
        <time>2019-07-07T11:23:16Z</time>
      </trkpt>
      <trkpt lat="38.4741640" lon="-28.5255120">
        <ele>55.0</ele>
        <time>2019-07-07T11:23:19Z</time>
      </trkpt>
      <trkpt lat="38.4741200" lon="-28.5254490">
        <ele>55.2</ele>
        <time>2019-07-07T11:23:21Z</time>
      </trkpt>
      <trkpt lat="38.4740490" lon="-28.5253940">
        <ele>55.1</ele>
        <time>2019-07-07T11:23:23Z</time>
      </trkpt>
      <trkpt lat="38.4739480" lon="-28.5253520">
        <ele>54.9</ele>
        <time>2019-07-07T11:23:25Z</time>
      </trkpt>
      <trkpt lat="38.4736030" lon="-28.5252610">
        <ele>57.3</ele>
        <time>2019-07-07T11:23:31Z</time>
      </trkpt>
      <trkpt lat="38.4735670" lon="-28.5252520">
        <ele>57.5</ele>
        <time>2019-07-07T11:23:32Z</time>
      </trkpt>
      <trkpt lat="38.4735190" lon="-28.5252450">
        <ele>57.8</ele>
        <time>2019-07-07T11:23:34Z</time>
      </trkpt>
      <trkpt lat="38.4734980" lon="-28.5252400">
        <ele>57.8</ele>
        <time>2019-07-07T11:23:35Z</time>
      </trkpt>
      <trkpt lat="38.4734780" lon="-28.5252350">
        <ele>57.8</ele>
        <time>2019-07-07T11:23:36Z</time>
      </trkpt>
      <trkpt lat="38.4733820" lon="-28.5252070">
        <ele>57.9</ele>
        <time>2019-07-07T11:23:40Z</time>
      </trkpt>
      <trkpt lat="38.4733130" lon="-28.5251770">
        <ele>57.7</ele>
        <time>2019-07-07T11:23:42Z</time>
      </trkpt>
      <trkpt lat="38.4730530" lon="-28.5249930">
        <ele>56.3</ele>
        <time>2019-07-07T11:23:48Z</time>
      </trkpt>
      <trkpt lat="38.4730040" lon="-28.5249610">
        <ele>56.0</ele>
        <time>2019-07-07T11:23:49Z</time>
      </trkpt>
      <trkpt lat="38.4728330" lon="-28.5248800">
        <ele>55.1</ele>
        <time>2019-07-07T11:23:52Z</time>
      </trkpt>
      <trkpt lat="38.4727720" lon="-28.5248600">
        <ele>54.9</ele>
        <time>2019-07-07T11:23:53Z</time>
      </trkpt>
      <trkpt lat="38.4727130" lon="-28.5248430">
        <ele>54.7</ele>
        <time>2019-07-07T11:23:54Z</time>
      </trkpt>
      <trkpt lat="38.4725950" lon="-28.5248030">
        <ele>54.1</ele>
        <time>2019-07-07T11:23:56Z</time>
      </trkpt>
      <trkpt lat="38.4725400" lon="-28.5247740">
        <ele>53.9</ele>
        <time>2019-07-07T11:23:57Z</time>
      </trkpt>
      <trkpt lat="38.4724870" lon="-28.5247400">
        <ele>53.7</ele>
        <time>2019-07-07T11:23:58Z</time>
      </trkpt>
      <trkpt lat="38.4723790" lon="-28.5246680">
        <ele>53.2</ele>
        <time>2019-07-07T11:24:00Z</time>
      </trkpt>
      <trkpt lat="38.4723210" lon="-28.5246270">
        <ele>52.7</ele>
        <time>2019-07-07T11:24:01Z</time>
      </trkpt>
      <trkpt lat="38.4721510" lon="-28.5244930">
        <ele>51.9</ele>
        <time>2019-07-07T11:24:04Z</time>
      </trkpt>
      <trkpt lat="38.4719940" lon="-28.5243310">
        <ele>51.7</ele>
        <time>2019-07-07T11:24:07Z</time>
      </trkpt>
      <trkpt lat="38.4719110" lon="-28.5241930">
        <ele>52.1</ele>
        <time>2019-07-07T11:24:09Z</time>
      </trkpt>
      <trkpt lat="38.4718470" lon="-28.5240450">
        <ele>52.7</ele>
        <time>2019-07-07T11:24:11Z</time>
      </trkpt>
      <trkpt lat="38.4718040" lon="-28.5239220">
        <ele>53.2</ele>
        <time>2019-07-07T11:24:13Z</time>
      </trkpt>
      <trkpt lat="38.4717470" lon="-28.5236680">
        <ele>53.4</ele>
        <time>2019-07-07T11:24:18Z</time>
      </trkpt>
      <trkpt lat="38.4717310" lon="-28.5236150">
        <ele>53.4</ele>
        <time>2019-07-07T11:24:19Z</time>
      </trkpt>
      <trkpt lat="38.4717080" lon="-28.5235620">
        <ele>53.4</ele>
        <time>2019-07-07T11:24:20Z</time>
      </trkpt>
      <trkpt lat="38.4716190" lon="-28.5234810">
        <ele>53.5</ele>
        <time>2019-07-07T11:24:22Z</time>
      </trkpt>
      <trkpt lat="38.4713340" lon="-28.5233770">
        <ele>53.8</ele>
        <time>2019-07-07T11:24:27Z</time>
      </trkpt>
      <trkpt lat="38.4712250" lon="-28.5233590">
        <ele>52.9</ele>
        <time>2019-07-07T11:24:29Z</time>
      </trkpt>
      <trkpt lat="38.4710810" lon="-28.5233300">
        <ele>51.1</ele>
        <time>2019-07-07T11:24:31Z</time>
      </trkpt>
      <trkpt lat="38.4709250" lon="-28.5232850">
        <ele>49.7</ele>
        <time>2019-07-07T11:24:33Z</time>
      </trkpt>
      <trkpt lat="38.4706750" lon="-28.5232380">
        <ele>48.7</ele>
        <time>2019-07-07T11:24:36Z</time>
      </trkpt>
      <trkpt lat="38.4705990" lon="-28.5232120">
        <ele>48.7</ele>
        <time>2019-07-07T11:24:37Z</time>
      </trkpt>
      <trkpt lat="38.4703540" lon="-28.5231160">
        <ele>48.5</ele>
        <time>2019-07-07T11:24:41Z</time>
      </trkpt>
      <trkpt lat="38.4702560" lon="-28.5230530">
        <ele>48.4</ele>
        <time>2019-07-07T11:24:43Z</time>
      </trkpt>
      <trkpt lat="38.4701760" lon="-28.5229540">
        <ele>48.2</ele>
        <time>2019-07-07T11:24:45Z</time>
      </trkpt>
      <trkpt lat="38.4700940" lon="-28.5228290">
        <ele>47.9</ele>
        <time>2019-07-07T11:24:47Z</time>
      </trkpt>
      <trkpt lat="38.4699960" lon="-28.5227310">
        <ele>47.6</ele>
        <time>2019-07-07T11:24:49Z</time>
      </trkpt>
      <trkpt lat="38.4697690" lon="-28.5226740">
        <ele>46.1</ele>
        <time>2019-07-07T11:24:53Z</time>
      </trkpt>
      <trkpt lat="38.4696280" lon="-28.5226760">
        <ele>43.8</ele>
        <time>2019-07-07T11:24:55Z</time>
      </trkpt>
      <trkpt lat="38.4694670" lon="-28.5226890">
        <ele>40.1</ele>
        <time>2019-07-07T11:24:57Z</time>
      </trkpt>
      <trkpt lat="38.4693840" lon="-28.5227180">
        <ele>38.4</ele>
        <time>2019-07-07T11:24:58Z</time>
      </trkpt>
      <trkpt lat="38.4692940" lon="-28.5227540">
        <ele>37.2</ele>
        <time>2019-07-07T11:24:59Z</time>
      </trkpt>
      <trkpt lat="38.4692020" lon="-28.5227750">
        <ele>36.6</ele>
        <time>2019-07-07T11:25:00Z</time>
      </trkpt>
      <trkpt lat="38.4691140" lon="-28.5227750">
        <ele>36.4</ele>
        <time>2019-07-07T11:25:01Z</time>
      </trkpt>
      <trkpt lat="38.4690270" lon="-28.5227600">
        <ele>36.5</ele>
        <time>2019-07-07T11:25:02Z</time>
      </trkpt>
      <trkpt lat="38.4689420" lon="-28.5227430">
        <ele>37.0</ele>
        <time>2019-07-07T11:25:03Z</time>
      </trkpt>
      <trkpt lat="38.4687890" lon="-28.5227250">
        <ele>38.3</ele>
        <time>2019-07-07T11:25:05Z</time>
      </trkpt>
      <trkpt lat="38.4686610" lon="-28.5227090">
        <ele>39.0</ele>
        <time>2019-07-07T11:25:07Z</time>
      </trkpt>
      <trkpt lat="38.4685430" lon="-28.5226370">
        <ele>39.6</ele>
        <time>2019-07-07T11:25:09Z</time>
      </trkpt>
      <trkpt lat="38.4682860" lon="-28.5224910">
        <ele>38.8</ele>
        <time>2019-07-07T11:25:13Z</time>
      </trkpt>
      <trkpt lat="38.4682190" lon="-28.5224630">
        <ele>38.6</ele>
        <time>2019-07-07T11:25:14Z</time>
      </trkpt>
      <trkpt lat="38.4678960" lon="-28.5223040">
        <ele>37.3</ele>
        <time>2019-07-07T11:25:19Z</time>
      </trkpt>
      <trkpt lat="38.4677910" lon="-28.5222580">
        <ele>36.2</ele>
        <time>2019-07-07T11:25:21Z</time>
      </trkpt>
      <trkpt lat="38.4676710" lon="-28.5222180">
        <ele>34.3</ele>
        <time>2019-07-07T11:25:23Z</time>
      </trkpt>
      <trkpt lat="38.4675990" lon="-28.5222040">
        <ele>33.2</ele>
        <time>2019-07-07T11:25:24Z</time>
      </trkpt>
      <trkpt lat="38.4673300" lon="-28.5221670">
        <ele>29.7</ele>
        <time>2019-07-07T11:25:27Z</time>
      </trkpt>
      <trkpt lat="38.4672360" lon="-28.5221380">
        <ele>28.3</ele>
        <time>2019-07-07T11:25:28Z</time>
      </trkpt>
      <trkpt lat="38.4671480" lon="-28.5220930">
        <ele>27.1</ele>
        <time>2019-07-07T11:25:29Z</time>
      </trkpt>
      <trkpt lat="38.4669750" lon="-28.5219830">
        <ele>25.4</ele>
        <time>2019-07-07T11:25:31Z</time>
      </trkpt>
      <trkpt lat="38.4668870" lon="-28.5219330">
        <ele>24.8</ele>
        <time>2019-07-07T11:25:32Z</time>
      </trkpt>
      <trkpt lat="38.4667970" lon="-28.5218890">
        <ele>24.3</ele>
        <time>2019-07-07T11:25:33Z</time>
      </trkpt>
      <trkpt lat="38.4667050" lon="-28.5218510">
        <ele>23.7</ele>
        <time>2019-07-07T11:25:34Z</time>
      </trkpt>
      <trkpt lat="38.4666110" lon="-28.5218250">
        <ele>23.2</ele>
        <time>2019-07-07T11:25:35Z</time>
      </trkpt>
      <trkpt lat="38.4665150" lon="-28.5218100">
        <ele>22.8</ele>
        <time>2019-07-07T11:25:36Z</time>
      </trkpt>
      <trkpt lat="38.4664200" lon="-28.5217900">
        <ele>22.5</ele>
        <time>2019-07-07T11:25:37Z</time>
      </trkpt>
      <trkpt lat="38.4662540" lon="-28.5217050">
        <ele>22.0</ele>
        <time>2019-07-07T11:25:39Z</time>
      </trkpt>
      <trkpt lat="38.4661060" lon="-28.5216170">
        <ele>20.7</ele>
        <time>2019-07-07T11:25:41Z</time>
      </trkpt>
      <trkpt lat="38.4658930" lon="-28.5214900">
        <ele>18.9</ele>
        <time>2019-07-07T11:25:44Z</time>
      </trkpt>
      <trkpt lat="38.4658280" lon="-28.5214480">
        <ele>18.3</ele>
        <time>2019-07-07T11:25:45Z</time>
      </trkpt>
      <trkpt lat="38.4656230" lon="-28.5213250">
        <ele>16.7</ele>
        <time>2019-07-07T11:25:48Z</time>
      </trkpt>
      <trkpt lat="38.4655440" lon="-28.5212800">
        <ele>16.2</ele>
        <time>2019-07-07T11:25:49Z</time>
      </trkpt>
      <trkpt lat="38.4653820" lon="-28.5211780">
        <ele>15.4</ele>
        <time>2019-07-07T11:25:51Z</time>
      </trkpt>
      <trkpt lat="38.4653140" lon="-28.5211070">
        <ele>15.3</ele>
        <time>2019-07-07T11:25:52Z</time>
      </trkpt>
      <trkpt lat="38.4652560" lon="-28.5210220">
        <ele>15.3</ele>
        <time>2019-07-07T11:25:53Z</time>
      </trkpt>
      <trkpt lat="38.4651500" lon="-28.5208290">
        <ele>15.7</ele>
        <time>2019-07-07T11:25:55Z</time>
      </trkpt>
      <trkpt lat="38.4650660" lon="-28.5206450">
        <ele>16.8</ele>
        <time>2019-07-07T11:25:57Z</time>
      </trkpt>
      <trkpt lat="38.4650350" lon="-28.5205660">
        <ele>17.2</ele>
        <time>2019-07-07T11:25:58Z</time>
      </trkpt>
      <trkpt lat="38.4649490" lon="-28.5203460">
        <ele>18.9</ele>
        <time>2019-07-07T11:26:02Z</time>
      </trkpt>
      <trkpt lat="38.4648510" lon="-28.5202120">
        <ele>19.9</ele>
        <time>2019-07-07T11:26:06Z</time>
      </trkpt>
      <trkpt lat="38.4648200" lon="-28.5201830">
        <ele>20.2</ele>
        <time>2019-07-07T11:26:07Z</time>
      </trkpt>
      <trkpt lat="38.4647570" lon="-28.5201260">
        <ele>20.7</ele>
        <time>2019-07-07T11:26:09Z</time>
      </trkpt>
      <trkpt lat="38.4646580" lon="-28.5200540">
        <ele>20.9</ele>
        <time>2019-07-07T11:26:13Z</time>
      </trkpt>
      <trkpt lat="38.4645620" lon="-28.5200500">
        <ele>19.8</ele>
        <time>2019-07-07T11:26:16Z</time>
      </trkpt>
      <trkpt lat="38.4645230" lon="-28.5200700">
        <ele>19.2</ele>
        <time>2019-07-07T11:26:17Z</time>
      </trkpt>
      <trkpt lat="38.4644130" lon="-28.5201650">
        <ele>17.5</ele>
        <time>2019-07-07T11:26:20Z</time>
      </trkpt>
      <trkpt lat="38.4643240" lon="-28.5202140">
        <ele>16.4</ele>
        <time>2019-07-07T11:26:22Z</time>
      </trkpt>
      <trkpt lat="38.4642710" lon="-28.5202360">
        <ele>15.8</ele>
        <time>2019-07-07T11:26:23Z</time>
      </trkpt>
      <trkpt lat="38.4640810" lon="-28.5202630">
        <ele>14.1</ele>
        <time>2019-07-07T11:26:26Z</time>
      </trkpt>
      <trkpt lat="38.4639530" lon="-28.5202500">
        <ele>13.1</ele>
        <time>2019-07-07T11:26:28Z</time>
      </trkpt>
      <trkpt lat="38.4637040" lon="-28.5201810">
        <ele>12.8</ele>
        <time>2019-07-07T11:26:32Z</time>
      </trkpt>
      <trkpt lat="38.4634540" lon="-28.5200400">
        <ele>12.5</ele>
        <time>2019-07-07T11:26:37Z</time>
      </trkpt>
      <trkpt lat="38.4633520" lon="-28.5199940">
        <ele>11.8</ele>
        <time>2019-07-07T11:26:39Z</time>
      </trkpt>
      <trkpt lat="38.4632680" lon="-28.5199830">
        <ele>11.2</ele>
        <time>2019-07-07T11:26:41Z</time>
      </trkpt>
      <trkpt lat="38.4631420" lon="-28.5200190">
        <ele>10.2</ele>
        <time>2019-07-07T11:26:45Z</time>
      </trkpt>
      <trkpt lat="38.4630690" lon="-28.5200430">
        <ele>9.4</ele>
        <time>2019-07-07T11:26:47Z</time>
      </trkpt>
      <trkpt lat="38.4629800" lon="-28.5200610">
        <ele>8.4</ele>
        <time>2019-07-07T11:26:49Z</time>
      </trkpt>
      <trkpt lat="38.4628780" lon="-28.5200490">
        <ele>7.3</ele>
        <time>2019-07-07T11:26:51Z</time>
      </trkpt>
      <trkpt lat="38.4627240" lon="-28.5199920">
        <ele>5.9</ele>
        <time>2019-07-07T11:26:54Z</time>
      </trkpt>
      <trkpt lat="38.4625900" lon="-28.5199180">
        <ele>4.9</ele>
        <time>2019-07-07T11:26:57Z</time>
      </trkpt>
      <trkpt lat="38.4625040" lon="-28.5198640">
        <ele>4.3</ele>
        <time>2019-07-07T11:26:59Z</time>
      </trkpt>
      <trkpt lat="38.4623660" lon="-28.5198050">
        <ele>3.7</ele>
        <time>2019-07-07T11:27:02Z</time>
      </trkpt>
      <trkpt lat="38.4623160" lon="-28.5197960">
        <ele>3.6</ele>
        <time>2019-07-07T11:27:03Z</time>
      </trkpt>
      <trkpt lat="38.4620770" lon="-28.5198020">
        <ele>3.5</ele>
        <time>2019-07-07T11:27:08Z</time>
      </trkpt>
      <trkpt lat="38.4618430" lon="-28.5198350">
        <ele>3.5</ele>
        <time>2019-07-07T11:27:14Z</time>
      </trkpt>
      <trkpt lat="38.4615960" lon="-28.5198320">
        <ele>3.3</ele>
        <time>2019-07-07T11:27:20Z</time>
      </trkpt>
      <trkpt lat="38.4615270" lon="-28.5198280">
        <ele>3.1</ele>
        <time>2019-07-07T11:27:22Z</time>
      </trkpt>
      <trkpt lat="38.4614640" lon="-28.5198130">
        <ele>2.8</ele>
        <time>2019-07-07T11:27:24Z</time>
      </trkpt>
      <trkpt lat="38.4614130" lon="-28.5197610">
        <ele>2.5</ele>
        <time>2019-07-07T11:27:26Z</time>
      </trkpt>
      <trkpt lat="38.4613740" lon="-28.5196280">
        <ele>6.1</ele>
        <time>2019-07-07T11:27:30Z</time>
      </trkpt>
      <trkpt lat="38.4613860" lon="-28.5195140">
        <ele>8.6</ele>
        <time>2019-07-07T11:27:35Z</time>
      </trkpt>
      <trkpt lat="38.4613870" lon="-28.5194910">
        <ele>9.1</ele>
        <time>2019-07-07T11:27:36Z</time>
      </trkpt>
      <trkpt lat="38.4613890" lon="-28.5194170">
        <ele>10.9</ele>
        <time>2019-07-07T11:27:39Z</time>
      </trkpt>
      <trkpt lat="38.4613810" lon="-28.5193170">
        <ele>13.5</ele>
        <time>2019-07-07T11:27:43Z</time>
      </trkpt>
      <trkpt lat="38.4613780" lon="-28.5192940">
        <ele>13.9</ele>
        <time>2019-07-07T11:27:44Z</time>
      </trkpt>
      <trkpt lat="38.4613530" lon="-28.5191960">
        <ele>15.3</ele>
        <time>2019-07-07T11:27:48Z</time>
      </trkpt>
      <trkpt lat="38.4613410" lon="-28.5190910">
        <ele>16.9</ele>
        <time>2019-07-07T11:27:52Z</time>
      </trkpt>
      <trkpt lat="38.4613460" lon="-28.5189660">
        <ele>19.0</ele>
        <time>2019-07-07T11:27:56Z</time>
      </trkpt>
      <trkpt lat="38.4613630" lon="-28.5188750">
        <ele>20.1</ele>
        <time>2019-07-07T11:27:59Z</time>
      </trkpt>
      <trkpt lat="38.4613900" lon="-28.5187240">
        <ele>21.8</ele>
        <time>2019-07-07T11:28:04Z</time>
      </trkpt>
      <trkpt lat="38.4614000" lon="-28.5186230">
        <ele>23.0</ele>
        <time>2019-07-07T11:28:07Z</time>
      </trkpt>
      <trkpt lat="38.4614150" lon="-28.5185180">
        <ele>24.3</ele>
        <time>2019-07-07T11:28:10Z</time>
      </trkpt>
      <trkpt lat="38.4614200" lon="-28.5184220">
        <ele>25.1</ele>
        <time>2019-07-07T11:28:13Z</time>
      </trkpt>
      <trkpt lat="38.4614220" lon="-28.5183920">
        <ele>25.3</ele>
        <time>2019-07-07T11:28:14Z</time>
      </trkpt>
      <trkpt lat="38.4614240" lon="-28.5183030">
        <ele>26.0</ele>
        <time>2019-07-07T11:28:17Z</time>
      </trkpt>
      <trkpt lat="38.4614300" lon="-28.5181820">
        <ele>27.4</ele>
        <time>2019-07-07T11:28:21Z</time>
      </trkpt>
      <trkpt lat="38.4614330" lon="-28.5180890">
        <ele>28.1</ele>
        <time>2019-07-07T11:28:24Z</time>
      </trkpt>
      <trkpt lat="38.4614390" lon="-28.5179520">
        <ele>29.1</ele>
        <time>2019-07-07T11:28:29Z</time>
      </trkpt>
      <trkpt lat="38.4614430" lon="-28.5178810">
        <ele>29.7</ele>
        <time>2019-07-07T11:28:32Z</time>
      </trkpt>
      <trkpt lat="38.4614500" lon="-28.5177310">
        <ele>30.8</ele>
        <time>2019-07-07T11:28:38Z</time>
      </trkpt>
      <trkpt lat="38.4614680" lon="-28.5175070">
        <ele>32.8</ele>
        <time>2019-07-07T11:28:47Z</time>
      </trkpt>
      <trkpt lat="38.4614890" lon="-28.5173430">
        <ele>34.4</ele>
        <time>2019-07-07T11:28:53Z</time>
      </trkpt>
      <trkpt lat="38.4614940" lon="-28.5173120">
        <ele>34.7</ele>
        <time>2019-07-07T11:28:54Z</time>
      </trkpt>
      <trkpt lat="38.4615100" lon="-28.5171340">
        <ele>36.1</ele>
        <time>2019-07-07T11:29:00Z</time>
      </trkpt>
      <trkpt lat="38.4615170" lon="-28.5170370">
        <ele>36.8</ele>
        <time>2019-07-07T11:29:03Z</time>
      </trkpt>
      <trkpt lat="38.4615260" lon="-28.5169120">
        <ele>37.8</ele>
        <time>2019-07-07T11:29:07Z</time>
      </trkpt>
      <trkpt lat="38.4615400" lon="-28.5167350">
        <ele>39.0</ele>
        <time>2019-07-07T11:29:13Z</time>
      </trkpt>
      <trkpt lat="38.4615440" lon="-28.5167050">
        <ele>39.2</ele>
        <time>2019-07-07T11:29:14Z</time>
      </trkpt>
      <trkpt lat="38.4615880" lon="-28.5164780">
        <ele>41.0</ele>
        <time>2019-07-07T11:29:21Z</time>
      </trkpt>
      <trkpt lat="38.4615930" lon="-28.5164480">
        <ele>41.3</ele>
        <time>2019-07-07T11:29:22Z</time>
      </trkpt>
      <trkpt lat="38.4615680" lon="-28.5162960">
        <ele>42.8</ele>
        <time>2019-07-07T11:29:27Z</time>
      </trkpt>
      <trkpt lat="38.4615570" lon="-28.5162660">
        <ele>43.0</ele>
        <time>2019-07-07T11:29:28Z</time>
      </trkpt>
      <trkpt lat="38.4614560" lon="-28.5161060">
        <ele>44.5</ele>
        <time>2019-07-07T11:29:34Z</time>
      </trkpt>
      <trkpt lat="38.4613860" lon="-28.5160040">
        <ele>45.1</ele>
        <time>2019-07-07T11:29:38Z</time>
      </trkpt>
      <trkpt lat="38.4613610" lon="-28.5159530">
        <ele>45.4</ele>
        <time>2019-07-07T11:29:40Z</time>
      </trkpt>
      <trkpt lat="38.4613220" lon="-28.5158760">
        <ele>46.1</ele>
        <time>2019-07-07T11:29:43Z</time>
      </trkpt>
      <trkpt lat="38.4612600" lon="-28.5157670">
        <ele>47.0</ele>
        <time>2019-07-07T11:29:47Z</time>
      </trkpt>
      <trkpt lat="38.4612050" lon="-28.5156330">
        <ele>47.9</ele>
        <time>2019-07-07T11:29:52Z</time>
      </trkpt>
      <trkpt lat="38.4611900" lon="-28.5155820">
        <ele>48.2</ele>
        <time>2019-07-07T11:29:54Z</time>
      </trkpt>
      <trkpt lat="38.4611870" lon="-28.5155530">
        <ele>48.4</ele>
        <time>2019-07-07T11:29:55Z</time>
      </trkpt>
      <trkpt lat="38.4611860" lon="-28.5154760">
        <ele>48.7</ele>
        <time>2019-07-07T11:29:58Z</time>
      </trkpt>
      <trkpt lat="38.4611870" lon="-28.5154520">
        <ele>48.9</ele>
        <time>2019-07-07T11:29:59Z</time>
      </trkpt>
      <trkpt lat="38.4612190" lon="-28.5153550">
        <ele>49.4</ele>
        <time>2019-07-07T11:30:03Z</time>
      </trkpt>
      <trkpt lat="38.4612490" lon="-28.5153040">
        <ele>49.8</ele>
        <time>2019-07-07T11:30:05Z</time>
      </trkpt>
      <trkpt lat="38.4613770" lon="-28.5151800">
        <ele>51.0</ele>
        <time>2019-07-07T11:30:12Z</time>
      </trkpt>
      <trkpt lat="38.4614510" lon="-28.5151020">
        <ele>51.9</ele>
        <time>2019-07-07T11:30:17Z</time>
      </trkpt>
      <trkpt lat="38.4614870" lon="-28.5150580">
        <ele>52.4</ele>
        <time>2019-07-07T11:30:20Z</time>
      </trkpt>
      <trkpt lat="38.4614930" lon="-28.5150380">
        <ele>52.7</ele>
        <time>2019-07-07T11:30:21Z</time>
      </trkpt>
      <trkpt lat="38.4615010" lon="-28.5149570">
        <ele>53.5</ele>
        <time>2019-07-07T11:30:25Z</time>
      </trkpt>
      <trkpt lat="38.4615050" lon="-28.5149360">
        <ele>53.8</ele>
        <time>2019-07-07T11:30:26Z</time>
      </trkpt>
      <trkpt lat="38.4615310" lon="-28.5147670">
        <ele>55.4</ele>
        <time>2019-07-07T11:30:33Z</time>
      </trkpt>
      <trkpt lat="38.4615360" lon="-28.5147150">
        <ele>55.9</ele>
        <time>2019-07-07T11:30:35Z</time>
      </trkpt>
      <trkpt lat="38.4615430" lon="-28.5145650">
        <ele>57.1</ele>
        <time>2019-07-07T11:30:41Z</time>
      </trkpt>
      <trkpt lat="38.4615460" lon="-28.5145390">
        <ele>57.5</ele>
        <time>2019-07-07T11:30:42Z</time>
      </trkpt>
      <trkpt lat="38.4615800" lon="-28.5143650">
        <ele>60.0</ele>
        <time>2019-07-07T11:30:49Z</time>
      </trkpt>
      <trkpt lat="38.4615880" lon="-28.5143400">
        <ele>60.2</ele>
        <time>2019-07-07T11:30:50Z</time>
      </trkpt>
      <trkpt lat="38.4616100" lon="-28.5141840">
        <ele>61.4</ele>
        <time>2019-07-07T11:30:55Z</time>
      </trkpt>
      <trkpt lat="38.4616120" lon="-28.5141530">
        <ele>61.6</ele>
        <time>2019-07-07T11:30:56Z</time>
      </trkpt>
      <trkpt lat="38.4616240" lon="-28.5139070">
        <ele>63.9</ele>
        <time>2019-07-07T11:31:04Z</time>
      </trkpt>
      <trkpt lat="38.4616330" lon="-28.5137150">
        <ele>65.3</ele>
        <time>2019-07-07T11:31:10Z</time>
      </trkpt>
      <trkpt lat="38.4616330" lon="-28.5136820">
        <ele>65.6</ele>
        <time>2019-07-07T11:31:11Z</time>
      </trkpt>
      <trkpt lat="38.4616470" lon="-28.5135470">
        <ele>66.7</ele>
        <time>2019-07-07T11:31:15Z</time>
      </trkpt>
      <trkpt lat="38.4616840" lon="-28.5133860">
        <ele>68.0</ele>
        <time>2019-07-07T11:31:20Z</time>
      </trkpt>
      <trkpt lat="38.4616900" lon="-28.5133580">
        <ele>68.3</ele>
        <time>2019-07-07T11:31:21Z</time>
      </trkpt>
      <trkpt lat="38.4617560" lon="-28.5132530">
        <ele>69.3</ele>
        <time>2019-07-07T11:31:25Z</time>
      </trkpt>
      <trkpt lat="38.4618220" lon="-28.5131070">
        <ele>70.7</ele>
        <time>2019-07-07T11:31:31Z</time>
      </trkpt>
      <trkpt lat="38.4618870" lon="-28.5129190">
        <ele>72.3</ele>
        <time>2019-07-07T11:31:38Z</time>
      </trkpt>
      <trkpt lat="38.4619120" lon="-28.5127970">
        <ele>73.3</ele>
        <time>2019-07-07T11:31:43Z</time>
      </trkpt>
      <trkpt lat="38.4618910" lon="-28.5127470">
        <ele>73.8</ele>
        <time>2019-07-07T11:31:45Z</time>
      </trkpt>
      <trkpt lat="38.4618430" lon="-28.5127020">
        <ele>73.4</ele>
        <time>2019-07-07T11:31:47Z</time>
      </trkpt>
      <trkpt lat="38.4617740" lon="-28.5126720">
        <ele>73.1</ele>
        <time>2019-07-07T11:31:49Z</time>
      </trkpt>
      <trkpt lat="38.4614970" lon="-28.5125610">
        <ele>72.4</ele>
        <time>2019-07-07T11:31:55Z</time>
      </trkpt>
      <trkpt lat="38.4614460" lon="-28.5125380">
        <ele>72.3</ele>
        <time>2019-07-07T11:31:56Z</time>
      </trkpt>
      <trkpt lat="38.4610480" lon="-28.5123830">
        <ele>70.9</ele>
        <time>2019-07-07T11:32:04Z</time>
      </trkpt>
      <trkpt lat="38.4607960" lon="-28.5122850">
        <ele>69.9</ele>
        <time>2019-07-07T11:32:09Z</time>
      </trkpt>
      <trkpt lat="38.4606450" lon="-28.5122200">
        <ele>69.1</ele>
        <time>2019-07-07T11:32:12Z</time>
      </trkpt>
      <trkpt lat="38.4605370" lon="-28.5121770">
        <ele>68.4</ele>
        <time>2019-07-07T11:32:14Z</time>
      </trkpt>
      <trkpt lat="38.4603640" lon="-28.5121070">
        <ele>67.3</ele>
        <time>2019-07-07T11:32:17Z</time>
      </trkpt>
      <trkpt lat="38.4601830" lon="-28.5120340">
        <ele>66.3</ele>
        <time>2019-07-07T11:32:20Z</time>
      </trkpt>
      <trkpt lat="38.4599320" lon="-28.5119450">
        <ele>65.2</ele>
        <time>2019-07-07T11:32:24Z</time>
      </trkpt>
      <trkpt lat="38.4597990" lon="-28.5118920">
        <ele>65.0</ele>
        <time>2019-07-07T11:32:26Z</time>
      </trkpt>
      <trkpt lat="38.4596610" lon="-28.5118340">
        <ele>64.7</ele>
        <time>2019-07-07T11:32:28Z</time>
      </trkpt>
      <trkpt lat="38.4593740" lon="-28.5117120">
        <ele>62.9</ele>
        <time>2019-07-07T11:32:32Z</time>
      </trkpt>
      <trkpt lat="38.4590800" lon="-28.5115880">
        <ele>61.9</ele>
        <time>2019-07-07T11:32:36Z</time>
      </trkpt>
      <trkpt lat="38.4589320" lon="-28.5115240">
        <ele>61.0</ele>
        <time>2019-07-07T11:32:38Z</time>
      </trkpt>
      <trkpt lat="38.4588570" lon="-28.5114920">
        <ele>60.5</ele>
        <time>2019-07-07T11:32:39Z</time>
      </trkpt>
      <trkpt lat="38.4587020" lon="-28.5114250">
        <ele>59.5</ele>
        <time>2019-07-07T11:32:41Z</time>
      </trkpt>
      <trkpt lat="38.4583710" lon="-28.5112800">
        <ele>58.4</ele>
        <time>2019-07-07T11:32:45Z</time>
      </trkpt>
      <trkpt lat="38.4581150" lon="-28.5111770">
        <ele>58.6</ele>
        <time>2019-07-07T11:32:48Z</time>
      </trkpt>
      <trkpt lat="38.4577140" lon="-28.5110130">
        <ele>59.4</ele>
        <time>2019-07-07T11:32:53Z</time>
      </trkpt>
      <trkpt lat="38.4574000" lon="-28.5108830">
        <ele>61.4</ele>
        <time>2019-07-07T11:32:58Z</time>
      </trkpt>
      <trkpt lat="38.4572040" lon="-28.5107960">
        <ele>62.8</ele>
        <time>2019-07-07T11:33:02Z</time>
      </trkpt>
      <trkpt lat="38.4571150" lon="-28.5107600">
        <ele>63.1</ele>
        <time>2019-07-07T11:33:04Z</time>
      </trkpt>
      <trkpt lat="38.4568600" lon="-28.5106610">
        <ele>63.7</ele>
        <time>2019-07-07T11:33:10Z</time>
      </trkpt>
      <trkpt lat="38.4568190" lon="-28.5106410">
        <ele>63.9</ele>
        <time>2019-07-07T11:33:11Z</time>
      </trkpt>
      <trkpt lat="38.4567370" lon="-28.5106020">
        <ele>64.3</ele>
        <time>2019-07-07T11:33:13Z</time>
      </trkpt>
      <trkpt lat="38.4565670" lon="-28.5105620">
        <ele>65.0</ele>
        <time>2019-07-07T11:33:18Z</time>
      </trkpt>
      <trkpt lat="38.4564980" lon="-28.5106750">
        <ele>64.3</ele>
        <time>2019-07-07T11:33:21Z</time>
      </trkpt>
      <trkpt lat="38.4564870" lon="-28.5107210">
        <ele>64.0</ele>
        <time>2019-07-07T11:33:22Z</time>
      </trkpt>
      <trkpt lat="38.4564610" lon="-28.5109520">
        <ele>62.8</ele>
        <time>2019-07-07T11:33:27Z</time>
      </trkpt>
      <trkpt lat="38.4563860" lon="-28.5112240">
        <ele>61.1</ele>
        <time>2019-07-07T11:33:31Z</time>
      </trkpt>
      <trkpt lat="38.4563120" lon="-28.5114560">
        <ele>59.6</ele>
        <time>2019-07-07T11:33:34Z</time>
      </trkpt>
      <trkpt lat="38.4562750" lon="-28.5115120">
        <ele>59.2</ele>
        <time>2019-07-07T11:33:35Z</time>
      </trkpt>
      <trkpt lat="38.4562270" lon="-28.5115580">
        <ele>59.0</ele>
        <time>2019-07-07T11:33:36Z</time>
      </trkpt>
      <trkpt lat="38.4561190" lon="-28.5116430">
        <ele>58.3</ele>
        <time>2019-07-07T11:33:38Z</time>
      </trkpt>
      <trkpt lat="38.4560600" lon="-28.5116830">
        <ele>57.8</ele>
        <time>2019-07-07T11:33:39Z</time>
      </trkpt>
      <trkpt lat="38.4559470" lon="-28.5117700">
        <ele>57.0</ele>
        <time>2019-07-07T11:33:41Z</time>
      </trkpt>
      <trkpt lat="38.4559080" lon="-28.5118290">
        <ele>56.7</ele>
        <time>2019-07-07T11:33:42Z</time>
      </trkpt>
      <trkpt lat="38.4558850" lon="-28.5118980">
        <ele>56.4</ele>
        <time>2019-07-07T11:33:43Z</time>
      </trkpt>
      <trkpt lat="38.4558320" lon="-28.5121370">
        <ele>55.5</ele>
        <time>2019-07-07T11:33:46Z</time>
      </trkpt>
      <trkpt lat="38.4558230" lon="-28.5122250">
        <ele>55.1</ele>
        <time>2019-07-07T11:33:47Z</time>
      </trkpt>
      <trkpt lat="38.4558230" lon="-28.5123160">
        <ele>54.9</ele>
        <time>2019-07-07T11:33:48Z</time>
      </trkpt>
      <trkpt lat="38.4558320" lon="-28.5124060">
        <ele>54.5</ele>
        <time>2019-07-07T11:33:49Z</time>
      </trkpt>
      <trkpt lat="38.4558230" lon="-28.5126820">
        <ele>53.9</ele>
        <time>2019-07-07T11:33:52Z</time>
      </trkpt>
      <trkpt lat="38.4557780" lon="-28.5128710">
        <ele>53.4</ele>
        <time>2019-07-07T11:33:54Z</time>
      </trkpt>
      <trkpt lat="38.4557240" lon="-28.5130600">
        <ele>52.8</ele>
        <time>2019-07-07T11:33:56Z</time>
      </trkpt>
      <trkpt lat="38.4556690" lon="-28.5132460">
        <ele>52.2</ele>
        <time>2019-07-07T11:33:58Z</time>
      </trkpt>
      <trkpt lat="38.4556150" lon="-28.5134320">
        <ele>51.9</ele>
        <time>2019-07-07T11:34:00Z</time>
      </trkpt>
      <trkpt lat="38.4555510" lon="-28.5136060">
        <ele>51.4</ele>
        <time>2019-07-07T11:34:02Z</time>
      </trkpt>
      <trkpt lat="38.4555270" lon="-28.5136890">
        <ele>51.1</ele>
        <time>2019-07-07T11:34:03Z</time>
      </trkpt>
      <trkpt lat="38.4555010" lon="-28.5137730">
        <ele>50.8</ele>
        <time>2019-07-07T11:34:04Z</time>
      </trkpt>
      <trkpt lat="38.4554350" lon="-28.5139450">
        <ele>49.9</ele>
        <time>2019-07-07T11:34:06Z</time>
      </trkpt>
      <trkpt lat="38.4554040" lon="-28.5140360">
        <ele>49.3</ele>
        <time>2019-07-07T11:34:07Z</time>
      </trkpt>
      <trkpt lat="38.4553220" lon="-28.5143410">
        <ele>47.1</ele>
        <time>2019-07-07T11:34:10Z</time>
      </trkpt>
      <trkpt lat="38.4552960" lon="-28.5144500">
        <ele>46.3</ele>
        <time>2019-07-07T11:34:11Z</time>
      </trkpt>
      <trkpt lat="38.4552720" lon="-28.5145610">
        <ele>45.3</ele>
        <time>2019-07-07T11:34:12Z</time>
      </trkpt>
      <trkpt lat="38.4552490" lon="-28.5146720">
        <ele>44.2</ele>
        <time>2019-07-07T11:34:13Z</time>
      </trkpt>
      <trkpt lat="38.4551900" lon="-28.5148750">
        <ele>41.5</ele>
        <time>2019-07-07T11:34:15Z</time>
      </trkpt>
      <trkpt lat="38.4551490" lon="-28.5149680">
        <ele>40.0</ele>
        <time>2019-07-07T11:34:16Z</time>
      </trkpt>
      <trkpt lat="38.4550470" lon="-28.5151510">
        <ele>37.0</ele>
        <time>2019-07-07T11:34:18Z</time>
      </trkpt>
      <trkpt lat="38.4549380" lon="-28.5153330">
        <ele>34.2</ele>
        <time>2019-07-07T11:34:20Z</time>
      </trkpt>
      <trkpt lat="38.4548310" lon="-28.5155190">
        <ele>31.5</ele>
        <time>2019-07-07T11:34:22Z</time>
      </trkpt>
      <trkpt lat="38.4547360" lon="-28.5156620">
        <ele>29.5</ele>
        <time>2019-07-07T11:34:24Z</time>
      </trkpt>
      <trkpt lat="38.4546900" lon="-28.5157060">
        <ele>29.0</ele>
        <time>2019-07-07T11:34:25Z</time>
      </trkpt>
      <trkpt lat="38.4545770" lon="-28.5157380">
        <ele>28.6</ele>
        <time>2019-07-07T11:34:27Z</time>
      </trkpt>
      <trkpt lat="38.4545100" lon="-28.5157290">
        <ele>28.6</ele>
        <time>2019-07-07T11:34:28Z</time>
      </trkpt>
      <trkpt lat="38.4544360" lon="-28.5157110">
        <ele>28.5</ele>
        <time>2019-07-07T11:34:29Z</time>
      </trkpt>
      <trkpt lat="38.4542730" lon="-28.5156640">
        <ele>27.9</ele>
        <time>2019-07-07T11:34:31Z</time>
      </trkpt>
      <trkpt lat="38.4541910" lon="-28.5156360">
        <ele>27.8</ele>
        <time>2019-07-07T11:34:32Z</time>
      </trkpt>
      <trkpt lat="38.4540250" lon="-28.5155740">
        <ele>27.5</ele>
        <time>2019-07-07T11:34:34Z</time>
      </trkpt>
      <trkpt lat="38.4537170" lon="-28.5154340">
        <ele>26.8</ele>
        <time>2019-07-07T11:34:38Z</time>
      </trkpt>
      <trkpt lat="38.4533690" lon="-28.5152710">
        <ele>26.6</ele>
        <time>2019-07-07T11:34:43Z</time>
      </trkpt>
      <trkpt lat="38.4532860" lon="-28.5152410">
        <ele>26.5</ele>
        <time>2019-07-07T11:34:44Z</time>
      </trkpt>
      <trkpt lat="38.4530550" lon="-28.5151320">
        <ele>26.3</ele>
        <time>2019-07-07T11:34:47Z</time>
      </trkpt>
      <trkpt lat="38.4529980" lon="-28.5150850">
        <ele>26.4</ele>
        <time>2019-07-07T11:34:48Z</time>
      </trkpt>
      <trkpt lat="38.4529170" lon="-28.5149430">
        <ele>26.7</ele>
        <time>2019-07-07T11:34:51Z</time>
      </trkpt>
      <trkpt lat="38.4529070" lon="-28.5148230">
        <ele>27.6</ele>
        <time>2019-07-07T11:34:54Z</time>
      </trkpt>
      <trkpt lat="38.4529030" lon="-28.5147880">
        <ele>28.0</ele>
        <time>2019-07-07T11:34:55Z</time>
      </trkpt>
      <trkpt lat="38.4529020" lon="-28.5147550">
        <ele>28.2</ele>
        <time>2019-07-07T11:34:56Z</time>
      </trkpt>
      <trkpt lat="38.4529050" lon="-28.5147220">
        <ele>28.4</ele>
        <time>2019-07-07T11:34:57Z</time>
      </trkpt>
      <trkpt lat="38.4529520" lon="-28.5145940">
        <ele>29.4</ele>
        <time>2019-07-07T11:35:01Z</time>
      </trkpt>
      <trkpt lat="38.4529640" lon="-28.5145610">
        <ele>29.7</ele>
        <time>2019-07-07T11:35:02Z</time>
      </trkpt>
      <trkpt lat="38.4530270" lon="-28.5143860">
        <ele>30.2</ele>
        <time>2019-07-07T11:35:07Z</time>
      </trkpt>
      <trkpt lat="38.4530670" lon="-28.5142630">
        <ele>30.9</ele>
        <time>2019-07-07T11:35:10Z</time>
      </trkpt>
      <trkpt lat="38.4531210" lon="-28.5140610">
        <ele>32.2</ele>
        <time>2019-07-07T11:35:16Z</time>
      </trkpt>
      <trkpt lat="38.4531310" lon="-28.5140340">
        <ele>32.4</ele>
        <time>2019-07-07T11:35:17Z</time>
      </trkpt>
      <trkpt lat="38.4532010" lon="-28.5138220">
        <ele>32.5</ele>
        <time>2019-07-07T11:35:25Z</time>
      </trkpt>
      <trkpt lat="38.4532830" lon="-28.5135650">
        <ele>31.9</ele>
        <time>2019-07-07T11:35:34Z</time>
      </trkpt>
      <trkpt lat="38.4533300" lon="-28.5134380">
        <ele>32.1</ele>
        <time>2019-07-07T11:35:39Z</time>
      </trkpt>
      <trkpt lat="38.4533590" lon="-28.5133730">
        <ele>32.3</ele>
        <time>2019-07-07T11:35:42Z</time>
      </trkpt>
      <trkpt lat="38.4533690" lon="-28.5133530">
        <ele>32.3</ele>
        <time>2019-07-07T11:35:43Z</time>
      </trkpt>
      <trkpt lat="38.4534070" lon="-28.5132730">
        <ele>32.8</ele>
        <time>2019-07-07T11:35:47Z</time>
      </trkpt>
      <trkpt lat="38.4534430" lon="-28.5131580">
        <ele>33.4</ele>
        <time>2019-07-07T11:35:52Z</time>
      </trkpt>
      <trkpt lat="38.4534910" lon="-28.5129080">
        <ele>35.4</ele>
        <time>2019-07-07T11:36:01Z</time>
      </trkpt>
      <trkpt lat="38.4535400" lon="-28.5126180">
        <ele>37.9</ele>
        <time>2019-07-07T11:36:08Z</time>
      </trkpt>
      <trkpt lat="38.4535590" lon="-28.5124640">
        <ele>38.5</ele>
        <time>2019-07-07T11:36:11Z</time>
      </trkpt>
      <trkpt lat="38.4535630" lon="-28.5123400">
        <ele>39.5</ele>
        <time>2019-07-07T11:36:13Z</time>
      </trkpt>
      <trkpt lat="38.4535630" lon="-28.5122730">
        <ele>39.8</ele>
        <time>2019-07-07T11:36:14Z</time>
      </trkpt>
      <trkpt lat="38.4535380" lon="-28.5121000">
        <ele>40.7</ele>
        <time>2019-07-07T11:36:17Z</time>
      </trkpt>
      <trkpt lat="38.4535280" lon="-28.5120550">
        <ele>40.8</ele>
        <time>2019-07-07T11:36:18Z</time>
      </trkpt>
      <trkpt lat="38.4534430" lon="-28.5118210">
        <ele>41.2</ele>
        <time>2019-07-07T11:36:24Z</time>
      </trkpt>
      <trkpt lat="38.4534320" lon="-28.5117850">
        <ele>41.3</ele>
        <time>2019-07-07T11:36:25Z</time>
      </trkpt>
      <trkpt lat="38.4533810" lon="-28.5116730">
        <ele>41.6</ele>
        <time>2019-07-07T11:36:29Z</time>
      </trkpt>
      <trkpt lat="38.4533500" lon="-28.5116150">
        <ele>41.9</ele>
        <time>2019-07-07T11:36:31Z</time>
      </trkpt>
      <trkpt lat="38.4532090" lon="-28.5114610">
        <ele>43.0</ele>
        <time>2019-07-07T11:36:37Z</time>
      </trkpt>
      <trkpt lat="38.4529710" lon="-28.5113320">
        <ele>42.7</ele>
        <time>2019-07-07T11:36:43Z</time>
      </trkpt>
      <trkpt lat="38.4527080" lon="-28.5111490">
        <ele>41.1</ele>
        <time>2019-07-07T11:36:50Z</time>
      </trkpt>
      <trkpt lat="38.4523770" lon="-28.5109180">
        <ele>38.7</ele>
        <time>2019-07-07T11:36:58Z</time>
      </trkpt>
      <trkpt lat="38.4523310" lon="-28.5108890">
        <ele>38.4</ele>
        <time>2019-07-07T11:36:59Z</time>
      </trkpt>
      <trkpt lat="38.4522330" lon="-28.5108340">
        <ele>37.8</ele>
        <time>2019-07-07T11:37:01Z</time>
      </trkpt>
      <trkpt lat="38.4521810" lon="-28.5108140">
        <ele>37.5</ele>
        <time>2019-07-07T11:37:02Z</time>
      </trkpt>
      <trkpt lat="38.4520700" lon="-28.5107760">
        <ele>36.4</ele>
        <time>2019-07-07T11:37:04Z</time>
      </trkpt>
      <trkpt lat="38.4519440" lon="-28.5107160">
        <ele>35.1</ele>
        <time>2019-07-07T11:37:06Z</time>
      </trkpt>
      <trkpt lat="38.4518120" lon="-28.5106410">
        <ele>33.8</ele>
        <time>2019-07-07T11:37:08Z</time>
      </trkpt>
      <trkpt lat="38.4517460" lon="-28.5105980">
        <ele>33.3</ele>
        <time>2019-07-07T11:37:09Z</time>
      </trkpt>
      <trkpt lat="38.4516810" lon="-28.5105500">
        <ele>32.6</ele>
        <time>2019-07-07T11:37:10Z</time>
      </trkpt>
      <trkpt lat="38.4515620" lon="-28.5104470">
        <ele>32.7</ele>
        <time>2019-07-07T11:37:12Z</time>
      </trkpt>
      <trkpt lat="38.4515100" lon="-28.5103940">
        <ele>32.6</ele>
        <time>2019-07-07T11:37:13Z</time>
      </trkpt>
      <trkpt lat="38.4514600" lon="-28.5103400">
        <ele>32.2</ele>
        <time>2019-07-07T11:37:14Z</time>
      </trkpt>
      <trkpt lat="38.4514100" lon="-28.5102890">
        <ele>31.7</ele>
        <time>2019-07-07T11:37:15Z</time>
      </trkpt>
      <trkpt lat="38.4513040" lon="-28.5101960">
        <ele>30.3</ele>
        <time>2019-07-07T11:37:17Z</time>
      </trkpt>
      <trkpt lat="38.4511800" lon="-28.5101030">
        <ele>28.9</ele>
        <time>2019-07-07T11:37:19Z</time>
      </trkpt>
      <trkpt lat="38.4511180" lon="-28.5100450">
        <ele>28.6</ele>
        <time>2019-07-07T11:37:20Z</time>
      </trkpt>
      <trkpt lat="38.4510080" lon="-28.5099100">
        <ele>28.9</ele>
        <time>2019-07-07T11:37:22Z</time>
      </trkpt>
      <trkpt lat="38.4509630" lon="-28.5098440">
        <ele>28.5</ele>
        <time>2019-07-07T11:37:23Z</time>
      </trkpt>
      <trkpt lat="38.4508620" lon="-28.5097070">
        <ele>27.8</ele>
        <time>2019-07-07T11:37:26Z</time>
      </trkpt>
      <trkpt lat="38.4508410" lon="-28.5096790">
        <ele>27.8</ele>
        <time>2019-07-07T11:37:27Z</time>
      </trkpt>
      <trkpt lat="38.4508050" lon="-28.5096240">
        <ele>27.3</ele>
        <time>2019-07-07T11:37:29Z</time>
      </trkpt>
      <trkpt lat="38.4507800" lon="-28.5095530">
        <ele>27.3</ele>
        <time>2019-07-07T11:37:31Z</time>
      </trkpt>
      <trkpt lat="38.4507730" lon="-28.5095140">
        <ele>27.3</ele>
        <time>2019-07-07T11:37:32Z</time>
      </trkpt>
      <trkpt lat="38.4507760" lon="-28.5094730">
        <ele>27.3</ele>
        <time>2019-07-07T11:37:33Z</time>
      </trkpt>
      <trkpt lat="38.4508140" lon="-28.5094010">
        <ele>27.9</ele>
        <time>2019-07-07T11:37:35Z</time>
      </trkpt>
      <trkpt lat="38.4508670" lon="-28.5093480">
        <ele>28.6</ele>
        <time>2019-07-07T11:37:37Z</time>
      </trkpt>
      <trkpt lat="38.4509530" lon="-28.5092790">
        <ele>29.3</ele>
        <time>2019-07-07T11:37:40Z</time>
      </trkpt>
      <trkpt lat="38.4509800" lon="-28.5092510">
        <ele>29.8</ele>
        <time>2019-07-07T11:37:41Z</time>
      </trkpt>
      <trkpt lat="38.4510310" lon="-28.5091920">
        <ele>30.8</ele>
        <time>2019-07-07T11:37:43Z</time>
      </trkpt>
      <trkpt lat="38.4510970" lon="-28.5091170">
        <ele>31.9</ele>
        <time>2019-07-07T11:37:46Z</time>
      </trkpt>
      <trkpt lat="38.4511160" lon="-28.5090950">
        <ele>32.1</ele>
        <time>2019-07-07T11:37:47Z</time>
      </trkpt>
      <trkpt lat="38.4511350" lon="-28.5090740">
        <ele>32.3</ele>
        <time>2019-07-07T11:37:48Z</time>
      </trkpt>
      <trkpt lat="38.4512050" lon="-28.5089770">
        <ele>33.5</ele>
        <time>2019-07-07T11:37:52Z</time>
      </trkpt>
      <trkpt lat="38.4512980" lon="-28.5088480">
        <ele>35.2</ele>
        <time>2019-07-07T11:37:57Z</time>
      </trkpt>
      <trkpt lat="38.4513160" lon="-28.5088200">
        <ele>35.6</ele>
        <time>2019-07-07T11:37:58Z</time>
      </trkpt>
      <trkpt lat="38.4513330" lon="-28.5087920">
        <ele>35.7</ele>
        <time>2019-07-07T11:37:59Z</time>
      </trkpt>
      <trkpt lat="38.4513790" lon="-28.5087030">
        <ele>36.1</ele>
        <time>2019-07-07T11:38:02Z</time>
      </trkpt>
      <trkpt lat="38.4514210" lon="-28.5085380">
        <ele>37.0</ele>
        <time>2019-07-07T11:38:07Z</time>
      </trkpt>
      <trkpt lat="38.4515100" lon="-28.5082910">
        <ele>38.6</ele>
        <time>2019-07-07T11:38:13Z</time>
      </trkpt>
      <trkpt lat="38.4516780" lon="-28.5080920">
        <ele>40.1</ele>
        <time>2019-07-07T11:38:19Z</time>
      </trkpt>
      <trkpt lat="38.4518650" lon="-28.5079310">
        <ele>41.3</ele>
        <time>2019-07-07T11:38:25Z</time>
      </trkpt>
      <trkpt lat="38.4518880" lon="-28.5079120">
        <ele>41.5</ele>
        <time>2019-07-07T11:38:26Z</time>
      </trkpt>
      <trkpt lat="38.4519280" lon="-28.5078780">
        <ele>41.9</ele>
        <time>2019-07-07T11:38:28Z</time>
      </trkpt>
      <trkpt lat="38.4519840" lon="-28.5078210">
        <ele>42.5</ele>
        <time>2019-07-07T11:38:31Z</time>
      </trkpt>
      <trkpt lat="38.4520400" lon="-28.5077570">
        <ele>43.1</ele>
        <time>2019-07-07T11:38:34Z</time>
      </trkpt>
      <trkpt lat="38.4520720" lon="-28.5077160">
        <ele>43.5</ele>
        <time>2019-07-07T11:38:36Z</time>
      </trkpt>
      <trkpt lat="38.4521560" lon="-28.5076270">
        <ele>44.3</ele>
        <time>2019-07-07T11:38:41Z</time>
      </trkpt>
      <trkpt lat="38.4521720" lon="-28.5076120">
        <ele>44.6</ele>
        <time>2019-07-07T11:38:42Z</time>
      </trkpt>
      <trkpt lat="38.4522390" lon="-28.5075560">
        <ele>45.3</ele>
        <time>2019-07-07T11:38:46Z</time>
      </trkpt>
      <trkpt lat="38.4522570" lon="-28.5075180">
        <ele>45.6</ele>
        <time>2019-07-07T11:38:48Z</time>
      </trkpt>
      <trkpt lat="38.4522730" lon="-28.5074820">
        <ele>46.0</ele>
        <time>2019-07-07T11:38:50Z</time>
      </trkpt>
      <trkpt lat="38.4523170" lon="-28.5074300">
        <ele>46.9</ele>
        <time>2019-07-07T11:38:54Z</time>
      </trkpt>
      <trkpt lat="38.4523440" lon="-28.5074170">
        <ele>47.1</ele>
        <time>2019-07-07T11:38:56Z</time>
      </trkpt>
      <trkpt lat="38.4523810" lon="-28.5073920">
        <ele>47.5</ele>
        <time>2019-07-07T11:38:59Z</time>
      </trkpt>
      <trkpt lat="38.4524320" lon="-28.5073170">
        <ele>48.0</ele>
        <time>2019-07-07T11:39:04Z</time>
      </trkpt>
      <trkpt lat="38.4525090" lon="-28.5072220">
        <ele>48.3</ele>
        <time>2019-07-07T11:39:10Z</time>
      </trkpt>
      <trkpt lat="38.4525230" lon="-28.5072100">
        <ele>48.5</ele>
        <time>2019-07-07T11:39:11Z</time>
      </trkpt>
      <trkpt lat="38.4525870" lon="-28.5071120">
        <ele>49.4</ele>
        <time>2019-07-07T11:39:17Z</time>
      </trkpt>
      <trkpt lat="38.4525990" lon="-28.5070990">
        <ele>49.5</ele>
        <time>2019-07-07T11:39:18Z</time>
      </trkpt>
      <trkpt lat="38.4526540" lon="-28.5070490">
        <ele>50.0</ele>
        <time>2019-07-07T11:39:22Z</time>
      </trkpt>
      <trkpt lat="38.4526700" lon="-28.5070070">
        <ele>50.2</ele>
        <time>2019-07-07T11:39:24Z</time>
      </trkpt>
      <trkpt lat="38.4527250" lon="-28.5068390">
        <ele>50.3</ele>
        <time>2019-07-07T11:39:32Z</time>
      </trkpt>
      <trkpt lat="38.4527460" lon="-28.5067940">
        <ele>50.6</ele>
        <time>2019-07-07T11:39:35Z</time>
      </trkpt>
      <trkpt lat="38.4527780" lon="-28.5067770">
        <ele>51.3</ele>
        <time>2019-07-07T11:39:37Z</time>
      </trkpt>
      <trkpt lat="38.4527980" lon="-28.5067730">
        <ele>51.5</ele>
        <time>2019-07-07T11:39:38Z</time>
      </trkpt>
      <trkpt lat="38.4528430" lon="-28.5067780">
        <ele>51.9</ele>
        <time>2019-07-07T11:39:40Z</time>
      </trkpt>
      <trkpt lat="38.4529470" lon="-28.5068070">
        <ele>53.0</ele>
        <time>2019-07-07T11:39:45Z</time>
      </trkpt>
      <trkpt lat="38.4529930" lon="-28.5068150">
        <ele>53.6</ele>
        <time>2019-07-07T11:39:47Z</time>
      </trkpt>
      <trkpt lat="38.4531010" lon="-28.5068320">
        <ele>55.0</ele>
        <time>2019-07-07T11:39:52Z</time>
      </trkpt>
      <trkpt lat="38.4531480" lon="-28.5068380">
        <ele>55.7</ele>
        <time>2019-07-07T11:39:54Z</time>
      </trkpt>
      <trkpt lat="38.4532420" lon="-28.5068600">
        <ele>56.8</ele>
        <time>2019-07-07T11:39:58Z</time>
      </trkpt>
      <trkpt lat="38.4533410" lon="-28.5068880">
        <ele>57.8</ele>
        <time>2019-07-07T11:40:03Z</time>
      </trkpt>
      <trkpt lat="38.4533590" lon="-28.5068930">
        <ele>58.1</ele>
        <time>2019-07-07T11:40:04Z</time>
      </trkpt>
      <trkpt lat="38.4534810" lon="-28.5069440">
        <ele>59.3</ele>
        <time>2019-07-07T11:40:10Z</time>
      </trkpt>
      <trkpt lat="38.4535000" lon="-28.5069500">
        <ele>59.4</ele>
        <time>2019-07-07T11:40:11Z</time>
      </trkpt>
      <trkpt lat="38.4536290" lon="-28.5070130">
        <ele>60.4</ele>
        <time>2019-07-07T11:40:18Z</time>
      </trkpt>
      <trkpt lat="38.4536470" lon="-28.5070090">
        <ele>60.6</ele>
        <time>2019-07-07T11:40:19Z</time>
      </trkpt>
      <trkpt lat="38.4537140" lon="-28.5069160">
        <ele>63.1</ele>
        <time>2019-07-07T11:40:24Z</time>
      </trkpt>
      <trkpt lat="38.4537230" lon="-28.5068880">
        <ele>63.5</ele>
        <time>2019-07-07T11:40:25Z</time>
      </trkpt>
      <trkpt lat="38.4538210" lon="-28.5067320">
        <ele>65.8</ele>
        <time>2019-07-07T11:40:32Z</time>
      </trkpt>
      <trkpt lat="38.4538390" lon="-28.5067170">
        <ele>66.2</ele>
        <time>2019-07-07T11:40:33Z</time>
      </trkpt>
      <trkpt lat="38.4539310" lon="-28.5066520">
        <ele>67.7</ele>
        <time>2019-07-07T11:40:38Z</time>
      </trkpt>
      <trkpt lat="38.4539470" lon="-28.5066370">
        <ele>68.0</ele>
        <time>2019-07-07T11:40:39Z</time>
      </trkpt>
      <trkpt lat="38.4539960" lon="-28.5065860">
        <ele>68.9</ele>
        <time>2019-07-07T11:40:43Z</time>
      </trkpt>
      <trkpt lat="38.4540380" lon="-28.5065400">
        <ele>69.6</ele>
        <time>2019-07-07T11:40:47Z</time>
      </trkpt>
      <trkpt lat="38.4540510" lon="-28.5065360">
        <ele>69.8</ele>
        <time>2019-07-07T11:40:48Z</time>
      </trkpt>
      <trkpt lat="38.4541040" lon="-28.5065170">
        <ele>71.1</ele>
        <time>2019-07-07T11:40:52Z</time>
      </trkpt>
      <trkpt lat="38.4541550" lon="-28.5064860">
        <ele>71.9</ele>
        <time>2019-07-07T11:40:56Z</time>
      </trkpt>
      <trkpt lat="38.4541820" lon="-28.5064590">
        <ele>72.5</ele>
        <time>2019-07-07T11:40:58Z</time>
      </trkpt>
      <trkpt lat="38.4542020" lon="-28.5064250">
        <ele>73.2</ele>
        <time>2019-07-07T11:41:00Z</time>
      </trkpt>
      <trkpt lat="38.4542550" lon="-28.5063480">
        <ele>74.3</ele>
        <time>2019-07-07T11:41:05Z</time>
      </trkpt>
      <trkpt lat="38.4542680" lon="-28.5063150">
        <ele>74.8</ele>
        <time>2019-07-07T11:41:07Z</time>
      </trkpt>
      <trkpt lat="38.4542820" lon="-28.5062840">
        <ele>75.3</ele>
        <time>2019-07-07T11:41:09Z</time>
      </trkpt>
      <trkpt lat="38.4543090" lon="-28.5061900">
        <ele>76.3</ele>
        <time>2019-07-07T11:41:15Z</time>
      </trkpt>
      <trkpt lat="38.4543630" lon="-28.5060940">
        <ele>77.0</ele>
        <time>2019-07-07T11:41:22Z</time>
      </trkpt>
      <trkpt lat="38.4543640" lon="-28.5060550">
        <ele>77.1</ele>
        <time>2019-07-07T11:41:24Z</time>
      </trkpt>
      <trkpt lat="38.4543580" lon="-28.5059980">
        <ele>77.5</ele>
        <time>2019-07-07T11:41:27Z</time>
      </trkpt>
      <trkpt lat="38.4543610" lon="-28.5059200">
        <ele>78.3</ele>
        <time>2019-07-07T11:41:31Z</time>
      </trkpt>
      <trkpt lat="38.4543730" lon="-28.5058270">
        <ele>78.6</ele>
        <time>2019-07-07T11:41:36Z</time>
      </trkpt>
      <trkpt lat="38.4543890" lon="-28.5057810">
        <ele>79.1</ele>
        <time>2019-07-07T11:41:39Z</time>
      </trkpt>
      <trkpt lat="38.4543930" lon="-28.5057650">
        <ele>79.3</ele>
        <time>2019-07-07T11:41:40Z</time>
      </trkpt>
      <trkpt lat="38.4544130" lon="-28.5056690">
        <ele>80.5</ele>
        <time>2019-07-07T11:41:46Z</time>
      </trkpt>
      <trkpt lat="38.4544200" lon="-28.5056380">
        <ele>80.9</ele>
        <time>2019-07-07T11:41:48Z</time>
      </trkpt>
      <trkpt lat="38.4544300" lon="-28.5056060">
        <ele>81.3</ele>
        <time>2019-07-07T11:41:50Z</time>
      </trkpt>
      <trkpt lat="38.4544520" lon="-28.5054950">
        <ele>82.5</ele>
        <time>2019-07-07T11:41:56Z</time>
      </trkpt>
      <trkpt lat="38.4544840" lon="-28.5053630">
        <ele>84.1</ele>
        <time>2019-07-07T11:42:03Z</time>
      </trkpt>
      <trkpt lat="38.4544880" lon="-28.5053440">
        <ele>84.4</ele>
        <time>2019-07-07T11:42:04Z</time>
      </trkpt>
      <trkpt lat="38.4545180" lon="-28.5052480">
        <ele>85.7</ele>
        <time>2019-07-07T11:42:09Z</time>
      </trkpt>
      <trkpt lat="38.4545380" lon="-28.5052190">
        <ele>86.2</ele>
        <time>2019-07-07T11:42:11Z</time>
      </trkpt>
      <trkpt lat="38.4545430" lon="-28.5052040">
        <ele>86.3</ele>
        <time>2019-07-07T11:42:12Z</time>
      </trkpt>
      <trkpt lat="38.4545580" lon="-28.5051540">
        <ele>87.0</ele>
        <time>2019-07-07T11:42:15Z</time>
      </trkpt>
      <trkpt lat="38.4545820" lon="-28.5050890">
        <ele>87.9</ele>
        <time>2019-07-07T11:42:19Z</time>
      </trkpt>
      <trkpt lat="38.4545910" lon="-28.5050540">
        <ele>88.4</ele>
        <time>2019-07-07T11:42:21Z</time>
      </trkpt>
      <trkpt lat="38.4546000" lon="-28.5050190">
        <ele>88.9</ele>
        <time>2019-07-07T11:42:23Z</time>
      </trkpt>
      <trkpt lat="38.4546230" lon="-28.5049340">
        <ele>89.8</ele>
        <time>2019-07-07T11:42:28Z</time>
      </trkpt>
      <trkpt lat="38.4546460" lon="-28.5048630">
        <ele>90.5</ele>
        <time>2019-07-07T11:42:32Z</time>
      </trkpt>
      <trkpt lat="38.4546630" lon="-28.5048110">
        <ele>91.0</ele>
        <time>2019-07-07T11:42:35Z</time>
      </trkpt>
      <trkpt lat="38.4547000" lon="-28.5047120">
        <ele>92.1</ele>
        <time>2019-07-07T11:42:41Z</time>
      </trkpt>
      <trkpt lat="38.4547060" lon="-28.5046950">
        <ele>92.3</ele>
        <time>2019-07-07T11:42:42Z</time>
      </trkpt>
      <trkpt lat="38.4547290" lon="-28.5046340">
        <ele>92.8</ele>
        <time>2019-07-07T11:42:46Z</time>
      </trkpt>
      <trkpt lat="38.4547560" lon="-28.5045560">
        <ele>93.3</ele>
        <time>2019-07-07T11:42:51Z</time>
      </trkpt>
      <trkpt lat="38.4547670" lon="-28.5045210">
        <ele>93.6</ele>
        <time>2019-07-07T11:42:53Z</time>
      </trkpt>
      <trkpt lat="38.4547990" lon="-28.5044050">
        <ele>94.3</ele>
        <time>2019-07-07T11:43:00Z</time>
      </trkpt>
      <trkpt lat="38.4548010" lon="-28.5043890">
        <ele>94.3</ele>
        <time>2019-07-07T11:43:01Z</time>
      </trkpt>
      <trkpt lat="38.4548210" lon="-28.5043270">
        <ele>94.7</ele>
        <time>2019-07-07T11:43:05Z</time>
      </trkpt>
      <trkpt lat="38.4548500" lon="-28.5042710">
        <ele>94.9</ele>
        <time>2019-07-07T11:43:09Z</time>
      </trkpt>
      <trkpt lat="38.4548560" lon="-28.5042570">
        <ele>95.0</ele>
        <time>2019-07-07T11:43:10Z</time>
      </trkpt>
      <trkpt lat="38.4548840" lon="-28.5041680">
        <ele>95.9</ele>
        <time>2019-07-07T11:43:15Z</time>
      </trkpt>
      <trkpt lat="38.4548900" lon="-28.5041480">
        <ele>96.2</ele>
        <time>2019-07-07T11:43:16Z</time>
      </trkpt>
      <trkpt lat="38.4548960" lon="-28.5041270">
        <ele>96.5</ele>
        <time>2019-07-07T11:43:17Z</time>
      </trkpt>
      <trkpt lat="38.4549270" lon="-28.5040370">
        <ele>98.3</ele>
        <time>2019-07-07T11:43:22Z</time>
      </trkpt>
      <trkpt lat="38.4549460" lon="-28.5039870">
        <ele>99.0</ele>
        <time>2019-07-07T11:43:25Z</time>
      </trkpt>
      <trkpt lat="38.4549850" lon="-28.5038750">
        <ele>101.1</ele>
        <time>2019-07-07T11:43:32Z</time>
      </trkpt>
      <trkpt lat="38.4550010" lon="-28.5038220">
        <ele>102.0</ele>
        <time>2019-07-07T11:43:35Z</time>
      </trkpt>
      <trkpt lat="38.4550200" lon="-28.5037440">
        <ele>103.3</ele>
        <time>2019-07-07T11:43:39Z</time>
      </trkpt>
      <trkpt lat="38.4550330" lon="-28.5036870">
        <ele>104.2</ele>
        <time>2019-07-07T11:43:42Z</time>
      </trkpt>
      <trkpt lat="38.4550450" lon="-28.5036470">
        <ele>105.1</ele>
        <time>2019-07-07T11:43:44Z</time>
      </trkpt>
      <trkpt lat="38.4550670" lon="-28.5035710">
        <ele>106.9</ele>
        <time>2019-07-07T11:43:48Z</time>
      </trkpt>
      <trkpt lat="38.4550850" lon="-28.5035160">
        <ele>107.9</ele>
        <time>2019-07-07T11:43:51Z</time>
      </trkpt>
      <trkpt lat="38.4550990" lon="-28.5034790">
        <ele>108.6</ele>
        <time>2019-07-07T11:43:53Z</time>
      </trkpt>
      <trkpt lat="38.4551210" lon="-28.5034320">
        <ele>109.5</ele>
        <time>2019-07-07T11:43:56Z</time>
      </trkpt>
      <trkpt lat="38.4551300" lon="-28.5034020">
        <ele>110.1</ele>
        <time>2019-07-07T11:43:58Z</time>
      </trkpt>
      <trkpt lat="38.4551360" lon="-28.5033650">
        <ele>110.8</ele>
        <time>2019-07-07T11:44:01Z</time>
      </trkpt>
      <trkpt lat="38.4551540" lon="-28.5032930">
        <ele>112.3</ele>
        <time>2019-07-07T11:44:06Z</time>
      </trkpt>
      <trkpt lat="38.4551790" lon="-28.5032080">
        <ele>113.6</ele>
        <time>2019-07-07T11:44:12Z</time>
      </trkpt>
      <trkpt lat="38.4551870" lon="-28.5031460">
        <ele>114.3</ele>
        <time>2019-07-07T11:44:16Z</time>
      </trkpt>
      <trkpt lat="38.4551970" lon="-28.5030990">
        <ele>114.8</ele>
        <time>2019-07-07T11:44:19Z</time>
      </trkpt>
      <trkpt lat="38.4552110" lon="-28.5030340">
        <ele>115.5</ele>
        <time>2019-07-07T11:44:23Z</time>
      </trkpt>
      <trkpt lat="38.4552150" lon="-28.5030160">
        <ele>115.7</ele>
        <time>2019-07-07T11:44:24Z</time>
      </trkpt>
      <trkpt lat="38.4552280" lon="-28.5029460">
        <ele>116.5</ele>
        <time>2019-07-07T11:44:28Z</time>
      </trkpt>
      <trkpt lat="38.4552430" lon="-28.5028830">
        <ele>117.5</ele>
        <time>2019-07-07T11:44:32Z</time>
      </trkpt>
      <trkpt lat="38.4552510" lon="-28.5028530">
        <ele>117.9</ele>
        <time>2019-07-07T11:44:34Z</time>
      </trkpt>
      <trkpt lat="38.4552640" lon="-28.5028090">
        <ele>118.4</ele>
        <time>2019-07-07T11:44:37Z</time>
      </trkpt>
      <trkpt lat="38.4552840" lon="-28.5027690">
        <ele>118.8</ele>
        <time>2019-07-07T11:44:40Z</time>
      </trkpt>
      <trkpt lat="38.4552920" lon="-28.5027570">
        <ele>119.0</ele>
        <time>2019-07-07T11:44:41Z</time>
      </trkpt>
      <trkpt lat="38.4553220" lon="-28.5026930">
        <ele>119.7</ele>
        <time>2019-07-07T11:44:46Z</time>
      </trkpt>
      <trkpt lat="38.4553270" lon="-28.5026500">
        <ele>120.2</ele>
        <time>2019-07-07T11:44:49Z</time>
      </trkpt>
      <trkpt lat="38.4553390" lon="-28.5025980">
        <ele>120.9</ele>
        <time>2019-07-07T11:44:52Z</time>
      </trkpt>
      <trkpt lat="38.4553820" lon="-28.5025190">
        <ele>121.9</ele>
        <time>2019-07-07T11:44:57Z</time>
      </trkpt>
      <trkpt lat="38.4554220" lon="-28.5023870">
        <ele>123.3</ele>
        <time>2019-07-07T11:45:04Z</time>
      </trkpt>
      <trkpt lat="38.4554280" lon="-28.5023480">
        <ele>123.7</ele>
        <time>2019-07-07T11:45:06Z</time>
      </trkpt>
      <trkpt lat="38.4554700" lon="-28.5022290">
        <ele>124.4</ele>
        <time>2019-07-07T11:45:13Z</time>
      </trkpt>
      <trkpt lat="38.4554900" lon="-28.5021710">
        <ele>124.4</ele>
        <time>2019-07-07T11:45:17Z</time>
      </trkpt>
      <trkpt lat="38.4555080" lon="-28.5021340">
        <ele>124.4</ele>
        <time>2019-07-07T11:45:20Z</time>
      </trkpt>
      <trkpt lat="38.4555170" lon="-28.5021270">
        <ele>124.4</ele>
        <time>2019-07-07T11:45:21Z</time>
      </trkpt>
      <trkpt lat="38.4555540" lon="-28.5021580">
        <ele>124.5</ele>
        <time>2019-07-07T11:45:24Z</time>
      </trkpt>
      <trkpt lat="38.4555700" lon="-28.5021680">
        <ele>124.6</ele>
        <time>2019-07-07T11:45:25Z</time>
      </trkpt>
      <trkpt lat="38.4557320" lon="-28.5022610">
        <ele>125.0</ele>
        <time>2019-07-07T11:45:33Z</time>
      </trkpt>
      <trkpt lat="38.4557580" lon="-28.5022730">
        <ele>125.0</ele>
        <time>2019-07-07T11:45:34Z</time>
      </trkpt>
      <trkpt lat="38.4558170" lon="-28.5023120">
        <ele>125.2</ele>
        <time>2019-07-07T11:45:37Z</time>
      </trkpt>
      <trkpt lat="38.4558400" lon="-28.5023310">
        <ele>125.3</ele>
        <time>2019-07-07T11:45:39Z</time>
      </trkpt>
      <trkpt lat="38.4558510" lon="-28.5023410">
        <ele>125.3</ele>
        <time>2019-07-07T11:45:40Z</time>
      </trkpt>
      <trkpt lat="38.4559050" lon="-28.5024000">
        <ele>125.5</ele>
        <time>2019-07-07T11:45:45Z</time>
      </trkpt>
      <trkpt lat="38.4559170" lon="-28.5024130">
        <ele>125.6</ele>
        <time>2019-07-07T11:45:46Z</time>
      </trkpt>
      <trkpt lat="38.4560130" lon="-28.5024920">
        <ele>125.9</ele>
        <time>2019-07-07T11:45:52Z</time>
      </trkpt>
      <trkpt lat="38.4561750" lon="-28.5025860">
        <ele>126.9</ele>
        <time>2019-07-07T11:45:59Z</time>
      </trkpt>
      <trkpt lat="38.4562010" lon="-28.5026030">
        <ele>126.9</ele>
        <time>2019-07-07T11:46:00Z</time>
      </trkpt>
      <trkpt lat="38.4563660" lon="-28.5026930">
        <ele>127.4</ele>
        <time>2019-07-07T11:46:06Z</time>
      </trkpt>
      <trkpt lat="38.4564770" lon="-28.5027400">
        <ele>127.6</ele>
        <time>2019-07-07T11:46:10Z</time>
      </trkpt>
      <trkpt lat="38.4565640" lon="-28.5027720">
        <ele>128.0</ele>
        <time>2019-07-07T11:46:13Z</time>
      </trkpt>
      <trkpt lat="38.4566350" lon="-28.5027860">
        <ele>128.4</ele>
        <time>2019-07-07T11:46:16Z</time>
      </trkpt>
      <trkpt lat="38.4566730" lon="-28.5028010">
        <ele>128.7</ele>
        <time>2019-07-07T11:46:18Z</time>
      </trkpt>
      <trkpt lat="38.4567040" lon="-28.5028190">
        <ele>129.1</ele>
        <time>2019-07-07T11:46:20Z</time>
      </trkpt>
      <trkpt lat="38.4567720" lon="-28.5028350">
        <ele>130.0</ele>
        <time>2019-07-07T11:46:24Z</time>
      </trkpt>
      <trkpt lat="38.4567920" lon="-28.5028420">
        <ele>130.2</ele>
        <time>2019-07-07T11:46:25Z</time>
      </trkpt>
      <trkpt lat="38.4568810" lon="-28.5028590">
        <ele>131.1</ele>
        <time>2019-07-07T11:46:30Z</time>
      </trkpt>
      <trkpt lat="38.4569000" lon="-28.5028640">
        <ele>131.3</ele>
        <time>2019-07-07T11:46:31Z</time>
      </trkpt>
      <trkpt lat="38.4570520" lon="-28.5029250">
        <ele>132.9</ele>
        <time>2019-07-07T11:46:39Z</time>
      </trkpt>
      <trkpt lat="38.4572210" lon="-28.5029460">
        <ele>135.6</ele>
        <time>2019-07-07T11:46:46Z</time>
      </trkpt>
      <trkpt lat="38.4574170" lon="-28.5030050">
        <ele>138.6</ele>
        <time>2019-07-07T11:46:52Z</time>
      </trkpt>
      <trkpt lat="38.4576740" lon="-28.5031680">
        <ele>141.6</ele>
        <time>2019-07-07T11:46:59Z</time>
      </trkpt>
      <trkpt lat="38.4579320" lon="-28.5033640">
        <ele>142.6</ele>
        <time>2019-07-07T11:47:07Z</time>
      </trkpt>
      <trkpt lat="38.4579680" lon="-28.5033860">
        <ele>142.8</ele>
        <time>2019-07-07T11:47:09Z</time>
      </trkpt>
      <trkpt lat="38.4580400" lon="-28.5034230">
        <ele>143.1</ele>
        <time>2019-07-07T11:47:14Z</time>
      </trkpt>
      <trkpt lat="38.4581130" lon="-28.5034740">
        <ele>143.4</ele>
        <time>2019-07-07T11:47:19Z</time>
      </trkpt>
      <trkpt lat="38.4581270" lon="-28.5034840">
        <ele>143.4</ele>
        <time>2019-07-07T11:47:20Z</time>
      </trkpt>
      <trkpt lat="38.4581650" lon="-28.5035050">
        <ele>143.5</ele>
        <time>2019-07-07T11:47:23Z</time>
      </trkpt>
      <trkpt lat="38.4582140" lon="-28.5035440">
        <ele>143.7</ele>
        <time>2019-07-07T11:47:27Z</time>
      </trkpt>
      <trkpt lat="38.4582570" lon="-28.5035770">
        <ele>143.9</ele>
        <time>2019-07-07T11:47:30Z</time>
      </trkpt>
      <trkpt lat="38.4583280" lon="-28.5036210">
        <ele>144.2</ele>
        <time>2019-07-07T11:47:34Z</time>
      </trkpt>
      <trkpt lat="38.4583590" lon="-28.5036420">
        <ele>144.3</ele>
        <time>2019-07-07T11:47:36Z</time>
      </trkpt>
      <trkpt lat="38.4584530" lon="-28.5036890">
        <ele>144.8</ele>
        <time>2019-07-07T11:47:41Z</time>
      </trkpt>
      <trkpt lat="38.4586720" lon="-28.5037880">
        <ele>145.6</ele>
        <time>2019-07-07T11:47:50Z</time>
      </trkpt>
      <trkpt lat="38.4588360" lon="-28.5038750">
        <ele>146.1</ele>
        <time>2019-07-07T11:47:56Z</time>
      </trkpt>
      <trkpt lat="38.4588780" lon="-28.5039060">
        <ele>146.2</ele>
        <time>2019-07-07T11:47:58Z</time>
      </trkpt>
      <trkpt lat="38.4589670" lon="-28.5039780">
        <ele>146.4</ele>
        <time>2019-07-07T11:48:01Z</time>
      </trkpt>
      <trkpt lat="38.4590740" lon="-28.5040700">
        <ele>146.3</ele>
        <time>2019-07-07T11:48:04Z</time>
      </trkpt>
      <trkpt lat="38.4591390" lon="-28.5041230">
        <ele>146.2</ele>
        <time>2019-07-07T11:48:06Z</time>
      </trkpt>
      <trkpt lat="38.4592000" lon="-28.5041700">
        <ele>145.3</ele>
        <time>2019-07-07T11:48:09Z</time>
      </trkpt>
      <trkpt lat="38.4592150" lon="-28.5041880">
        <ele>145.0</ele>
        <time>2019-07-07T11:48:10Z</time>
      </trkpt>
      <trkpt lat="38.4592290" lon="-28.5042000">
        <ele>144.9</ele>
        <time>2019-07-07T11:48:11Z</time>
      </trkpt>
      <trkpt lat="38.4592540" lon="-28.5042190">
        <ele>144.8</ele>
        <time>2019-07-07T11:48:13Z</time>
      </trkpt>
      <trkpt lat="38.4592790" lon="-28.5042370">
        <ele>144.7</ele>
        <time>2019-07-07T11:48:15Z</time>
      </trkpt>
      <trkpt lat="38.4593150" lon="-28.5043470">
        <ele>144.0</ele>
        <time>2019-07-07T11:48:20Z</time>
      </trkpt>
      <trkpt lat="38.4593000" lon="-28.5044820">
        <ele>142.4</ele>
        <time>2019-07-07T11:48:23Z</time>
      </trkpt>
      <trkpt lat="38.4592960" lon="-28.5045600">
        <ele>141.6</ele>
        <time>2019-07-07T11:48:25Z</time>
      </trkpt>
      <trkpt lat="38.4593110" lon="-28.5045890">
        <ele>141.2</ele>
        <time>2019-07-07T11:48:26Z</time>
      </trkpt>
      <trkpt lat="38.4593680" lon="-28.5046380">
        <ele>140.4</ele>
        <time>2019-07-07T11:48:28Z</time>
      </trkpt>
      <trkpt lat="38.4594660" lon="-28.5046870">
        <ele>139.0</ele>
        <time>2019-07-07T11:48:31Z</time>
      </trkpt>
      <trkpt lat="38.4595220" lon="-28.5047130">
        <ele>138.9</ele>
        <time>2019-07-07T11:48:33Z</time>
      </trkpt>
      <trkpt lat="38.4596150" lon="-28.5047370">
        <ele>139.2</ele>
        <time>2019-07-07T11:48:38Z</time>
      </trkpt>
      <trkpt lat="38.4596700" lon="-28.5047470">
        <ele>139.6</ele>
        <time>2019-07-07T11:48:41Z</time>
      </trkpt>
      <trkpt lat="38.4597150" lon="-28.5047520">
        <ele>139.9</ele>
        <time>2019-07-07T11:48:44Z</time>
      </trkpt>
      <trkpt lat="38.4597580" lon="-28.5047470">
        <ele>140.2</ele>
        <time>2019-07-07T11:48:47Z</time>
      </trkpt>
      <trkpt lat="38.4598050" lon="-28.5047440">
        <ele>140.6</ele>
        <time>2019-07-07T11:48:50Z</time>
      </trkpt>
      <trkpt lat="38.4598200" lon="-28.5047450">
        <ele>140.7</ele>
        <time>2019-07-07T11:48:51Z</time>
      </trkpt>
      <trkpt lat="38.4598760" lon="-28.5047500">
        <ele>141.2</ele>
        <time>2019-07-07T11:48:56Z</time>
      </trkpt>
      <trkpt lat="38.4599500" lon="-28.5047610">
        <ele>141.7</ele>
        <time>2019-07-07T11:49:02Z</time>
      </trkpt>
      <trkpt lat="38.4600160" lon="-28.5047260">
        <ele>142.6</ele>
        <time>2019-07-07T11:49:07Z</time>
      </trkpt>
      <trkpt lat="38.4600220" lon="-28.5047140">
        <ele>142.7</ele>
        <time>2019-07-07T11:49:08Z</time>
      </trkpt>
      <trkpt lat="38.4600250" lon="-28.5047030">
        <ele>142.8</ele>
        <time>2019-07-07T11:49:09Z</time>
      </trkpt>
      <trkpt lat="38.4600190" lon="-28.5046440">
        <ele>144.3</ele>
        <time>2019-07-07T11:49:13Z</time>
      </trkpt>
      <trkpt lat="38.4600180" lon="-28.5046270">
        <ele>144.7</ele>
        <time>2019-07-07T11:49:14Z</time>
      </trkpt>
      <trkpt lat="38.4600150" lon="-28.5045920">
        <ele>145.5</ele>
        <time>2019-07-07T11:49:16Z</time>
      </trkpt>
      <trkpt lat="38.4600090" lon="-28.5045380">
        <ele>146.2</ele>
        <time>2019-07-07T11:49:19Z</time>
      </trkpt>
      <trkpt lat="38.4600120" lon="-28.5044690">
        <ele>147.1</ele>
        <time>2019-07-07T11:49:23Z</time>
      </trkpt>
      <trkpt lat="38.4600070" lon="-28.5044190">
        <ele>147.6</ele>
        <time>2019-07-07T11:49:26Z</time>
      </trkpt>
      <trkpt lat="38.4600020" lon="-28.5043410">
        <ele>148.7</ele>
        <time>2019-07-07T11:49:31Z</time>
      </trkpt>
      <trkpt lat="38.4600040" lon="-28.5041840">
        <ele>151.3</ele>
        <time>2019-07-07T11:49:39Z</time>
      </trkpt>
      <trkpt lat="38.4600040" lon="-28.5041600">
        <ele>151.9</ele>
        <time>2019-07-07T11:49:40Z</time>
      </trkpt>
      <trkpt lat="38.4600140" lon="-28.5040160">
        <ele>155.0</ele>
        <time>2019-07-07T11:49:47Z</time>
      </trkpt>
      <trkpt lat="38.4600210" lon="-28.5039760">
        <ele>155.6</ele>
        <time>2019-07-07T11:49:50Z</time>
      </trkpt>
      <trkpt lat="38.4600360" lon="-28.5039490">
        <ele>156.3</ele>
        <time>2019-07-07T11:49:52Z</time>
      </trkpt>
      <trkpt lat="38.4600390" lon="-28.5039360">
        <ele>156.6</ele>
        <time>2019-07-07T11:49:53Z</time>
      </trkpt>
      <trkpt lat="38.4600450" lon="-28.5038900">
        <ele>157.6</ele>
        <time>2019-07-07T11:49:56Z</time>
      </trkpt>
      <trkpt lat="38.4600500" lon="-28.5038610">
        <ele>158.2</ele>
        <time>2019-07-07T11:49:58Z</time>
      </trkpt>
      <trkpt lat="38.4600580" lon="-28.5038310">
        <ele>158.7</ele>
        <time>2019-07-07T11:50:00Z</time>
      </trkpt>
      <trkpt lat="38.4600630" lon="-28.5038150">
        <ele>159.0</ele>
        <time>2019-07-07T11:50:01Z</time>
      </trkpt>
      <trkpt lat="38.4600730" lon="-28.5037600">
        <ele>159.9</ele>
        <time>2019-07-07T11:50:05Z</time>
      </trkpt>
      <trkpt lat="38.4600770" lon="-28.5037260">
        <ele>160.6</ele>
        <time>2019-07-07T11:50:07Z</time>
      </trkpt>
      <trkpt lat="38.4600900" lon="-28.5036400">
        <ele>162.4</ele>
        <time>2019-07-07T11:50:12Z</time>
      </trkpt>
      <trkpt lat="38.4600970" lon="-28.5035990">
        <ele>163.0</ele>
        <time>2019-07-07T11:50:14Z</time>
      </trkpt>
      <trkpt lat="38.4601140" lon="-28.5034750">
        <ele>165.3</ele>
        <time>2019-07-07T11:50:20Z</time>
      </trkpt>
      <trkpt lat="38.4601190" lon="-28.5034330">
        <ele>166.2</ele>
        <time>2019-07-07T11:50:22Z</time>
      </trkpt>
      <trkpt lat="38.4601230" lon="-28.5033930">
        <ele>166.7</ele>
        <time>2019-07-07T11:50:24Z</time>
      </trkpt>
      <trkpt lat="38.4601380" lon="-28.5032750">
        <ele>168.4</ele>
        <time>2019-07-07T11:50:30Z</time>
      </trkpt>
      <trkpt lat="38.4601420" lon="-28.5031850">
        <ele>169.9</ele>
        <time>2019-07-07T11:50:35Z</time>
      </trkpt>
      <trkpt lat="38.4601470" lon="-28.5031690">
        <ele>170.2</ele>
        <time>2019-07-07T11:50:36Z</time>
      </trkpt>
      <trkpt lat="38.4601650" lon="-28.5031300">
        <ele>170.9</ele>
        <time>2019-07-07T11:50:39Z</time>
      </trkpt>
      <trkpt lat="38.4601920" lon="-28.5030840">
        <ele>171.7</ele>
        <time>2019-07-07T11:50:43Z</time>
      </trkpt>
      <trkpt lat="38.4602050" lon="-28.5030580">
        <ele>172.1</ele>
        <time>2019-07-07T11:50:45Z</time>
      </trkpt>
      <trkpt lat="38.4602120" lon="-28.5030470">
        <ele>172.3</ele>
        <time>2019-07-07T11:50:46Z</time>
      </trkpt>
      <trkpt lat="38.4602380" lon="-28.5030130">
        <ele>172.9</ele>
        <time>2019-07-07T11:50:49Z</time>
      </trkpt>
      <trkpt lat="38.4602470" lon="-28.5030020">
        <ele>173.1</ele>
        <time>2019-07-07T11:50:50Z</time>
      </trkpt>
      <trkpt lat="38.4602660" lon="-28.5029770">
        <ele>173.5</ele>
        <time>2019-07-07T11:50:52Z</time>
      </trkpt>
      <trkpt lat="38.4602960" lon="-28.5029270">
        <ele>174.3</ele>
        <time>2019-07-07T11:50:56Z</time>
      </trkpt>
      <trkpt lat="38.4603260" lon="-28.5028760">
        <ele>174.7</ele>
        <time>2019-07-07T11:51:00Z</time>
      </trkpt>
      <trkpt lat="38.4603430" lon="-28.5028490">
        <ele>174.9</ele>
        <time>2019-07-07T11:51:02Z</time>
      </trkpt>
      <trkpt lat="38.4603760" lon="-28.5027570">
        <ele>175.5</ele>
        <time>2019-07-07T11:51:08Z</time>
      </trkpt>
      <trkpt lat="38.4604090" lon="-28.5026760">
        <ele>175.9</ele>
        <time>2019-07-07T11:51:13Z</time>
      </trkpt>
      <trkpt lat="38.4604190" lon="-28.5026470">
        <ele>176.0</ele>
        <time>2019-07-07T11:51:15Z</time>
      </trkpt>
      <trkpt lat="38.4604450" lon="-28.5025910">
        <ele>176.2</ele>
        <time>2019-07-07T11:51:19Z</time>
      </trkpt>
      <trkpt lat="38.4604740" lon="-28.5025250">
        <ele>176.7</ele>
        <time>2019-07-07T11:51:24Z</time>
      </trkpt>
      <trkpt lat="38.4605040" lon="-28.5024690">
        <ele>177.2</ele>
        <time>2019-07-07T11:51:28Z</time>
      </trkpt>
      <trkpt lat="38.4605440" lon="-28.5023750">
        <ele>178.1</ele>
        <time>2019-07-07T11:51:34Z</time>
      </trkpt>
      <trkpt lat="38.4605600" lon="-28.5023410">
        <ele>178.5</ele>
        <time>2019-07-07T11:51:36Z</time>
      </trkpt>
      <trkpt lat="38.4605970" lon="-28.5022750">
        <ele>179.2</ele>
        <time>2019-07-07T11:51:40Z</time>
      </trkpt>
      <trkpt lat="38.4606130" lon="-28.5022490">
        <ele>179.5</ele>
        <time>2019-07-07T11:51:42Z</time>
      </trkpt>
      <trkpt lat="38.4606320" lon="-28.5022260">
        <ele>179.8</ele>
        <time>2019-07-07T11:51:44Z</time>
      </trkpt>
      <trkpt lat="38.4606640" lon="-28.5021800">
        <ele>180.4</ele>
        <time>2019-07-07T11:51:48Z</time>
      </trkpt>
      <trkpt lat="38.4606720" lon="-28.5021690">
        <ele>180.5</ele>
        <time>2019-07-07T11:51:49Z</time>
      </trkpt>
      <trkpt lat="38.4606970" lon="-28.5021300">
        <ele>181.1</ele>
        <time>2019-07-07T11:51:52Z</time>
      </trkpt>
      <trkpt lat="38.4607300" lon="-28.5020840">
        <ele>181.7</ele>
        <time>2019-07-07T11:51:56Z</time>
      </trkpt>
      <trkpt lat="38.4607340" lon="-28.5020700">
        <ele>181.8</ele>
        <time>2019-07-07T11:51:57Z</time>
      </trkpt>
      <trkpt lat="38.4607360" lon="-28.5020550">
        <ele>181.9</ele>
        <time>2019-07-07T11:51:58Z</time>
      </trkpt>
      <trkpt lat="38.4607410" lon="-28.5020120">
        <ele>182.7</ele>
        <time>2019-07-07T11:52:01Z</time>
      </trkpt>
      <trkpt lat="38.4607410" lon="-28.5019590">
        <ele>183.5</ele>
        <time>2019-07-07T11:52:05Z</time>
      </trkpt>
      <trkpt lat="38.4607330" lon="-28.5019180">
        <ele>184.1</ele>
        <time>2019-07-07T11:52:08Z</time>
      </trkpt>
      <trkpt lat="38.4607260" lon="-28.5018610">
        <ele>184.9</ele>
        <time>2019-07-07T11:52:12Z</time>
      </trkpt>
      <trkpt lat="38.4607240" lon="-28.5018320">
        <ele>185.4</ele>
        <time>2019-07-07T11:52:14Z</time>
      </trkpt>
      <trkpt lat="38.4607220" lon="-28.5018030">
        <ele>185.8</ele>
        <time>2019-07-07T11:52:16Z</time>
      </trkpt>
      <trkpt lat="38.4607160" lon="-28.5017730">
        <ele>186.2</ele>
        <time>2019-07-07T11:52:18Z</time>
      </trkpt>
      <trkpt lat="38.4607110" lon="-28.5017360">
        <ele>186.8</ele>
        <time>2019-07-07T11:52:20Z</time>
      </trkpt>
      <trkpt lat="38.4607090" lon="-28.5016680">
        <ele>187.7</ele>
        <time>2019-07-07T11:52:24Z</time>
      </trkpt>
      <trkpt lat="38.4607120" lon="-28.5015890">
        <ele>188.7</ele>
        <time>2019-07-07T11:52:29Z</time>
      </trkpt>
      <trkpt lat="38.4607300" lon="-28.5014680">
        <ele>190.0</ele>
        <time>2019-07-07T11:52:36Z</time>
      </trkpt>
      <trkpt lat="38.4607290" lon="-28.5014490">
        <ele>190.2</ele>
        <time>2019-07-07T11:52:37Z</time>
      </trkpt>
      <trkpt lat="38.4607280" lon="-28.5013640">
        <ele>190.9</ele>
        <time>2019-07-07T11:52:41Z</time>
      </trkpt>
      <trkpt lat="38.4607310" lon="-28.5013200">
        <ele>191.1</ele>
        <time>2019-07-07T11:52:44Z</time>
      </trkpt>
      <trkpt lat="38.4607350" lon="-28.5012620">
        <ele>191.5</ele>
        <time>2019-07-07T11:52:48Z</time>
      </trkpt>
      <trkpt lat="38.4607520" lon="-28.5012220">
        <ele>191.9</ele>
        <time>2019-07-07T11:52:51Z</time>
      </trkpt>
      <trkpt lat="38.4607790" lon="-28.5011080">
        <ele>192.9</ele>
        <time>2019-07-07T11:52:57Z</time>
      </trkpt>
      <trkpt lat="38.4607870" lon="-28.5010440">
        <ele>194.1</ele>
        <time>2019-07-07T11:53:00Z</time>
      </trkpt>
      <trkpt lat="38.4608130" lon="-28.5009060">
        <ele>196.5</ele>
        <time>2019-07-07T11:53:07Z</time>
      </trkpt>
      <trkpt lat="38.4608450" lon="-28.5007540">
        <ele>199.0</ele>
        <time>2019-07-07T11:53:14Z</time>
      </trkpt>
      <trkpt lat="38.4608670" lon="-28.5006800">
        <ele>200.8</ele>
        <time>2019-07-07T11:53:17Z</time>
      </trkpt>
      <trkpt lat="38.4608790" lon="-28.5006330">
        <ele>201.7</ele>
        <time>2019-07-07T11:53:19Z</time>
      </trkpt>
      <trkpt lat="38.4609120" lon="-28.5004880">
        <ele>203.9</ele>
        <time>2019-07-07T11:53:25Z</time>
      </trkpt>
      <trkpt lat="38.4609500" lon="-28.5003470">
        <ele>205.8</ele>
        <time>2019-07-07T11:53:29Z</time>
      </trkpt>
      <trkpt lat="38.4609620" lon="-28.5002930">
        <ele>206.5</ele>
        <time>2019-07-07T11:53:31Z</time>
      </trkpt>
      <trkpt lat="38.4609930" lon="-28.5001770">
        <ele>207.5</ele>
        <time>2019-07-07T11:53:36Z</time>
      </trkpt>
      <trkpt lat="38.4610310" lon="-28.5000440">
        <ele>208.9</ele>
        <time>2019-07-07T11:53:42Z</time>
      </trkpt>
      <trkpt lat="38.4610670" lon="-28.4998850">
        <ele>210.6</ele>
        <time>2019-07-07T11:53:48Z</time>
      </trkpt>
      <trkpt lat="38.4610720" lon="-28.4998610">
        <ele>210.8</ele>
        <time>2019-07-07T11:53:49Z</time>
      </trkpt>
      <trkpt lat="38.4610840" lon="-28.4998190">
        <ele>211.1</ele>
        <time>2019-07-07T11:53:51Z</time>
      </trkpt>
      <trkpt lat="38.4610960" lon="-28.4997580">
        <ele>212.0</ele>
        <time>2019-07-07T11:53:54Z</time>
      </trkpt>
      <trkpt lat="38.4611040" lon="-28.4997190">
        <ele>212.6</ele>
        <time>2019-07-07T11:53:56Z</time>
      </trkpt>
      <trkpt lat="38.4611060" lon="-28.4997020">
        <ele>212.8</ele>
        <time>2019-07-07T11:53:57Z</time>
      </trkpt>
      <trkpt lat="38.4611200" lon="-28.4996030">
        <ele>213.4</ele>
        <time>2019-07-07T11:54:02Z</time>
      </trkpt>
      <trkpt lat="38.4611230" lon="-28.4995490">
        <ele>213.6</ele>
        <time>2019-07-07T11:54:05Z</time>
      </trkpt>
      <trkpt lat="38.4611290" lon="-28.4994900">
        <ele>213.9</ele>
        <time>2019-07-07T11:54:09Z</time>
      </trkpt>
      <trkpt lat="38.4611310" lon="-28.4994760">
        <ele>213.9</ele>
        <time>2019-07-07T11:54:10Z</time>
      </trkpt>
      <trkpt lat="38.4611300" lon="-28.4994610">
        <ele>214.0</ele>
        <time>2019-07-07T11:54:11Z</time>
      </trkpt>
      <trkpt lat="38.4611250" lon="-28.4993990">
        <ele>214.1</ele>
        <time>2019-07-07T11:54:14Z</time>
      </trkpt>
      <trkpt lat="38.4611340" lon="-28.4993400">
        <ele>214.3</ele>
        <time>2019-07-07T11:54:16Z</time>
      </trkpt>
      <trkpt lat="38.4611410" lon="-28.4993100">
        <ele>214.6</ele>
        <time>2019-07-07T11:54:17Z</time>
      </trkpt>
      <trkpt lat="38.4611860" lon="-28.4990850">
        <ele>216.1</ele>
        <time>2019-07-07T11:54:23Z</time>
      </trkpt>
      <trkpt lat="38.4612450" lon="-28.4987590">
        <ele>218.4</ele>
        <time>2019-07-07T11:54:31Z</time>
      </trkpt>
      <trkpt lat="38.4612460" lon="-28.4987280">
        <ele>218.4</ele>
        <time>2019-07-07T11:54:32Z</time>
      </trkpt>
      <trkpt lat="38.4612470" lon="-28.4985200">
        <ele>219.6</ele>
        <time>2019-07-07T11:54:38Z</time>
      </trkpt>
      <trkpt lat="38.4612600" lon="-28.4982800">
        <ele>221.6</ele>
        <time>2019-07-07T11:54:43Z</time>
      </trkpt>
      <trkpt lat="38.4612590" lon="-28.4982400">
        <ele>222.0</ele>
        <time>2019-07-07T11:54:44Z</time>
      </trkpt>
      <trkpt lat="38.4612500" lon="-28.4981190">
        <ele>223.5</ele>
        <time>2019-07-07T11:54:48Z</time>
      </trkpt>
      <trkpt lat="38.4612360" lon="-28.4979190">
        <ele>225.2</ele>
        <time>2019-07-07T11:54:53Z</time>
      </trkpt>
      <trkpt lat="38.4612360" lon="-28.4978850">
        <ele>225.4</ele>
        <time>2019-07-07T11:54:54Z</time>
      </trkpt>
      <trkpt lat="38.4612590" lon="-28.4977530">
        <ele>226.0</ele>
        <time>2019-07-07T11:54:58Z</time>
      </trkpt>
      <trkpt lat="38.4612650" lon="-28.4977230">
        <ele>226.2</ele>
        <time>2019-07-07T11:54:59Z</time>
      </trkpt>
      <trkpt lat="38.4612980" lon="-28.4975270">
        <ele>227.0</ele>
        <time>2019-07-07T11:55:05Z</time>
      </trkpt>
      <trkpt lat="38.4613020" lon="-28.4974990">
        <ele>227.2</ele>
        <time>2019-07-07T11:55:06Z</time>
      </trkpt>
      <trkpt lat="38.4613030" lon="-28.4973880">
        <ele>227.6</ele>
        <time>2019-07-07T11:55:10Z</time>
      </trkpt>
      <trkpt lat="38.4613050" lon="-28.4973320">
        <ele>227.8</ele>
        <time>2019-07-07T11:55:12Z</time>
      </trkpt>
      <trkpt lat="38.4613150" lon="-28.4972000">
        <ele>228.4</ele>
        <time>2019-07-07T11:55:17Z</time>
      </trkpt>
      <trkpt lat="38.4613180" lon="-28.4971520">
        <ele>228.7</ele>
        <time>2019-07-07T11:55:19Z</time>
      </trkpt>
      <trkpt lat="38.4613140" lon="-28.4970470">
        <ele>229.0</ele>
        <time>2019-07-07T11:55:23Z</time>
      </trkpt>
      <trkpt lat="38.4613170" lon="-28.4969680">
        <ele>229.4</ele>
        <time>2019-07-07T11:55:26Z</time>
      </trkpt>
      <trkpt lat="38.4613160" lon="-28.4968390">
        <ele>229.4</ele>
        <time>2019-07-07T11:55:31Z</time>
      </trkpt>
      <trkpt lat="38.4613170" lon="-28.4967550">
        <ele>229.7</ele>
        <time>2019-07-07T11:55:34Z</time>
      </trkpt>
      <trkpt lat="38.4613400" lon="-28.4966150">
        <ele>230.7</ele>
        <time>2019-07-07T11:55:38Z</time>
      </trkpt>
      <trkpt lat="38.4613620" lon="-28.4965040">
        <ele>231.6</ele>
        <time>2019-07-07T11:55:41Z</time>
      </trkpt>
      <trkpt lat="38.4613930" lon="-28.4963580">
        <ele>232.8</ele>
        <time>2019-07-07T11:55:45Z</time>
      </trkpt>
      <trkpt lat="38.4614070" lon="-28.4962790">
        <ele>233.8</ele>
        <time>2019-07-07T11:55:48Z</time>
      </trkpt>
      <trkpt lat="38.4614490" lon="-28.4961760">
        <ele>235.6</ele>
        <time>2019-07-07T11:55:54Z</time>
      </trkpt>
      <trkpt lat="38.4615210" lon="-28.4961560">
        <ele>236.8</ele>
        <time>2019-07-07T11:55:58Z</time>
      </trkpt>
      <trkpt lat="38.4615620" lon="-28.4961520">
        <ele>237.2</ele>
        <time>2019-07-07T11:56:00Z</time>
      </trkpt>
      <trkpt lat="38.4617310" lon="-28.4961170">
        <ele>239.3</ele>
        <time>2019-07-07T11:56:08Z</time>
      </trkpt>
      <trkpt lat="38.4618100" lon="-28.4961090">
        <ele>239.9</ele>
        <time>2019-07-07T11:56:12Z</time>
      </trkpt>
      <trkpt lat="38.4618700" lon="-28.4961070">
        <ele>240.3</ele>
        <time>2019-07-07T11:56:15Z</time>
      </trkpt>
      <trkpt lat="38.4619000" lon="-28.4961100">
        <ele>240.5</ele>
        <time>2019-07-07T11:56:17Z</time>
      </trkpt>
      <trkpt lat="38.4619450" lon="-28.4961100">
        <ele>240.7</ele>
        <time>2019-07-07T11:56:20Z</time>
      </trkpt>
      <trkpt lat="38.4619600" lon="-28.4961110">
        <ele>240.8</ele>
        <time>2019-07-07T11:56:21Z</time>
      </trkpt>
      <trkpt lat="38.4620040" lon="-28.4961190">
        <ele>241.1</ele>
        <time>2019-07-07T11:56:24Z</time>
      </trkpt>
      <trkpt lat="38.4620370" lon="-28.4961240">
        <ele>241.3</ele>
        <time>2019-07-07T11:56:27Z</time>
      </trkpt>
      <trkpt lat="38.4620420" lon="-28.4961260">
        <ele>241.3</ele>
        <time>2019-07-07T11:56:29Z</time>
      </trkpt>
      <trkpt lat="38.4622530" lon="-28.4961040">
        <ele>243.1</ele>
        <time>2019-07-07T11:57:36Z</time>
      </trkpt>
      <trkpt lat="38.4622690" lon="-28.4961030">
        <ele>243.3</ele>
        <time>2019-07-07T11:57:37Z</time>
      </trkpt>
      <trkpt lat="38.4623000" lon="-28.4960970">
        <ele>243.6</ele>
        <time>2019-07-07T11:57:39Z</time>
      </trkpt>
      <trkpt lat="38.4623300" lon="-28.4960920">
        <ele>243.8</ele>
        <time>2019-07-07T11:57:41Z</time>
      </trkpt>
      <trkpt lat="38.4624040" lon="-28.4960770">
        <ele>244.4</ele>
        <time>2019-07-07T11:57:46Z</time>
      </trkpt>
      <trkpt lat="38.4624490" lon="-28.4960720">
        <ele>244.9</ele>
        <time>2019-07-07T11:57:49Z</time>
      </trkpt>
      <trkpt lat="38.4624620" lon="-28.4960760">
        <ele>245.1</ele>
        <time>2019-07-07T11:57:50Z</time>
      </trkpt>
      <trkpt lat="38.4625400" lon="-28.4961050">
        <ele>245.8</ele>
        <time>2019-07-07T11:57:56Z</time>
      </trkpt>
      <trkpt lat="38.4625530" lon="-28.4961060">
        <ele>245.9</ele>
        <time>2019-07-07T11:57:57Z</time>
      </trkpt>
      <trkpt lat="38.4626100" lon="-28.4961100">
        <ele>246.5</ele>
        <time>2019-07-07T11:58:02Z</time>
      </trkpt>
      <trkpt lat="38.4626470" lon="-28.4961150">
        <ele>247.0</ele>
        <time>2019-07-07T11:58:05Z</time>
      </trkpt>
      <trkpt lat="38.4627130" lon="-28.4961100">
        <ele>247.6</ele>
        <time>2019-07-07T11:58:09Z</time>
      </trkpt>
      <trkpt lat="38.4627840" lon="-28.4960960">
        <ele>248.5</ele>
        <time>2019-07-07T11:58:13Z</time>
      </trkpt>
      <trkpt lat="38.4628240" lon="-28.4960960">
        <ele>249.0</ele>
        <time>2019-07-07T11:58:16Z</time>
      </trkpt>
      <trkpt lat="38.4628610" lon="-28.4960850">
        <ele>249.5</ele>
        <time>2019-07-07T11:58:19Z</time>
      </trkpt>
      <trkpt lat="38.4628870" lon="-28.4960780">
        <ele>249.8</ele>
        <time>2019-07-07T11:58:21Z</time>
      </trkpt>
      <trkpt lat="38.4629660" lon="-28.4960800">
        <ele>250.7</ele>
        <time>2019-07-07T11:58:27Z</time>
      </trkpt>
      <trkpt lat="38.4630400" lon="-28.4960950">
        <ele>251.4</ele>
        <time>2019-07-07T11:58:33Z</time>
      </trkpt>
      <trkpt lat="38.4630540" lon="-28.4960980">
        <ele>251.5</ele>
        <time>2019-07-07T11:58:34Z</time>
      </trkpt>
      <trkpt lat="38.4631720" lon="-28.4961500">
        <ele>251.9</ele>
        <time>2019-07-07T11:58:39Z</time>
      </trkpt>
      <trkpt lat="38.4633670" lon="-28.4962430">
        <ele>253.9</ele>
        <time>2019-07-07T11:58:46Z</time>
      </trkpt>
      <trkpt lat="38.4634090" lon="-28.4962560">
        <ele>254.5</ele>
        <time>2019-07-07T11:58:48Z</time>
      </trkpt>
      <trkpt lat="38.4635180" lon="-28.4963000">
        <ele>255.5</ele>
        <time>2019-07-07T11:58:53Z</time>
      </trkpt>
      <trkpt lat="38.4636020" lon="-28.4963470">
        <ele>255.9</ele>
        <time>2019-07-07T11:58:57Z</time>
      </trkpt>
      <trkpt lat="38.4636710" lon="-28.4964030">
        <ele>256.0</ele>
        <time>2019-07-07T11:59:01Z</time>
      </trkpt>
      <trkpt lat="38.4637140" lon="-28.4964350">
        <ele>256.0</ele>
        <time>2019-07-07T11:59:04Z</time>
      </trkpt>
      <trkpt lat="38.4637510" lon="-28.4964550">
        <ele>256.0</ele>
        <time>2019-07-07T11:59:07Z</time>
      </trkpt>
      <trkpt lat="38.4637720" lon="-28.4964690">
        <ele>256.0</ele>
        <time>2019-07-07T11:59:09Z</time>
      </trkpt>
      <trkpt lat="38.4637840" lon="-28.4964730">
        <ele>256.0</ele>
        <time>2019-07-07T11:59:10Z</time>
      </trkpt>
      <trkpt lat="38.4638760" lon="-28.4965080">
        <ele>257.6</ele>
        <time>2019-07-07T11:59:16Z</time>
      </trkpt>
      <trkpt lat="38.4638920" lon="-28.4965100">
        <ele>257.8</ele>
        <time>2019-07-07T11:59:17Z</time>
      </trkpt>
      <trkpt lat="38.4639250" lon="-28.4965080">
        <ele>258.2</ele>
        <time>2019-07-07T11:59:19Z</time>
      </trkpt>
      <trkpt lat="38.4639910" lon="-28.4964930">
        <ele>259.1</ele>
        <time>2019-07-07T11:59:23Z</time>
      </trkpt>
      <trkpt lat="38.4640030" lon="-28.4964890">
        <ele>259.3</ele>
        <time>2019-07-07T11:59:24Z</time>
      </trkpt>
      <trkpt lat="38.4640530" lon="-28.4964650">
        <ele>260.1</ele>
        <time>2019-07-07T11:59:28Z</time>
      </trkpt>
      <trkpt lat="38.4640670" lon="-28.4964580">
        <ele>260.3</ele>
        <time>2019-07-07T11:59:29Z</time>
      </trkpt>
      <trkpt lat="38.4641050" lon="-28.4964320">
        <ele>260.9</ele>
        <time>2019-07-07T11:59:32Z</time>
      </trkpt>
      <trkpt lat="38.4641570" lon="-28.4964130">
        <ele>261.6</ele>
        <time>2019-07-07T11:59:35Z</time>
      </trkpt>
      <trkpt lat="38.4641950" lon="-28.4963970">
        <ele>262.0</ele>
        <time>2019-07-07T11:59:37Z</time>
      </trkpt>
      <trkpt lat="38.4642850" lon="-28.4963430">
        <ele>263.0</ele>
        <time>2019-07-07T11:59:42Z</time>
      </trkpt>
      <trkpt lat="38.4643600" lon="-28.4962790">
        <ele>264.3</ele>
        <time>2019-07-07T11:59:46Z</time>
      </trkpt>
      <trkpt lat="38.4644180" lon="-28.4962400">
        <ele>265.3</ele>
        <time>2019-07-07T11:59:49Z</time>
      </trkpt>
      <trkpt lat="38.4644790" lon="-28.4962110">
        <ele>266.2</ele>
        <time>2019-07-07T11:59:53Z</time>
      </trkpt>
      <trkpt lat="38.4645190" lon="-28.4961880">
        <ele>266.9</ele>
        <time>2019-07-07T11:59:56Z</time>
      </trkpt>
      <trkpt lat="38.4645410" lon="-28.4961700">
        <ele>267.2</ele>
        <time>2019-07-07T11:59:58Z</time>
      </trkpt>
      <trkpt lat="38.4645840" lon="-28.4961110">
        <ele>267.9</ele>
        <time>2019-07-07T12:00:02Z</time>
      </trkpt>
      <trkpt lat="38.4646390" lon="-28.4960340">
        <ele>268.7</ele>
        <time>2019-07-07T12:00:06Z</time>
      </trkpt>
      <trkpt lat="38.4646860" lon="-28.4959500">
        <ele>269.3</ele>
        <time>2019-07-07T12:00:10Z</time>
      </trkpt>
      <trkpt lat="38.4647500" lon="-28.4958280">
        <ele>269.8</ele>
        <time>2019-07-07T12:00:15Z</time>
      </trkpt>
      <trkpt lat="38.4647690" lon="-28.4957960">
        <ele>269.9</ele>
        <time>2019-07-07T12:00:16Z</time>
      </trkpt>
      <trkpt lat="38.4649610" lon="-28.4956250">
        <ele>270.7</ele>
        <time>2019-07-07T12:00:23Z</time>
      </trkpt>
      <trkpt lat="38.4650520" lon="-28.4955980">
        <ele>271.2</ele>
        <time>2019-07-07T12:00:26Z</time>
      </trkpt>
      <trkpt lat="38.4651570" lon="-28.4955900">
        <ele>271.5</ele>
        <time>2019-07-07T12:00:30Z</time>
      </trkpt>
      <trkpt lat="38.4652720" lon="-28.4955510">
        <ele>271.6</ele>
        <time>2019-07-07T12:00:34Z</time>
      </trkpt>
      <trkpt lat="38.4653310" lon="-28.4955210">
        <ele>271.6</ele>
        <time>2019-07-07T12:00:36Z</time>
      </trkpt>
      <trkpt lat="38.4655970" lon="-28.4953580">
        <ele>271.5</ele>
        <time>2019-07-07T12:00:44Z</time>
      </trkpt>
      <trkpt lat="38.4657860" lon="-28.4952980">
        <ele>271.8</ele>
        <time>2019-07-07T12:00:48Z</time>
      </trkpt>
      <trkpt lat="38.4658330" lon="-28.4952970">
        <ele>272.0</ele>
        <time>2019-07-07T12:00:49Z</time>
      </trkpt>
      <trkpt lat="38.4659980" lon="-28.4952960">
        <ele>273.4</ele>
        <time>2019-07-07T12:00:53Z</time>
      </trkpt>
      <trkpt lat="38.4660340" lon="-28.4952910">
        <ele>273.8</ele>
        <time>2019-07-07T12:00:54Z</time>
      </trkpt>
      <trkpt lat="38.4661380" lon="-28.4952430">
        <ele>275.1</ele>
        <time>2019-07-07T12:00:58Z</time>
      </trkpt>
      <trkpt lat="38.4661590" lon="-28.4952320">
        <ele>275.4</ele>
        <time>2019-07-07T12:00:59Z</time>
      </trkpt>
      <trkpt lat="38.4661990" lon="-28.4952080">
        <ele>275.9</ele>
        <time>2019-07-07T12:01:01Z</time>
      </trkpt>
      <trkpt lat="38.4662710" lon="-28.4951820">
        <ele>276.8</ele>
        <time>2019-07-07T12:01:04Z</time>
      </trkpt>
      <trkpt lat="38.4663190" lon="-28.4951570">
        <ele>277.4</ele>
        <time>2019-07-07T12:01:06Z</time>
      </trkpt>
      <trkpt lat="38.4663440" lon="-28.4951450">
        <ele>277.7</ele>
        <time>2019-07-07T12:01:07Z</time>
      </trkpt>
      <trkpt lat="38.4664090" lon="-28.4951190">
        <ele>278.4</ele>
        <time>2019-07-07T12:01:10Z</time>
      </trkpt>
      <trkpt lat="38.4664520" lon="-28.4951030">
        <ele>278.9</ele>
        <time>2019-07-07T12:01:12Z</time>
      </trkpt>
      <trkpt lat="38.4666030" lon="-28.4950370">
        <ele>280.2</ele>
        <time>2019-07-07T12:01:17Z</time>
      </trkpt>
      <trkpt lat="38.4666330" lon="-28.4950240">
        <ele>280.4</ele>
        <time>2019-07-07T12:01:18Z</time>
      </trkpt>
      <trkpt lat="38.4667010" lon="-28.4949980">
        <ele>280.6</ele>
        <time>2019-07-07T12:01:21Z</time>
      </trkpt>
      <trkpt lat="38.4667550" lon="-28.4949840">
        <ele>280.7</ele>
        <time>2019-07-07T12:01:23Z</time>
      </trkpt>
      <trkpt lat="38.4669210" lon="-28.4949350">
        <ele>280.7</ele>
        <time>2019-07-07T12:01:29Z</time>
      </trkpt>
      <trkpt lat="38.4669520" lon="-28.4949260">
        <ele>280.7</ele>
        <time>2019-07-07T12:01:30Z</time>
      </trkpt>
      <trkpt lat="38.4671720" lon="-28.4948770">
        <ele>281.0</ele>
        <time>2019-07-07T12:01:36Z</time>
      </trkpt>
      <trkpt lat="38.4674920" lon="-28.4947760">
        <ele>281.5</ele>
        <time>2019-07-07T12:01:43Z</time>
      </trkpt>
      <trkpt lat="38.4678270" lon="-28.4946030">
        <ele>281.3</ele>
        <time>2019-07-07T12:01:51Z</time>
      </trkpt>
      <trkpt lat="38.4681570" lon="-28.4944470">
        <ele>281.2</ele>
        <time>2019-07-07T12:01:58Z</time>
      </trkpt>
      <trkpt lat="38.4683950" lon="-28.4943530">
        <ele>281.3</ele>
        <time>2019-07-07T12:02:03Z</time>
      </trkpt>
      <trkpt lat="38.4684740" lon="-28.4943140">
        <ele>281.6</ele>
        <time>2019-07-07T12:02:05Z</time>
      </trkpt>
      <trkpt lat="38.4685170" lon="-28.4942980">
        <ele>281.8</ele>
        <time>2019-07-07T12:02:06Z</time>
      </trkpt>
      <trkpt lat="38.4687840" lon="-28.4942040">
        <ele>283.4</ele>
        <time>2019-07-07T12:02:12Z</time>
      </trkpt>
      <trkpt lat="38.4689440" lon="-28.4941530">
        <ele>284.2</ele>
        <time>2019-07-07T12:02:16Z</time>
      </trkpt>
      <trkpt lat="38.4690270" lon="-28.4941220">
        <ele>284.5</ele>
        <time>2019-07-07T12:02:18Z</time>
      </trkpt>
      <trkpt lat="38.4691080" lon="-28.4940910">
        <ele>284.8</ele>
        <time>2019-07-07T12:02:20Z</time>
      </trkpt>
      <trkpt lat="38.4692590" lon="-28.4940250">
        <ele>285.6</ele>
        <time>2019-07-07T12:02:24Z</time>
      </trkpt>
      <trkpt lat="38.4693390" lon="-28.4939950">
        <ele>285.9</ele>
        <time>2019-07-07T12:02:26Z</time>
      </trkpt>
      <trkpt lat="38.4695290" lon="-28.4939220">
        <ele>286.5</ele>
        <time>2019-07-07T12:02:31Z</time>
      </trkpt>
      <trkpt lat="38.4696000" lon="-28.4938960">
        <ele>286.7</ele>
        <time>2019-07-07T12:02:33Z</time>
      </trkpt>
      <trkpt lat="38.4697000" lon="-28.4938610">
        <ele>287.2</ele>
        <time>2019-07-07T12:02:36Z</time>
      </trkpt>
      <trkpt lat="38.4697890" lon="-28.4938310">
        <ele>287.8</ele>
        <time>2019-07-07T12:02:39Z</time>
      </trkpt>
      <trkpt lat="38.4698380" lon="-28.4938120">
        <ele>288.2</ele>
        <time>2019-07-07T12:02:41Z</time>
      </trkpt>
      <trkpt lat="38.4699660" lon="-28.4937640">
        <ele>289.6</ele>
        <time>2019-07-07T12:02:46Z</time>
      </trkpt>
      <trkpt lat="38.4700360" lon="-28.4937310">
        <ele>290.4</ele>
        <time>2019-07-07T12:02:49Z</time>
      </trkpt>
      <trkpt lat="38.4702140" lon="-28.4936590">
        <ele>292.2</ele>
        <time>2019-07-07T12:02:56Z</time>
      </trkpt>
      <trkpt lat="38.4702450" lon="-28.4936460">
        <ele>292.5</ele>
        <time>2019-07-07T12:02:57Z</time>
      </trkpt>
      <trkpt lat="38.4703350" lon="-28.4936140">
        <ele>293.2</ele>
        <time>2019-07-07T12:03:00Z</time>
      </trkpt>
      <trkpt lat="38.4704550" lon="-28.4935780">
        <ele>294.3</ele>
        <time>2019-07-07T12:03:05Z</time>
      </trkpt>
      <trkpt lat="38.4705290" lon="-28.4935630">
        <ele>295.0</ele>
        <time>2019-07-07T12:03:09Z</time>
      </trkpt>
      <trkpt lat="38.4705970" lon="-28.4935430">
        <ele>295.7</ele>
        <time>2019-07-07T12:03:12Z</time>
      </trkpt>
      <trkpt lat="38.4706230" lon="-28.4935340">
        <ele>296.0</ele>
        <time>2019-07-07T12:03:13Z</time>
      </trkpt>
      <trkpt lat="38.4706690" lon="-28.4935160">
        <ele>296.6</ele>
        <time>2019-07-07T12:03:15Z</time>
      </trkpt>
      <trkpt lat="38.4707740" lon="-28.4934930">
        <ele>298.0</ele>
        <time>2019-07-07T12:03:19Z</time>
      </trkpt>
      <trkpt lat="38.4708190" lon="-28.4934830">
        <ele>298.7</ele>
        <time>2019-07-07T12:03:21Z</time>
      </trkpt>
      <trkpt lat="38.4708960" lon="-28.4934630">
        <ele>299.7</ele>
        <time>2019-07-07T12:03:25Z</time>
      </trkpt>
      <trkpt lat="38.4709120" lon="-28.4934600">
        <ele>299.9</ele>
        <time>2019-07-07T12:03:26Z</time>
      </trkpt>
      <trkpt lat="38.4710390" lon="-28.4934470">
        <ele>301.1</ele>
        <time>2019-07-07T12:03:32Z</time>
      </trkpt>
      <trkpt lat="38.4711280" lon="-28.4934270">
        <ele>301.9</ele>
        <time>2019-07-07T12:03:35Z</time>
      </trkpt>
      <trkpt lat="38.4711600" lon="-28.4934190">
        <ele>302.1</ele>
        <time>2019-07-07T12:03:36Z</time>
      </trkpt>
      <trkpt lat="38.4713500" lon="-28.4933560">
        <ele>303.3</ele>
        <time>2019-07-07T12:03:42Z</time>
      </trkpt>
      <trkpt lat="38.4713810" lon="-28.4933430">
        <ele>303.4</ele>
        <time>2019-07-07T12:03:43Z</time>
      </trkpt>
      <trkpt lat="38.4715310" lon="-28.4933230">
        <ele>303.5</ele>
        <time>2019-07-07T12:03:48Z</time>
      </trkpt>
      <trkpt lat="38.4716630" lon="-28.4934080">
        <ele>303.2</ele>
        <time>2019-07-07T12:03:52Z</time>
      </trkpt>
      <trkpt lat="38.4718610" lon="-28.4936140">
        <ele>302.3</ele>
        <time>2019-07-07T12:03:56Z</time>
      </trkpt>
      <trkpt lat="38.4719940" lon="-28.4937480">
        <ele>301.9</ele>
        <time>2019-07-07T12:03:58Z</time>
      </trkpt>
      <trkpt lat="38.4722060" lon="-28.4939580">
        <ele>301.5</ele>
        <time>2019-07-07T12:04:01Z</time>
      </trkpt>
      <trkpt lat="38.4724020" lon="-28.4941750">
        <ele>300.4</ele>
        <time>2019-07-07T12:04:04Z</time>
      </trkpt>
      <trkpt lat="38.4725780" lon="-28.4943770">
        <ele>298.8</ele>
        <time>2019-07-07T12:04:07Z</time>
      </trkpt>
      <trkpt lat="38.4727640" lon="-28.4946010">
        <ele>296.4</ele>
        <time>2019-07-07T12:04:11Z</time>
      </trkpt>
      <trkpt lat="38.4728020" lon="-28.4946530">
        <ele>296.0</ele>
        <time>2019-07-07T12:04:12Z</time>
      </trkpt>
      <trkpt lat="38.4728840" lon="-28.4947600">
        <ele>295.2</ele>
        <time>2019-07-07T12:04:14Z</time>
      </trkpt>
      <trkpt lat="38.4730360" lon="-28.4949230">
        <ele>294.1</ele>
        <time>2019-07-07T12:04:17Z</time>
      </trkpt>
      <trkpt lat="38.4732180" lon="-28.4950910">
        <ele>293.5</ele>
        <time>2019-07-07T12:04:20Z</time>
      </trkpt>
      <trkpt lat="38.4732870" lon="-28.4951490">
        <ele>293.4</ele>
        <time>2019-07-07T12:04:21Z</time>
      </trkpt>
      <trkpt lat="38.4733590" lon="-28.4952040">
        <ele>293.3</ele>
        <time>2019-07-07T12:04:22Z</time>
      </trkpt>
      <trkpt lat="38.4734360" lon="-28.4952570">
        <ele>293.3</ele>
        <time>2019-07-07T12:04:23Z</time>
      </trkpt>
      <trkpt lat="38.4737640" lon="-28.4954280">
        <ele>294.6</ele>
        <time>2019-07-07T12:04:27Z</time>
      </trkpt>
      <trkpt lat="38.4740990" lon="-28.4956630">
        <ele>293.2</ele>
        <time>2019-07-07T12:04:32Z</time>
      </trkpt>
      <trkpt lat="38.4742030" lon="-28.4957540">
        <ele>291.5</ele>
        <time>2019-07-07T12:04:34Z</time>
      </trkpt>
      <trkpt lat="38.4743290" lon="-28.4958280">
        <ele>290.2</ele>
        <time>2019-07-07T12:04:36Z</time>
      </trkpt>
      <trkpt lat="38.4746590" lon="-28.4959750">
        <ele>288.7</ele>
        <time>2019-07-07T12:04:40Z</time>
      </trkpt>
      <trkpt lat="38.4747550" lon="-28.4960070">
        <ele>288.9</ele>
        <time>2019-07-07T12:04:41Z</time>
      </trkpt>
      <trkpt lat="38.4749450" lon="-28.4960780">
        <ele>289.3</ele>
        <time>2019-07-07T12:04:43Z</time>
      </trkpt>
      <trkpt lat="38.4750280" lon="-28.4961370">
        <ele>289.5</ele>
        <time>2019-07-07T12:04:44Z</time>
      </trkpt>
      <trkpt lat="38.4751640" lon="-28.4963010">
        <ele>289.6</ele>
        <time>2019-07-07T12:04:46Z</time>
      </trkpt>
      <trkpt lat="38.4752990" lon="-28.4964660">
        <ele>289.2</ele>
        <time>2019-07-07T12:04:48Z</time>
      </trkpt>
      <trkpt lat="38.4755430" lon="-28.4966610">
        <ele>289.6</ele>
        <time>2019-07-07T12:04:51Z</time>
      </trkpt>
      <trkpt lat="38.4756340" lon="-28.4966960">
        <ele>289.9</ele>
        <time>2019-07-07T12:04:52Z</time>
      </trkpt>
      <trkpt lat="38.4757270" lon="-28.4967220">
        <ele>290.8</ele>
        <time>2019-07-07T12:04:53Z</time>
      </trkpt>
      <trkpt lat="38.4758160" lon="-28.4967570">
        <ele>291.7</ele>
        <time>2019-07-07T12:04:54Z</time>
      </trkpt>
      <trkpt lat="38.4759820" lon="-28.4968630">
        <ele>293.9</ele>
        <time>2019-07-07T12:04:56Z</time>
      </trkpt>
      <trkpt lat="38.4761200" lon="-28.4970100">
        <ele>294.9</ele>
        <time>2019-07-07T12:04:58Z</time>
      </trkpt>
      <trkpt lat="38.4761790" lon="-28.4970810">
        <ele>295.1</ele>
        <time>2019-07-07T12:04:59Z</time>
      </trkpt>
      <trkpt lat="38.4762270" lon="-28.4971520">
        <ele>295.0</ele>
        <time>2019-07-07T12:05:00Z</time>
      </trkpt>
      <trkpt lat="38.4762790" lon="-28.4973220">
        <ele>294.7</ele>
        <time>2019-07-07T12:05:02Z</time>
      </trkpt>
      <trkpt lat="38.4762990" lon="-28.4974960">
        <ele>294.0</ele>
        <time>2019-07-07T12:05:04Z</time>
      </trkpt>
      <trkpt lat="38.4763320" lon="-28.4976700">
        <ele>293.3</ele>
        <time>2019-07-07T12:05:06Z</time>
      </trkpt>
      <trkpt lat="38.4763630" lon="-28.4977540">
        <ele>292.9</ele>
        <time>2019-07-07T12:05:07Z</time>
      </trkpt>
      <trkpt lat="38.4765140" lon="-28.4979670">
        <ele>291.8</ele>
        <time>2019-07-07T12:05:10Z</time>
      </trkpt>
      <trkpt lat="38.4766240" lon="-28.4980950">
        <ele>291.5</ele>
        <time>2019-07-07T12:05:12Z</time>
      </trkpt>
      <trkpt lat="38.4766760" lon="-28.4981430">
        <ele>291.5</ele>
        <time>2019-07-07T12:05:13Z</time>
      </trkpt>
      <trkpt lat="38.4767280" lon="-28.4981810">
        <ele>291.6</ele>
        <time>2019-07-07T12:05:14Z</time>
      </trkpt>
      <trkpt lat="38.4767810" lon="-28.4982160">
        <ele>291.6</ele>
        <time>2019-07-07T12:05:15Z</time>
      </trkpt>
      <trkpt lat="38.4770320" lon="-28.4983820">
        <ele>291.8</ele>
        <time>2019-07-07T12:05:20Z</time>
      </trkpt>
      <trkpt lat="38.4770790" lon="-28.4984240">
        <ele>291.8</ele>
        <time>2019-07-07T12:05:21Z</time>
      </trkpt>
      <trkpt lat="38.4771260" lon="-28.4984740">
        <ele>291.8</ele>
        <time>2019-07-07T12:05:22Z</time>
      </trkpt>
      <trkpt lat="38.4772490" lon="-28.4986790">
        <ele>291.0</ele>
        <time>2019-07-07T12:05:25Z</time>
      </trkpt>
      <trkpt lat="38.4774170" lon="-28.4989390">
        <ele>289.8</ele>
        <time>2019-07-07T12:05:29Z</time>
      </trkpt>
      <trkpt lat="38.4774690" lon="-28.4989840">
        <ele>289.6</ele>
        <time>2019-07-07T12:05:30Z</time>
      </trkpt>
      <trkpt lat="38.4777210" lon="-28.4990990">
        <ele>287.7</ele>
        <time>2019-07-07T12:05:34Z</time>
      </trkpt>
      <trkpt lat="38.4780580" lon="-28.4992570">
        <ele>284.0</ele>
        <time>2019-07-07T12:05:38Z</time>
      </trkpt>
      <trkpt lat="38.4781400" lon="-28.4993260">
        <ele>283.0</ele>
        <time>2019-07-07T12:05:39Z</time>
      </trkpt>
      <trkpt lat="38.4782140" lon="-28.4994060">
        <ele>281.7</ele>
        <time>2019-07-07T12:05:40Z</time>
      </trkpt>
      <trkpt lat="38.4782780" lon="-28.4994840">
        <ele>280.7</ele>
        <time>2019-07-07T12:05:41Z</time>
      </trkpt>
      <trkpt lat="38.4783360" lon="-28.4995530">
        <ele>279.8</ele>
        <time>2019-07-07T12:05:42Z</time>
      </trkpt>
      <trkpt lat="38.4784680" lon="-28.4996830">
        <ele>277.0</ele>
        <time>2019-07-07T12:05:44Z</time>
      </trkpt>
      <trkpt lat="38.4785500" lon="-28.4997400">
        <ele>275.7</ele>
        <time>2019-07-07T12:05:45Z</time>
      </trkpt>
      <trkpt lat="38.4787400" lon="-28.4998170">
        <ele>273.8</ele>
        <time>2019-07-07T12:05:47Z</time>
      </trkpt>
      <trkpt lat="38.4788430" lon="-28.4998570">
        <ele>273.0</ele>
        <time>2019-07-07T12:05:48Z</time>
      </trkpt>
      <trkpt lat="38.4789500" lon="-28.4998990">
        <ele>272.7</ele>
        <time>2019-07-07T12:05:49Z</time>
      </trkpt>
      <trkpt lat="38.4790580" lon="-28.4999410">
        <ele>272.9</ele>
        <time>2019-07-07T12:05:50Z</time>
      </trkpt>
      <trkpt lat="38.4791590" lon="-28.4999950">
        <ele>273.1</ele>
        <time>2019-07-07T12:05:51Z</time>
      </trkpt>
      <trkpt lat="38.4792470" lon="-28.5000640">
        <ele>273.6</ele>
        <time>2019-07-07T12:05:52Z</time>
      </trkpt>
      <trkpt lat="38.4793220" lon="-28.5001360">
        <ele>274.0</ele>
        <time>2019-07-07T12:05:53Z</time>
      </trkpt>
      <trkpt lat="38.4795120" lon="-28.5003390">
        <ele>273.6</ele>
        <time>2019-07-07T12:05:56Z</time>
      </trkpt>
      <trkpt lat="38.4795650" lon="-28.5004160">
        <ele>273.3</ele>
        <time>2019-07-07T12:05:57Z</time>
      </trkpt>
      <trkpt lat="38.4797610" lon="-28.5007590">
        <ele>270.8</ele>
        <time>2019-07-07T12:06:01Z</time>
      </trkpt>
      <trkpt lat="38.4798270" lon="-28.5008330">
        <ele>270.1</ele>
        <time>2019-07-07T12:06:02Z</time>
      </trkpt>
      <trkpt lat="38.4798980" lon="-28.5008960">
        <ele>269.6</ele>
        <time>2019-07-07T12:06:03Z</time>
      </trkpt>
      <trkpt lat="38.4799710" lon="-28.5009420">
        <ele>269.3</ele>
        <time>2019-07-07T12:06:04Z</time>
      </trkpt>
      <trkpt lat="38.4801930" lon="-28.5009620">
        <ele>269.7</ele>
        <time>2019-07-07T12:06:07Z</time>
      </trkpt>
      <trkpt lat="38.4802660" lon="-28.5009610">
        <ele>270.1</ele>
        <time>2019-07-07T12:06:08Z</time>
      </trkpt>
      <trkpt lat="38.4804580" lon="-28.5010310">
        <ele>271.1</ele>
        <time>2019-07-07T12:06:11Z</time>
      </trkpt>
      <trkpt lat="38.4805110" lon="-28.5010650">
        <ele>271.4</ele>
        <time>2019-07-07T12:06:12Z</time>
      </trkpt>
      <trkpt lat="38.4807100" lon="-28.5011710">
        <ele>272.4</ele>
        <time>2019-07-07T12:06:16Z</time>
      </trkpt>
      <trkpt lat="38.4807610" lon="-28.5011890">
        <ele>272.6</ele>
        <time>2019-07-07T12:06:17Z</time>
      </trkpt>
      <trkpt lat="38.4808650" lon="-28.5012270">
        <ele>273.2</ele>
        <time>2019-07-07T12:06:19Z</time>
      </trkpt>
      <trkpt lat="38.4809130" lon="-28.5012550">
        <ele>273.4</ele>
        <time>2019-07-07T12:06:20Z</time>
      </trkpt>
      <trkpt lat="38.4809940" lon="-28.5013230">
        <ele>273.8</ele>
        <time>2019-07-07T12:06:22Z</time>
      </trkpt>
      <trkpt lat="38.4810970" lon="-28.5014600">
        <ele>274.1</ele>
        <time>2019-07-07T12:06:25Z</time>
      </trkpt>
      <trkpt lat="38.4811280" lon="-28.5015210">
        <ele>273.9</ele>
        <time>2019-07-07T12:06:26Z</time>
      </trkpt>
      <trkpt lat="38.4811560" lon="-28.5015960">
        <ele>273.7</ele>
        <time>2019-07-07T12:06:27Z</time>
      </trkpt>
      <trkpt lat="38.4812420" lon="-28.5018540">
        <ele>272.0</ele>
        <time>2019-07-07T12:06:30Z</time>
      </trkpt>
      <trkpt lat="38.4812650" lon="-28.5019410">
        <ele>271.3</ele>
        <time>2019-07-07T12:06:31Z</time>
      </trkpt>
      <trkpt lat="38.4812860" lon="-28.5020230">
        <ele>270.5</ele>
        <time>2019-07-07T12:06:32Z</time>
      </trkpt>
      <trkpt lat="38.4813100" lon="-28.5020940">
        <ele>269.8</ele>
        <time>2019-07-07T12:06:33Z</time>
      </trkpt>
      <trkpt lat="38.4813890" lon="-28.5022080">
        <ele>268.4</ele>
        <time>2019-07-07T12:06:35Z</time>
      </trkpt>
      <trkpt lat="38.4814460" lon="-28.5022460">
        <ele>267.6</ele>
        <time>2019-07-07T12:06:36Z</time>
      </trkpt>
      <trkpt lat="38.4815750" lon="-28.5022660">
        <ele>266.3</ele>
        <time>2019-07-07T12:06:38Z</time>
      </trkpt>
      <trkpt lat="38.4816450" lon="-28.5022540">
        <ele>265.8</ele>
        <time>2019-07-07T12:06:39Z</time>
      </trkpt>
      <trkpt lat="38.4817160" lon="-28.5022350">
        <ele>265.4</ele>
        <time>2019-07-07T12:06:40Z</time>
      </trkpt>
      <trkpt lat="38.4818530" lon="-28.5021940">
        <ele>264.9</ele>
        <time>2019-07-07T12:06:42Z</time>
      </trkpt>
      <trkpt lat="38.4819930" lon="-28.5021590">
        <ele>264.6</ele>
        <time>2019-07-07T12:06:44Z</time>
      </trkpt>
      <trkpt lat="38.4821980" lon="-28.5021340">
        <ele>264.5</ele>
        <time>2019-07-07T12:06:47Z</time>
      </trkpt>
      <trkpt lat="38.4823250" lon="-28.5021200">
        <ele>264.7</ele>
        <time>2019-07-07T12:06:49Z</time>
      </trkpt>
      <trkpt lat="38.4825050" lon="-28.5020740">
        <ele>265.3</ele>
        <time>2019-07-07T12:06:52Z</time>
      </trkpt>
      <trkpt lat="38.4827800" lon="-28.5021090">
        <ele>265.6</ele>
        <time>2019-07-07T12:06:56Z</time>
      </trkpt>
      <trkpt lat="38.4830140" lon="-28.5022700">
        <ele>264.8</ele>
        <time>2019-07-07T12:07:00Z</time>
      </trkpt>
      <trkpt lat="38.4830620" lon="-28.5023200">
        <ele>264.7</ele>
        <time>2019-07-07T12:07:01Z</time>
      </trkpt>
      <trkpt lat="38.4831120" lon="-28.5023650">
        <ele>264.7</ele>
        <time>2019-07-07T12:07:02Z</time>
      </trkpt>
      <trkpt lat="38.4832680" lon="-28.5024820">
        <ele>264.8</ele>
        <time>2019-07-07T12:07:05Z</time>
      </trkpt>
      <trkpt lat="38.4833240" lon="-28.5025150">
        <ele>264.9</ele>
        <time>2019-07-07T12:07:06Z</time>
      </trkpt>
      <trkpt lat="38.4834370" lon="-28.5025770">
        <ele>264.9</ele>
        <time>2019-07-07T12:07:08Z</time>
      </trkpt>
      <trkpt lat="38.4835430" lon="-28.5026780">
        <ele>264.4</ele>
        <time>2019-07-07T12:07:10Z</time>
      </trkpt>
      <trkpt lat="38.4835960" lon="-28.5027440">
        <ele>263.8</ele>
        <time>2019-07-07T12:07:11Z</time>
      </trkpt>
      <trkpt lat="38.4836480" lon="-28.5028150">
        <ele>263.4</ele>
        <time>2019-07-07T12:07:12Z</time>
      </trkpt>
      <trkpt lat="38.4837020" lon="-28.5028850">
        <ele>262.9</ele>
        <time>2019-07-07T12:07:13Z</time>
      </trkpt>
      <trkpt lat="38.4838090" lon="-28.5030190">
        <ele>262.3</ele>
        <time>2019-07-07T12:07:15Z</time>
      </trkpt>
      <trkpt lat="38.4840410" lon="-28.5032680">
        <ele>260.5</ele>
        <time>2019-07-07T12:07:19Z</time>
      </trkpt>
      <trkpt lat="38.4841080" lon="-28.5033360">
        <ele>259.7</ele>
        <time>2019-07-07T12:07:20Z</time>
      </trkpt>
      <trkpt lat="38.4843170" lon="-28.5035440">
        <ele>257.9</ele>
        <time>2019-07-07T12:07:23Z</time>
      </trkpt>
      <trkpt lat="38.4843950" lon="-28.5035990">
        <ele>257.2</ele>
        <time>2019-07-07T12:07:24Z</time>
      </trkpt>
      <trkpt lat="38.4846470" lon="-28.5037040">
        <ele>258.2</ele>
        <time>2019-07-07T12:07:27Z</time>
      </trkpt>
      <trkpt lat="38.4847280" lon="-28.5037270">
        <ele>258.2</ele>
        <time>2019-07-07T12:07:28Z</time>
      </trkpt>
      <trkpt lat="38.4848820" lon="-28.5037850">
        <ele>257.4</ele>
        <time>2019-07-07T12:07:30Z</time>
      </trkpt>
      <trkpt lat="38.4850300" lon="-28.5038570">
        <ele>255.6</ele>
        <time>2019-07-07T12:07:32Z</time>
      </trkpt>
      <trkpt lat="38.4851110" lon="-28.5038850">
        <ele>254.5</ele>
        <time>2019-07-07T12:07:33Z</time>
      </trkpt>
      <trkpt lat="38.4852940" lon="-28.5039180">
        <ele>253.1</ele>
        <time>2019-07-07T12:07:35Z</time>
      </trkpt>
      <trkpt lat="38.4853940" lon="-28.5039200">
        <ele>252.7</ele>
        <time>2019-07-07T12:07:36Z</time>
      </trkpt>
      <trkpt lat="38.4854970" lon="-28.5039240">
        <ele>252.9</ele>
        <time>2019-07-07T12:07:37Z</time>
      </trkpt>
      <trkpt lat="38.4856830" lon="-28.5039910">
        <ele>253.9</ele>
        <time>2019-07-07T12:07:39Z</time>
      </trkpt>
      <trkpt lat="38.4857670" lon="-28.5040380">
        <ele>254.6</ele>
        <time>2019-07-07T12:07:40Z</time>
      </trkpt>
      <trkpt lat="38.4859790" lon="-28.5041730">
        <ele>254.8</ele>
        <time>2019-07-07T12:07:43Z</time>
      </trkpt>
      <trkpt lat="38.4862130" lon="-28.5043130">
        <ele>253.5</ele>
        <time>2019-07-07T12:07:46Z</time>
      </trkpt>
      <trkpt lat="38.4862950" lon="-28.5043700">
        <ele>253.4</ele>
        <time>2019-07-07T12:07:47Z</time>
      </trkpt>
      <trkpt lat="38.4865840" lon="-28.5046340">
        <ele>253.5</ele>
        <time>2019-07-07T12:07:51Z</time>
      </trkpt>
      <trkpt lat="38.4868800" lon="-28.5050400">
        <ele>253.1</ele>
        <time>2019-07-07T12:07:56Z</time>
      </trkpt>
      <trkpt lat="38.4872510" lon="-28.5055130">
        <ele>251.2</ele>
        <time>2019-07-07T12:08:02Z</time>
      </trkpt>
      <trkpt lat="38.4874030" lon="-28.5056360">
        <ele>250.3</ele>
        <time>2019-07-07T12:08:04Z</time>
      </trkpt>
      <trkpt lat="38.4875490" lon="-28.5057710">
        <ele>249.6</ele>
        <time>2019-07-07T12:08:06Z</time>
      </trkpt>
      <trkpt lat="38.4876230" lon="-28.5058240">
        <ele>249.4</ele>
        <time>2019-07-07T12:08:07Z</time>
      </trkpt>
      <trkpt lat="38.4877030" lon="-28.5058560">
        <ele>249.2</ele>
        <time>2019-07-07T12:08:08Z</time>
      </trkpt>
      <trkpt lat="38.4878600" lon="-28.5058870">
        <ele>248.5</ele>
        <time>2019-07-07T12:08:10Z</time>
      </trkpt>
      <trkpt lat="38.4879380" lon="-28.5059140">
        <ele>248.0</ele>
        <time>2019-07-07T12:08:11Z</time>
      </trkpt>
      <trkpt lat="38.4880960" lon="-28.5060170">
        <ele>246.5</ele>
        <time>2019-07-07T12:08:13Z</time>
      </trkpt>
      <trkpt lat="38.4881740" lon="-28.5060860">
        <ele>245.7</ele>
        <time>2019-07-07T12:08:14Z</time>
      </trkpt>
      <trkpt lat="38.4882530" lon="-28.5061640">
        <ele>244.8</ele>
        <time>2019-07-07T12:08:15Z</time>
      </trkpt>
      <trkpt lat="38.4883330" lon="-28.5062480">
        <ele>243.8</ele>
        <time>2019-07-07T12:08:16Z</time>
      </trkpt>
      <trkpt lat="38.4884140" lon="-28.5063310">
        <ele>242.9</ele>
        <time>2019-07-07T12:08:17Z</time>
      </trkpt>
      <trkpt lat="38.4885020" lon="-28.5064110">
        <ele>242.0</ele>
        <time>2019-07-07T12:08:18Z</time>
      </trkpt>
      <trkpt lat="38.4886880" lon="-28.5065690">
        <ele>240.3</ele>
        <time>2019-07-07T12:08:20Z</time>
      </trkpt>
      <trkpt lat="38.4888810" lon="-28.5067050">
        <ele>239.2</ele>
        <time>2019-07-07T12:08:22Z</time>
      </trkpt>
      <trkpt lat="38.4892740" lon="-28.5069320">
        <ele>236.4</ele>
        <time>2019-07-07T12:08:26Z</time>
      </trkpt>
      <trkpt lat="38.4894700" lon="-28.5070240">
        <ele>234.9</ele>
        <time>2019-07-07T12:08:28Z</time>
      </trkpt>
      <trkpt lat="38.4896740" lon="-28.5071070">
        <ele>233.8</ele>
        <time>2019-07-07T12:08:30Z</time>
      </trkpt>
      <trkpt lat="38.4897790" lon="-28.5071410">
        <ele>233.3</ele>
        <time>2019-07-07T12:08:31Z</time>
      </trkpt>
      <trkpt lat="38.4900890" lon="-28.5072160">
        <ele>232.1</ele>
        <time>2019-07-07T12:08:34Z</time>
      </trkpt>
      <trkpt lat="38.4905120" lon="-28.5073070">
        <ele>229.2</ele>
        <time>2019-07-07T12:08:38Z</time>
      </trkpt>
      <trkpt lat="38.4906220" lon="-28.5073240">
        <ele>228.7</ele>
        <time>2019-07-07T12:08:39Z</time>
      </trkpt>
      <trkpt lat="38.4907220" lon="-28.5073510">
        <ele>228.5</ele>
        <time>2019-07-07T12:08:40Z</time>
      </trkpt>
      <trkpt lat="38.4908210" lon="-28.5073820">
        <ele>228.6</ele>
        <time>2019-07-07T12:08:41Z</time>
      </trkpt>
      <trkpt lat="38.4909040" lon="-28.5074320">
        <ele>228.7</ele>
        <time>2019-07-07T12:08:42Z</time>
      </trkpt>
      <trkpt lat="38.4909760" lon="-28.5074990">
        <ele>228.8</ele>
        <time>2019-07-07T12:08:43Z</time>
      </trkpt>
      <trkpt lat="38.4911000" lon="-28.5076650">
        <ele>229.0</ele>
        <time>2019-07-07T12:08:45Z</time>
      </trkpt>
      <trkpt lat="38.4911640" lon="-28.5077350">
        <ele>229.2</ele>
        <time>2019-07-07T12:08:46Z</time>
      </trkpt>
      <trkpt lat="38.4912990" lon="-28.5078530">
        <ele>229.7</ele>
        <time>2019-07-07T12:08:48Z</time>
      </trkpt>
      <trkpt lat="38.4915840" lon="-28.5080460">
        <ele>229.6</ele>
        <time>2019-07-07T12:08:52Z</time>
      </trkpt>
      <trkpt lat="38.4918740" lon="-28.5083420">
        <ele>226.7</ele>
        <time>2019-07-07T12:08:56Z</time>
      </trkpt>
      <trkpt lat="38.4919520" lon="-28.5084200">
        <ele>226.0</ele>
        <time>2019-07-07T12:08:57Z</time>
      </trkpt>
      <trkpt lat="38.4921000" lon="-28.5085860">
        <ele>225.1</ele>
        <time>2019-07-07T12:08:59Z</time>
      </trkpt>
      <trkpt lat="38.4921730" lon="-28.5086750">
        <ele>224.6</ele>
        <time>2019-07-07T12:09:00Z</time>
      </trkpt>
      <trkpt lat="38.4923130" lon="-28.5088460">
        <ele>223.3</ele>
        <time>2019-07-07T12:09:02Z</time>
      </trkpt>
      <trkpt lat="38.4924550" lon="-28.5090170">
        <ele>222.2</ele>
        <time>2019-07-07T12:09:04Z</time>
      </trkpt>
      <trkpt lat="38.4926740" lon="-28.5092690">
        <ele>221.3</ele>
        <time>2019-07-07T12:09:07Z</time>
      </trkpt>
      <trkpt lat="38.4928100" lon="-28.5094360">
        <ele>220.9</ele>
        <time>2019-07-07T12:09:09Z</time>
      </trkpt>
      <trkpt lat="38.4929690" lon="-28.5097280">
        <ele>220.2</ele>
        <time>2019-07-07T12:09:12Z</time>
      </trkpt>
      <trkpt lat="38.4930220" lon="-28.5098280">
        <ele>219.8</ele>
        <time>2019-07-07T12:09:13Z</time>
      </trkpt>
      <trkpt lat="38.4932100" lon="-28.5100950">
        <ele>218.5</ele>
        <time>2019-07-07T12:09:16Z</time>
      </trkpt>
      <trkpt lat="38.4932840" lon="-28.5101730">
        <ele>218.3</ele>
        <time>2019-07-07T12:09:17Z</time>
      </trkpt>
      <trkpt lat="38.4933610" lon="-28.5102440">
        <ele>218.1</ele>
        <time>2019-07-07T12:09:18Z</time>
      </trkpt>
      <trkpt lat="38.4935150" lon="-28.5103690">
        <ele>217.8</ele>
        <time>2019-07-07T12:09:20Z</time>
      </trkpt>
      <trkpt lat="38.4935940" lon="-28.5104170">
        <ele>217.6</ele>
        <time>2019-07-07T12:09:21Z</time>
      </trkpt>
      <trkpt lat="38.4936720" lon="-28.5104680">
        <ele>217.5</ele>
        <time>2019-07-07T12:09:22Z</time>
      </trkpt>
      <trkpt lat="38.4938150" lon="-28.5106040">
        <ele>216.9</ele>
        <time>2019-07-07T12:09:24Z</time>
      </trkpt>
      <trkpt lat="38.4938780" lon="-28.5106890">
        <ele>216.4</ele>
        <time>2019-07-07T12:09:25Z</time>
      </trkpt>
      <trkpt lat="38.4939820" lon="-28.5108860">
        <ele>215.2</ele>
        <time>2019-07-07T12:09:27Z</time>
      </trkpt>
      <trkpt lat="38.4940690" lon="-28.5111110">
        <ele>213.7</ele>
        <time>2019-07-07T12:09:29Z</time>
      </trkpt>
      <trkpt lat="38.4941170" lon="-28.5112110">
        <ele>212.9</ele>
        <time>2019-07-07T12:09:30Z</time>
      </trkpt>
      <trkpt lat="38.4941680" lon="-28.5112960">
        <ele>209.2</ele>
        <time>2019-07-07T12:09:31Z</time>
      </trkpt>
      <trkpt lat="38.4942300" lon="-28.5113580">
        <ele>207.9</ele>
        <time>2019-07-07T12:09:32Z</time>
      </trkpt>
      <trkpt lat="38.4943820" lon="-28.5114190">
        <ele>204.9</ele>
        <time>2019-07-07T12:09:34Z</time>
      </trkpt>
      <trkpt lat="38.4944690" lon="-28.5114290">
        <ele>203.3</ele>
        <time>2019-07-07T12:09:35Z</time>
      </trkpt>
      <trkpt lat="38.4945610" lon="-28.5114330">
        <ele>201.7</ele>
        <time>2019-07-07T12:09:36Z</time>
      </trkpt>
      <trkpt lat="38.4946560" lon="-28.5114410">
        <ele>200.1</ele>
        <time>2019-07-07T12:09:37Z</time>
      </trkpt>
      <trkpt lat="38.4947540" lon="-28.5114560">
        <ele>198.7</ele>
        <time>2019-07-07T12:09:38Z</time>
      </trkpt>
      <trkpt lat="38.4948520" lon="-28.5114820">
        <ele>197.2</ele>
        <time>2019-07-07T12:09:39Z</time>
      </trkpt>
      <trkpt lat="38.4950440" lon="-28.5115770">
        <ele>194.5</ele>
        <time>2019-07-07T12:09:41Z</time>
      </trkpt>
      <trkpt lat="38.4954790" lon="-28.5118900">
        <ele>189.3</ele>
        <time>2019-07-07T12:09:46Z</time>
      </trkpt>
      <trkpt lat="38.4957960" lon="-28.5121080">
        <ele>184.8</ele>
        <time>2019-07-07T12:09:50Z</time>
      </trkpt>
      <trkpt lat="38.4958700" lon="-28.5121760">
        <ele>183.3</ele>
        <time>2019-07-07T12:09:51Z</time>
      </trkpt>
      <trkpt lat="38.4959450" lon="-28.5122440">
        <ele>181.7</ele>
        <time>2019-07-07T12:09:52Z</time>
      </trkpt>
      <trkpt lat="38.4960250" lon="-28.5123090">
        <ele>179.8</ele>
        <time>2019-07-07T12:09:53Z</time>
      </trkpt>
      <trkpt lat="38.4961090" lon="-28.5123680">
        <ele>177.8</ele>
        <time>2019-07-07T12:09:54Z</time>
      </trkpt>
      <trkpt lat="38.4961970" lon="-28.5124210">
        <ele>175.8</ele>
        <time>2019-07-07T12:09:55Z</time>
      </trkpt>
      <trkpt lat="38.4963800" lon="-28.5125150">
        <ele>173.0</ele>
        <time>2019-07-07T12:09:57Z</time>
      </trkpt>
      <trkpt lat="38.4967330" lon="-28.5127050">
        <ele>174.0</ele>
        <time>2019-07-07T12:10:01Z</time>
      </trkpt>
      <trkpt lat="38.4968180" lon="-28.5127550">
        <ele>175.8</ele>
        <time>2019-07-07T12:10:02Z</time>
      </trkpt>
      <trkpt lat="38.4971840" lon="-28.5129320">
        <ele>175.5</ele>
        <time>2019-07-07T12:10:06Z</time>
      </trkpt>
      <trkpt lat="38.4974720" lon="-28.5131020">
        <ele>172.8</ele>
        <time>2019-07-07T12:10:09Z</time>
      </trkpt>
      <trkpt lat="38.4976660" lon="-28.5132300">
        <ele>171.5</ele>
        <time>2019-07-07T12:10:11Z</time>
      </trkpt>
      <trkpt lat="38.4978620" lon="-28.5133450">
        <ele>170.1</ele>
        <time>2019-07-07T12:10:13Z</time>
      </trkpt>
      <trkpt lat="38.4980710" lon="-28.5134320">
        <ele>168.5</ele>
        <time>2019-07-07T12:10:15Z</time>
      </trkpt>
      <trkpt lat="38.4981790" lon="-28.5134730">
        <ele>168.1</ele>
        <time>2019-07-07T12:10:16Z</time>
      </trkpt>
      <trkpt lat="38.4982860" lon="-28.5135110">
        <ele>168.1</ele>
        <time>2019-07-07T12:10:17Z</time>
      </trkpt>
      <trkpt lat="38.4984980" lon="-28.5135950">
        <ele>167.8</ele>
        <time>2019-07-07T12:10:19Z</time>
      </trkpt>
      <trkpt lat="38.4986000" lon="-28.5136550">
        <ele>168.1</ele>
        <time>2019-07-07T12:10:20Z</time>
      </trkpt>
      <trkpt lat="38.4986920" lon="-28.5137270">
        <ele>168.9</ele>
        <time>2019-07-07T12:10:21Z</time>
      </trkpt>
      <trkpt lat="38.4989320" lon="-28.5139800">
        <ele>173.7</ele>
        <time>2019-07-07T12:10:24Z</time>
      </trkpt>
      <trkpt lat="38.4990110" lon="-28.5140640">
        <ele>175.5</ele>
        <time>2019-07-07T12:10:25Z</time>
      </trkpt>
      <trkpt lat="38.4990960" lon="-28.5141370">
        <ele>177.1</ele>
        <time>2019-07-07T12:10:26Z</time>
      </trkpt>
      <trkpt lat="38.4992840" lon="-28.5142340">
        <ele>180.3</ele>
        <time>2019-07-07T12:10:28Z</time>
      </trkpt>
      <trkpt lat="38.4994810" lon="-28.5142990">
        <ele>179.5</ele>
        <time>2019-07-07T12:10:30Z</time>
      </trkpt>
      <trkpt lat="38.4995800" lon="-28.5143410">
        <ele>178.5</ele>
        <time>2019-07-07T12:10:31Z</time>
      </trkpt>
      <trkpt lat="38.4996780" lon="-28.5143980">
        <ele>177.7</ele>
        <time>2019-07-07T12:10:32Z</time>
      </trkpt>
      <trkpt lat="38.4997740" lon="-28.5144660">
        <ele>177.1</ele>
        <time>2019-07-07T12:10:33Z</time>
      </trkpt>
      <trkpt lat="38.4998740" lon="-28.5145320">
        <ele>176.4</ele>
        <time>2019-07-07T12:10:34Z</time>
      </trkpt>
      <trkpt lat="38.5000860" lon="-28.5146330">
        <ele>174.8</ele>
        <time>2019-07-07T12:10:36Z</time>
      </trkpt>
      <trkpt lat="38.5001950" lon="-28.5146650">
        <ele>174.0</ele>
        <time>2019-07-07T12:10:37Z</time>
      </trkpt>
      <trkpt lat="38.5003100" lon="-28.5146840">
        <ele>173.0</ele>
        <time>2019-07-07T12:10:38Z</time>
      </trkpt>
      <trkpt lat="38.5004320" lon="-28.5146990">
        <ele>172.0</ele>
        <time>2019-07-07T12:10:39Z</time>
      </trkpt>
      <trkpt lat="38.5005570" lon="-28.5147140">
        <ele>170.9</ele>
        <time>2019-07-07T12:10:40Z</time>
      </trkpt>
      <trkpt lat="38.5006800" lon="-28.5147240">
        <ele>169.7</ele>
        <time>2019-07-07T12:10:41Z</time>
      </trkpt>
      <trkpt lat="38.5007950" lon="-28.5147210">
        <ele>168.9</ele>
        <time>2019-07-07T12:10:42Z</time>
      </trkpt>
      <trkpt lat="38.5009920" lon="-28.5147180">
        <ele>167.3</ele>
        <time>2019-07-07T12:10:44Z</time>
      </trkpt>
      <trkpt lat="38.5012330" lon="-28.5148750">
        <ele>165.4</ele>
        <time>2019-07-07T12:10:47Z</time>
      </trkpt>
      <trkpt lat="38.5013110" lon="-28.5149320">
        <ele>165.0</ele>
        <time>2019-07-07T12:10:48Z</time>
      </trkpt>
      <trkpt lat="38.5013930" lon="-28.5149740">
        <ele>164.6</ele>
        <time>2019-07-07T12:10:49Z</time>
      </trkpt>
      <trkpt lat="38.5014780" lon="-28.5150030">
        <ele>164.3</ele>
        <time>2019-07-07T12:10:50Z</time>
      </trkpt>
      <trkpt lat="38.5016570" lon="-28.5150250">
        <ele>164.0</ele>
        <time>2019-07-07T12:10:52Z</time>
      </trkpt>
      <trkpt lat="38.5018360" lon="-28.5150300">
        <ele>163.8</ele>
        <time>2019-07-07T12:10:54Z</time>
      </trkpt>
      <trkpt lat="38.5021860" lon="-28.5149500">
        <ele>163.0</ele>
        <time>2019-07-07T12:10:58Z</time>
      </trkpt>
      <trkpt lat="38.5022700" lon="-28.5149120">
        <ele>162.7</ele>
        <time>2019-07-07T12:10:59Z</time>
      </trkpt>
      <trkpt lat="38.5025150" lon="-28.5148030">
        <ele>161.7</ele>
        <time>2019-07-07T12:11:02Z</time>
      </trkpt>
      <trkpt lat="38.5026970" lon="-28.5147620">
        <ele>160.8</ele>
        <time>2019-07-07T12:11:04Z</time>
      </trkpt>
      <trkpt lat="38.5027930" lon="-28.5147440">
        <ele>160.4</ele>
        <time>2019-07-07T12:11:05Z</time>
      </trkpt>
      <trkpt lat="38.5029870" lon="-28.5147130">
        <ele>159.6</ele>
        <time>2019-07-07T12:11:07Z</time>
      </trkpt>
      <trkpt lat="38.5030840" lon="-28.5146950">
        <ele>158.9</ele>
        <time>2019-07-07T12:11:08Z</time>
      </trkpt>
      <trkpt lat="38.5032830" lon="-28.5146500">
        <ele>157.3</ele>
        <time>2019-07-07T12:11:10Z</time>
      </trkpt>
      <trkpt lat="38.5033820" lon="-28.5146180">
        <ele>156.4</ele>
        <time>2019-07-07T12:11:11Z</time>
      </trkpt>
      <trkpt lat="38.5035790" lon="-28.5145600">
        <ele>155.2</ele>
        <time>2019-07-07T12:11:13Z</time>
      </trkpt>
      <trkpt lat="38.5036830" lon="-28.5145480">
        <ele>154.6</ele>
        <time>2019-07-07T12:11:14Z</time>
      </trkpt>
      <trkpt lat="38.5037930" lon="-28.5145480">
        <ele>153.7</ele>
        <time>2019-07-07T12:11:15Z</time>
      </trkpt>
      <trkpt lat="38.5039090" lon="-28.5145500">
        <ele>152.6</ele>
        <time>2019-07-07T12:11:16Z</time>
      </trkpt>
      <trkpt lat="38.5041440" lon="-28.5145440">
        <ele>151.0</ele>
        <time>2019-07-07T12:11:18Z</time>
      </trkpt>
      <trkpt lat="38.5042560" lon="-28.5145350">
        <ele>150.5</ele>
        <time>2019-07-07T12:11:19Z</time>
      </trkpt>
      <trkpt lat="38.5043650" lon="-28.5145200">
        <ele>149.8</ele>
        <time>2019-07-07T12:11:20Z</time>
      </trkpt>
      <trkpt lat="38.5044740" lon="-28.5144970">
        <ele>149.0</ele>
        <time>2019-07-07T12:11:21Z</time>
      </trkpt>
      <trkpt lat="38.5046890" lon="-28.5144460">
        <ele>147.3</ele>
        <time>2019-07-07T12:11:23Z</time>
      </trkpt>
      <trkpt lat="38.5047950" lon="-28.5144180">
        <ele>146.7</ele>
        <time>2019-07-07T12:11:24Z</time>
      </trkpt>
      <trkpt lat="38.5050020" lon="-28.5143510">
        <ele>145.5</ele>
        <time>2019-07-07T12:11:26Z</time>
      </trkpt>
      <trkpt lat="38.5052100" lon="-28.5142650">
        <ele>143.5</ele>
        <time>2019-07-07T12:11:28Z</time>
      </trkpt>
      <trkpt lat="38.5053180" lon="-28.5142200">
        <ele>142.1</ele>
        <time>2019-07-07T12:11:29Z</time>
      </trkpt>
      <trkpt lat="38.5054290" lon="-28.5141760">
        <ele>141.0</ele>
        <time>2019-07-07T12:11:30Z</time>
      </trkpt>
      <trkpt lat="38.5055440" lon="-28.5141350">
        <ele>140.1</ele>
        <time>2019-07-07T12:11:31Z</time>
      </trkpt>
      <trkpt lat="38.5056590" lon="-28.5140990">
        <ele>139.4</ele>
        <time>2019-07-07T12:11:32Z</time>
      </trkpt>
      <trkpt lat="38.5060050" lon="-28.5140010">
        <ele>137.4</ele>
        <time>2019-07-07T12:11:35Z</time>
      </trkpt>
      <trkpt lat="38.5062340" lon="-28.5139890">
        <ele>137.0</ele>
        <time>2019-07-07T12:11:37Z</time>
      </trkpt>
      <trkpt lat="38.5063420" lon="-28.5140000">
        <ele>137.1</ele>
        <time>2019-07-07T12:11:38Z</time>
      </trkpt>
      <trkpt lat="38.5066350" lon="-28.5140540">
        <ele>137.1</ele>
        <time>2019-07-07T12:11:41Z</time>
      </trkpt>
      <trkpt lat="38.5070580" lon="-28.5141370">
        <ele>136.2</ele>
        <time>2019-07-07T12:11:46Z</time>
      </trkpt>
      <trkpt lat="38.5072370" lon="-28.5142480">
        <ele>134.9</ele>
        <time>2019-07-07T12:11:48Z</time>
      </trkpt>
      <trkpt lat="38.5073200" lon="-28.5143150">
        <ele>134.1</ele>
        <time>2019-07-07T12:11:49Z</time>
      </trkpt>
      <trkpt lat="38.5073900" lon="-28.5143820">
        <ele>133.3</ele>
        <time>2019-07-07T12:11:50Z</time>
      </trkpt>
      <trkpt lat="38.5074520" lon="-28.5144360">
        <ele>132.6</ele>
        <time>2019-07-07T12:11:51Z</time>
      </trkpt>
      <trkpt lat="38.5075010" lon="-28.5144660">
        <ele>132.6</ele>
        <time>2019-07-07T12:11:52Z</time>
      </trkpt>
      <trkpt lat="38.5075540" lon="-28.5144220">
        <ele>133.2</ele>
        <time>2019-07-07T12:11:55Z</time>
      </trkpt>
      <trkpt lat="38.5075610" lon="-28.5143910">
        <ele>133.4</ele>
        <time>2019-07-07T12:11:56Z</time>
      </trkpt>
      <trkpt lat="38.5075650" lon="-28.5142390">
        <ele>134.4</ele>
        <time>2019-07-07T12:12:00Z</time>
      </trkpt>
      <trkpt lat="38.5075620" lon="-28.5142020">
        <ele>134.7</ele>
        <time>2019-07-07T12:12:01Z</time>
      </trkpt>
      <trkpt lat="38.5075680" lon="-28.5140610">
        <ele>135.6</ele>
        <time>2019-07-07T12:12:05Z</time>
      </trkpt>
      <trkpt lat="38.5075680" lon="-28.5139590">
        <ele>136.0</ele>
        <time>2019-07-07T12:12:08Z</time>
      </trkpt>
      <trkpt lat="38.5075690" lon="-28.5139250">
        <ele>136.1</ele>
        <time>2019-07-07T12:12:09Z</time>
      </trkpt>
      <trkpt lat="38.5075890" lon="-28.5137530">
        <ele>137.2</ele>
        <time>2019-07-07T12:12:14Z</time>
      </trkpt>
      <trkpt lat="38.5075950" lon="-28.5136820">
        <ele>137.5</ele>
        <time>2019-07-07T12:12:16Z</time>
      </trkpt>
      <trkpt lat="38.5075850" lon="-28.5136030">
        <ele>138.1</ele>
        <time>2019-07-07T12:12:18Z</time>
      </trkpt>
      <trkpt lat="38.5075920" lon="-28.5134860">
        <ele>138.9</ele>
        <time>2019-07-07T12:12:21Z</time>
      </trkpt>
      <trkpt lat="38.5076210" lon="-28.5132450">
        <ele>140.4</ele>
        <time>2019-07-07T12:12:27Z</time>
      </trkpt>
      <trkpt lat="38.5076210" lon="-28.5131580">
        <ele>140.8</ele>
        <time>2019-07-07T12:12:29Z</time>
      </trkpt>
      <trkpt lat="38.5076190" lon="-28.5130210">
        <ele>140.9</ele>
        <time>2019-07-07T12:12:32Z</time>
      </trkpt>
      <trkpt lat="38.5076200" lon="-28.5128590">
        <ele>140.9</ele>
        <time>2019-07-07T12:12:36Z</time>
      </trkpt>
      <trkpt lat="38.5076310" lon="-28.5127420">
        <ele>141.2</ele>
        <time>2019-07-07T12:12:41Z</time>
      </trkpt>
      <trkpt lat="38.5076460" lon="-28.5126420">
        <ele>141.3</ele>
        <time>2019-07-07T12:12:47Z</time>
      </trkpt>
      <trkpt lat="38.5076550" lon="-28.5126270">
        <ele>141.3</ele>
        <time>2019-07-07T12:12:48Z</time>
      </trkpt>
      <trkpt lat="38.5077400" lon="-28.5125630">
        <ele>141.4</ele>
        <time>2019-07-07T12:12:52Z</time>
      </trkpt>
      <trkpt lat="38.5079010" lon="-28.5124650">
        <ele>141.6</ele>
        <time>2019-07-07T12:12:57Z</time>
      </trkpt>
      <trkpt lat="38.5079700" lon="-28.5124320">
        <ele>141.7</ele>
        <time>2019-07-07T12:12:59Z</time>
      </trkpt>
      <trkpt lat="38.5081220" lon="-28.5123470">
        <ele>141.9</ele>
        <time>2019-07-07T12:13:04Z</time>
      </trkpt>
      <trkpt lat="38.5081700" lon="-28.5122940">
        <ele>142.1</ele>
        <time>2019-07-07T12:13:06Z</time>
      </trkpt>
      <trkpt lat="38.5082290" lon="-28.5122010">
        <ele>142.2</ele>
        <time>2019-07-07T12:13:09Z</time>
      </trkpt>
      <trkpt lat="38.5082550" lon="-28.5121180">
        <ele>142.4</ele>
        <time>2019-07-07T12:13:12Z</time>
      </trkpt>
      <trkpt lat="38.5082630" lon="-28.5120320">
        <ele>142.5</ele>
        <time>2019-07-07T12:13:15Z</time>
      </trkpt>
      <trkpt lat="38.5082700" lon="-28.5118810">
        <ele>142.5</ele>
        <time>2019-07-07T12:13:20Z</time>
      </trkpt>
      <trkpt lat="38.5082090" lon="-28.5116940">
        <ele>143.1</ele>
        <time>2019-07-07T12:13:26Z</time>
      </trkpt>
      <trkpt lat="38.5081380" lon="-28.5115790">
        <ele>144.0</ele>
        <time>2019-07-07T12:13:30Z</time>
      </trkpt>
      <trkpt lat="38.5080620" lon="-28.5114740">
        <ele>144.5</ele>
        <time>2019-07-07T12:13:34Z</time>
      </trkpt>
      <trkpt lat="38.5080440" lon="-28.5114490">
        <ele>144.6</ele>
        <time>2019-07-07T12:13:35Z</time>
      </trkpt>
      <trkpt lat="38.5080080" lon="-28.5113710">
        <ele>145.0</ele>
        <time>2019-07-07T12:13:38Z</time>
      </trkpt>
      <trkpt lat="38.5079780" lon="-28.5112770">
        <ele>145.4</ele>
        <time>2019-07-07T12:13:42Z</time>
      </trkpt>
      <trkpt lat="38.5079460" lon="-28.5111990">
        <ele>145.9</ele>
        <time>2019-07-07T12:13:46Z</time>
      </trkpt>
      <trkpt lat="38.5079500" lon="-28.5111550">
        <ele>146.2</ele>
        <time>2019-07-07T12:13:48Z</time>
      </trkpt>
      <trkpt lat="38.5080190" lon="-28.5110750">
        <ele>147.8</ele>
        <time>2019-07-07T12:13:54Z</time>
      </trkpt>
      <trkpt lat="38.5081490" lon="-28.5109860">
        <ele>148.6</ele>
        <time>2019-07-07T12:14:01Z</time>
      </trkpt>
      <trkpt lat="38.5081910" lon="-28.5109520">
        <ele>149.0</ele>
        <time>2019-07-07T12:14:03Z</time>
      </trkpt>
      <trkpt lat="38.5083060" lon="-28.5108340">
        <ele>150.7</ele>
        <time>2019-07-07T12:14:09Z</time>
      </trkpt>
      <trkpt lat="38.5083280" lon="-28.5108160">
        <ele>150.9</ele>
        <time>2019-07-07T12:14:10Z</time>
      </trkpt>
      <trkpt lat="38.5084250" lon="-28.5107240">
        <ele>151.8</ele>
        <time>2019-07-07T12:14:16Z</time>
      </trkpt>
      <trkpt lat="38.5084330" lon="-28.5107050">
        <ele>152.0</ele>
        <time>2019-07-07T12:14:17Z</time>
      </trkpt>
      <trkpt lat="38.5084490" lon="-28.5106260">
        <ele>152.5</ele>
        <time>2019-07-07T12:14:21Z</time>
      </trkpt>
      <trkpt lat="38.5084520" lon="-28.5105890">
        <ele>152.7</ele>
        <time>2019-07-07T12:14:23Z</time>
      </trkpt>
      <trkpt lat="38.5084520" lon="-28.5105700">
        <ele>152.8</ele>
        <time>2019-07-07T12:14:24Z</time>
      </trkpt>
      <trkpt lat="38.5084600" lon="-28.5104900">
        <ele>153.4</ele>
        <time>2019-07-07T12:14:28Z</time>
      </trkpt>
      <trkpt lat="38.5084670" lon="-28.5104190">
        <ele>154.0</ele>
        <time>2019-07-07T12:14:32Z</time>
      </trkpt>
      <trkpt lat="38.5084690" lon="-28.5104030">
        <ele>154.1</ele>
        <time>2019-07-07T12:14:33Z</time>
      </trkpt>
      <trkpt lat="38.5084680" lon="-28.5103880">
        <ele>154.2</ele>
        <time>2019-07-07T12:14:34Z</time>
      </trkpt>
      <trkpt lat="38.5084620" lon="-28.5103140">
        <ele>154.8</ele>
        <time>2019-07-07T12:14:38Z</time>
      </trkpt>
      <trkpt lat="38.5084640" lon="-28.5102950">
        <ele>154.9</ele>
        <time>2019-07-07T12:14:39Z</time>
      </trkpt>
      <trkpt lat="38.5084660" lon="-28.5102070">
        <ele>155.4</ele>
        <time>2019-07-07T12:14:44Z</time>
      </trkpt>
      <trkpt lat="38.5084690" lon="-28.5101740">
        <ele>155.8</ele>
        <time>2019-07-07T12:14:46Z</time>
      </trkpt>
      <trkpt lat="38.5084710" lon="-28.5101060">
        <ele>156.6</ele>
        <time>2019-07-07T12:14:50Z</time>
      </trkpt>
      <trkpt lat="38.5084690" lon="-28.5100430">
        <ele>157.3</ele>
        <time>2019-07-07T12:14:54Z</time>
      </trkpt>
      <trkpt lat="38.5084680" lon="-28.5100270">
        <ele>157.5</ele>
        <time>2019-07-07T12:14:55Z</time>
      </trkpt>
      <trkpt lat="38.5084620" lon="-28.5099800">
        <ele>158.0</ele>
        <time>2019-07-07T12:14:58Z</time>
      </trkpt>
      <trkpt lat="38.5084510" lon="-28.5099200">
        <ele>158.7</ele>
        <time>2019-07-07T12:15:01Z</time>
      </trkpt>
      <trkpt lat="38.5084370" lon="-28.5098770">
        <ele>159.2</ele>
        <time>2019-07-07T12:15:04Z</time>
      </trkpt>
      <trkpt lat="38.5084070" lon="-28.5098280">
        <ele>159.8</ele>
        <time>2019-07-07T12:15:08Z</time>
      </trkpt>
      <trkpt lat="38.5083910" lon="-28.5098020">
        <ele>160.2</ele>
        <time>2019-07-07T12:15:10Z</time>
      </trkpt>
      <trkpt lat="38.5083710" lon="-28.5097580">
        <ele>160.7</ele>
        <time>2019-07-07T12:15:13Z</time>
      </trkpt>
      <trkpt lat="38.5083400" lon="-28.5096750">
        <ele>161.8</ele>
        <time>2019-07-07T12:15:18Z</time>
      </trkpt>
      <trkpt lat="38.5083230" lon="-28.5095300">
        <ele>163.8</ele>
        <time>2019-07-07T12:15:25Z</time>
      </trkpt>
      <trkpt lat="38.5083280" lon="-28.5094880">
        <ele>164.2</ele>
        <time>2019-07-07T12:15:27Z</time>
      </trkpt>
      <trkpt lat="38.5083470" lon="-28.5093920">
        <ele>165.4</ele>
        <time>2019-07-07T12:15:32Z</time>
      </trkpt>
      <trkpt lat="38.5083550" lon="-28.5093720">
        <ele>165.6</ele>
        <time>2019-07-07T12:15:33Z</time>
      </trkpt>
      <trkpt lat="38.5084180" lon="-28.5092290">
        <ele>167.6</ele>
        <time>2019-07-07T12:15:40Z</time>
      </trkpt>
      <trkpt lat="38.5084380" lon="-28.5091170">
        <ele>169.5</ele>
        <time>2019-07-07T12:15:46Z</time>
      </trkpt>
      <trkpt lat="38.5084460" lon="-28.5090810">
        <ele>170.3</ele>
        <time>2019-07-07T12:15:48Z</time>
      </trkpt>
      <trkpt lat="38.5084500" lon="-28.5090630">
        <ele>170.6</ele>
        <time>2019-07-07T12:15:49Z</time>
      </trkpt>
      <trkpt lat="38.5084750" lon="-28.5089710">
        <ele>172.1</ele>
        <time>2019-07-07T12:15:54Z</time>
      </trkpt>
      <trkpt lat="38.5084820" lon="-28.5089310">
        <ele>172.7</ele>
        <time>2019-07-07T12:15:56Z</time>
      </trkpt>
      <trkpt lat="38.5085110" lon="-28.5088280">
        <ele>173.7</ele>
        <time>2019-07-07T12:16:01Z</time>
      </trkpt>
      <trkpt lat="38.5085360" lon="-28.5087710">
        <ele>174.1</ele>
        <time>2019-07-07T12:16:04Z</time>
      </trkpt>
      <trkpt lat="38.5085650" lon="-28.5087110">
        <ele>175.0</ele>
        <time>2019-07-07T12:16:07Z</time>
      </trkpt>
      <trkpt lat="38.5085980" lon="-28.5086050">
        <ele>176.4</ele>
        <time>2019-07-07T12:16:12Z</time>
      </trkpt>
      <trkpt lat="38.5086110" lon="-28.5085580">
        <ele>177.1</ele>
        <time>2019-07-07T12:16:15Z</time>
      </trkpt>
      <trkpt lat="38.5086210" lon="-28.5084940">
        <ele>178.1</ele>
        <time>2019-07-07T12:16:19Z</time>
      </trkpt>
      <trkpt lat="38.5086390" lon="-28.5084450">
        <ele>179.1</ele>
        <time>2019-07-07T12:16:22Z</time>
      </trkpt>
      <trkpt lat="38.5086670" lon="-28.5084020">
        <ele>179.7</ele>
        <time>2019-07-07T12:16:25Z</time>
      </trkpt>
      <trkpt lat="38.5086770" lon="-28.5083900">
        <ele>179.8</ele>
        <time>2019-07-07T12:16:26Z</time>
      </trkpt>
      <trkpt lat="38.5087130" lon="-28.5083350">
        <ele>180.2</ele>
        <time>2019-07-07T12:16:30Z</time>
      </trkpt>
      <trkpt lat="38.5087270" lon="-28.5083210">
        <ele>180.2</ele>
        <time>2019-07-07T12:16:31Z</time>
      </trkpt>
      <trkpt lat="38.5087710" lon="-28.5082880">
        <ele>180.3</ele>
        <time>2019-07-07T12:16:34Z</time>
      </trkpt>
      <trkpt lat="38.5088370" lon="-28.5082440">
        <ele>180.9</ele>
        <time>2019-07-07T12:16:39Z</time>
      </trkpt>
      <trkpt lat="38.5089380" lon="-28.5081560">
        <ele>181.2</ele>
        <time>2019-07-07T12:16:46Z</time>
      </trkpt>
      <trkpt lat="38.5089690" lon="-28.5081260">
        <ele>181.2</ele>
        <time>2019-07-07T12:16:48Z</time>
      </trkpt>
      <trkpt lat="38.5090230" lon="-28.5080070">
        <ele>183.2</ele>
        <time>2019-07-07T12:16:53Z</time>
      </trkpt>
      <trkpt lat="38.5090160" lon="-28.5078130">
        <ele>185.8</ele>
        <time>2019-07-07T12:16:59Z</time>
      </trkpt>
      <trkpt lat="38.5090110" lon="-28.5076620">
        <ele>187.4</ele>
        <time>2019-07-07T12:17:04Z</time>
      </trkpt>
      <trkpt lat="38.5090020" lon="-28.5075730">
        <ele>188.0</ele>
        <time>2019-07-07T12:17:07Z</time>
      </trkpt>
      <trkpt lat="38.5089990" lon="-28.5074740">
        <ele>188.6</ele>
        <time>2019-07-07T12:17:10Z</time>
      </trkpt>
      <trkpt lat="38.5090020" lon="-28.5073780">
        <ele>188.8</ele>
        <time>2019-07-07T12:17:14Z</time>
      </trkpt>
      <trkpt lat="38.5090030" lon="-28.5073710">
        <ele>188.8</ele>
        <time>2019-07-07T12:17:16Z</time>
      </trkpt>
      <trkpt lat="38.5089940" lon="-28.5073260">
        <ele>189.2</ele>
        <time>2019-07-07T12:18:23Z</time>
      </trkpt>
      <trkpt lat="38.5089800" lon="-28.5073150">
        <ele>189.4</ele>
        <time>2019-07-07T12:18:24Z</time>
      </trkpt>
      <trkpt lat="38.5089450" lon="-28.5072900">
        <ele>189.8</ele>
        <time>2019-07-07T12:18:26Z</time>
      </trkpt>
      <trkpt lat="38.5089110" lon="-28.5072500">
        <ele>190.4</ele>
        <time>2019-07-07T12:18:28Z</time>
      </trkpt>
      <trkpt lat="38.5088720" lon="-28.5072070">
        <ele>190.9</ele>
        <time>2019-07-07T12:18:30Z</time>
      </trkpt>
      <trkpt lat="38.5087750" lon="-28.5071020">
        <ele>192.3</ele>
        <time>2019-07-07T12:18:35Z</time>
      </trkpt>
      <trkpt lat="38.5087080" lon="-28.5070250">
        <ele>193.2</ele>
        <time>2019-07-07T12:18:39Z</time>
      </trkpt>
      <trkpt lat="38.5086790" lon="-28.5069900">
        <ele>193.4</ele>
        <time>2019-07-07T12:18:41Z</time>
      </trkpt>
      <trkpt lat="38.5086360" lon="-28.5069360">
        <ele>193.7</ele>
        <time>2019-07-07T12:18:44Z</time>
      </trkpt>
      <trkpt lat="38.5086130" lon="-28.5068970">
        <ele>193.9</ele>
        <time>2019-07-07T12:18:46Z</time>
      </trkpt>
      <trkpt lat="38.5085950" lon="-28.5068570">
        <ele>194.0</ele>
        <time>2019-07-07T12:18:48Z</time>
      </trkpt>
      <trkpt lat="38.5085810" lon="-28.5067780">
        <ele>194.4</ele>
        <time>2019-07-07T12:18:52Z</time>
      </trkpt>
      <trkpt lat="38.5085760" lon="-28.5067410">
        <ele>194.5</ele>
        <time>2019-07-07T12:18:54Z</time>
      </trkpt>
      <trkpt lat="38.5085740" lon="-28.5067240">
        <ele>194.6</ele>
        <time>2019-07-07T12:18:55Z</time>
      </trkpt>
      <trkpt lat="38.5085730" lon="-28.5067060">
        <ele>194.7</ele>
        <time>2019-07-07T12:18:56Z</time>
      </trkpt>
      <trkpt lat="38.5085730" lon="-28.5066170">
        <ele>195.1</ele>
        <time>2019-07-07T12:19:00Z</time>
      </trkpt>
      <trkpt lat="38.5085740" lon="-28.5065490">
        <ele>195.4</ele>
        <time>2019-07-07T12:19:03Z</time>
      </trkpt>
      <trkpt lat="38.5085270" lon="-28.5064260">
        <ele>195.9</ele>
        <time>2019-07-07T12:19:08Z</time>
      </trkpt>
      <trkpt lat="38.5084010" lon="-28.5063890">
        <ele>196.2</ele>
        <time>2019-07-07T12:19:12Z</time>
      </trkpt>
      <trkpt lat="38.5081980" lon="-28.5064060">
        <ele>196.8</ele>
        <time>2019-07-07T12:19:18Z</time>
      </trkpt>
      <trkpt lat="38.5079810" lon="-28.5064070">
        <ele>197.1</ele>
        <time>2019-07-07T12:19:25Z</time>
      </trkpt>
      <trkpt lat="38.5079560" lon="-28.5064040">
        <ele>197.1</ele>
        <time>2019-07-07T12:19:26Z</time>
      </trkpt>
      <trkpt lat="38.5078320" lon="-28.5063770">
        <ele>197.3</ele>
        <time>2019-07-07T12:19:30Z</time>
      </trkpt>
      <trkpt lat="38.5077980" lon="-28.5063680">
        <ele>197.3</ele>
        <time>2019-07-07T12:19:31Z</time>
      </trkpt>
      <trkpt lat="38.5076080" lon="-28.5063240">
        <ele>197.6</ele>
        <time>2019-07-07T12:19:37Z</time>
      </trkpt>
      <trkpt lat="38.5074450" lon="-28.5062180">
        <ele>195.9</ele>
        <time>2019-07-07T12:19:44Z</time>
      </trkpt>
      <trkpt lat="38.5074400" lon="-28.5061920">
        <ele>195.5</ele>
        <time>2019-07-07T12:19:45Z</time>
      </trkpt>
      <trkpt lat="38.5074640" lon="-28.5061330">
        <ele>194.6</ele>
        <time>2019-07-07T12:19:48Z</time>
      </trkpt>
      <trkpt lat="38.5074930" lon="-28.5061140">
        <ele>194.2</ele>
        <time>2019-07-07T12:19:50Z</time>
      </trkpt>
      <trkpt lat="38.5075500" lon="-28.5060770">
        <ele>193.3</ele>
        <time>2019-07-07T12:19:54Z</time>
      </trkpt>
      <trkpt lat="38.5075910" lon="-28.5060480">
        <ele>192.6</ele>
        <time>2019-07-07T12:19:57Z</time>
      </trkpt>
      <trkpt lat="38.5076060" lon="-28.5060370">
        <ele>192.4</ele>
        <time>2019-07-07T12:19:58Z</time>
      </trkpt>
      <trkpt lat="38.5077220" lon="-28.5059490">
        <ele>190.6</ele>
        <time>2019-07-07T12:20:05Z</time>
      </trkpt>
      <trkpt lat="38.5078050" lon="-28.5058660">
        <ele>189.2</ele>
        <time>2019-07-07T12:20:10Z</time>
      </trkpt>
      <trkpt lat="38.5078520" lon="-28.5058130">
        <ele>188.5</ele>
        <time>2019-07-07T12:20:13Z</time>
      </trkpt>
      <trkpt lat="38.5079930" lon="-28.5056720">
        <ele>187.1</ele>
        <time>2019-07-07T12:20:21Z</time>
      </trkpt>
      <trkpt lat="38.5080170" lon="-28.5056540">
        <ele>186.9</ele>
        <time>2019-07-07T12:20:22Z</time>
      </trkpt>
      <trkpt lat="38.5081460" lon="-28.5055540">
        <ele>186.2</ele>
        <time>2019-07-07T12:20:28Z</time>
      </trkpt>
      <trkpt lat="38.5082820" lon="-28.5054600">
        <ele>185.5</ele>
        <time>2019-07-07T12:20:34Z</time>
      </trkpt>
      <trkpt lat="38.5084450" lon="-28.5053000">
        <ele>185.1</ele>
        <time>2019-07-07T12:20:40Z</time>
      </trkpt>
      <trkpt lat="38.5084940" lon="-28.5050990">
        <ele>185.5</ele>
        <time>2019-07-07T12:20:44Z</time>
      </trkpt>
      <trkpt lat="38.5085060" lon="-28.5049970">
        <ele>186.1</ele>
        <time>2019-07-07T12:20:46Z</time>
      </trkpt>
      <trkpt lat="38.5085350" lon="-28.5048830">
        <ele>187.2</ele>
        <time>2019-07-07T12:20:49Z</time>
      </trkpt>
      <trkpt lat="38.5085590" lon="-28.5048290">
        <ele>187.8</ele>
        <time>2019-07-07T12:20:51Z</time>
      </trkpt>
      <trkpt lat="38.5086080" lon="-28.5047430">
        <ele>189.2</ele>
        <time>2019-07-07T12:20:55Z</time>
      </trkpt>
      <trkpt lat="38.5086210" lon="-28.5047180">
        <ele>189.6</ele>
        <time>2019-07-07T12:20:56Z</time>
      </trkpt>
      <trkpt lat="38.5086760" lon="-28.5046230">
        <ele>191.3</ele>
        <time>2019-07-07T12:21:00Z</time>
      </trkpt>
      <trkpt lat="38.5087220" lon="-28.5045630">
        <ele>192.5</ele>
        <time>2019-07-07T12:21:03Z</time>
      </trkpt>
      <trkpt lat="38.5088130" lon="-28.5044620">
        <ele>194.3</ele>
        <time>2019-07-07T12:21:08Z</time>
      </trkpt>
      <trkpt lat="38.5089770" lon="-28.5043090">
        <ele>196.7</ele>
        <time>2019-07-07T12:21:14Z</time>
      </trkpt>
      <trkpt lat="38.5091690" lon="-28.5041220">
        <ele>200.2</ele>
        <time>2019-07-07T12:21:21Z</time>
      </trkpt>
      <trkpt lat="38.5092120" lon="-28.5040360">
        <ele>201.6</ele>
        <time>2019-07-07T12:21:24Z</time>
      </trkpt>
      <trkpt lat="38.5092220" lon="-28.5039790">
        <ele>202.4</ele>
        <time>2019-07-07T12:21:26Z</time>
      </trkpt>
      <trkpt lat="38.5092220" lon="-28.5039470">
        <ele>202.8</ele>
        <time>2019-07-07T12:21:27Z</time>
      </trkpt>
      <trkpt lat="38.5091990" lon="-28.5038460">
        <ele>204.4</ele>
        <time>2019-07-07T12:21:30Z</time>
      </trkpt>
      <trkpt lat="38.5091880" lon="-28.5038150">
        <ele>204.8</ele>
        <time>2019-07-07T12:21:31Z</time>
      </trkpt>
      <trkpt lat="38.5091070" lon="-28.5037160">
        <ele>206.2</ele>
        <time>2019-07-07T12:21:36Z</time>
      </trkpt>
      <trkpt lat="38.5090880" lon="-28.5036980">
        <ele>206.4</ele>
        <time>2019-07-07T12:21:37Z</time>
      </trkpt>
      <trkpt lat="38.5089330" lon="-28.5035800">
        <ele>208.4</ele>
        <time>2019-07-07T12:21:44Z</time>
      </trkpt>
      <trkpt lat="38.5088680" lon="-28.5035210">
        <ele>209.1</ele>
        <time>2019-07-07T12:21:47Z</time>
      </trkpt>
      <trkpt lat="38.5087600" lon="-28.5034700">
        <ele>210.1</ele>
        <time>2019-07-07T12:21:51Z</time>
      </trkpt>
      <trkpt lat="38.5085940" lon="-28.5033790">
        <ele>211.4</ele>
        <time>2019-07-07T12:21:57Z</time>
      </trkpt>
      <trkpt lat="38.5084940" lon="-28.5033110">
        <ele>212.3</ele>
        <time>2019-07-07T12:22:01Z</time>
      </trkpt>
      <trkpt lat="38.5084390" lon="-28.5032790">
        <ele>212.7</ele>
        <time>2019-07-07T12:22:03Z</time>
      </trkpt>
      <trkpt lat="38.5084100" lon="-28.5032610">
        <ele>212.9</ele>
        <time>2019-07-07T12:22:04Z</time>
      </trkpt>
      <trkpt lat="38.5082840" lon="-28.5031350">
        <ele>213.8</ele>
        <time>2019-07-07T12:22:09Z</time>
      </trkpt>
      <trkpt lat="38.5081180" lon="-28.5028890">
        <ele>215.5</ele>
        <time>2019-07-07T12:22:17Z</time>
      </trkpt>
      <trkpt lat="38.5080270" lon="-28.5026960">
        <ele>216.6</ele>
        <time>2019-07-07T12:22:23Z</time>
      </trkpt>
      <trkpt lat="38.5080040" lon="-28.5026410">
        <ele>217.0</ele>
        <time>2019-07-07T12:22:25Z</time>
      </trkpt>
      <trkpt lat="38.5079680" lon="-28.5025580">
        <ele>217.7</ele>
        <time>2019-07-07T12:22:28Z</time>
      </trkpt>
      <trkpt lat="38.5079320" lon="-28.5024380">
        <ele>218.7</ele>
        <time>2019-07-07T12:22:32Z</time>
      </trkpt>
      <trkpt lat="38.5079280" lon="-28.5024030">
        <ele>219.0</ele>
        <time>2019-07-07T12:22:33Z</time>
      </trkpt>
      <trkpt lat="38.5079100" lon="-28.5021060">
        <ele>221.0</ele>
        <time>2019-07-07T12:22:41Z</time>
      </trkpt>
      <trkpt lat="38.5079190" lon="-28.5017930">
        <ele>222.5</ele>
        <time>2019-07-07T12:22:49Z</time>
      </trkpt>
      <trkpt lat="38.5079200" lon="-28.5017240">
        <ele>222.8</ele>
        <time>2019-07-07T12:22:51Z</time>
      </trkpt>
      <trkpt lat="38.5079180" lon="-28.5016930">
        <ele>222.9</ele>
        <time>2019-07-07T12:22:52Z</time>
      </trkpt>
      <trkpt lat="38.5078820" lon="-28.5014800">
        <ele>224.1</ele>
        <time>2019-07-07T12:22:59Z</time>
      </trkpt>
      <trkpt lat="38.5078580" lon="-28.5013960">
        <ele>224.7</ele>
        <time>2019-07-07T12:23:02Z</time>
      </trkpt>
      <trkpt lat="38.5078320" lon="-28.5013030">
        <ele>225.5</ele>
        <time>2019-07-07T12:23:06Z</time>
      </trkpt>
      <trkpt lat="38.5078180" lon="-28.5012550">
        <ele>225.9</ele>
        <time>2019-07-07T12:23:08Z</time>
      </trkpt>
      <trkpt lat="38.5077540" lon="-28.5011210">
        <ele>227.3</ele>
        <time>2019-07-07T12:23:13Z</time>
      </trkpt>
      <trkpt lat="38.5076480" lon="-28.5009640">
        <ele>229.0</ele>
        <time>2019-07-07T12:23:19Z</time>
      </trkpt>
      <trkpt lat="38.5076040" lon="-28.5009200">
        <ele>229.4</ele>
        <time>2019-07-07T12:23:21Z</time>
      </trkpt>
      <trkpt lat="38.5074250" lon="-28.5007980">
        <ele>230.8</ele>
        <time>2019-07-07T12:23:28Z</time>
      </trkpt>
      <trkpt lat="38.5072930" lon="-28.5008470">
        <ele>231.4</ele>
        <time>2019-07-07T12:23:32Z</time>
      </trkpt>
      <trkpt lat="38.5072610" lon="-28.5008800">
        <ele>231.6</ele>
        <time>2019-07-07T12:23:33Z</time>
      </trkpt>
      <trkpt lat="38.5071180" lon="-28.5010340">
        <ele>232.0</ele>
        <time>2019-07-07T12:23:37Z</time>
      </trkpt>
      <trkpt lat="38.5070770" lon="-28.5010680">
        <ele>232.1</ele>
        <time>2019-07-07T12:23:38Z</time>
      </trkpt>
      <trkpt lat="38.5069040" lon="-28.5011440">
        <ele>232.5</ele>
        <time>2019-07-07T12:23:42Z</time>
      </trkpt>
      <trkpt lat="38.5066750" lon="-28.5012440">
        <ele>233.1</ele>
        <time>2019-07-07T12:23:48Z</time>
      </trkpt>
      <trkpt lat="38.5065710" lon="-28.5012940">
        <ele>233.4</ele>
        <time>2019-07-07T12:23:52Z</time>
      </trkpt>
      <trkpt lat="38.5064300" lon="-28.5013470">
        <ele>233.7</ele>
        <time>2019-07-07T12:23:57Z</time>
      </trkpt>
      <trkpt lat="38.5063950" lon="-28.5013520">
        <ele>233.8</ele>
        <time>2019-07-07T12:23:58Z</time>
      </trkpt>
      <trkpt lat="38.5063140" lon="-28.5013550">
        <ele>234.0</ele>
        <time>2019-07-07T12:24:00Z</time>
      </trkpt>
      <trkpt lat="38.5062040" lon="-28.5013100">
        <ele>234.5</ele>
        <time>2019-07-07T12:24:03Z</time>
      </trkpt>
      <trkpt lat="38.5060410" lon="-28.5011750">
        <ele>235.3</ele>
        <time>2019-07-07T12:24:09Z</time>
      </trkpt>
      <trkpt lat="38.5059680" lon="-28.5011250">
        <ele>235.7</ele>
        <time>2019-07-07T12:24:12Z</time>
      </trkpt>
      <trkpt lat="38.5059130" lon="-28.5010920">
        <ele>236.1</ele>
        <time>2019-07-07T12:24:14Z</time>
      </trkpt>
      <trkpt lat="38.5057960" lon="-28.5010340">
        <ele>236.9</ele>
        <time>2019-07-07T12:24:18Z</time>
      </trkpt>
      <trkpt lat="38.5055650" lon="-28.5009750">
        <ele>238.7</ele>
        <time>2019-07-07T12:24:26Z</time>
      </trkpt>
      <trkpt lat="38.5055230" lon="-28.5009650">
        <ele>239.1</ele>
        <time>2019-07-07T12:24:28Z</time>
      </trkpt>
      <trkpt lat="38.5054470" lon="-28.5009470">
        <ele>239.7</ele>
        <time>2019-07-07T12:24:32Z</time>
      </trkpt>
      <trkpt lat="38.5054050" lon="-28.5009420">
        <ele>240.1</ele>
        <time>2019-07-07T12:24:34Z</time>
      </trkpt>
      <trkpt lat="38.5052790" lon="-28.5009160">
        <ele>241.2</ele>
        <time>2019-07-07T12:24:41Z</time>
      </trkpt>
      <trkpt lat="38.5052620" lon="-28.5009070">
        <ele>241.3</ele>
        <time>2019-07-07T12:24:42Z</time>
      </trkpt>
      <trkpt lat="38.5051730" lon="-28.5008040">
        <ele>242.4</ele>
        <time>2019-07-07T12:24:48Z</time>
      </trkpt>
      <trkpt lat="38.5051600" lon="-28.5007850">
        <ele>242.6</ele>
        <time>2019-07-07T12:24:49Z</time>
      </trkpt>
      <trkpt lat="38.5050870" lon="-28.5006490">
        <ele>243.9</ele>
        <time>2019-07-07T12:24:56Z</time>
      </trkpt>
      <trkpt lat="38.5050290" lon="-28.5005030">
        <ele>245.2</ele>
        <time>2019-07-07T12:25:04Z</time>
      </trkpt>
      <trkpt lat="38.5050180" lon="-28.5003770">
        <ele>246.0</ele>
        <time>2019-07-07T12:25:10Z</time>
      </trkpt>
      <trkpt lat="38.5050200" lon="-28.5003320">
        <ele>246.3</ele>
        <time>2019-07-07T12:25:12Z</time>
      </trkpt>
      <trkpt lat="38.5050400" lon="-28.5002380">
        <ele>247.0</ele>
        <time>2019-07-07T12:25:16Z</time>
      </trkpt>
      <trkpt lat="38.5050700" lon="-28.5001260">
        <ele>248.1</ele>
        <time>2019-07-07T12:25:21Z</time>
      </trkpt>
      <trkpt lat="38.5050750" lon="-28.5001060">
        <ele>248.3</ele>
        <time>2019-07-07T12:25:22Z</time>
      </trkpt>
      <trkpt lat="38.5050830" lon="-28.5000850">
        <ele>248.5</ele>
        <time>2019-07-07T12:25:23Z</time>
      </trkpt>
      <trkpt lat="38.5051200" lon="-28.5000050">
        <ele>249.4</ele>
        <time>2019-07-07T12:25:27Z</time>
      </trkpt>
      <trkpt lat="38.5051420" lon="-28.4999620">
        <ele>249.8</ele>
        <time>2019-07-07T12:25:29Z</time>
      </trkpt>
      <trkpt lat="38.5051800" lon="-28.4999020">
        <ele>250.5</ele>
        <time>2019-07-07T12:25:32Z</time>
      </trkpt>
      <trkpt lat="38.5052880" lon="-28.4997790">
        <ele>251.7</ele>
        <time>2019-07-07T12:25:38Z</time>
      </trkpt>
      <trkpt lat="38.5053690" lon="-28.4997060">
        <ele>252.3</ele>
        <time>2019-07-07T12:25:41Z</time>
      </trkpt>
      <trkpt lat="38.5054660" lon="-28.4996300">
        <ele>253.0</ele>
        <time>2019-07-07T12:25:44Z</time>
      </trkpt>
      <trkpt lat="38.5055780" lon="-28.4995360">
        <ele>254.1</ele>
        <time>2019-07-07T12:25:49Z</time>
      </trkpt>
      <trkpt lat="38.5056700" lon="-28.4994220">
        <ele>254.9</ele>
        <time>2019-07-07T12:25:56Z</time>
      </trkpt>
      <trkpt lat="38.5057220" lon="-28.4992940">
        <ele>255.7</ele>
        <time>2019-07-07T12:26:02Z</time>
      </trkpt>
      <trkpt lat="38.5057400" lon="-28.4992490">
        <ele>256.0</ele>
        <time>2019-07-07T12:26:04Z</time>
      </trkpt>
      <trkpt lat="38.5057680" lon="-28.4991750">
        <ele>256.4</ele>
        <time>2019-07-07T12:26:07Z</time>
      </trkpt>
      <trkpt lat="38.5058230" lon="-28.4990400">
        <ele>256.7</ele>
        <time>2019-07-07T12:26:13Z</time>
      </trkpt>
      <trkpt lat="38.5058340" lon="-28.4990160">
        <ele>256.7</ele>
        <time>2019-07-07T12:26:14Z</time>
      </trkpt>
      <trkpt lat="38.5059220" lon="-28.4988630">
        <ele>256.2</ele>
        <time>2019-07-07T12:26:21Z</time>
      </trkpt>
      <trkpt lat="38.5060270" lon="-28.4987230">
        <ele>255.7</ele>
        <time>2019-07-07T12:26:28Z</time>
      </trkpt>
      <trkpt lat="38.5060590" lon="-28.4986740">
        <ele>255.6</ele>
        <time>2019-07-07T12:26:30Z</time>
      </trkpt>
      <trkpt lat="38.5061530" lon="-28.4984840">
        <ele>255.5</ele>
        <time>2019-07-07T12:26:36Z</time>
      </trkpt>
      <trkpt lat="38.5061230" lon="-28.4983290">
        <ele>255.4</ele>
        <time>2019-07-07T12:26:40Z</time>
      </trkpt>
      <trkpt lat="38.5060990" lon="-28.4983030">
        <ele>255.4</ele>
        <time>2019-07-07T12:26:41Z</time>
      </trkpt>
      <trkpt lat="38.5060000" lon="-28.4982370">
        <ele>255.8</ele>
        <time>2019-07-07T12:26:45Z</time>
      </trkpt>
      <trkpt lat="38.5058310" lon="-28.4981530">
        <ele>256.2</ele>
        <time>2019-07-07T12:26:51Z</time>
      </trkpt>
      <trkpt lat="38.5056930" lon="-28.4980630">
        <ele>256.5</ele>
        <time>2019-07-07T12:26:56Z</time>
      </trkpt>
      <trkpt lat="38.5055900" lon="-28.4980310">
        <ele>256.6</ele>
        <time>2019-07-07T12:26:59Z</time>
      </trkpt>
      <trkpt lat="38.5053040" lon="-28.4979980">
        <ele>256.8</ele>
        <time>2019-07-07T12:27:07Z</time>
      </trkpt>
      <trkpt lat="38.5051080" lon="-28.4979060">
        <ele>257.0</ele>
        <time>2019-07-07T12:27:13Z</time>
      </trkpt>
      <trkpt lat="38.5050160" lon="-28.4977990">
        <ele>257.2</ele>
        <time>2019-07-07T12:27:17Z</time>
      </trkpt>
      <trkpt lat="38.5049600" lon="-28.4977180">
        <ele>257.4</ele>
        <time>2019-07-07T12:27:20Z</time>
      </trkpt>
      <trkpt lat="38.5049170" lon="-28.4976680">
        <ele>257.5</ele>
        <time>2019-07-07T12:27:22Z</time>
      </trkpt>
      <trkpt lat="38.5047930" lon="-28.4975580">
        <ele>257.8</ele>
        <time>2019-07-07T12:27:27Z</time>
      </trkpt>
      <trkpt lat="38.5045830" lon="-28.4974520">
        <ele>258.8</ele>
        <time>2019-07-07T12:27:34Z</time>
      </trkpt>
      <trkpt lat="38.5044790" lon="-28.4974280">
        <ele>259.2</ele>
        <time>2019-07-07T12:27:37Z</time>
      </trkpt>
      <trkpt lat="38.5043470" lon="-28.4974040">
        <ele>259.6</ele>
        <time>2019-07-07T12:27:41Z</time>
      </trkpt>
      <trkpt lat="38.5041100" lon="-28.4973580">
        <ele>260.0</ele>
        <time>2019-07-07T12:27:48Z</time>
      </trkpt>
      <trkpt lat="38.5040530" lon="-28.4973420">
        <ele>259.9</ele>
        <time>2019-07-07T12:27:50Z</time>
      </trkpt>
      <trkpt lat="38.5039300" lon="-28.4972550">
        <ele>259.6</ele>
        <time>2019-07-07T12:27:55Z</time>
      </trkpt>
      <trkpt lat="38.5038990" lon="-28.4970810">
        <ele>259.7</ele>
        <time>2019-07-07T12:28:00Z</time>
      </trkpt>
      <trkpt lat="38.5039120" lon="-28.4968070">
        <ele>260.0</ele>
        <time>2019-07-07T12:28:07Z</time>
      </trkpt>
      <trkpt lat="38.5039230" lon="-28.4967520">
        <ele>260.2</ele>
        <time>2019-07-07T12:28:09Z</time>
      </trkpt>
      <trkpt lat="38.5039220" lon="-28.4967300">
        <ele>260.2</ele>
        <time>2019-07-07T12:28:10Z</time>
      </trkpt>
      <trkpt lat="38.5039180" lon="-28.4967100">
        <ele>260.2</ele>
        <time>2019-07-07T12:28:11Z</time>
      </trkpt>
      <trkpt lat="38.5039230" lon="-28.4966700">
        <ele>260.3</ele>
        <time>2019-07-07T12:28:13Z</time>
      </trkpt>
      <trkpt lat="38.5039300" lon="-28.4966510">
        <ele>260.3</ele>
        <time>2019-07-07T12:28:14Z</time>
      </trkpt>
      <trkpt lat="38.5039510" lon="-28.4965620">
        <ele>260.6</ele>
        <time>2019-07-07T12:28:18Z</time>
      </trkpt>
      <trkpt lat="38.5039680" lon="-28.4964950">
        <ele>260.9</ele>
        <time>2019-07-07T12:28:21Z</time>
      </trkpt>
      <trkpt lat="38.5040110" lon="-28.4964130">
        <ele>261.2</ele>
        <time>2019-07-07T12:28:25Z</time>
      </trkpt>
      <trkpt lat="38.5040280" lon="-28.4963960">
        <ele>261.2</ele>
        <time>2019-07-07T12:28:26Z</time>
      </trkpt>
      <trkpt lat="38.5040470" lon="-28.4963830">
        <ele>261.4</ele>
        <time>2019-07-07T12:28:27Z</time>
      </trkpt>
      <trkpt lat="38.5041240" lon="-28.4963260">
        <ele>261.7</ele>
        <time>2019-07-07T12:28:31Z</time>
      </trkpt>
      <trkpt lat="38.5041400" lon="-28.4961880">
        <ele>262.3</ele>
        <time>2019-07-07T12:28:36Z</time>
      </trkpt>
      <trkpt lat="38.5041140" lon="-28.4960360">
        <ele>263.4</ele>
        <time>2019-07-07T12:28:41Z</time>
      </trkpt>
      <trkpt lat="38.5040730" lon="-28.4958960">
        <ele>264.2</ele>
        <time>2019-07-07T12:28:46Z</time>
      </trkpt>
      <trkpt lat="38.5040840" lon="-28.4958650">
        <ele>264.3</ele>
        <time>2019-07-07T12:28:47Z</time>
      </trkpt>
      <trkpt lat="38.5040890" lon="-28.4958320">
        <ele>264.3</ele>
        <time>2019-07-07T12:28:48Z</time>
      </trkpt>
      <trkpt lat="38.5041060" lon="-28.4957560">
        <ele>264.8</ele>
        <time>2019-07-07T12:28:50Z</time>
      </trkpt>
      <trkpt lat="38.5041770" lon="-28.4955430">
        <ele>265.4</ele>
        <time>2019-07-07T12:28:56Z</time>
      </trkpt>
      <trkpt lat="38.5042520" lon="-28.4953380">
        <ele>265.5</ele>
        <time>2019-07-07T12:29:02Z</time>
      </trkpt>
      <trkpt lat="38.5042410" lon="-28.4952650">
        <ele>266.0</ele>
        <time>2019-07-07T12:29:04Z</time>
      </trkpt>
      <trkpt lat="38.5042230" lon="-28.4952040">
        <ele>266.1</ele>
        <time>2019-07-07T12:29:06Z</time>
      </trkpt>
      <trkpt lat="38.5041880" lon="-28.4950920">
        <ele>266.6</ele>
        <time>2019-07-07T12:29:09Z</time>
      </trkpt>
      <trkpt lat="38.5041760" lon="-28.4950300">
        <ele>266.8</ele>
        <time>2019-07-07T12:29:10Z</time>
      </trkpt>
      <trkpt lat="38.5041660" lon="-28.4949680">
        <ele>267.0</ele>
        <time>2019-07-07T12:29:11Z</time>
      </trkpt>
      <trkpt lat="38.5041500" lon="-28.4947200">
        <ele>267.7</ele>
        <time>2019-07-07T12:29:16Z</time>
      </trkpt>
      <trkpt lat="38.5041010" lon="-28.4945030">
        <ele>268.4</ele>
        <time>2019-07-07T12:29:21Z</time>
      </trkpt>
      <trkpt lat="38.5040790" lon="-28.4943330">
        <ele>269.0</ele>
        <time>2019-07-07T12:29:25Z</time>
      </trkpt>
      <trkpt lat="38.5040740" lon="-28.4942440">
        <ele>269.3</ele>
        <time>2019-07-07T12:29:27Z</time>
      </trkpt>
      <trkpt lat="38.5040460" lon="-28.4940020">
        <ele>270.3</ele>
        <time>2019-07-07T12:29:32Z</time>
      </trkpt>
      <trkpt lat="38.5040290" lon="-28.4939190">
        <ele>270.7</ele>
        <time>2019-07-07T12:29:34Z</time>
      </trkpt>
      <trkpt lat="38.5040090" lon="-28.4937090">
        <ele>271.8</ele>
        <time>2019-07-07T12:29:39Z</time>
      </trkpt>
      <trkpt lat="38.5040480" lon="-28.4934960">
        <ele>272.7</ele>
        <time>2019-07-07T12:29:44Z</time>
      </trkpt>
      <trkpt lat="38.5041490" lon="-28.4932870">
        <ele>273.6</ele>
        <time>2019-07-07T12:29:50Z</time>
      </trkpt>
      <trkpt lat="38.5041850" lon="-28.4932430">
        <ele>273.9</ele>
        <time>2019-07-07T12:29:53Z</time>
      </trkpt>
      <trkpt lat="38.5042290" lon="-28.4931960">
        <ele>274.0</ele>
        <time>2019-07-07T12:29:56Z</time>
      </trkpt>
      <trkpt lat="38.5043110" lon="-28.4930380">
        <ele>274.5</ele>
        <time>2019-07-07T12:30:02Z</time>
      </trkpt>
      <trkpt lat="38.5043530" lon="-28.4928680">
        <ele>274.9</ele>
        <time>2019-07-07T12:30:08Z</time>
      </trkpt>
      <trkpt lat="38.5043610" lon="-28.4928450">
        <ele>274.9</ele>
        <time>2019-07-07T12:30:09Z</time>
      </trkpt>
      <trkpt lat="38.5043830" lon="-28.4927730">
        <ele>275.0</ele>
        <time>2019-07-07T12:30:12Z</time>
      </trkpt>
      <trkpt lat="38.5043940" lon="-28.4926990">
        <ele>275.2</ele>
        <time>2019-07-07T12:30:15Z</time>
      </trkpt>
      <trkpt lat="38.5043770" lon="-28.4925980">
        <ele>275.6</ele>
        <time>2019-07-07T12:30:19Z</time>
      </trkpt>
      <trkpt lat="38.5043600" lon="-28.4925550">
        <ele>275.7</ele>
        <time>2019-07-07T12:30:21Z</time>
      </trkpt>
      <trkpt lat="38.5043190" lon="-28.4923900">
        <ele>276.7</ele>
        <time>2019-07-07T12:30:27Z</time>
      </trkpt>
      <trkpt lat="38.5043000" lon="-28.4922930">
        <ele>277.3</ele>
        <time>2019-07-07T12:30:30Z</time>
      </trkpt>
      <trkpt lat="38.5042840" lon="-28.4922040">
        <ele>278.0</ele>
        <time>2019-07-07T12:30:33Z</time>
      </trkpt>
      <trkpt lat="38.5042600" lon="-28.4919340">
        <ele>280.0</ele>
        <time>2019-07-07T12:30:41Z</time>
      </trkpt>
      <trkpt lat="38.5042310" lon="-28.4916740">
        <ele>282.4</ele>
        <time>2019-07-07T12:30:48Z</time>
      </trkpt>
      <trkpt lat="38.5043150" lon="-28.4916580">
        <ele>281.9</ele>
        <time>2019-07-07T12:30:51Z</time>
      </trkpt>
      <trkpt lat="38.5043740" lon="-28.4917060">
        <ele>281.3</ele>
        <time>2019-07-07T12:30:53Z</time>
      </trkpt>
      <trkpt lat="38.5045130" lon="-28.4918160">
        <ele>280.2</ele>
        <time>2019-07-07T12:30:57Z</time>
      </trkpt>
      <trkpt lat="38.5046340" lon="-28.4919110">
        <ele>279.4</ele>
        <time>2019-07-07T12:31:00Z</time>
      </trkpt>
      <trkpt lat="38.5047780" lon="-28.4920190">
        <ele>278.4</ele>
        <time>2019-07-07T12:31:03Z</time>
      </trkpt>
      <trkpt lat="38.5048320" lon="-28.4920540">
        <ele>278.0</ele>
        <time>2019-07-07T12:31:04Z</time>
      </trkpt>
      <trkpt lat="38.5049380" lon="-28.4921170">
        <ele>277.3</ele>
        <time>2019-07-07T12:31:06Z</time>
      </trkpt>
      <trkpt lat="38.5050450" lon="-28.4921660">
        <ele>276.9</ele>
        <time>2019-07-07T12:31:08Z</time>
      </trkpt>
      <trkpt lat="38.5051040" lon="-28.4921940">
        <ele>276.7</ele>
        <time>2019-07-07T12:31:09Z</time>
      </trkpt>
      <trkpt lat="38.5054530" lon="-28.4924050">
        <ele>275.8</ele>
        <time>2019-07-07T12:31:14Z</time>
      </trkpt>
      <trkpt lat="38.5055280" lon="-28.4924530">
        <ele>275.6</ele>
        <time>2019-07-07T12:31:15Z</time>
      </trkpt>
      <trkpt lat="38.5057900" lon="-28.4926660">
        <ele>275.1</ele>
        <time>2019-07-07T12:31:19Z</time>
      </trkpt>
      <trkpt lat="38.5058430" lon="-28.4927280">
        <ele>274.9</ele>
        <time>2019-07-07T12:31:20Z</time>
      </trkpt>
      <trkpt lat="38.5059680" lon="-28.4929410">
        <ele>274.6</ele>
        <time>2019-07-07T12:31:23Z</time>
      </trkpt>
      <trkpt lat="38.5060060" lon="-28.4930040">
        <ele>274.4</ele>
        <time>2019-07-07T12:31:24Z</time>
      </trkpt>
      <trkpt lat="38.5061780" lon="-28.4931310">
        <ele>274.2</ele>
        <time>2019-07-07T12:31:27Z</time>
      </trkpt>
      <trkpt lat="38.5063410" lon="-28.4931810">
        <ele>273.8</ele>
        <time>2019-07-07T12:31:30Z</time>
      </trkpt>
      <trkpt lat="38.5064860" lon="-28.4931500">
        <ele>273.7</ele>
        <time>2019-07-07T12:31:33Z</time>
      </trkpt>
      <trkpt lat="38.5065300" lon="-28.4931360">
        <ele>273.7</ele>
        <time>2019-07-07T12:31:34Z</time>
      </trkpt>
      <trkpt lat="38.5066310" lon="-28.4931420">
        <ele>273.5</ele>
        <time>2019-07-07T12:31:36Z</time>
      </trkpt>
      <trkpt lat="38.5066820" lon="-28.4931570">
        <ele>273.2</ele>
        <time>2019-07-07T12:31:37Z</time>
      </trkpt>
      <trkpt lat="38.5067250" lon="-28.4931670">
        <ele>273.1</ele>
        <time>2019-07-07T12:31:38Z</time>
      </trkpt>
      <trkpt lat="38.5067700" lon="-28.4931630">
        <ele>272.9</ele>
        <time>2019-07-07T12:31:39Z</time>
      </trkpt>
      <trkpt lat="38.5068120" lon="-28.4931530">
        <ele>272.8</ele>
        <time>2019-07-07T12:31:40Z</time>
      </trkpt>
      <trkpt lat="38.5068590" lon="-28.4931460">
        <ele>272.7</ele>
        <time>2019-07-07T12:31:41Z</time>
      </trkpt>
      <trkpt lat="38.5069460" lon="-28.4931800">
        <ele>271.9</ele>
        <time>2019-07-07T12:31:43Z</time>
      </trkpt>
      <trkpt lat="38.5069890" lon="-28.4932190">
        <ele>271.3</ele>
        <time>2019-07-07T12:31:44Z</time>
      </trkpt>
      <trkpt lat="38.5070310" lon="-28.4932620">
        <ele>270.7</ele>
        <time>2019-07-07T12:31:45Z</time>
      </trkpt>
      <trkpt lat="38.5071260" lon="-28.4933500">
        <ele>268.6</ele>
        <time>2019-07-07T12:31:47Z</time>
      </trkpt>
      <trkpt lat="38.5072360" lon="-28.4934420">
        <ele>266.1</ele>
        <time>2019-07-07T12:31:49Z</time>
      </trkpt>
      <trkpt lat="38.5074670" lon="-28.4936460">
        <ele>261.2</ele>
        <time>2019-07-07T12:31:53Z</time>
      </trkpt>
      <trkpt lat="38.5075910" lon="-28.4937650">
        <ele>259.5</ele>
        <time>2019-07-07T12:31:55Z</time>
      </trkpt>
      <trkpt lat="38.5076510" lon="-28.4938320">
        <ele>258.5</ele>
        <time>2019-07-07T12:31:56Z</time>
      </trkpt>
      <trkpt lat="38.5078210" lon="-28.4940360">
        <ele>256.5</ele>
        <time>2019-07-07T12:31:59Z</time>
      </trkpt>
      <trkpt lat="38.5078860" lon="-28.4940920">
        <ele>256.1</ele>
        <time>2019-07-07T12:32:00Z</time>
      </trkpt>
      <trkpt lat="38.5080120" lon="-28.4942030">
        <ele>255.5</ele>
        <time>2019-07-07T12:32:02Z</time>
      </trkpt>
      <trkpt lat="38.5080720" lon="-28.4942520">
        <ele>254.9</ele>
        <time>2019-07-07T12:32:03Z</time>
      </trkpt>
      <trkpt lat="38.5081360" lon="-28.4942900">
        <ele>254.3</ele>
        <time>2019-07-07T12:32:04Z</time>
      </trkpt>
      <trkpt lat="38.5082720" lon="-28.4943160">
        <ele>253.6</ele>
        <time>2019-07-07T12:32:06Z</time>
      </trkpt>
      <trkpt lat="38.5084770" lon="-28.4942950">
        <ele>253.3</ele>
        <time>2019-07-07T12:32:09Z</time>
      </trkpt>
      <trkpt lat="38.5086250" lon="-28.4942840">
        <ele>253.7</ele>
        <time>2019-07-07T12:32:11Z</time>
      </trkpt>
      <trkpt lat="38.5087760" lon="-28.4942450">
        <ele>254.0</ele>
        <time>2019-07-07T12:32:13Z</time>
      </trkpt>
      <trkpt lat="38.5089050" lon="-28.4941840">
        <ele>254.4</ele>
        <time>2019-07-07T12:32:15Z</time>
      </trkpt>
      <trkpt lat="38.5090670" lon="-28.4940790">
        <ele>254.8</ele>
        <time>2019-07-07T12:32:18Z</time>
      </trkpt>
      <trkpt lat="38.5091500" lon="-28.4940350">
        <ele>255.1</ele>
        <time>2019-07-07T12:32:20Z</time>
      </trkpt>
      <trkpt lat="38.5093220" lon="-28.4940850">
        <ele>255.6</ele>
        <time>2019-07-07T12:32:24Z</time>
      </trkpt>
      <trkpt lat="38.5094460" lon="-28.4941590">
        <ele>255.8</ele>
        <time>2019-07-07T12:32:26Z</time>
      </trkpt>
      <trkpt lat="38.5095380" lon="-28.4942770">
        <ele>255.8</ele>
        <time>2019-07-07T12:32:28Z</time>
      </trkpt>
      <trkpt lat="38.5095830" lon="-28.4944270">
        <ele>255.2</ele>
        <time>2019-07-07T12:32:30Z</time>
      </trkpt>
      <trkpt lat="38.5096080" lon="-28.4945070">
        <ele>254.9</ele>
        <time>2019-07-07T12:32:31Z</time>
      </trkpt>
      <trkpt lat="38.5096470" lon="-28.4945800">
        <ele>254.7</ele>
        <time>2019-07-07T12:32:32Z</time>
      </trkpt>
      <trkpt lat="38.5098100" lon="-28.4947560">
        <ele>254.0</ele>
        <time>2019-07-07T12:32:35Z</time>
      </trkpt>
      <trkpt lat="38.5098600" lon="-28.4948220">
        <ele>253.6</ele>
        <time>2019-07-07T12:32:36Z</time>
      </trkpt>
      <trkpt lat="38.5099880" lon="-28.4950330">
        <ele>252.6</ele>
        <time>2019-07-07T12:32:39Z</time>
      </trkpt>
      <trkpt lat="38.5100610" lon="-28.4951690">
        <ele>252.1</ele>
        <time>2019-07-07T12:32:41Z</time>
      </trkpt>
      <trkpt lat="38.5100970" lon="-28.4952300">
        <ele>252.0</ele>
        <time>2019-07-07T12:32:42Z</time>
      </trkpt>
      <trkpt lat="38.5101960" lon="-28.4953140">
        <ele>251.5</ele>
        <time>2019-07-07T12:32:44Z</time>
      </trkpt>
      <trkpt lat="38.5103230" lon="-28.4953560">
        <ele>251.1</ele>
        <time>2019-07-07T12:32:46Z</time>
      </trkpt>
      <trkpt lat="38.5103860" lon="-28.4953770">
        <ele>250.9</ele>
        <time>2019-07-07T12:32:47Z</time>
      </trkpt>
      <trkpt lat="38.5104390" lon="-28.4954090">
        <ele>250.6</ele>
        <time>2019-07-07T12:32:48Z</time>
      </trkpt>
      <trkpt lat="38.5104830" lon="-28.4954630">
        <ele>250.1</ele>
        <time>2019-07-07T12:32:49Z</time>
      </trkpt>
      <trkpt lat="38.5105880" lon="-28.4955980">
        <ele>248.7</ele>
        <time>2019-07-07T12:32:51Z</time>
      </trkpt>
      <trkpt lat="38.5106550" lon="-28.4956610">
        <ele>248.1</ele>
        <time>2019-07-07T12:32:52Z</time>
      </trkpt>
      <trkpt lat="38.5107250" lon="-28.4957210">
        <ele>247.6</ele>
        <time>2019-07-07T12:32:53Z</time>
      </trkpt>
      <trkpt lat="38.5107890" lon="-28.4957880">
        <ele>246.9</ele>
        <time>2019-07-07T12:32:54Z</time>
      </trkpt>
      <trkpt lat="38.5108400" lon="-28.4958610">
        <ele>246.1</ele>
        <time>2019-07-07T12:32:55Z</time>
      </trkpt>
      <trkpt lat="38.5109300" lon="-28.4959770">
        <ele>245.0</ele>
        <time>2019-07-07T12:32:57Z</time>
      </trkpt>
      <trkpt lat="38.5109750" lon="-28.4960300">
        <ele>244.6</ele>
        <time>2019-07-07T12:32:58Z</time>
      </trkpt>
      <trkpt lat="38.5110640" lon="-28.4961460">
        <ele>243.3</ele>
        <time>2019-07-07T12:33:00Z</time>
      </trkpt>
      <trkpt lat="38.5111000" lon="-28.4962060">
        <ele>242.4</ele>
        <time>2019-07-07T12:33:01Z</time>
      </trkpt>
      <trkpt lat="38.5111400" lon="-28.4962610">
        <ele>241.3</ele>
        <time>2019-07-07T12:33:02Z</time>
      </trkpt>
      <trkpt lat="38.5112270" lon="-28.4963620">
        <ele>239.2</ele>
        <time>2019-07-07T12:33:04Z</time>
      </trkpt>
      <trkpt lat="38.5112780" lon="-28.4964050">
        <ele>238.4</ele>
        <time>2019-07-07T12:33:05Z</time>
      </trkpt>
      <trkpt lat="38.5113270" lon="-28.4964560">
        <ele>237.7</ele>
        <time>2019-07-07T12:33:06Z</time>
      </trkpt>
      <trkpt lat="38.5113820" lon="-28.4965030">
        <ele>237.0</ele>
        <time>2019-07-07T12:33:07Z</time>
      </trkpt>
      <trkpt lat="38.5115130" lon="-28.4965730">
        <ele>234.9</ele>
        <time>2019-07-07T12:33:09Z</time>
      </trkpt>
      <trkpt lat="38.5116690" lon="-28.4966130">
        <ele>233.3</ele>
        <time>2019-07-07T12:33:11Z</time>
      </trkpt>
      <trkpt lat="38.5117530" lon="-28.4966390">
        <ele>231.7</ele>
        <time>2019-07-07T12:33:12Z</time>
      </trkpt>
      <trkpt lat="38.5118420" lon="-28.4966680">
        <ele>230.3</ele>
        <time>2019-07-07T12:33:13Z</time>
      </trkpt>
      <trkpt lat="38.5119250" lon="-28.4966910">
        <ele>229.0</ele>
        <time>2019-07-07T12:33:14Z</time>
      </trkpt>
      <trkpt lat="38.5120810" lon="-28.4967440">
        <ele>226.6</ele>
        <time>2019-07-07T12:33:16Z</time>
      </trkpt>
      <trkpt lat="38.5122020" lon="-28.4967970">
        <ele>224.9</ele>
        <time>2019-07-07T12:33:18Z</time>
      </trkpt>
      <trkpt lat="38.5122500" lon="-28.4968500">
        <ele>223.8</ele>
        <time>2019-07-07T12:33:19Z</time>
      </trkpt>
      <trkpt lat="38.5123300" lon="-28.4969370">
        <ele>222.5</ele>
        <time>2019-07-07T12:33:21Z</time>
      </trkpt>
      <trkpt lat="38.5123620" lon="-28.4969700">
        <ele>222.1</ele>
        <time>2019-07-07T12:33:22Z</time>
      </trkpt>
      <trkpt lat="38.5123960" lon="-28.4970030">
        <ele>221.7</ele>
        <time>2019-07-07T12:33:23Z</time>
      </trkpt>
      <trkpt lat="38.5124730" lon="-28.4970750">
        <ele>220.4</ele>
        <time>2019-07-07T12:33:25Z</time>
      </trkpt>
      <trkpt lat="38.5125400" lon="-28.4971730">
        <ele>218.7</ele>
        <time>2019-07-07T12:33:27Z</time>
      </trkpt>
      <trkpt lat="38.5125760" lon="-28.4972140">
        <ele>218.1</ele>
        <time>2019-07-07T12:33:28Z</time>
      </trkpt>
      <trkpt lat="38.5126640" lon="-28.4973050">
        <ele>216.4</ele>
        <time>2019-07-07T12:33:30Z</time>
      </trkpt>
      <trkpt lat="38.5127650" lon="-28.4973870">
        <ele>214.7</ele>
        <time>2019-07-07T12:33:32Z</time>
      </trkpt>
      <trkpt lat="38.5128210" lon="-28.4974240">
        <ele>214.0</ele>
        <time>2019-07-07T12:33:33Z</time>
      </trkpt>
      <trkpt lat="38.5129410" lon="-28.4974940">
        <ele>213.7</ele>
        <time>2019-07-07T12:33:35Z</time>
      </trkpt>
      <trkpt lat="38.5130470" lon="-28.4975790">
        <ele>213.3</ele>
        <time>2019-07-07T12:33:37Z</time>
      </trkpt>
      <trkpt lat="38.5130980" lon="-28.4976220">
        <ele>213.0</ele>
        <time>2019-07-07T12:33:38Z</time>
      </trkpt>
      <trkpt lat="38.5132620" lon="-28.4977370">
        <ele>213.0</ele>
        <time>2019-07-07T12:33:41Z</time>
      </trkpt>
      <trkpt lat="38.5133200" lon="-28.4977650">
        <ele>213.3</ele>
        <time>2019-07-07T12:33:42Z</time>
      </trkpt>
      <trkpt lat="38.5133820" lon="-28.4977880">
        <ele>213.5</ele>
        <time>2019-07-07T12:33:43Z</time>
      </trkpt>
      <trkpt lat="38.5135170" lon="-28.4978320">
        <ele>213.3</ele>
        <time>2019-07-07T12:33:45Z</time>
      </trkpt>
      <trkpt lat="38.5136510" lon="-28.4978710">
        <ele>212.9</ele>
        <time>2019-07-07T12:33:47Z</time>
      </trkpt>
      <trkpt lat="38.5137120" lon="-28.4978990">
        <ele>212.4</ele>
        <time>2019-07-07T12:33:48Z</time>
      </trkpt>
      <trkpt lat="38.5138190" lon="-28.4979650">
        <ele>211.5</ele>
        <time>2019-07-07T12:33:50Z</time>
      </trkpt>
      <trkpt lat="38.5139220" lon="-28.4980130">
        <ele>210.7</ele>
        <time>2019-07-07T12:33:52Z</time>
      </trkpt>
      <trkpt lat="38.5139700" lon="-28.4980320">
        <ele>210.5</ele>
        <time>2019-07-07T12:33:53Z</time>
      </trkpt>
      <trkpt lat="38.5140500" lon="-28.4980670">
        <ele>209.5</ele>
        <time>2019-07-07T12:33:55Z</time>
      </trkpt>
      <trkpt lat="38.5141020" lon="-28.4980810">
        <ele>208.8</ele>
        <time>2019-07-07T12:33:57Z</time>
      </trkpt>
      <trkpt lat="38.5141240" lon="-28.4980780">
        <ele>208.8</ele>
        <time>2019-07-07T12:33:58Z</time>
      </trkpt>
      <trkpt lat="38.5141440" lon="-28.4980660">
        <ele>208.9</ele>
        <time>2019-07-07T12:33:59Z</time>
      </trkpt>
      <trkpt lat="38.5141700" lon="-28.4980200">
        <ele>209.0</ele>
        <time>2019-07-07T12:34:01Z</time>
      </trkpt>
      <trkpt lat="38.5141820" lon="-28.4979610">
        <ele>209.1</ele>
        <time>2019-07-07T12:34:03Z</time>
      </trkpt>
      <trkpt lat="38.5141920" lon="-28.4978020">
        <ele>209.4</ele>
        <time>2019-07-07T12:34:07Z</time>
      </trkpt>
      <trkpt lat="38.5141690" lon="-28.4976380">
        <ele>209.7</ele>
        <time>2019-07-07T12:34:11Z</time>
      </trkpt>
      <trkpt lat="38.5141720" lon="-28.4975890">
        <ele>209.8</ele>
        <time>2019-07-07T12:34:12Z</time>
      </trkpt>
      <trkpt lat="38.5141860" lon="-28.4974880">
        <ele>209.9</ele>
        <time>2019-07-07T12:34:14Z</time>
      </trkpt>
      <trkpt lat="38.5142240" lon="-28.4973360">
        <ele>210.2</ele>
        <time>2019-07-07T12:34:17Z</time>
      </trkpt>
      <trkpt lat="38.5142340" lon="-28.4972850">
        <ele>210.3</ele>
        <time>2019-07-07T12:34:18Z</time>
      </trkpt>
      <trkpt lat="38.5142620" lon="-28.4971350">
        <ele>210.6</ele>
        <time>2019-07-07T12:34:21Z</time>
      </trkpt>
      <trkpt lat="38.5143140" lon="-28.4969220">
        <ele>211.0</ele>
        <time>2019-07-07T12:34:25Z</time>
      </trkpt>
      <trkpt lat="38.5143450" lon="-28.4968130">
        <ele>211.2</ele>
        <time>2019-07-07T12:34:27Z</time>
      </trkpt>
      <trkpt lat="38.5144230" lon="-28.4966540">
        <ele>211.6</ele>
        <time>2019-07-07T12:34:30Z</time>
      </trkpt>
      <trkpt lat="38.5144500" lon="-28.4966010">
        <ele>211.8</ele>
        <time>2019-07-07T12:34:31Z</time>
      </trkpt>
      <trkpt lat="38.5144720" lon="-28.4965480">
        <ele>212.0</ele>
        <time>2019-07-07T12:34:32Z</time>
      </trkpt>
      <trkpt lat="38.5145080" lon="-28.4963620">
        <ele>212.7</ele>
        <time>2019-07-07T12:34:36Z</time>
      </trkpt>
      <trkpt lat="38.5145000" lon="-28.4962670">
        <ele>213.1</ele>
        <time>2019-07-07T12:34:38Z</time>
      </trkpt>
      <trkpt lat="38.5144950" lon="-28.4962250">
        <ele>213.3</ele>
        <time>2019-07-07T12:34:39Z</time>
      </trkpt>
      <trkpt lat="38.5144790" lon="-28.4961460">
        <ele>213.6</ele>
        <time>2019-07-07T12:34:41Z</time>
      </trkpt>
      <trkpt lat="38.5144690" lon="-28.4961090">
        <ele>213.8</ele>
        <time>2019-07-07T12:34:42Z</time>
      </trkpt>
      <trkpt lat="38.5144450" lon="-28.4960130">
        <ele>214.4</ele>
        <time>2019-07-07T12:34:45Z</time>
      </trkpt>
      <trkpt lat="38.5144140" lon="-28.4959120">
        <ele>215.1</ele>
        <time>2019-07-07T12:34:48Z</time>
      </trkpt>
      <trkpt lat="38.5143890" lon="-28.4958500">
        <ele>215.4</ele>
        <time>2019-07-07T12:34:50Z</time>
      </trkpt>
      <trkpt lat="38.5143600" lon="-28.4957050">
        <ele>216.2</ele>
        <time>2019-07-07T12:34:54Z</time>
      </trkpt>
      <trkpt lat="38.5143730" lon="-28.4956240">
        <ele>216.7</ele>
        <time>2019-07-07T12:34:56Z</time>
      </trkpt>
      <trkpt lat="38.5144210" lon="-28.4954250">
        <ele>217.7</ele>
        <time>2019-07-07T12:35:01Z</time>
      </trkpt>
      <trkpt lat="38.5144330" lon="-28.4951650">
        <ele>219.1</ele>
        <time>2019-07-07T12:35:07Z</time>
      </trkpt>
      <trkpt lat="38.5144110" lon="-28.4950280">
        <ele>219.9</ele>
        <time>2019-07-07T12:35:10Z</time>
      </trkpt>
      <trkpt lat="38.5144080" lon="-28.4948450">
        <ele>221.2</ele>
        <time>2019-07-07T12:35:14Z</time>
      </trkpt>
      <trkpt lat="38.5144100" lon="-28.4947980">
        <ele>221.5</ele>
        <time>2019-07-07T12:35:15Z</time>
      </trkpt>
      <trkpt lat="38.5144120" lon="-28.4947000">
        <ele>222.3</ele>
        <time>2019-07-07T12:35:17Z</time>
      </trkpt>
      <trkpt lat="38.5144130" lon="-28.4945630">
        <ele>223.1</ele>
        <time>2019-07-07T12:35:20Z</time>
      </trkpt>
      <trkpt lat="38.5144110" lon="-28.4945190">
        <ele>223.4</ele>
        <time>2019-07-07T12:35:21Z</time>
      </trkpt>
      <trkpt lat="38.5144000" lon="-28.4944370">
        <ele>223.8</ele>
        <time>2019-07-07T12:35:23Z</time>
      </trkpt>
      <trkpt lat="38.5143540" lon="-28.4942910">
        <ele>224.4</ele>
        <time>2019-07-07T12:35:27Z</time>
      </trkpt>
      <trkpt lat="38.5143400" lon="-28.4942560">
        <ele>224.6</ele>
        <time>2019-07-07T12:35:28Z</time>
      </trkpt>
      <trkpt lat="38.5142520" lon="-28.4940440">
        <ele>225.4</ele>
        <time>2019-07-07T12:35:34Z</time>
      </trkpt>
      <trkpt lat="38.5142460" lon="-28.4940040">
        <ele>225.5</ele>
        <time>2019-07-07T12:35:35Z</time>
      </trkpt>
      <trkpt lat="38.5142830" lon="-28.4938500">
        <ele>225.9</ele>
        <time>2019-07-07T12:35:39Z</time>
      </trkpt>
      <trkpt lat="38.5143790" lon="-28.4937930">
        <ele>226.0</ele>
        <time>2019-07-07T12:35:43Z</time>
      </trkpt>
      <trkpt lat="38.5145020" lon="-28.4937870">
        <ele>226.0</ele>
        <time>2019-07-07T12:35:47Z</time>
      </trkpt>
      <trkpt lat="38.5145380" lon="-28.4937890">
        <ele>226.0</ele>
        <time>2019-07-07T12:35:48Z</time>
      </trkpt>
      <trkpt lat="38.5147750" lon="-28.4938880">
        <ele>225.5</ele>
        <time>2019-07-07T12:35:55Z</time>
      </trkpt>
      <trkpt lat="38.5149570" lon="-28.4941060">
        <ele>224.2</ele>
        <time>2019-07-07T12:36:01Z</time>
      </trkpt>
      <trkpt lat="38.5150100" lon="-28.4941840">
        <ele>223.7</ele>
        <time>2019-07-07T12:36:03Z</time>
      </trkpt>
      <trkpt lat="38.5150530" lon="-28.4943010">
        <ele>222.9</ele>
        <time>2019-07-07T12:36:05Z</time>
      </trkpt>
      <trkpt lat="38.5150830" lon="-28.4943740">
        <ele>222.4</ele>
        <time>2019-07-07T12:36:06Z</time>
      </trkpt>
      <trkpt lat="38.5151150" lon="-28.4944460">
        <ele>221.7</ele>
        <time>2019-07-07T12:36:07Z</time>
      </trkpt>
      <trkpt lat="38.5151580" lon="-28.4945040">
        <ele>221.2</ele>
        <time>2019-07-07T12:36:08Z</time>
      </trkpt>
      <trkpt lat="38.5152100" lon="-28.4945490">
        <ele>220.6</ele>
        <time>2019-07-07T12:36:09Z</time>
      </trkpt>
      <trkpt lat="38.5153250" lon="-28.4946670">
        <ele>219.5</ele>
        <time>2019-07-07T12:36:11Z</time>
      </trkpt>
      <trkpt lat="38.5154450" lon="-28.4947960">
        <ele>218.4</ele>
        <time>2019-07-07T12:36:13Z</time>
      </trkpt>
      <trkpt lat="38.5155150" lon="-28.4948480">
        <ele>217.9</ele>
        <time>2019-07-07T12:36:14Z</time>
      </trkpt>
      <trkpt lat="38.5156520" lon="-28.4949110">
        <ele>217.2</ele>
        <time>2019-07-07T12:36:16Z</time>
      </trkpt>
      <trkpt lat="38.5157170" lon="-28.4949500">
        <ele>216.8</ele>
        <time>2019-07-07T12:36:17Z</time>
      </trkpt>
      <trkpt lat="38.5158370" lon="-28.4950720">
        <ele>216.0</ele>
        <time>2019-07-07T12:36:19Z</time>
      </trkpt>
      <trkpt lat="38.5158990" lon="-28.4951340">
        <ele>215.5</ele>
        <time>2019-07-07T12:36:20Z</time>
      </trkpt>
      <trkpt lat="38.5159670" lon="-28.4952050">
        <ele>215.1</ele>
        <time>2019-07-07T12:36:21Z</time>
      </trkpt>
      <trkpt lat="38.5160400" lon="-28.4952740">
        <ele>214.7</ele>
        <time>2019-07-07T12:36:22Z</time>
      </trkpt>
      <trkpt lat="38.5161250" lon="-28.4953230">
        <ele>214.5</ele>
        <time>2019-07-07T12:36:23Z</time>
      </trkpt>
      <trkpt lat="38.5162150" lon="-28.4953470">
        <ele>214.3</ele>
        <time>2019-07-07T12:36:24Z</time>
      </trkpt>
      <trkpt lat="38.5163750" lon="-28.4953890">
        <ele>213.8</ele>
        <time>2019-07-07T12:36:26Z</time>
      </trkpt>
      <trkpt lat="38.5165170" lon="-28.4954750">
        <ele>213.4</ele>
        <time>2019-07-07T12:36:28Z</time>
      </trkpt>
      <trkpt lat="38.5165720" lon="-28.4955380">
        <ele>213.2</ele>
        <time>2019-07-07T12:36:29Z</time>
      </trkpt>
      <trkpt lat="38.5166170" lon="-28.4956150">
        <ele>212.9</ele>
        <time>2019-07-07T12:36:30Z</time>
      </trkpt>
      <trkpt lat="38.5166950" lon="-28.4957870">
        <ele>212.4</ele>
        <time>2019-07-07T12:36:32Z</time>
      </trkpt>
      <trkpt lat="38.5167720" lon="-28.4959920">
        <ele>211.8</ele>
        <time>2019-07-07T12:36:34Z</time>
      </trkpt>
      <trkpt lat="38.5168190" lon="-28.4960890">
        <ele>211.4</ele>
        <time>2019-07-07T12:36:35Z</time>
      </trkpt>
      <trkpt lat="38.5168730" lon="-28.4961790">
        <ele>210.9</ele>
        <time>2019-07-07T12:36:36Z</time>
      </trkpt>
      <trkpt lat="38.5169680" lon="-28.4963400">
        <ele>210.3</ele>
        <time>2019-07-07T12:36:38Z</time>
      </trkpt>
      <trkpt lat="38.5170180" lon="-28.4964040">
        <ele>210.1</ele>
        <time>2019-07-07T12:36:39Z</time>
      </trkpt>
      <trkpt lat="38.5171420" lon="-28.4965050">
        <ele>209.5</ele>
        <time>2019-07-07T12:36:41Z</time>
      </trkpt>
      <trkpt lat="38.5172120" lon="-28.4965460">
        <ele>209.3</ele>
        <time>2019-07-07T12:36:42Z</time>
      </trkpt>
      <trkpt lat="38.5172820" lon="-28.4965900">
        <ele>209.0</ele>
        <time>2019-07-07T12:36:43Z</time>
      </trkpt>
      <trkpt lat="38.5173410" lon="-28.4966400">
        <ele>208.8</ele>
        <time>2019-07-07T12:36:44Z</time>
      </trkpt>
      <trkpt lat="38.5174530" lon="-28.4967500">
        <ele>208.4</ele>
        <time>2019-07-07T12:36:46Z</time>
      </trkpt>
      <trkpt lat="38.5175590" lon="-28.4969660">
        <ele>207.3</ele>
        <time>2019-07-07T12:36:49Z</time>
      </trkpt>
      <trkpt lat="38.5175360" lon="-28.4972330">
        <ele>205.9</ele>
        <time>2019-07-07T12:36:52Z</time>
      </trkpt>
      <trkpt lat="38.5175260" lon="-28.4973210">
        <ele>205.4</ele>
        <time>2019-07-07T12:36:53Z</time>
      </trkpt>
      <trkpt lat="38.5175330" lon="-28.4974060">
        <ele>205.0</ele>
        <time>2019-07-07T12:36:54Z</time>
      </trkpt>
      <trkpt lat="38.5175580" lon="-28.4974890">
        <ele>204.6</ele>
        <time>2019-07-07T12:36:55Z</time>
      </trkpt>
      <trkpt lat="38.5175960" lon="-28.4975700">
        <ele>204.3</ele>
        <time>2019-07-07T12:36:56Z</time>
      </trkpt>
      <trkpt lat="38.5176420" lon="-28.4976510">
        <ele>204.1</ele>
        <time>2019-07-07T12:36:57Z</time>
      </trkpt>
      <trkpt lat="38.5176870" lon="-28.4977360">
        <ele>203.9</ele>
        <time>2019-07-07T12:36:58Z</time>
      </trkpt>
      <trkpt lat="38.5177260" lon="-28.4978270">
        <ele>203.7</ele>
        <time>2019-07-07T12:36:59Z</time>
      </trkpt>
      <trkpt lat="38.5178020" lon="-28.4980150">
        <ele>203.2</ele>
        <time>2019-07-07T12:37:01Z</time>
      </trkpt>
      <trkpt lat="38.5178300" lon="-28.4981120">
        <ele>202.9</ele>
        <time>2019-07-07T12:37:02Z</time>
      </trkpt>
      <trkpt lat="38.5178500" lon="-28.4982110">
        <ele>202.6</ele>
        <time>2019-07-07T12:37:03Z</time>
      </trkpt>
      <trkpt lat="38.5178690" lon="-28.4983090">
        <ele>202.3</ele>
        <time>2019-07-07T12:37:04Z</time>
      </trkpt>
      <trkpt lat="38.5178970" lon="-28.4984060">
        <ele>202.0</ele>
        <time>2019-07-07T12:37:05Z</time>
      </trkpt>
      <trkpt lat="38.5179680" lon="-28.4986000">
        <ele>201.0</ele>
        <time>2019-07-07T12:37:07Z</time>
      </trkpt>
      <trkpt lat="38.5179970" lon="-28.4986920">
        <ele>200.6</ele>
        <time>2019-07-07T12:37:08Z</time>
      </trkpt>
      <trkpt lat="38.5180200" lon="-28.4987750">
        <ele>200.2</ele>
        <time>2019-07-07T12:37:09Z</time>
      </trkpt>
      <trkpt lat="38.5180260" lon="-28.4989110">
        <ele>199.7</ele>
        <time>2019-07-07T12:37:11Z</time>
      </trkpt>
      <trkpt lat="38.5180220" lon="-28.4989810">
        <ele>199.4</ele>
        <time>2019-07-07T12:37:13Z</time>
      </trkpt>
      <trkpt lat="38.5180180" lon="-28.4989980">
        <ele>199.3</ele>
        <time>2019-07-07T12:37:14Z</time>
      </trkpt>
      <trkpt lat="38.5180100" lon="-28.4990250">
        <ele>199.2</ele>
        <time>2019-07-07T12:37:15Z</time>
      </trkpt>
      <trkpt lat="38.5180060" lon="-28.4990580">
        <ele>199.0</ele>
        <time>2019-07-07T12:37:16Z</time>
      </trkpt>
      <trkpt lat="38.5180250" lon="-28.4991410">
        <ele>198.5</ele>
        <time>2019-07-07T12:37:18Z</time>
      </trkpt>
      <trkpt lat="38.5181030" lon="-28.4992990">
        <ele>197.7</ele>
        <time>2019-07-07T12:37:21Z</time>
      </trkpt>
      <trkpt lat="38.5181340" lon="-28.4993550">
        <ele>197.4</ele>
        <time>2019-07-07T12:37:22Z</time>
      </trkpt>
      <trkpt lat="38.5181610" lon="-28.4994150">
        <ele>197.2</ele>
        <time>2019-07-07T12:37:23Z</time>
      </trkpt>
      <trkpt lat="38.5182790" lon="-28.4997450">
        <ele>196.2</ele>
        <time>2019-07-07T12:37:28Z</time>
      </trkpt>
      <trkpt lat="38.5183460" lon="-28.4999270">
        <ele>195.6</ele>
        <time>2019-07-07T12:37:31Z</time>
      </trkpt>
      <trkpt lat="38.5183540" lon="-28.4999780">
        <ele>195.5</ele>
        <time>2019-07-07T12:37:32Z</time>
      </trkpt>
      <trkpt lat="38.5183480" lon="-28.5000230">
        <ele>195.3</ele>
        <time>2019-07-07T12:37:33Z</time>
      </trkpt>
      <trkpt lat="38.5182830" lon="-28.5000820">
        <ele>195.4</ele>
        <time>2019-07-07T12:37:36Z</time>
      </trkpt>
      <trkpt lat="38.5182580" lon="-28.5000930">
        <ele>195.4</ele>
        <time>2019-07-07T12:37:37Z</time>
      </trkpt>
      <trkpt lat="38.5181110" lon="-28.5001800">
        <ele>195.5</ele>
        <time>2019-07-07T12:37:41Z</time>
      </trkpt>
      <trkpt lat="38.5179300" lon="-28.5002130">
        <ele>195.7</ele>
        <time>2019-07-07T12:37:45Z</time>
      </trkpt>
      <trkpt lat="38.5178830" lon="-28.5002050">
        <ele>195.8</ele>
        <time>2019-07-07T12:37:46Z</time>
      </trkpt>
      <trkpt lat="38.5176650" lon="-28.5000730">
        <ele>196.0</ele>
        <time>2019-07-07T12:37:51Z</time>
      </trkpt>
      <trkpt lat="38.5176240" lon="-28.5000390">
        <ele>196.0</ele>
        <time>2019-07-07T12:37:52Z</time>
      </trkpt>
      <trkpt lat="38.5174400" lon="-28.4999340">
        <ele>196.2</ele>
        <time>2019-07-07T12:37:56Z</time>
      </trkpt>
      <trkpt lat="38.5172180" lon="-28.4997610">
        <ele>196.5</ele>
        <time>2019-07-07T12:38:01Z</time>
      </trkpt>
      <trkpt lat="38.5171710" lon="-28.4997360">
        <ele>196.5</ele>
        <time>2019-07-07T12:38:02Z</time>
      </trkpt>
      <trkpt lat="38.5169900" lon="-28.4996280">
        <ele>196.7</ele>
        <time>2019-07-07T12:38:06Z</time>
      </trkpt>
      <trkpt lat="38.5168930" lon="-28.4994000">
        <ele>196.9</ele>
        <time>2019-07-07T12:38:10Z</time>
      </trkpt>
      <trkpt lat="38.5168770" lon="-28.4993430">
        <ele>197.0</ele>
        <time>2019-07-07T12:38:11Z</time>
      </trkpt>
      <trkpt lat="38.5168380" lon="-28.4992330">
        <ele>197.2</ele>
        <time>2019-07-07T12:38:13Z</time>
      </trkpt>
      <trkpt lat="38.5167680" lon="-28.4990670">
        <ele>197.6</ele>
        <time>2019-07-07T12:38:16Z</time>
      </trkpt>
      <trkpt lat="38.5167410" lon="-28.4990110">
        <ele>197.7</ele>
        <time>2019-07-07T12:38:17Z</time>
      </trkpt>
      <trkpt lat="38.5165800" lon="-28.4987400">
        <ele>198.3</ele>
        <time>2019-07-07T12:38:22Z</time>
      </trkpt>
      <trkpt lat="38.5165450" lon="-28.4986930">
        <ele>198.4</ele>
        <time>2019-07-07T12:38:23Z</time>
      </trkpt>
      <trkpt lat="38.5164620" lon="-28.4986420">
        <ele>198.6</ele>
        <time>2019-07-07T12:38:25Z</time>
      </trkpt>
      <trkpt lat="38.5164170" lon="-28.4986460">
        <ele>198.7</ele>
        <time>2019-07-07T12:38:26Z</time>
      </trkpt>
      <trkpt lat="38.5163290" lon="-28.4987000">
        <ele>198.9</ele>
        <time>2019-07-07T12:38:28Z</time>
      </trkpt>
      <trkpt lat="38.5161980" lon="-28.4987860">
        <ele>199.4</ele>
        <time>2019-07-07T12:38:31Z</time>
      </trkpt>
      <trkpt lat="38.5161500" lon="-28.4988120">
        <ele>199.6</ele>
        <time>2019-07-07T12:38:32Z</time>
      </trkpt>
      <trkpt lat="38.5160990" lon="-28.4988390">
        <ele>199.8</ele>
        <time>2019-07-07T12:38:33Z</time>
      </trkpt>
      <trkpt lat="38.5159880" lon="-28.4988890">
        <ele>200.0</ele>
        <time>2019-07-07T12:38:35Z</time>
      </trkpt>
      <trkpt lat="38.5158770" lon="-28.4989170">
        <ele>200.2</ele>
        <time>2019-07-07T12:38:37Z</time>
      </trkpt>
      <trkpt lat="38.5158190" lon="-28.4989270">
        <ele>200.2</ele>
        <time>2019-07-07T12:38:38Z</time>
      </trkpt>
      <trkpt lat="38.5154870" lon="-28.4989850">
        <ele>200.6</ele>
        <time>2019-07-07T12:38:44Z</time>
      </trkpt>
      <trkpt lat="38.5152210" lon="-28.4989870">
        <ele>200.8</ele>
        <time>2019-07-07T12:38:49Z</time>
      </trkpt>
      <trkpt lat="38.5151670" lon="-28.4989760">
        <ele>200.9</ele>
        <time>2019-07-07T12:38:50Z</time>
      </trkpt>
      <trkpt lat="38.5149830" lon="-28.4988370">
        <ele>201.6</ele>
        <time>2019-07-07T12:38:54Z</time>
      </trkpt>
      <trkpt lat="38.5149460" lon="-28.4987920">
        <ele>201.8</ele>
        <time>2019-07-07T12:38:55Z</time>
      </trkpt>
      <trkpt lat="38.5148710" lon="-28.4987130">
        <ele>202.1</ele>
        <time>2019-07-07T12:38:57Z</time>
      </trkpt>
      <trkpt lat="38.5147940" lon="-28.4986630">
        <ele>202.3</ele>
        <time>2019-07-07T12:38:59Z</time>
      </trkpt>
      <trkpt lat="38.5145790" lon="-28.4985810">
        <ele>202.5</ele>
        <time>2019-07-07T12:39:05Z</time>
      </trkpt>
      <trkpt lat="38.5145150" lon="-28.4986230">
        <ele>202.1</ele>
        <time>2019-07-07T12:39:07Z</time>
      </trkpt>
      <trkpt lat="38.5145050" lon="-28.4986680">
        <ele>201.6</ele>
        <time>2019-07-07T12:39:08Z</time>
      </trkpt>
      <trkpt lat="38.5145330" lon="-28.4989210">
        <ele>199.0</ele>
        <time>2019-07-07T12:39:12Z</time>
      </trkpt>
      <trkpt lat="38.5145660" lon="-28.4990730">
        <ele>198.0</ele>
        <time>2019-07-07T12:39:14Z</time>
      </trkpt>
      <trkpt lat="38.5146180" lon="-28.4992230">
        <ele>197.1</ele>
        <time>2019-07-07T12:39:16Z</time>
      </trkpt>
      <trkpt lat="38.5146460" lon="-28.4992990">
        <ele>196.8</ele>
        <time>2019-07-07T12:39:17Z</time>
      </trkpt>
      <trkpt lat="38.5147440" lon="-28.4995410">
        <ele>195.6</ele>
        <time>2019-07-07T12:39:20Z</time>
      </trkpt>
      <trkpt lat="38.5148050" lon="-28.4997150">
        <ele>194.9</ele>
        <time>2019-07-07T12:39:22Z</time>
      </trkpt>
      <trkpt lat="38.5148320" lon="-28.4999020">
        <ele>194.2</ele>
        <time>2019-07-07T12:39:24Z</time>
      </trkpt>
      <trkpt lat="38.5148770" lon="-28.5001030">
        <ele>193.2</ele>
        <time>2019-07-07T12:39:26Z</time>
      </trkpt>
      <trkpt lat="38.5149390" lon="-28.5003140">
        <ele>192.1</ele>
        <time>2019-07-07T12:39:28Z</time>
      </trkpt>
      <trkpt lat="38.5150110" lon="-28.5006290">
        <ele>190.7</ele>
        <time>2019-07-07T12:39:31Z</time>
      </trkpt>
      <trkpt lat="38.5150270" lon="-28.5007310">
        <ele>190.2</ele>
        <time>2019-07-07T12:39:32Z</time>
      </trkpt>
      <trkpt lat="38.5150490" lon="-28.5009340">
        <ele>189.3</ele>
        <time>2019-07-07T12:39:34Z</time>
      </trkpt>
      <trkpt lat="38.5150400" lon="-28.5012460">
        <ele>187.7</ele>
        <time>2019-07-07T12:39:37Z</time>
      </trkpt>
      <trkpt lat="38.5150510" lon="-28.5013430">
        <ele>187.1</ele>
        <time>2019-07-07T12:39:38Z</time>
      </trkpt>
      <trkpt lat="38.5150760" lon="-28.5014310">
        <ele>186.5</ele>
        <time>2019-07-07T12:39:39Z</time>
      </trkpt>
      <trkpt lat="38.5151140" lon="-28.5015080">
        <ele>186.2</ele>
        <time>2019-07-07T12:39:40Z</time>
      </trkpt>
      <trkpt lat="38.5152170" lon="-28.5016260">
        <ele>185.6</ele>
        <time>2019-07-07T12:39:42Z</time>
      </trkpt>
      <trkpt lat="38.5152630" lon="-28.5016800">
        <ele>185.3</ele>
        <time>2019-07-07T12:39:43Z</time>
      </trkpt>
      <trkpt lat="38.5153660" lon="-28.5018980">
        <ele>183.6</ele>
        <time>2019-07-07T12:39:46Z</time>
      </trkpt>
      <trkpt lat="38.5154020" lon="-28.5019890">
        <ele>183.0</ele>
        <time>2019-07-07T12:39:47Z</time>
      </trkpt>
      <trkpt lat="38.5154820" lon="-28.5021850">
        <ele>181.9</ele>
        <time>2019-07-07T12:39:49Z</time>
      </trkpt>
      <trkpt lat="38.5155640" lon="-28.5023860">
        <ele>180.6</ele>
        <time>2019-07-07T12:39:51Z</time>
      </trkpt>
      <trkpt lat="38.5156160" lon="-28.5024840">
        <ele>179.8</ele>
        <time>2019-07-07T12:39:52Z</time>
      </trkpt>
      <trkpt lat="38.5157270" lon="-28.5026590">
        <ele>178.3</ele>
        <time>2019-07-07T12:39:54Z</time>
      </trkpt>
      <trkpt lat="38.5157730" lon="-28.5027340">
        <ele>177.5</ele>
        <time>2019-07-07T12:39:55Z</time>
      </trkpt>
      <trkpt lat="38.5158060" lon="-28.5028130">
        <ele>176.8</ele>
        <time>2019-07-07T12:39:56Z</time>
      </trkpt>
      <trkpt lat="38.5158390" lon="-28.5029990">
        <ele>175.4</ele>
        <time>2019-07-07T12:39:58Z</time>
      </trkpt>
      <trkpt lat="38.5158920" lon="-28.5032200">
        <ele>174.4</ele>
        <time>2019-07-07T12:40:00Z</time>
      </trkpt>
      <trkpt lat="38.5159300" lon="-28.5033380">
        <ele>174.1</ele>
        <time>2019-07-07T12:40:01Z</time>
      </trkpt>
      <trkpt lat="38.5159700" lon="-28.5034560">
        <ele>173.8</ele>
        <time>2019-07-07T12:40:02Z</time>
      </trkpt>
      <trkpt lat="38.5160560" lon="-28.5036900">
        <ele>173.4</ele>
        <time>2019-07-07T12:40:04Z</time>
      </trkpt>
      <trkpt lat="38.5161820" lon="-28.5040080">
        <ele>172.7</ele>
        <time>2019-07-07T12:40:07Z</time>
      </trkpt>
      <trkpt lat="38.5162490" lon="-28.5041750">
        <ele>172.6</ele>
        <time>2019-07-07T12:40:09Z</time>
      </trkpt>
      <trkpt lat="38.5162960" lon="-28.5042470">
        <ele>172.5</ele>
        <time>2019-07-07T12:40:10Z</time>
      </trkpt>
      <trkpt lat="38.5164080" lon="-28.5043810">
        <ele>172.1</ele>
        <time>2019-07-07T12:40:12Z</time>
      </trkpt>
      <trkpt lat="38.5164630" lon="-28.5044530">
        <ele>171.9</ele>
        <time>2019-07-07T12:40:13Z</time>
      </trkpt>
      <trkpt lat="38.5165610" lon="-28.5046230">
        <ele>171.7</ele>
        <time>2019-07-07T12:40:15Z</time>
      </trkpt>
      <trkpt lat="38.5167730" lon="-28.5051290">
        <ele>169.2</ele>
        <time>2019-07-07T12:40:20Z</time>
      </trkpt>
      <trkpt lat="38.5168200" lon="-28.5052300">
        <ele>168.3</ele>
        <time>2019-07-07T12:40:21Z</time>
      </trkpt>
      <trkpt lat="38.5169050" lon="-28.5054380">
        <ele>166.6</ele>
        <time>2019-07-07T12:40:23Z</time>
      </trkpt>
      <trkpt lat="38.5169600" lon="-28.5056750">
        <ele>165.1</ele>
        <time>2019-07-07T12:40:25Z</time>
      </trkpt>
      <trkpt lat="38.5170400" lon="-28.5059080">
        <ele>163.9</ele>
        <time>2019-07-07T12:40:27Z</time>
      </trkpt>
      <trkpt lat="38.5170750" lon="-28.5060260">
        <ele>163.3</ele>
        <time>2019-07-07T12:40:28Z</time>
      </trkpt>
      <trkpt lat="38.5171070" lon="-28.5061440">
        <ele>162.6</ele>
        <time>2019-07-07T12:40:29Z</time>
      </trkpt>
      <trkpt lat="38.5172110" lon="-28.5063420">
        <ele>161.2</ele>
        <time>2019-07-07T12:40:31Z</time>
      </trkpt>
      <trkpt lat="38.5172800" lon="-28.5064190">
        <ele>160.5</ele>
        <time>2019-07-07T12:40:32Z</time>
      </trkpt>
      <trkpt lat="38.5173530" lon="-28.5064910">
        <ele>160.1</ele>
        <time>2019-07-07T12:40:33Z</time>
      </trkpt>
      <trkpt lat="38.5174290" lon="-28.5065640">
        <ele>159.7</ele>
        <time>2019-07-07T12:40:34Z</time>
      </trkpt>
      <trkpt lat="38.5176340" lon="-28.5067710">
        <ele>158.4</ele>
        <time>2019-07-07T12:40:37Z</time>
      </trkpt>
      <trkpt lat="38.5176860" lon="-28.5068200">
        <ele>157.8</ele>
        <time>2019-07-07T12:40:38Z</time>
      </trkpt>
      <trkpt lat="38.5177750" lon="-28.5068630">
        <ele>157.9</ele>
        <time>2019-07-07T12:40:40Z</time>
      </trkpt>
      <trkpt lat="38.5178500" lon="-28.5068550">
        <ele>157.9</ele>
        <time>2019-07-07T12:40:42Z</time>
      </trkpt>
      <trkpt lat="38.5179690" lon="-28.5068360">
        <ele>157.8</ele>
        <time>2019-07-07T12:40:45Z</time>
      </trkpt>
      <trkpt lat="38.5180650" lon="-28.5068140">
        <ele>157.7</ele>
        <time>2019-07-07T12:40:47Z</time>
      </trkpt>
      <trkpt lat="38.5181650" lon="-28.5067480">
        <ele>157.5</ele>
        <time>2019-07-07T12:40:49Z</time>
      </trkpt>
      <trkpt lat="38.5182890" lon="-28.5065610">
        <ele>157.1</ele>
        <time>2019-07-07T12:40:52Z</time>
      </trkpt>
      <trkpt lat="38.5183230" lon="-28.5064920">
        <ele>157.0</ele>
        <time>2019-07-07T12:40:53Z</time>
      </trkpt>
      <trkpt lat="38.5183580" lon="-28.5064370">
        <ele>156.9</ele>
        <time>2019-07-07T12:40:54Z</time>
      </trkpt>
      <trkpt lat="38.5184290" lon="-28.5064210">
        <ele>156.9</ele>
        <time>2019-07-07T12:40:56Z</time>
      </trkpt>
      <trkpt lat="38.5185020" lon="-28.5065680">
        <ele>156.9</ele>
        <time>2019-07-07T12:40:59Z</time>
      </trkpt>
      <trkpt lat="38.5185300" lon="-28.5066270">
        <ele>156.9</ele>
        <time>2019-07-07T12:41:00Z</time>
      </trkpt>
      <trkpt lat="38.5186170" lon="-28.5066970">
        <ele>156.9</ele>
        <time>2019-07-07T12:41:02Z</time>
      </trkpt>
      <trkpt lat="38.5186710" lon="-28.5066980">
        <ele>156.9</ele>
        <time>2019-07-07T12:41:03Z</time>
      </trkpt>
      <trkpt lat="38.5187840" lon="-28.5066670">
        <ele>156.9</ele>
        <time>2019-07-07T12:41:05Z</time>
      </trkpt>
      <trkpt lat="38.5188980" lon="-28.5066290">
        <ele>157.0</ele>
        <time>2019-07-07T12:41:07Z</time>
      </trkpt>
      <trkpt lat="38.5189510" lon="-28.5066200">
        <ele>157.0</ele>
        <time>2019-07-07T12:41:08Z</time>
      </trkpt>
      <trkpt lat="38.5190270" lon="-28.5066760">
        <ele>157.0</ele>
        <time>2019-07-07T12:41:10Z</time>
      </trkpt>
      <trkpt lat="38.5190970" lon="-28.5068540">
        <ele>157.0</ele>
        <time>2019-07-07T12:41:13Z</time>
      </trkpt>
      <trkpt lat="38.5191200" lon="-28.5069110">
        <ele>157.0</ele>
        <time>2019-07-07T12:41:14Z</time>
      </trkpt>
      <trkpt lat="38.5191510" lon="-28.5069430">
        <ele>157.0</ele>
        <time>2019-07-07T12:41:15Z</time>
      </trkpt>
      <trkpt lat="38.5192720" lon="-28.5069330">
        <ele>157.0</ele>
        <time>2019-07-07T12:41:18Z</time>
      </trkpt>
      <trkpt lat="38.5195430" lon="-28.5068110">
        <ele>157.1</ele>
        <time>2019-07-07T12:41:23Z</time>
      </trkpt>
      <trkpt lat="38.5197390" lon="-28.5067140">
        <ele>157.1</ele>
        <time>2019-07-07T12:41:26Z</time>
      </trkpt>
      <trkpt lat="38.5197930" lon="-28.5066980">
        <ele>157.1</ele>
        <time>2019-07-07T12:41:27Z</time>
      </trkpt>
      <trkpt lat="38.5198390" lon="-28.5067020">
        <ele>157.1</ele>
        <time>2019-07-07T12:41:28Z</time>
      </trkpt>
      <trkpt lat="38.5198770" lon="-28.5067270">
        <ele>157.1</ele>
        <time>2019-07-07T12:41:29Z</time>
      </trkpt>
      <trkpt lat="38.5199280" lon="-28.5068260">
        <ele>157.0</ele>
        <time>2019-07-07T12:41:31Z</time>
      </trkpt>
      <trkpt lat="38.5199830" lon="-28.5069490">
        <ele>156.7</ele>
        <time>2019-07-07T12:41:33Z</time>
      </trkpt>
      <trkpt lat="38.5200940" lon="-28.5071900">
        <ele>155.4</ele>
        <time>2019-07-07T12:41:37Z</time>
      </trkpt>
      <trkpt lat="38.5202150" lon="-28.5074340">
        <ele>153.6</ele>
        <time>2019-07-07T12:41:41Z</time>
      </trkpt>
      <trkpt lat="38.5202750" lon="-28.5075770">
        <ele>152.3</ele>
        <time>2019-07-07T12:41:43Z</time>
      </trkpt>
      <trkpt lat="38.5203150" lon="-28.5076520">
        <ele>151.4</ele>
        <time>2019-07-07T12:41:44Z</time>
      </trkpt>
      <trkpt lat="38.5204070" lon="-28.5078040">
        <ele>149.5</ele>
        <time>2019-07-07T12:41:46Z</time>
      </trkpt>
      <trkpt lat="38.5204450" lon="-28.5078840">
        <ele>148.6</ele>
        <time>2019-07-07T12:41:47Z</time>
      </trkpt>
      <trkpt lat="38.5204700" lon="-28.5079710">
        <ele>147.7</ele>
        <time>2019-07-07T12:41:48Z</time>
      </trkpt>
      <trkpt lat="38.5205060" lon="-28.5081580">
        <ele>146.3</ele>
        <time>2019-07-07T12:41:50Z</time>
      </trkpt>
      <trkpt lat="38.5205310" lon="-28.5082500">
        <ele>145.7</ele>
        <time>2019-07-07T12:41:51Z</time>
      </trkpt>
      <trkpt lat="38.5206650" lon="-28.5084890">
        <ele>144.1</ele>
        <time>2019-07-07T12:41:54Z</time>
      </trkpt>
      <trkpt lat="38.5207090" lon="-28.5085640">
        <ele>143.6</ele>
        <time>2019-07-07T12:41:55Z</time>
      </trkpt>
      <trkpt lat="38.5207530" lon="-28.5086430">
        <ele>143.1</ele>
        <time>2019-07-07T12:41:56Z</time>
      </trkpt>
      <trkpt lat="38.5208910" lon="-28.5088950">
        <ele>141.1</ele>
        <time>2019-07-07T12:41:59Z</time>
      </trkpt>
      <trkpt lat="38.5209340" lon="-28.5089720">
        <ele>139.6</ele>
        <time>2019-07-07T12:42:00Z</time>
      </trkpt>
      <trkpt lat="38.5209740" lon="-28.5090500">
        <ele>138.4</ele>
        <time>2019-07-07T12:42:01Z</time>
      </trkpt>
      <trkpt lat="38.5210630" lon="-28.5092350">
        <ele>135.9</ele>
        <time>2019-07-07T12:42:03Z</time>
      </trkpt>
      <trkpt lat="38.5211090" lon="-28.5093420">
        <ele>134.8</ele>
        <time>2019-07-07T12:42:04Z</time>
      </trkpt>
      <trkpt lat="38.5211610" lon="-28.5094550">
        <ele>133.6</ele>
        <time>2019-07-07T12:42:05Z</time>
      </trkpt>
      <trkpt lat="38.5212140" lon="-28.5095610">
        <ele>132.1</ele>
        <time>2019-07-07T12:42:06Z</time>
      </trkpt>
      <trkpt lat="38.5212680" lon="-28.5096580">
        <ele>130.7</ele>
        <time>2019-07-07T12:42:07Z</time>
      </trkpt>
      <trkpt lat="38.5213230" lon="-28.5097490">
        <ele>129.2</ele>
        <time>2019-07-07T12:42:08Z</time>
      </trkpt>
      <trkpt lat="38.5213760" lon="-28.5098440">
        <ele>127.9</ele>
        <time>2019-07-07T12:42:09Z</time>
      </trkpt>
      <trkpt lat="38.5215400" lon="-28.5101160">
        <ele>124.8</ele>
        <time>2019-07-07T12:42:12Z</time>
      </trkpt>
      <trkpt lat="38.5215950" lon="-28.5102100">
        <ele>123.9</ele>
        <time>2019-07-07T12:42:13Z</time>
      </trkpt>
      <trkpt lat="38.5216480" lon="-28.5103070">
        <ele>122.8</ele>
        <time>2019-07-07T12:42:14Z</time>
      </trkpt>
      <trkpt lat="38.5217370" lon="-28.5104970">
        <ele>120.6</ele>
        <time>2019-07-07T12:42:16Z</time>
      </trkpt>
      <trkpt lat="38.5218100" lon="-28.5106730">
        <ele>118.6</ele>
        <time>2019-07-07T12:42:18Z</time>
      </trkpt>
      <trkpt lat="38.5218420" lon="-28.5107630">
        <ele>117.7</ele>
        <time>2019-07-07T12:42:19Z</time>
      </trkpt>
      <trkpt lat="38.5218950" lon="-28.5109540">
        <ele>116.0</ele>
        <time>2019-07-07T12:42:21Z</time>
      </trkpt>
      <trkpt lat="38.5219270" lon="-28.5110390">
        <ele>115.4</ele>
        <time>2019-07-07T12:42:22Z</time>
      </trkpt>
      <trkpt lat="38.5219650" lon="-28.5111110">
        <ele>114.9</ele>
        <time>2019-07-07T12:42:23Z</time>
      </trkpt>
      <trkpt lat="38.5220090" lon="-28.5111680">
        <ele>114.5</ele>
        <time>2019-07-07T12:42:24Z</time>
      </trkpt>
      <trkpt lat="38.5220600" lon="-28.5112020">
        <ele>114.1</ele>
        <time>2019-07-07T12:42:25Z</time>
      </trkpt>
      <trkpt lat="38.5221120" lon="-28.5112070">
        <ele>113.8</ele>
        <time>2019-07-07T12:42:26Z</time>
      </trkpt>
      <trkpt lat="38.5222160" lon="-28.5111480">
        <ele>113.0</ele>
        <time>2019-07-07T12:42:28Z</time>
      </trkpt>
      <trkpt lat="38.5222670" lon="-28.5111020">
        <ele>112.5</ele>
        <time>2019-07-07T12:42:29Z</time>
      </trkpt>
      <trkpt lat="38.5224210" lon="-28.5110860">
        <ele>111.3</ele>
        <time>2019-07-07T12:42:32Z</time>
      </trkpt>
      <trkpt lat="38.5225250" lon="-28.5112150">
        <ele>110.6</ele>
        <time>2019-07-07T12:42:35Z</time>
      </trkpt>
      <trkpt lat="38.5226130" lon="-28.5112760">
        <ele>110.5</ele>
        <time>2019-07-07T12:42:37Z</time>
      </trkpt>
      <trkpt lat="38.5226590" lon="-28.5112730">
        <ele>110.5</ele>
        <time>2019-07-07T12:42:38Z</time>
      </trkpt>
      <trkpt lat="38.5227010" lon="-28.5112500">
        <ele>110.5</ele>
        <time>2019-07-07T12:42:39Z</time>
      </trkpt>
      <trkpt lat="38.5227390" lon="-28.5112160">
        <ele>110.6</ele>
        <time>2019-07-07T12:42:40Z</time>
      </trkpt>
      <trkpt lat="38.5227790" lon="-28.5111790">
        <ele>110.6</ele>
        <time>2019-07-07T12:42:41Z</time>
      </trkpt>
      <trkpt lat="38.5228660" lon="-28.5111070">
        <ele>110.7</ele>
        <time>2019-07-07T12:42:43Z</time>
      </trkpt>
      <trkpt lat="38.5229550" lon="-28.5111080">
        <ele>110.8</ele>
        <time>2019-07-07T12:42:45Z</time>
      </trkpt>
      <trkpt lat="38.5230520" lon="-28.5112810">
        <ele>108.8</ele>
        <time>2019-07-07T12:42:48Z</time>
      </trkpt>
      <trkpt lat="38.5231950" lon="-28.5115820">
        <ele>106.2</ele>
        <time>2019-07-07T12:42:52Z</time>
      </trkpt>
      <trkpt lat="38.5232340" lon="-28.5116590">
        <ele>105.6</ele>
        <time>2019-07-07T12:42:53Z</time>
      </trkpt>
      <trkpt lat="38.5232760" lon="-28.5117380">
        <ele>105.1</ele>
        <time>2019-07-07T12:42:54Z</time>
      </trkpt>
      <trkpt lat="38.5233670" lon="-28.5118960">
        <ele>103.8</ele>
        <time>2019-07-07T12:42:56Z</time>
      </trkpt>
      <trkpt lat="38.5235370" lon="-28.5122260">
        <ele>101.7</ele>
        <time>2019-07-07T12:43:00Z</time>
      </trkpt>
      <trkpt lat="38.5235790" lon="-28.5123100">
        <ele>101.3</ele>
        <time>2019-07-07T12:43:01Z</time>
      </trkpt>
      <trkpt lat="38.5236250" lon="-28.5123930">
        <ele>100.8</ele>
        <time>2019-07-07T12:43:02Z</time>
      </trkpt>
      <trkpt lat="38.5236730" lon="-28.5124650">
        <ele>100.3</ele>
        <time>2019-07-07T12:43:03Z</time>
      </trkpt>
      <trkpt lat="38.5237670" lon="-28.5125820">
        <ele>99.4</ele>
        <time>2019-07-07T12:43:05Z</time>
      </trkpt>
      <trkpt lat="38.5238510" lon="-28.5127020">
        <ele>98.9</ele>
        <time>2019-07-07T12:43:07Z</time>
      </trkpt>
      <trkpt lat="38.5239210" lon="-28.5128700">
        <ele>97.8</ele>
        <time>2019-07-07T12:43:09Z</time>
      </trkpt>
      <trkpt lat="38.5240330" lon="-28.5132460">
        <ele>96.0</ele>
        <time>2019-07-07T12:43:13Z</time>
      </trkpt>
      <trkpt lat="38.5240620" lon="-28.5133230">
        <ele>95.7</ele>
        <time>2019-07-07T12:43:14Z</time>
      </trkpt>
      <trkpt lat="38.5241280" lon="-28.5134790">
        <ele>95.2</ele>
        <time>2019-07-07T12:43:16Z</time>
      </trkpt>
      <trkpt lat="38.5242540" lon="-28.5137200">
        <ele>94.4</ele>
        <time>2019-07-07T12:43:19Z</time>
      </trkpt>
      <trkpt lat="38.5242980" lon="-28.5137990">
        <ele>93.8</ele>
        <time>2019-07-07T12:43:20Z</time>
      </trkpt>
      <trkpt lat="38.5243810" lon="-28.5139440">
        <ele>92.5</ele>
        <time>2019-07-07T12:43:22Z</time>
      </trkpt>
      <trkpt lat="38.5244570" lon="-28.5140850">
        <ele>91.4</ele>
        <time>2019-07-07T12:43:24Z</time>
      </trkpt>
      <trkpt lat="38.5244920" lon="-28.5141620">
        <ele>90.6</ele>
        <time>2019-07-07T12:43:25Z</time>
      </trkpt>
      <trkpt lat="38.5246460" lon="-28.5144840">
        <ele>87.2</ele>
        <time>2019-07-07T12:43:29Z</time>
      </trkpt>
      <trkpt lat="38.5246860" lon="-28.5145610">
        <ele>86.3</ele>
        <time>2019-07-07T12:43:30Z</time>
      </trkpt>
      <trkpt lat="38.5247570" lon="-28.5147020">
        <ele>85.0</ele>
        <time>2019-07-07T12:43:32Z</time>
      </trkpt>
      <trkpt lat="38.5248570" lon="-28.5148900">
        <ele>83.2</ele>
        <time>2019-07-07T12:43:35Z</time>
      </trkpt>
      <trkpt lat="38.5248900" lon="-28.5149510">
        <ele>82.9</ele>
        <time>2019-07-07T12:43:36Z</time>
      </trkpt>
      <trkpt lat="38.5249550" lon="-28.5150690">
        <ele>81.8</ele>
        <time>2019-07-07T12:43:38Z</time>
      </trkpt>
      <trkpt lat="38.5250070" lon="-28.5151420">
        <ele>81.7</ele>
        <time>2019-07-07T12:43:40Z</time>
      </trkpt>
      <trkpt lat="38.5250230" lon="-28.5151640">
        <ele>81.5</ele>
        <time>2019-07-07T12:43:41Z</time>
      </trkpt>
      <trkpt lat="38.5250170" lon="-28.5152000">
        <ele>81.3</ele>
        <time>2019-07-07T12:43:43Z</time>
      </trkpt>
      <trkpt lat="38.5249430" lon="-28.5152970">
        <ele>80.7</ele>
        <time>2019-07-07T12:43:48Z</time>
      </trkpt>
      <trkpt lat="38.5248990" lon="-28.5153460">
        <ele>80.6</ele>
        <time>2019-07-07T12:43:53Z</time>
      </trkpt>
      <trkpt lat="38.5248600" lon="-28.5153430">
        <ele>80.4</ele>
        <time>2019-07-07T12:44:13Z</time>
      </trkpt>
      <trkpt lat="38.5248120" lon="-28.5153480">
        <ele>80.3</ele>
        <time>2019-07-07T12:44:15Z</time>
      </trkpt>
      <trkpt lat="38.5247460" lon="-28.5153690">
        <ele>80.0</ele>
        <time>2019-07-07T12:44:17Z</time>
      </trkpt>
      <trkpt lat="38.5246630" lon="-28.5154270">
        <ele>79.7</ele>
        <time>2019-07-07T12:44:19Z</time>
      </trkpt>
      <trkpt lat="38.5243830" lon="-28.5156270">
        <ele>78.8</ele>
        <time>2019-07-07T12:44:24Z</time>
      </trkpt>
      <trkpt lat="38.5240020" lon="-28.5158900">
        <ele>78.0</ele>
        <time>2019-07-07T12:44:31Z</time>
      </trkpt>
      <trkpt lat="38.5237840" lon="-28.5159910">
        <ele>77.3</ele>
        <time>2019-07-07T12:44:35Z</time>
      </trkpt>
      <trkpt lat="38.5237200" lon="-28.5160200">
        <ele>77.1</ele>
        <time>2019-07-07T12:44:36Z</time>
      </trkpt>
      <trkpt lat="38.5236530" lon="-28.5160520">
        <ele>76.9</ele>
        <time>2019-07-07T12:44:37Z</time>
      </trkpt>
      <trkpt lat="38.5235230" lon="-28.5161300">
        <ele>76.6</ele>
        <time>2019-07-07T12:44:39Z</time>
      </trkpt>
      <trkpt lat="38.5233550" lon="-28.5162940">
        <ele>76.3</ele>
        <time>2019-07-07T12:44:42Z</time>
      </trkpt>
      <trkpt lat="38.5233050" lon="-28.5163590">
        <ele>76.2</ele>
        <time>2019-07-07T12:44:43Z</time>
      </trkpt>
      <trkpt lat="38.5230690" lon="-28.5166510">
        <ele>76.3</ele>
        <time>2019-07-07T12:44:48Z</time>
      </trkpt>
      <trkpt lat="38.5227410" lon="-28.5169530">
        <ele>76.4</ele>
        <time>2019-07-07T12:44:55Z</time>
      </trkpt>
      <trkpt lat="38.5226920" lon="-28.5169980">
        <ele>76.5</ele>
        <time>2019-07-07T12:44:56Z</time>
      </trkpt>
      <trkpt lat="38.5223920" lon="-28.5172850">
        <ele>76.6</ele>
        <time>2019-07-07T12:45:03Z</time>
      </trkpt>
      <trkpt lat="38.5221850" lon="-28.5174610">
        <ele>76.6</ele>
        <time>2019-07-07T12:45:08Z</time>
      </trkpt>
      <trkpt lat="38.5220880" lon="-28.5174890">
        <ele>76.6</ele>
        <time>2019-07-07T12:45:10Z</time>
      </trkpt>
      <trkpt lat="38.5219420" lon="-28.5174850">
        <ele>76.7</ele>
        <time>2019-07-07T12:45:13Z</time>
      </trkpt>
      <trkpt lat="38.5218930" lon="-28.5174870">
        <ele>76.8</ele>
        <time>2019-07-07T12:45:14Z</time>
      </trkpt>
      <trkpt lat="38.5218480" lon="-28.5174980">
        <ele>76.8</ele>
        <time>2019-07-07T12:45:15Z</time>
      </trkpt>
      <trkpt lat="38.5216260" lon="-28.5176030">
        <ele>77.0</ele>
        <time>2019-07-07T12:45:21Z</time>
      </trkpt>
      <trkpt lat="38.5213680" lon="-28.5178020">
        <ele>76.9</ele>
        <time>2019-07-07T12:45:29Z</time>
      </trkpt>
      <trkpt lat="38.5213320" lon="-28.5178400">
        <ele>76.7</ele>
        <time>2019-07-07T12:45:30Z</time>
      </trkpt>
      <trkpt lat="38.5212590" lon="-28.5179250">
        <ele>76.4</ele>
        <time>2019-07-07T12:45:32Z</time>
      </trkpt>
      <trkpt lat="38.5212390" lon="-28.5179720">
        <ele>76.2</ele>
        <time>2019-07-07T12:45:33Z</time>
      </trkpt>
      <trkpt lat="38.5212410" lon="-28.5180800">
        <ele>75.1</ele>
        <time>2019-07-07T12:45:35Z</time>
      </trkpt>
      <trkpt lat="38.5212530" lon="-28.5181360">
        <ele>74.8</ele>
        <time>2019-07-07T12:45:36Z</time>
      </trkpt>
      <trkpt lat="38.5212700" lon="-28.5181970">
        <ele>74.4</ele>
        <time>2019-07-07T12:45:37Z</time>
      </trkpt>
      <trkpt lat="38.5213470" lon="-28.5184210">
        <ele>73.1</ele>
        <time>2019-07-07T12:45:40Z</time>
      </trkpt>
      <trkpt lat="38.5213820" lon="-28.5185080">
        <ele>72.7</ele>
        <time>2019-07-07T12:45:41Z</time>
      </trkpt>
      <trkpt lat="38.5215080" lon="-28.5187970">
        <ele>71.5</ele>
        <time>2019-07-07T12:45:44Z</time>
      </trkpt>
      <trkpt lat="38.5215620" lon="-28.5188920">
        <ele>71.2</ele>
        <time>2019-07-07T12:45:45Z</time>
      </trkpt>
      <trkpt lat="38.5216200" lon="-28.5189890">
        <ele>70.8</ele>
        <time>2019-07-07T12:45:46Z</time>
      </trkpt>
      <trkpt lat="38.5217350" lon="-28.5191910">
        <ele>70.2</ele>
        <time>2019-07-07T12:45:48Z</time>
      </trkpt>
      <trkpt lat="38.5218930" lon="-28.5195100">
        <ele>69.2</ele>
        <time>2019-07-07T12:45:51Z</time>
      </trkpt>
      <trkpt lat="38.5220110" lon="-28.5196970">
        <ele>68.5</ele>
        <time>2019-07-07T12:45:53Z</time>
      </trkpt>
      <trkpt lat="38.5220840" lon="-28.5197790">
        <ele>68.1</ele>
        <time>2019-07-07T12:45:54Z</time>
      </trkpt>
      <trkpt lat="38.5221600" lon="-28.5198620">
        <ele>67.6</ele>
        <time>2019-07-07T12:45:55Z</time>
      </trkpt>
      <trkpt lat="38.5222310" lon="-28.5199530">
        <ele>67.1</ele>
        <time>2019-07-07T12:45:56Z</time>
      </trkpt>
      <trkpt lat="38.5223540" lon="-28.5201590">
        <ele>66.1</ele>
        <time>2019-07-07T12:45:58Z</time>
      </trkpt>
      <trkpt lat="38.5224520" lon="-28.5203820">
        <ele>65.3</ele>
        <time>2019-07-07T12:46:00Z</time>
      </trkpt>
      <trkpt lat="38.5224970" lon="-28.5204910">
        <ele>64.8</ele>
        <time>2019-07-07T12:46:01Z</time>
      </trkpt>
      <trkpt lat="38.5225970" lon="-28.5207080">
        <ele>64.1</ele>
        <time>2019-07-07T12:46:03Z</time>
      </trkpt>
      <trkpt lat="38.5226510" lon="-28.5208140">
        <ele>63.6</ele>
        <time>2019-07-07T12:46:04Z</time>
      </trkpt>
      <trkpt lat="38.5227750" lon="-28.5210070">
        <ele>62.8</ele>
        <time>2019-07-07T12:46:06Z</time>
      </trkpt>
      <trkpt lat="38.5228490" lon="-28.5210760">
        <ele>62.4</ele>
        <time>2019-07-07T12:46:07Z</time>
      </trkpt>
      <trkpt lat="38.5230280" lon="-28.5211350">
        <ele>61.8</ele>
        <time>2019-07-07T12:46:09Z</time>
      </trkpt>
      <trkpt lat="38.5231240" lon="-28.5211470">
        <ele>61.2</ele>
        <time>2019-07-07T12:46:10Z</time>
      </trkpt>
      <trkpt lat="38.5234180" lon="-28.5212180">
        <ele>59.8</ele>
        <time>2019-07-07T12:46:13Z</time>
      </trkpt>
      <trkpt lat="38.5235160" lon="-28.5212500">
        <ele>59.3</ele>
        <time>2019-07-07T12:46:14Z</time>
      </trkpt>
      <trkpt lat="38.5238030" lon="-28.5213910">
        <ele>57.8</ele>
        <time>2019-07-07T12:46:17Z</time>
      </trkpt>
      <trkpt lat="38.5238940" lon="-28.5214480">
        <ele>57.4</ele>
        <time>2019-07-07T12:46:18Z</time>
      </trkpt>
      <trkpt lat="38.5239790" lon="-28.5215050">
        <ele>57.0</ele>
        <time>2019-07-07T12:46:19Z</time>
      </trkpt>
      <trkpt lat="38.5240530" lon="-28.5215670">
        <ele>56.7</ele>
        <time>2019-07-07T12:46:20Z</time>
      </trkpt>
      <trkpt lat="38.5241200" lon="-28.5216350">
        <ele>56.6</ele>
        <time>2019-07-07T12:46:21Z</time>
      </trkpt>
      <trkpt lat="38.5241800" lon="-28.5217060">
        <ele>56.5</ele>
        <time>2019-07-07T12:46:22Z</time>
      </trkpt>
      <trkpt lat="38.5242690" lon="-28.5218380">
        <ele>56.3</ele>
        <time>2019-07-07T12:46:24Z</time>
      </trkpt>
      <trkpt lat="38.5242970" lon="-28.5218940">
        <ele>56.2</ele>
        <time>2019-07-07T12:46:25Z</time>
      </trkpt>
      <trkpt lat="38.5243030" lon="-28.5219870">
        <ele>56.1</ele>
        <time>2019-07-07T12:46:27Z</time>
      </trkpt>
      <trkpt lat="38.5242860" lon="-28.5220160">
        <ele>56.1</ele>
        <time>2019-07-07T12:46:28Z</time>
      </trkpt>
      <trkpt lat="38.5242340" lon="-28.5220490">
        <ele>56.1</ele>
        <time>2019-07-07T12:46:30Z</time>
      </trkpt>
      <trkpt lat="38.5241700" lon="-28.5220870">
        <ele>56.1</ele>
        <time>2019-07-07T12:46:32Z</time>
      </trkpt>
      <trkpt lat="38.5240560" lon="-28.5221530">
        <ele>56.1</ele>
        <time>2019-07-07T12:46:35Z</time>
      </trkpt>
      <trkpt lat="38.5240130" lon="-28.5221840">
        <ele>56.1</ele>
        <time>2019-07-07T12:46:36Z</time>
      </trkpt>
      <trkpt lat="38.5239670" lon="-28.5222160">
        <ele>56.1</ele>
        <time>2019-07-07T12:46:37Z</time>
      </trkpt>
      <trkpt lat="38.5238790" lon="-28.5222860">
        <ele>56.1</ele>
        <time>2019-07-07T12:46:39Z</time>
      </trkpt>
      <trkpt lat="38.5237490" lon="-28.5224040">
        <ele>56.0</ele>
        <time>2019-07-07T12:46:42Z</time>
      </trkpt>
      <trkpt lat="38.5237040" lon="-28.5224410">
        <ele>55.9</ele>
        <time>2019-07-07T12:46:43Z</time>
      </trkpt>
      <trkpt lat="38.5235760" lon="-28.5225650">
        <ele>55.5</ele>
        <time>2019-07-07T12:46:46Z</time>
      </trkpt>
      <trkpt lat="38.5234830" lon="-28.5226470">
        <ele>55.0</ele>
        <time>2019-07-07T12:46:48Z</time>
      </trkpt>
      <trkpt lat="38.5234320" lon="-28.5226820">
        <ele>54.8</ele>
        <time>2019-07-07T12:46:49Z</time>
      </trkpt>
      <trkpt lat="38.5232700" lon="-28.5227820">
        <ele>54.4</ele>
        <time>2019-07-07T12:46:52Z</time>
      </trkpt>
      <trkpt lat="38.5231170" lon="-28.5228860">
        <ele>54.4</ele>
        <time>2019-07-07T12:46:55Z</time>
      </trkpt>
      <trkpt lat="38.5230180" lon="-28.5229600">
        <ele>54.4</ele>
        <time>2019-07-07T12:46:57Z</time>
      </trkpt>
      <trkpt lat="38.5228470" lon="-28.5230780">
        <ele>54.4</ele>
        <time>2019-07-07T12:47:00Z</time>
      </trkpt>
      <trkpt lat="38.5227340" lon="-28.5231630">
        <ele>54.4</ele>
        <time>2019-07-07T12:47:02Z</time>
      </trkpt>
      <trkpt lat="38.5226810" lon="-28.5232040">
        <ele>54.4</ele>
        <time>2019-07-07T12:47:03Z</time>
      </trkpt>
      <trkpt lat="38.5224740" lon="-28.5233550">
        <ele>54.4</ele>
        <time>2019-07-07T12:47:07Z</time>
      </trkpt>
      <trkpt lat="38.5223520" lon="-28.5234370">
        <ele>54.4</ele>
        <time>2019-07-07T12:47:09Z</time>
      </trkpt>
      <trkpt lat="38.5220770" lon="-28.5236500">
        <ele>54.4</ele>
        <time>2019-07-07T12:47:14Z</time>
      </trkpt>
      <trkpt lat="38.5218790" lon="-28.5238530">
        <ele>54.4</ele>
        <time>2019-07-07T12:47:18Z</time>
      </trkpt>
      <trkpt lat="38.5218440" lon="-28.5238880">
        <ele>54.4</ele>
        <time>2019-07-07T12:47:19Z</time>
      </trkpt>
      <trkpt lat="38.5217590" lon="-28.5239790">
        <ele>54.4</ele>
        <time>2019-07-07T12:47:22Z</time>
      </trkpt>
      <trkpt lat="38.5216470" lon="-28.5240630">
        <ele>54.4</ele>
        <time>2019-07-07T12:47:25Z</time>
      </trkpt>
      <trkpt lat="38.5214040" lon="-28.5242060">
        <ele>54.4</ele>
        <time>2019-07-07T12:47:31Z</time>
      </trkpt>
      <trkpt lat="38.5212690" lon="-28.5243250">
        <ele>54.4</ele>
        <time>2019-07-07T12:47:35Z</time>
      </trkpt>
      <trkpt lat="38.5212610" lon="-28.5243690">
        <ele>54.4</ele>
        <time>2019-07-07T12:47:36Z</time>
      </trkpt>
      <trkpt lat="38.5213110" lon="-28.5245130">
        <ele>54.0</ele>
        <time>2019-07-07T12:47:39Z</time>
      </trkpt>
      <trkpt lat="38.5213690" lon="-28.5246270">
        <ele>53.7</ele>
        <time>2019-07-07T12:47:41Z</time>
      </trkpt>
      <trkpt lat="38.5214570" lon="-28.5248100">
        <ele>53.0</ele>
        <time>2019-07-07T12:47:44Z</time>
      </trkpt>
      <trkpt lat="38.5214880" lon="-28.5248730">
        <ele>52.8</ele>
        <time>2019-07-07T12:47:45Z</time>
      </trkpt>
      <trkpt lat="38.5215540" lon="-28.5250000">
        <ele>52.1</ele>
        <time>2019-07-07T12:47:47Z</time>
      </trkpt>
      <trkpt lat="38.5215790" lon="-28.5251440">
        <ele>51.5</ele>
        <time>2019-07-07T12:47:49Z</time>
      </trkpt>
      <trkpt lat="38.5215060" lon="-28.5253400">
        <ele>50.4</ele>
        <time>2019-07-07T12:47:52Z</time>
      </trkpt>
      <trkpt lat="38.5214510" lon="-28.5255700">
        <ele>49.1</ele>
        <time>2019-07-07T12:47:55Z</time>
      </trkpt>
      <trkpt lat="38.5215590" lon="-28.5258370">
        <ele>47.7</ele>
        <time>2019-07-07T12:47:58Z</time>
      </trkpt>
      <trkpt lat="38.5216640" lon="-28.5260230">
        <ele>46.7</ele>
        <time>2019-07-07T12:48:00Z</time>
      </trkpt>
      <trkpt lat="38.5217860" lon="-28.5261980">
        <ele>45.8</ele>
        <time>2019-07-07T12:48:02Z</time>
      </trkpt>
      <trkpt lat="38.5218510" lon="-28.5262750">
        <ele>45.4</ele>
        <time>2019-07-07T12:48:03Z</time>
      </trkpt>
      <trkpt lat="38.5221230" lon="-28.5265310">
        <ele>44.1</ele>
        <time>2019-07-07T12:48:07Z</time>
      </trkpt>
      <trkpt lat="38.5221940" lon="-28.5265860">
        <ele>43.9</ele>
        <time>2019-07-07T12:48:08Z</time>
      </trkpt>
      <trkpt lat="38.5223690" lon="-28.5268030">
        <ele>42.9</ele>
        <time>2019-07-07T12:48:11Z</time>
      </trkpt>
      <trkpt lat="38.5224280" lon="-28.5268640">
        <ele>42.4</ele>
        <time>2019-07-07T12:48:12Z</time>
      </trkpt>
      <trkpt lat="38.5225610" lon="-28.5269450">
        <ele>41.8</ele>
        <time>2019-07-07T12:48:14Z</time>
      </trkpt>
      <trkpt lat="38.5227600" lon="-28.5271880">
        <ele>40.6</ele>
        <time>2019-07-07T12:48:17Z</time>
      </trkpt>
      <trkpt lat="38.5228270" lon="-28.5273000">
        <ele>40.4</ele>
        <time>2019-07-07T12:48:18Z</time>
      </trkpt>
      <trkpt lat="38.5229520" lon="-28.5275600">
        <ele>40.2</ele>
        <time>2019-07-07T12:48:20Z</time>
      </trkpt>
      <trkpt lat="38.5229980" lon="-28.5277080">
        <ele>40.1</ele>
        <time>2019-07-07T12:48:21Z</time>
      </trkpt>
      <trkpt lat="38.5230620" lon="-28.5279940">
        <ele>39.6</ele>
        <time>2019-07-07T12:48:23Z</time>
      </trkpt>
      <trkpt lat="38.5230850" lon="-28.5281100">
        <ele>39.3</ele>
        <time>2019-07-07T12:48:24Z</time>
      </trkpt>
      <trkpt lat="38.5231040" lon="-28.5282020">
        <ele>38.9</ele>
        <time>2019-07-07T12:48:25Z</time>
      </trkpt>
      <trkpt lat="38.5231240" lon="-28.5282700">
        <ele>38.6</ele>
        <time>2019-07-07T12:48:26Z</time>
      </trkpt>
      <trkpt lat="38.5231460" lon="-28.5283180">
        <ele>38.4</ele>
        <time>2019-07-07T12:48:27Z</time>
      </trkpt>
      <trkpt lat="38.5231760" lon="-28.5283510">
        <ele>38.2</ele>
        <time>2019-07-07T12:48:28Z</time>
      </trkpt>
      <trkpt lat="38.5232550" lon="-28.5283920">
        <ele>38.2</ele>
        <time>2019-07-07T12:48:30Z</time>
      </trkpt>
      <trkpt lat="38.5233020" lon="-28.5284100">
        <ele>38.3</ele>
        <time>2019-07-07T12:48:31Z</time>
      </trkpt>
      <trkpt lat="38.5233540" lon="-28.5284300">
        <ele>38.3</ele>
        <time>2019-07-07T12:48:32Z</time>
      </trkpt>
      <trkpt lat="38.5235310" lon="-28.5284980">
        <ele>38.2</ele>
        <time>2019-07-07T12:48:35Z</time>
      </trkpt>
      <trkpt lat="38.5239590" lon="-28.5286320">
        <ele>38.0</ele>
        <time>2019-07-07T12:48:41Z</time>
      </trkpt>
      <trkpt lat="38.5244300" lon="-28.5288010">
        <ele>37.6</ele>
        <time>2019-07-07T12:48:47Z</time>
      </trkpt>
      <trkpt lat="38.5246680" lon="-28.5288990">
        <ele>37.5</ele>
        <time>2019-07-07T12:48:50Z</time>
      </trkpt>
      <trkpt lat="38.5248300" lon="-28.5289770">
        <ele>37.4</ele>
        <time>2019-07-07T12:48:52Z</time>
      </trkpt>
      <trkpt lat="38.5249930" lon="-28.5290730">
        <ele>36.8</ele>
        <time>2019-07-07T12:48:54Z</time>
      </trkpt>
      <trkpt lat="38.5251630" lon="-28.5291760">
        <ele>36.0</ele>
        <time>2019-07-07T12:48:56Z</time>
      </trkpt>
      <trkpt lat="38.5256860" lon="-28.5294710">
        <ele>34.2</ele>
        <time>2019-07-07T12:49:02Z</time>
      </trkpt>
      <trkpt lat="38.5257800" lon="-28.5294990">
        <ele>33.8</ele>
        <time>2019-07-07T12:49:03Z</time>
      </trkpt>
      <trkpt lat="38.5259760" lon="-28.5295020">
        <ele>32.8</ele>
        <time>2019-07-07T12:49:05Z</time>
      </trkpt>
      <trkpt lat="38.5260760" lon="-28.5294730">
        <ele>32.2</ele>
        <time>2019-07-07T12:49:06Z</time>
      </trkpt>
      <trkpt lat="38.5261770" lon="-28.5294330">
        <ele>31.8</ele>
        <time>2019-07-07T12:49:07Z</time>
      </trkpt>
      <trkpt lat="38.5264940" lon="-28.5292990">
        <ele>31.0</ele>
        <time>2019-07-07T12:49:10Z</time>
      </trkpt>
      <trkpt lat="38.5266070" lon="-28.5292630">
        <ele>30.6</ele>
        <time>2019-07-07T12:49:11Z</time>
      </trkpt>
      <trkpt lat="38.5267250" lon="-28.5292390">
        <ele>30.0</ele>
        <time>2019-07-07T12:49:12Z</time>
      </trkpt>
      <trkpt lat="38.5269690" lon="-28.5292580">
        <ele>28.7</ele>
        <time>2019-07-07T12:49:14Z</time>
      </trkpt>
      <trkpt lat="38.5272040" lon="-28.5293340">
        <ele>27.6</ele>
        <time>2019-07-07T12:49:16Z</time>
      </trkpt>
      <trkpt lat="38.5275470" lon="-28.5294300">
        <ele>26.8</ele>
        <time>2019-07-07T12:49:19Z</time>
      </trkpt>
      <trkpt lat="38.5278930" lon="-28.5293910">
        <ele>25.4</ele>
        <time>2019-07-07T12:49:22Z</time>
      </trkpt>
      <trkpt lat="38.5283620" lon="-28.5292660">
        <ele>23.1</ele>
        <time>2019-07-07T12:49:26Z</time>
      </trkpt>
      <trkpt lat="38.5284790" lon="-28.5292040">
        <ele>22.6</ele>
        <time>2019-07-07T12:49:27Z</time>
      </trkpt>
      <trkpt lat="38.5287200" lon="-28.5290760">
        <ele>21.5</ele>
        <time>2019-07-07T12:49:29Z</time>
      </trkpt>
      <trkpt lat="38.5288490" lon="-28.5290260">
        <ele>21.2</ele>
        <time>2019-07-07T12:49:30Z</time>
      </trkpt>
      <trkpt lat="38.5289820" lon="-28.5289930">
        <ele>20.8</ele>
        <time>2019-07-07T12:49:31Z</time>
      </trkpt>
      <trkpt lat="38.5291160" lon="-28.5289770">
        <ele>20.3</ele>
        <time>2019-07-07T12:49:32Z</time>
      </trkpt>
      <trkpt lat="38.5293940" lon="-28.5289730">
        <ele>19.3</ele>
        <time>2019-07-07T12:49:34Z</time>
      </trkpt>
      <trkpt lat="38.5295330" lon="-28.5289890">
        <ele>18.9</ele>
        <time>2019-07-07T12:49:35Z</time>
      </trkpt>
      <trkpt lat="38.5296680" lon="-28.5290250">
        <ele>18.5</ele>
        <time>2019-07-07T12:49:36Z</time>
      </trkpt>
      <trkpt lat="38.5297990" lon="-28.5290770">
        <ele>18.2</ele>
        <time>2019-07-07T12:49:37Z</time>
      </trkpt>
      <trkpt lat="38.5299300" lon="-28.5291350">
        <ele>17.8</ele>
        <time>2019-07-07T12:49:38Z</time>
      </trkpt>
      <trkpt lat="38.5301900" lon="-28.5292470">
        <ele>16.6</ele>
        <time>2019-07-07T12:49:40Z</time>
      </trkpt>
      <trkpt lat="38.5305810" lon="-28.5294020">
        <ele>14.9</ele>
        <time>2019-07-07T12:49:43Z</time>
      </trkpt>
      <trkpt lat="38.5309470" lon="-28.5295920">
        <ele>15.3</ele>
        <time>2019-07-07T12:49:46Z</time>
      </trkpt>
      <trkpt lat="38.5311770" lon="-28.5297160">
        <ele>15.5</ele>
        <time>2019-07-07T12:49:48Z</time>
      </trkpt>
      <trkpt lat="38.5315160" lon="-28.5298270">
        <ele>15.9</ele>
        <time>2019-07-07T12:49:51Z</time>
      </trkpt>
      <trkpt lat="38.5316290" lon="-28.5298240">
        <ele>15.9</ele>
        <time>2019-07-07T12:49:52Z</time>
      </trkpt>
      <trkpt lat="38.5319420" lon="-28.5297490">
        <ele>15.6</ele>
        <time>2019-07-07T12:49:55Z</time>
      </trkpt>
      <trkpt lat="38.5320420" lon="-28.5297170">
        <ele>14.8</ele>
        <time>2019-07-07T12:49:56Z</time>
      </trkpt>
      <trkpt lat="38.5326490" lon="-28.5295110">
        <ele>12.4</ele>
        <time>2019-07-07T12:50:02Z</time>
      </trkpt>
      <trkpt lat="38.5327860" lon="-28.5293870">
        <ele>12.3</ele>
        <time>2019-07-07T12:50:04Z</time>
      </trkpt>
      <trkpt lat="38.5328160" lon="-28.5293030">
        <ele>12.3</ele>
        <time>2019-07-07T12:50:05Z</time>
      </trkpt>
      <trkpt lat="38.5327920" lon="-28.5291230">
        <ele>12.8</ele>
        <time>2019-07-07T12:50:07Z</time>
      </trkpt>
      <trkpt lat="38.5327640" lon="-28.5290390">
        <ele>13.0</ele>
        <time>2019-07-07T12:50:08Z</time>
      </trkpt>
      <trkpt lat="38.5326140" lon="-28.5285550">
        <ele>14.0</ele>
        <time>2019-07-07T12:50:14Z</time>
      </trkpt>
      <trkpt lat="38.5325920" lon="-28.5284780">
        <ele>14.0</ele>
        <time>2019-07-07T12:50:15Z</time>
      </trkpt>
      <trkpt lat="38.5325770" lon="-28.5284000">
        <ele>14.1</ele>
        <time>2019-07-07T12:50:16Z</time>
      </trkpt>
      <trkpt lat="38.5326110" lon="-28.5282560">
        <ele>14.0</ele>
        <time>2019-07-07T12:50:18Z</time>
      </trkpt>
      <trkpt lat="38.5327960" lon="-28.5280990">
        <ele>13.7</ele>
        <time>2019-07-07T12:50:21Z</time>
      </trkpt>
      <trkpt lat="38.5328720" lon="-28.5280470">
        <ele>13.6</ele>
        <time>2019-07-07T12:50:22Z</time>
      </trkpt>
      <trkpt lat="38.5331250" lon="-28.5278870">
        <ele>13.3</ele>
        <time>2019-07-07T12:50:25Z</time>
      </trkpt>
      <trkpt lat="38.5336130" lon="-28.5275360">
        <ele>12.7</ele>
        <time>2019-07-07T12:50:31Z</time>
      </trkpt>
      <trkpt lat="38.5336810" lon="-28.5274680">
        <ele>12.7</ele>
        <time>2019-07-07T12:50:32Z</time>
      </trkpt>
      <trkpt lat="38.5338490" lon="-28.5272670">
        <ele>12.9</ele>
        <time>2019-07-07T12:50:35Z</time>
      </trkpt>
      <trkpt lat="38.5339160" lon="-28.5272240">
        <ele>12.6</ele>
        <time>2019-07-07T12:50:36Z</time>
      </trkpt>
      <trkpt lat="38.5340730" lon="-28.5271890">
        <ele>11.7</ele>
        <time>2019-07-07T12:50:38Z</time>
      </trkpt>
      <trkpt lat="38.5341550" lon="-28.5271940">
        <ele>11.4</ele>
        <time>2019-07-07T12:50:39Z</time>
      </trkpt>
      <trkpt lat="38.5342400" lon="-28.5272040">
        <ele>11.2</ele>
        <time>2019-07-07T12:50:40Z</time>
      </trkpt>
      <trkpt lat="38.5346370" lon="-28.5272380">
        <ele>9.8</ele>
        <time>2019-07-07T12:50:45Z</time>
      </trkpt>
      <trkpt lat="38.5346950" lon="-28.5272620">
        <ele>9.7</ele>
        <time>2019-07-07T12:50:46Z</time>
      </trkpt>
      <trkpt lat="38.5347340" lon="-28.5273100">
        <ele>9.5</ele>
        <time>2019-07-07T12:50:47Z</time>
      </trkpt>
      <trkpt lat="38.5347540" lon="-28.5273760">
        <ele>9.4</ele>
        <time>2019-07-07T12:50:48Z</time>
      </trkpt>
      <trkpt lat="38.5347540" lon="-28.5273760">
        <ele>9.4</ele>
        <time>2019-07-07T12:50:50Z</time>
      </trkpt>
    </trkseg>
  </trk>
</gpx>
